Wetterdaten: Dienstag, 26.03.2019
Datum Zeit Temp. A. Feuchte A. Luftdruck Regen Wind Richtung Richtung Sonnenschein ET UV Solar Taupunkt Windchill Windböen
26.03.2019 00:00 0,4 °C 85 % 1023,5 hPa 0,0 mm 5,5 km/h (1 Bft) S-SW 200 ° 0 min 0,000 mm 0,0 UV-I 0 W/m² -1,8 °C -1,4 °C 8,0 km/h (2 Bft)
26.03.2019 00:01 0,4 °C 85 % 1023,4 hPa 0,0 mm 1,2 km/h (1 Bft) S-SW 200 ° 0 min 0,000 mm 0,0 UV-I 0 W/m² -1,8 °C 0,4 °C 4,8 km/h (1 Bft)
26.03.2019 00:02 0,4 °C 85 % 1023,5 hPa 0,0 mm 1,3 km/h (1 Bft) S-SW 201 ° 0 min 0,000 mm 0,0 UV-I 0 W/m² -1,8 °C 0,4 °C 3,2 km/h (1 Bft)
26.03.2019 00:03 0,4 °C 84 % 1023,5 hPa 0,0 mm 4,8 km/h (1 Bft) W-SW 254 ° 0 min 0,000 mm 0,0 UV-I 0 W/m² -2,0 °C -1,0 °C 8,0 km/h (2 Bft)
26.03.2019 00:04 0,5 °C 84 % 1023,5 hPa 0,0 mm 1,5 km/h (1 Bft) W-SW 237 ° 0 min 0,000 mm 0,0 UV-I 0 W/m² -1,9 °C 0,5 °C 4,8 km/h (1 Bft)
26.03.2019 00:05 0,5 °C 84 % 1023,5 hPa 0,0 mm 5,4 km/h (1 Bft) W 259 ° 0 min 0,000 mm 0,0 UV-I 0 W/m² -1,9 °C -1,2 °C 6,4 km/h (2 Bft)
26.03.2019 00:06 0,6 °C 84 % 1023,6 hPa 0,0 mm 3,3 km/h (1 Bft) SW 224 ° 0 min 0,000 mm 0,0 UV-I 0 W/m² -1,8 °C 0,6 °C 4,8 km/h (1 Bft)
26.03.2019 00:07 0,5 °C 84 % 1023,6 hPa 0,0 mm 3,7 km/h (1 Bft) S 180 ° 0 min 0,000 mm 0,0 UV-I 0 W/m² -1,9 °C 0,5 °C 6,4 km/h (2 Bft)
26.03.2019 00:08 0,6 °C 84 % 1023,6 hPa 0,0 mm 4,7 km/h (1 Bft) W-SW 246 ° 0 min 0,000 mm 0,0 UV-I 0 W/m² -1,8 °C -0,8 °C 6,4 km/h (2 Bft)
26.03.2019 00:09 0,6 °C 84 % 1023,6 hPa 0,0 mm 3,2 km/h (1 Bft) W-SW 244 ° 0 min 0,000 mm 0,0 UV-I 0 W/m² -1,8 °C 0,6 °C 6,4 km/h (2 Bft)
26.03.2019 00:10 0,6 °C 84 % 1023,6 hPa 0,0 mm 4,5 km/h (1 Bft) SW 234 ° 0 min 0,000 mm 0,0 UV-I 0 W/m² -1,8 °C 0,6 °C 6,4 km/h (2 Bft)
26.03.2019 00:11 0,6 °C 84 % 1023,6 hPa 0,0 mm 3,0 km/h (1 Bft) W-SW 240 ° 0 min 0,000 mm 0,0 UV-I 0 W/m² -1,8 °C 0,6 °C 4,8 km/h (1 Bft)
26.03.2019 00:12 0,6 °C 84 % 1023,7 hPa 0,0 mm 0,8 km/h (0 Bft) W-SW 239 ° 0 min 0,000 mm 0,0 UV-I 0 W/m² -1,8 °C 0,6 °C 1,6 km/h (1 Bft)
26.03.2019 00:13 0,6 °C 84 % 1023,6 hPa 0,0 mm 3,3 km/h (1 Bft) SW 235 ° 0 min 0,000 mm 0,0 UV-I 0 W/m² -1,8 °C 0,6 °C 4,8 km/h (1 Bft)
26.03.2019 00:14 0,6 °C 84 % 1023,6 hPa 0,0 mm 3,3 km/h (1 Bft) S 190 ° 0 min 0,000 mm 0,0 UV-I 0 W/m² -1,8 °C 0,6 °C 4,8 km/h (1 Bft)
26.03.2019 00:15 0,6 °C 84 % 1023,6 hPa 0,0 mm 0,7 km/h (0 Bft) S 190 ° 0 min 0,000 mm 0,0 UV-I 0 W/m² -1,8 °C 0,6 °C 3,2 km/h (1 Bft)
26.03.2019 00:16 0,6 °C 84 % 1023,7 hPa 0,0 mm 3,1 km/h (1 Bft) W-SW 246 ° 0 min 0,000 mm 0,0 UV-I 0 W/m² -1,8 °C 0,6 °C 4,8 km/h (1 Bft)
26.03.2019 00:17 0,6 °C 84 % 1023,7 hPa 0,0 mm 1,9 km/h (1 Bft) W-SW 245 ° 0 min 0,000 mm 0,0 UV-I 0 W/m² -1,8 °C 0,6 °C 3,2 km/h (1 Bft)
26.03.2019 00:18 0,6 °C 84 % 1023,7 hPa 0,0 mm 2,8 km/h (1 Bft) SW 231 ° 0 min 0,000 mm 0,0 UV-I 0 W/m² -1,8 °C 0,6 °C 3,2 km/h (1 Bft)
26.03.2019 00:19 0,6 °C 84 % 1023,7 hPa 0,0 mm 2,1 km/h (1 Bft) S-SW 193 ° 0 min 0,000 mm 0,0 UV-I 0 W/m² -1,8 °C 0,6 °C 4,8 km/h (1 Bft)
26.03.2019 00:20 0,6 °C 84 % 1023,7 hPa 0,0 mm 1,8 km/h (1 Bft) W-SW 253 ° 0 min 0,000 mm 0,0 UV-I 0 W/m² -1,8 °C 0,6 °C 4,8 km/h (1 Bft)
26.03.2019 00:21 0,6 °C 84 % 1023,8 hPa 0,0 mm 3,5 km/h (1 Bft) S-SW 194 ° 0 min 0,000 mm 0,0 UV-I 0 W/m² -1,8 °C 0,6 °C 6,4 km/h (2 Bft)
26.03.2019 00:22 0,6 °C 84 % 1023,8 hPa 0,0 mm 1,9 km/h (1 Bft) S-SW 203 ° 0 min 0,000 mm 0,0 UV-I 0 W/m² -1,8 °C 0,6 °C 3,2 km/h (1 Bft)
26.03.2019 00:23 0,6 °C 84 % 1023,8 hPa 0,0 mm 0,3 km/h (0 Bft) S-SW 203 ° 0 min 0,000 mm 0,0 UV-I 0 W/m² -1,8 °C 0,6 °C 1,6 km/h (1 Bft)
26.03.2019 00:24 0,6 °C 84 % 1023,8 hPa 0,0 mm 0,0 km/h (0 Bft) S-SW 202 ° 0 min 0,000 mm 0,0 UV-I 0 W/m² -1,8 °C 0,6 °C 0,0 km/h (0 Bft)
26.03.2019 00:25 0,7 °C 84 % 1023,8 hPa 0,0 mm 0,1 km/h (0 Bft) S-SW 202 ° 0 min 0,000 mm 0,0 UV-I 0 W/m² -1,7 °C 0,7 °C 1,6 km/h (1 Bft)
26.03.2019 00:26 0,7 °C 84 % 1023,8 hPa 0,0 mm 4,7 km/h (1 Bft) S-SW 196 ° 0 min 0,000 mm 0,0 UV-I 0 W/m² -1,7 °C -0,7 °C 8,0 km/h (2 Bft)
26.03.2019 00:27 0,7 °C 84 % 1023,8 hPa 0,0 mm 2,5 km/h (1 Bft) S-SW 196 ° 0 min 0,000 mm 0,0 UV-I 0 W/m² -1,7 °C 0,7 °C 3,2 km/h (1 Bft)
26.03.2019 00:28 0,7 °C 84 % 1023,9 hPa 0,0 mm 1,9 km/h (1 Bft) S-SW 197 ° 0 min 0,000 mm 0,0 UV-I 0 W/m² -1,7 °C 0,7 °C 3,2 km/h (1 Bft)
26.03.2019 00:29 0,6 °C 84 % 1023,9 hPa 0,0 mm 0,0 km/h (0 Bft) S-SW 197 ° 0 min 0,000 mm 0,0 UV-I 0 W/m² -1,8 °C 0,6 °C 0,0 km/h (0 Bft)
26.03.2019 00:30 0,6 °C 84 % 1023,9 hPa 0,0 mm 0,0 km/h (0 Bft) S-SW 197 ° 0 min 0,000 mm 0,0 UV-I 0 W/m² -1,8 °C 0,6 °C 0,0 km/h (0 Bft)
26.03.2019 00:31 0,6 °C 85 % 1023,8 hPa 0,0 mm 1,1 km/h (1 Bft) S-SW 194 ° 0 min 0,000 mm 0,0 UV-I 0 W/m² -1,6 °C 0,6 °C 3,2 km/h (1 Bft)
26.03.2019 00:32 0,6 °C 85 % 1023,8 hPa 0,0 mm 0,1 km/h (0 Bft) S-SW 194 ° 0 min 0,000 mm 0,0 UV-I 0 W/m² -1,6 °C 0,6 °C 1,6 km/h (1 Bft)
26.03.2019 00:33 0,6 °C 85 % 1023,8 hPa 0,0 mm 0,6 km/h (0 Bft) S-SW 194 ° 0 min 0,000 mm 0,0 UV-I 0 W/m² -1,6 °C 0,6 °C 1,6 km/h (1 Bft)
26.03.2019 00:34 0,5 °C 85 % 1023,8 hPa 0,0 mm 0,1 km/h (0 Bft) S-SW 194 ° 0 min 0,000 mm 0,0 UV-I 0 W/m² -1,7 °C 0,5 °C 1,6 km/h (1 Bft)
26.03.2019 00:35 0,5 °C 85 % 1023,8 hPa 0,0 mm 0,0 km/h (0 Bft) S-SW 194 ° 0 min 0,000 mm 0,0 UV-I 0 W/m² -1,7 °C 0,5 °C 0,0 km/h (0 Bft)
26.03.2019 00:36 0,4 °C 85 % 1023,8 hPa 0,0 mm 0,1 km/h (0 Bft) S-SW 194 ° 0 min 0,000 mm 0,0 UV-I 0 W/m² -1,8 °C 0,4 °C 1,6 km/h (1 Bft)
26.03.2019 00:37 0,5 °C 85 % 1023,8 hPa 0,0 mm 2,5 km/h (1 Bft) S-SW 194 ° 0 min 0,000 mm 0,0 UV-I 0 W/m² -1,7 °C 0,5 °C 3,2 km/h (1 Bft)
26.03.2019 00:38 0,5 °C 85 % 1023,8 hPa 0,0 mm 2,1 km/h (1 Bft) S-SW 194 ° 0 min 0,000 mm 0,0 UV-I 0 W/m² -1,7 °C 0,5 °C 4,8 km/h (1 Bft)
26.03.2019 00:39 0,5 °C 85 % 1023,8 hPa 0,0 mm 0,1 km/h (0 Bft) S-SW 194 ° 0 min 0,000 mm 0,0 UV-I 0 W/m² -1,7 °C 0,5 °C 1,6 km/h (1 Bft)
26.03.2019 00:40 0,5 °C 85 % 1023,8 hPa 0,0 mm 0,0 km/h (0 Bft) S-SW 194 ° 0 min 0,000 mm 0,0 UV-I 0 W/m² -1,7 °C 0,5 °C 0,0 km/h (0 Bft)
26.03.2019 00:41 0,5 °C 85 % 1023,8 hPa 0,0 mm 0,0 km/h (0 Bft) S-SW 194 ° 0 min 0,000 mm 0,0 UV-I 0 W/m² -1,7 °C 0,5 °C 0,0 km/h (0 Bft)
26.03.2019 00:42 0,5 °C 86 % 1023,8 hPa 0,0 mm 0,0 km/h (0 Bft) S-SW 194 ° 0 min 0,000 mm 0,0 UV-I 0 W/m² -1,6 °C 0,5 °C 0,0 km/h (0 Bft)
26.03.2019 00:43 0,4 °C 86 % 1023,8 hPa 0,0 mm 0,0 km/h (0 Bft) S-SW 194 ° 0 min 0,000 mm 0,0 UV-I 0 W/m² -1,7 °C 0,4 °C 0,0 km/h (0 Bft)
26.03.2019 00:44 0,4 °C 86 % 1023,8 hPa 0,0 mm 0,0 km/h (0 Bft) S-SW 194 ° 0 min 0,000 mm 0,0 UV-I 0 W/m² -1,7 °C 0,4 °C 0,0 km/h (0 Bft)
26.03.2019 00:45 0,4 °C 86 % 1023,8 hPa 0,0 mm 0,0 km/h (0 Bft) S-SW 194 ° 0 min 0,000 mm 0,0 UV-I 0 W/m² -1,7 °C 0,4 °C 0,0 km/h (0 Bft)
26.03.2019 00:46 0,4 °C 86 % 1023,8 hPa 0,0 mm 0,2 km/h (0 Bft) S-SW 194 ° 0 min 0,000 mm 0,0 UV-I 0 W/m² -1,7 °C 0,4 °C 1,6 km/h (1 Bft)
26.03.2019 00:47 0,4 °C 86 % 1023,7 hPa 0,0 mm 0,8 km/h (0 Bft) S-SW 194 ° 0 min 0,000 mm 0,0 UV-I 0 W/m² -1,7 °C 0,4 °C 3,2 km/h (1 Bft)
26.03.2019 00:48 0,4 °C 86 % 1023,8 hPa 0,0 mm 0,9 km/h (0 Bft) S-SW 194 ° 0 min 0,000 mm 0,0 UV-I 0 W/m² -1,7 °C 0,4 °C 3,2 km/h (1 Bft)
26.03.2019 00:49 0,4 °C 86 % 1023,7 hPa 0,0 mm 3,5 km/h (1 Bft) S-SW 194 ° 0 min 0,000 mm 0,0 UV-I 0 W/m² -1,7 °C 0,4 °C 4,8 km/h (1 Bft)
26.03.2019 00:50 0,4 °C 86 % 1023,7 hPa 0,0 mm 3,0 km/h (1 Bft) S-SW 194 ° 0 min 0,000 mm 0,0 UV-I 0 W/m² -1,7 °C 0,4 °C 4,8 km/h (1 Bft)
26.03.2019 00:51 0,4 °C 86 % 1023,7 hPa 0,0 mm 1,8 km/h (1 Bft) S-SW 194 ° 0 min 0,000 mm 0,0 UV-I 0 W/m² -1,7 °C 0,4 °C 3,2 km/h (1 Bft)
26.03.2019 00:52 0,4 °C 86 % 1023,7 hPa 0,0 mm 0,7 km/h (0 Bft) S-SW 194 ° 0 min 0,000 mm 0,0 UV-I 0 W/m² -1,7 °C 0,4 °C 1,6 km/h (1 Bft)
26.03.2019 00:53 0,4 °C 86 % 1023,7 hPa 0,0 mm 1,0 km/h (0 Bft) S-SW 194 ° 0 min 0,000 mm 0,0 UV-I 0 W/m² -1,7 °C 0,4 °C 3,2 km/h (1 Bft)
26.03.2019 00:54 0,3 °C 86 % 1023,8 hPa 0,0 mm 1,6 km/h (1 Bft) S-SW 194 ° 0 min 0,000 mm 0,0 UV-I 0 W/m² -1,8 °C 0,3 °C 3,2 km/h (1 Bft)
26.03.2019 00:55 0,3 °C 86 % 1023,8 hPa 0,0 mm 0,4 km/h (0 Bft) S-SW 194 ° 0 min 0,000 mm 0,0 UV-I 0 W/m² -1,8 °C 0,3 °C 1,6 km/h (1 Bft)
26.03.2019 00:56 0,3 °C 87 % 1023,8 hPa 0,0 mm 0,0 km/h (0 Bft) S-SW 194 ° 0 min 0,000 mm 0,0 UV-I 0 W/m² -1,6 °C 0,3 °C 0,0 km/h (0 Bft)
26.03.2019 00:57 0,3 °C 87 % 1023,8 hPa 0,0 mm 0,6 km/h (0 Bft) S-SW 194 ° 0 min 0,000 mm 0,0 UV-I 0 W/m² -1,6 °C 0,3 °C 1,6 km/h (1 Bft)
26.03.2019 00:58 0,3 °C 87 % 1023,8 hPa 0,0 mm 2,3 km/h (1 Bft) S-SW 194 ° 0 min 0,000 mm 0,0 UV-I 0 W/m² -1,6 °C 0,3 °C 3,2 km/h (1 Bft)
26.03.2019 00:59 0,3 °C 87 % 1023,8 hPa 0,0 mm 0,1 km/h (0 Bft) S-SW 194 ° 0 min 0,000 mm 0,0 UV-I 0 W/m² -1,6 °C 0,3 °C 1,6 km/h (1 Bft)
26.03.2019 01:00 0,3 °C 87 % 1023,8 hPa 0,0 mm 0,0 km/h (0 Bft) S-SW 194 ° 0 min 0,000 mm 0,0 UV-I 0 W/m² -1,6 °C 0,3 °C 0,0 km/h (0 Bft)
26.03.2019 01:01 0,3 °C 87 % 1023,8 hPa 0,0 mm 0,0 km/h (0 Bft) S-SW 194 ° 0 min 0,000 mm 0,0 UV-I 0 W/m² -1,6 °C 0,3 °C 0,0 km/h (0 Bft)
26.03.2019 01:02 0,2 °C 87 % 1023,8 hPa 0,0 mm 0,0 km/h (0 Bft) S-SW 194 ° 0 min 0,000 mm 0,0 UV-I 0 W/m² -1,7 °C 0,2 °C 0,0 km/h (0 Bft)
26.03.2019 01:03 0,2 °C 87 % 1023,8 hPa 0,0 mm 0,0 km/h (0 Bft) S-SW 194 ° 0 min 0,000 mm 0,0 UV-I 0 W/m² -1,7 °C 0,2 °C 0,0 km/h (0 Bft)
26.03.2019 01:04 0,2 °C 87 % 1023,8 hPa 0,0 mm 0,0 km/h (0 Bft) S-SW 194 ° 0 min 0,000 mm 0,0 UV-I 0 W/m² -1,7 °C 0,2 °C 0,0 km/h (0 Bft)
26.03.2019 01:05 0,2 °C 87 % 1023,8 hPa 0,0 mm 0,0 km/h (0 Bft) S-SW 194 ° 0 min 0,000 mm 0,0 UV-I 0 W/m² -1,7 °C 0,2 °C 0,0 km/h (0 Bft)
26.03.2019 01:06 0,1 °C 87 % 1023,9 hPa 0,0 mm 0,0 km/h (0 Bft) S-SW 194 ° 0 min 0,000 mm 0,0 UV-I 0 W/m² -1,8 °C 0,1 °C 0,0 km/h (0 Bft)
26.03.2019 01:07 0,1 °C 88 % 1023,8 hPa 0,0 mm 0,0 km/h (0 Bft) S-SW 194 ° 0 min 0,000 mm 0,0 UV-I 0 W/m² -1,6 °C 0,1 °C 0,0 km/h (0 Bft)
26.03.2019 01:08 0,1 °C 88 % 1023,8 hPa 0,0 mm 0,0 km/h (0 Bft) S-SW 194 ° 0 min 0,000 mm 0,0 UV-I 0 W/m² -1,6 °C 0,1 °C 0,0 km/h (0 Bft)
26.03.2019 01:09 0,1 °C 87 % 1023,9 hPa 0,0 mm 0,0 km/h (0 Bft) S-SW 194 ° 0 min 0,000 mm 0,0 UV-I 0 W/m² -1,8 °C 0,1 °C 0,0 km/h (0 Bft)
26.03.2019 01:10 0,2 °C 87 % 1023,8 hPa 0,0 mm 0,0 km/h (0 Bft) S-SW 194 ° 0 min 0,000 mm 0,0 UV-I 0 W/m² -1,7 °C 0,2 °C 0,0 km/h (0 Bft)
26.03.2019 01:11 0,2 °C 87 % 1023,8 hPa 0,0 mm 0,0 km/h (0 Bft) S-SW 194 ° 0 min 0,000 mm 0,0 UV-I 0 W/m² -1,7 °C 0,2 °C 0,0 km/h (0 Bft)
26.03.2019 01:12 0,2 °C 87 % 1023,9 hPa 0,0 mm 0,0 km/h (0 Bft) S-SW 194 ° 0 min 0,000 mm 0,0 UV-I 0 W/m² -1,7 °C 0,2 °C 0,0 km/h (0 Bft)
26.03.2019 01:13 0,2 °C 87 % 1023,9 hPa 0,0 mm 0,0 km/h (0 Bft) S-SW 194 ° 0 min 0,000 mm 0,0 UV-I 0 W/m² -1,7 °C 0,2 °C 0,0 km/h (0 Bft)
26.03.2019 01:14 0,1 °C 87 % 1023,8 hPa 0,0 mm 0,0 km/h (0 Bft) S-SW 194 ° 0 min 0,000 mm 0,0 UV-I 0 W/m² -1,8 °C 0,1 °C 0,0 km/h (0 Bft)
26.03.2019 01:15 0,1 °C 87 % 1023,8 hPa 0,0 mm 0,0 km/h (0 Bft) S-SW 194 ° 0 min 0,000 mm 0,0 UV-I 0 W/m² -1,8 °C 0,1 °C 0,0 km/h (0 Bft)
26.03.2019 01:16 0,1 °C 87 % 1023,8 hPa 0,0 mm 0,0 km/h (0 Bft) S-SW 194 ° 0 min 0,000 mm 0,0 UV-I 0 W/m² -1,8 °C 0,1 °C 0,0 km/h (0 Bft)
26.03.2019 01:17 0,0 °C 88 % 1023,7 hPa 0,0 mm 0,0 km/h (0 Bft) S-SW 194 ° 0 min 0,000 mm 0,0 UV-I 0 W/m² -1,7 °C 0,0 °C 0,0 km/h (0 Bft)
26.03.2019 01:18 0,0 °C 88 % 1023,8 hPa 0,0 mm 0,0 km/h (0 Bft) S-SW 194 ° 0 min 0,000 mm 0,0 UV-I 0 W/m² -1,7 °C 0,0 °C 0,0 km/h (0 Bft)
26.03.2019 01:19 0,0 °C 88 % 1023,8 hPa 0,0 mm 0,0 km/h (0 Bft) S-SW 194 ° 0 min 0,000 mm 0,0 UV-I 0 W/m² -1,7 °C 0,0 °C 0,0 km/h (0 Bft)
26.03.2019 01:20 -0,1 °C 88 % 1023,8 hPa 0,0 mm 0,0 km/h (0 Bft) S-SW 194 ° 0 min 0,000 mm 0,0 UV-I 0 W/m² -1,8 °C -0,1 °C 0,0 km/h (0 Bft)
26.03.2019 01:21 -0,1 °C 88 % 1023,9 hPa 0,0 mm 0,0 km/h (0 Bft) S-SW 194 ° 0 min 0,000 mm 0,0 UV-I 0 W/m² -1,8 °C -0,1 °C 0,0 km/h (0 Bft)
26.03.2019 01:22 -0,1 °C 88 % 1023,9 hPa 0,0 mm 0,0 km/h (0 Bft) S-SW 194 ° 0 min 0,000 mm 0,0 UV-I 0 W/m² -1,8 °C -0,1 °C 0,0 km/h (0 Bft)
26.03.2019 01:23 -0,1 °C 88 % 1023,9 hPa 0,0 mm 0,0 km/h (0 Bft) S-SW 194 ° 0 min 0,000 mm 0,0 UV-I 0 W/m² -1,8 °C -0,1 °C 0,0 km/h (0 Bft)
26.03.2019 01:24 -0,1 °C 88 % 1023,8 hPa 0,0 mm 0,0 km/h (0 Bft) S-SW 194 ° 0 min 0,000 mm 0,0 UV-I 0 W/m² -1,8 °C -0,1 °C 0,0 km/h (0 Bft)
26.03.2019 01:25 -0,2 °C 88 % 1023,9 hPa 0,0 mm 0,0 km/h (0 Bft) S-SW 194 ° 0 min 0,000 mm 0,0 UV-I 0 W/m² -1,9 °C -0,2 °C 0,0 km/h (0 Bft)
26.03.2019 01:26 -0,2 °C 88 % 1023,9 hPa 0,0 mm 0,0 km/h (0 Bft) S-SW 194 ° 0 min 0,000 mm 0,0 UV-I 0 W/m² -1,9 °C -0,2 °C 0,0 km/h (0 Bft)
26.03.2019 01:27 -0,2 °C 88 % 1023,9 hPa 0,0 mm 0,0 km/h (0 Bft) S-SW 194 ° 0 min 0,000 mm 0,0 UV-I 0 W/m² -1,9 °C -0,2 °C 0,0 km/h (0 Bft)
26.03.2019 01:28 -0,2 °C 88 % 1023,9 hPa 0,0 mm 0,0 km/h (0 Bft) S-SW 194 ° 0 min 0,000 mm 0,0 UV-I 0 W/m² -1,9 °C -0,2 °C 0,0 km/h (0 Bft)
26.03.2019 01:29 -0,2 °C 88 % 1023,9 hPa 0,0 mm 0,0 km/h (0 Bft) S-SW 194 ° 0 min 0,000 mm 0,0 UV-I 0 W/m² -1,9 °C -0,2 °C 0,0 km/h (0 Bft)
26.03.2019 01:30 -0,2 °C 88 % 1023,8 hPa 0,0 mm 0,0 km/h (0 Bft) S-SW 194 ° 0 min 0,000 mm 0,0 UV-I 0 W/m² -1,9 °C -0,2 °C 0,0 km/h (0 Bft)
26.03.2019 01:31 -0,2 °C 88 % 1023,8 hPa 0,0 mm 0,0 km/h (0 Bft) S-SW 194 ° 0 min 0,000 mm 0,0 UV-I 0 W/m² -1,9 °C -0,2 °C 0,0 km/h (0 Bft)
26.03.2019 01:32 -0,2 °C 88 % 1023,8 hPa 0,0 mm 0,0 km/h (0 Bft) S-SW 194 ° 0 min 0,000 mm 0,0 UV-I 0 W/m² -1,9 °C -0,2 °C 0,0 km/h (0 Bft)
26.03.2019 01:33 -0,3 °C 88 % 1023,8 hPa 0,0 mm 0,0 km/h (0 Bft) S-SW 194 ° 0 min 0,000 mm 0,0 UV-I 0 W/m² -2,0 °C -0,3 °C 0,0 km/h (0 Bft)
26.03.2019 01:34 -0,2 °C 88 % 1023,8 hPa 0,0 mm 0,0 km/h (0 Bft) S-SW 194 ° 0 min 0,000 mm 0,0 UV-I 0 W/m² -1,9 °C -0,2 °C 0,0 km/h (0 Bft)
26.03.2019 01:35 -0,3 °C 88 % 1023,8 hPa 0,0 mm 0,0 km/h (0 Bft) S-SW 194 ° 0 min 0,000 mm 0,0 UV-I 0 W/m² -2,0 °C -0,3 °C 0,0 km/h (0 Bft)
26.03.2019 01:36 -0,3 °C 88 % 1023,9 hPa 0,0 mm 0,0 km/h (0 Bft) S-SW 194 ° 0 min 0,000 mm 0,0 UV-I 0 W/m² -2,0 °C -0,3 °C 0,0 km/h (0 Bft)
26.03.2019 01:37 -0,3 °C 88 % 1023,9 hPa 0,0 mm 0,0 km/h (0 Bft) S-SW 194 ° 0 min 0,000 mm 0,0 UV-I 0 W/m² -2,0 °C -0,3 °C 0,0 km/h (0 Bft)
26.03.2019 01:38 -0,3 °C 88 % 1023,9 hPa 0,0 mm 0,0 km/h (0 Bft) S-SW 194 ° 0 min 0,000 mm 0,0 UV-I 0 W/m² -2,0 °C -0,3 °C 0,0 km/h (0 Bft)
26.03.2019 01:39 -0,3 °C 88 % 1023,9 hPa 0,0 mm 0,0 km/h (0 Bft) S-SW 194 ° 0 min 0,000 mm 0,0 UV-I 0 W/m² -2,0 °C -0,3 °C 0,0 km/h (0 Bft)
26.03.2019 01:40 -0,3 °C 88 % 1023,9 hPa 0,0 mm 0,0 km/h (0 Bft) S-SW 194 ° 0 min 0,000 mm 0,0 UV-I 0 W/m² -2,0 °C -0,3 °C 0,0 km/h (0 Bft)
26.03.2019 01:41 -0,3 °C 88 % 1023,9 hPa 0,0 mm 0,0 km/h (0 Bft) S-SW 194 ° 0 min 0,000 mm 0,0 UV-I 0 W/m² -2,0 °C -0,3 °C 0,0 km/h (0 Bft)
26.03.2019 01:42 -0,4 °C 89 % 1024,0 hPa 0,0 mm 0,0 km/h (0 Bft) S-SW 194 ° 0 min 0,000 mm 0,0 UV-I 0 W/m² -2,0 °C -0,4 °C 0,0 km/h (0 Bft)
26.03.2019 01:43 -0,4 °C 89 % 1024,0 hPa 0,0 mm 1,5 km/h (1 Bft) S-SW 194 ° 0 min 0,000 mm 0,0 UV-I 0 W/m² -2,0 °C -0,4 °C 3,2 km/h (1 Bft)
26.03.2019 01:44 -0,4 °C 89 % 1024,0 hPa 0,0 mm 0,1 km/h (0 Bft) S-SW 194 ° 0 min 0,000 mm 0,0 UV-I 0 W/m² -2,0 °C -0,4 °C 1,6 km/h (1 Bft)
26.03.2019 01:45 -0,4 °C 89 % 1024,0 hPa 0,0 mm 0,0 km/h (0 Bft) S-SW 194 ° 0 min 0,000 mm 0,0 UV-I 0 W/m² -2,0 °C -0,4 °C 0,0 km/h (0 Bft)
26.03.2019 01:46 -0,4 °C 89 % 1024,1 hPa 0,0 mm 0,0 km/h (0 Bft) S-SW 194 ° 0 min 0,000 mm 0,0 UV-I 0 W/m² -2,0 °C -0,4 °C 0,0 km/h (0 Bft)
26.03.2019 01:47 -0,4 °C 89 % 1024,1 hPa 0,0 mm 0,0 km/h (0 Bft) S-SW 194 ° 0 min 0,000 mm 0,0 UV-I 0 W/m² -2,0 °C -0,4 °C 0,0 km/h (0 Bft)
26.03.2019 01:48 -0,4 °C 89 % 1024,1 hPa 0,0 mm 0,0 km/h (0 Bft) S-SW 194 ° 0 min 0,000 mm 0,0 UV-I 0 W/m² -2,0 °C -0,4 °C 0,0 km/h (0 Bft)
26.03.2019 01:49 -0,3 °C 89 % 1024,1 hPa 0,0 mm 0,2 km/h (0 Bft) S-SW 194 ° 0 min 0,000 mm 0,0 UV-I 0 W/m² -1,9 °C -0,3 °C 1,6 km/h (1 Bft)
26.03.2019 01:50 -0,4 °C 89 % 1024,2 hPa 0,0 mm 0,0 km/h (0 Bft) S-SW 194 ° 0 min 0,000 mm 0,0 UV-I 0 W/m² -2,0 °C -0,4 °C 0,0 km/h (0 Bft)
26.03.2019 01:51 -0,4 °C 89 % 1024,2 hPa 0,0 mm 0,0 km/h (0 Bft) S-SW 194 ° 0 min 0,000 mm 0,0 UV-I 0 W/m² -2,0 °C -0,4 °C 0,0 km/h (0 Bft)
26.03.2019 01:52 -0,4 °C 89 % 1024,2 hPa 0,0 mm 0,0 km/h (0 Bft) S-SW 194 ° 0 min 0,000 mm 0,0 UV-I 0 W/m² -2,0 °C -0,4 °C 0,0 km/h (0 Bft)
26.03.2019 01:53 -0,4 °C 89 % 1024,2 hPa 0,0 mm 0,0 km/h (0 Bft) S-SW 194 ° 0 min 0,000 mm 0,0 UV-I 0 W/m² -2,0 °C -0,4 °C 0,0 km/h (0 Bft)
26.03.2019 01:54 -0,4 °C 90 % 1024,2 hPa 0,0 mm 0,0 km/h (0 Bft) S-SW 194 ° 0 min 0,000 mm 0,0 UV-I 0 W/m² -1,8 °C -0,4 °C 0,0 km/h (0 Bft)
26.03.2019 01:55 -0,4 °C 90 % 1024,2 hPa 0,0 mm 0,0 km/h (0 Bft) S-SW 194 ° 0 min 0,000 mm 0,0 UV-I 0 W/m² -1,8 °C -0,4 °C 0,0 km/h (0 Bft)
26.03.2019 01:56 -0,3 °C 90 % 1024,2 hPa 0,0 mm 0,0 km/h (0 Bft) S-SW 194 ° 0 min 0,000 mm 0,0 UV-I 0 W/m² -1,7 °C -0,3 °C 0,0 km/h (0 Bft)
26.03.2019 01:57 -0,3 °C 90 % 1024,2 hPa 0,0 mm 0,0 km/h (0 Bft) S-SW 194 ° 0 min 0,000 mm 0,0 UV-I 0 W/m² -1,7 °C -0,3 °C 0,0 km/h (0 Bft)
26.03.2019 01:58 -0,3 °C 90 % 1024,2 hPa 0,0 mm 0,0 km/h (0 Bft) S-SW 194 ° 0 min 0,000 mm 0,0 UV-I 0 W/m² -1,7 °C -0,3 °C 0,0 km/h (0 Bft)
26.03.2019 01:59 -0,3 °C 90 % 1024,1 hPa 0,0 mm 0,0 km/h (0 Bft) S-SW 194 ° 0 min 0,000 mm 0,0 UV-I 0 W/m² -1,7 °C -0,3 °C 0,0 km/h (0 Bft)
26.03.2019 02:00 -0,3 °C 90 % 1024,1 hPa 0,0 mm 0,0 km/h (0 Bft) S-SW 194 ° 0 min 0,000 mm 0,0 UV-I 0 W/m² -1,7 °C -0,3 °C 0,0 km/h (0 Bft)
26.03.2019 02:01 -0,3 °C 89 % 1024,2 hPa 0,0 mm 0,0 km/h (0 Bft) S-SW 194 ° 0 min 0,000 mm 0,0 UV-I 0 W/m² -1,9 °C -0,3 °C 0,0 km/h (0 Bft)
26.03.2019 02:02 -0,2 °C 89 % 1024,2 hPa 0,0 mm 0,0 km/h (0 Bft) S-SW 194 ° 0 min 0,000 mm 0,0 UV-I 0 W/m² -1,8 °C -0,2 °C 0,0 km/h (0 Bft)
26.03.2019 02:03 -0,2 °C 89 % 1024,1 hPa 0,0 mm 0,0 km/h (0 Bft) S-SW 194 ° 0 min 0,000 mm 0,0 UV-I 0 W/m² -1,8 °C -0,2 °C 0,0 km/h (0 Bft)
26.03.2019 02:04 -0,2 °C 89 % 1024,1 hPa 0,0 mm 0,0 km/h (0 Bft) S-SW 194 ° 0 min 0,000 mm 0,0 UV-I 0 W/m² -1,8 °C -0,2 °C 0,0 km/h (0 Bft)
26.03.2019 02:05 -0,2 °C 89 % 1024,2 hPa 0,0 mm 0,0 km/h (0 Bft) S-SW 194 ° 0 min 0,000 mm 0,0 UV-I 0 W/m² -1,8 °C -0,2 °C 0,0 km/h (0 Bft)
26.03.2019 02:06 -0,2 °C 89 % 1024,1 hPa 0,0 mm 0,0 km/h (0 Bft) S-SW 194 ° 0 min 0,000 mm 0,0 UV-I 0 W/m² -1,8 °C -0,2 °C 0,0 km/h (0 Bft)
26.03.2019 02:07 -0,2 °C 89 % 1024,1 hPa 0,0 mm 0,0 km/h (0 Bft) S-SW 194 ° 0 min 0,000 mm 0,0 UV-I 0 W/m² -1,8 °C -0,2 °C 0,0 km/h (0 Bft)
26.03.2019 02:08 -0,2 °C 89 % 1024,1 hPa 0,0 mm 0,0 km/h (0 Bft) S-SW 194 ° 0 min 0,000 mm 0,0 UV-I 0 W/m² -1,8 °C -0,2 °C 0,0 km/h (0 Bft)
26.03.2019 02:09 -0,2 °C 89 % 1024,2 hPa 0,0 mm 0,0 km/h (0 Bft) S-SW 194 ° 0 min 0,000 mm 0,0 UV-I 0 W/m² -1,8 °C -0,2 °C 0,0 km/h (0 Bft)
26.03.2019 02:10 -0,2 °C 89 % 1024,2 hPa 0,0 mm 0,0 km/h (0 Bft) S-SW 194 ° 0 min 0,000 mm 0,0 UV-I 0 W/m² -1,8 °C -0,2 °C 0,0 km/h (0 Bft)
26.03.2019 02:11 -0,2 °C 89 % 1024,2 hPa 0,0 mm 0,0 km/h (0 Bft) S-SW 194 ° 0 min 0,000 mm 0,0 UV-I 0 W/m² -1,8 °C -0,2 °C 0,0 km/h (0 Bft)
26.03.2019 02:12 -0,2 °C 89 % 1024,2 hPa 0,0 mm 0,0 km/h (0 Bft) S-SW 194 ° 0 min 0,000 mm 0,0 UV-I 0 W/m² -1,8 °C -0,2 °C 0,0 km/h (0 Bft)
26.03.2019 02:13 -0,2 °C 89 % 1024,2 hPa 0,0 mm 0,0 km/h (0 Bft) S-SW 194 ° 0 min 0,000 mm 0,0 UV-I 0 W/m² -1,8 °C -0,2 °C 0,0 km/h (0 Bft)
26.03.2019 02:14 -0,2 °C 89 % 1024,2 hPa 0,0 mm 0,0 km/h (0 Bft) S-SW 194 ° 0 min 0,000 mm 0,0 UV-I 0 W/m² -1,8 °C -0,2 °C 0,0 km/h (0 Bft)
26.03.2019 02:15 -0,2 °C 89 % 1024,2 hPa 0,0 mm 0,0 km/h (0 Bft) S-SW 194 ° 0 min 0,000 mm 0,0 UV-I 0 W/m² -1,8 °C -0,2 °C 0,0 km/h (0 Bft)
26.03.2019 02:16 -0,2 °C 89 % 1024,2 hPa 0,0 mm 0,0 km/h (0 Bft) S-SW 194 ° 0 min 0,000 mm 0,0 UV-I 0 W/m² -1,8 °C -0,2 °C 0,0 km/h (0 Bft)
26.03.2019 02:17 -0,2 °C 89 % 1024,3 hPa 0,0 mm 0,0 km/h (0 Bft) S-SW 194 ° 0 min 0,000 mm 0,0 UV-I 0 W/m² -1,8 °C -0,2 °C 0,0 km/h (0 Bft)
26.03.2019 02:18 -0,2 °C 89 % 1024,2 hPa 0,0 mm 0,0 km/h (0 Bft) S-SW 194 ° 0 min 0,000 mm 0,0 UV-I 0 W/m² -1,8 °C -0,2 °C 0,0 km/h (0 Bft)
26.03.2019 02:19 -0,1 °C 89 % 1024,3 hPa 0,0 mm 0,0 km/h (0 Bft) S-SW 194 ° 0 min 0,000 mm 0,0 UV-I 0 W/m² -1,7 °C -0,1 °C 0,0 km/h (0 Bft)
26.03.2019 02:20 -0,2 °C 89 % 1024,3 hPa 0,0 mm 0,0 km/h (0 Bft) S-SW 194 ° 0 min 0,000 mm 0,0 UV-I 0 W/m² -1,8 °C -0,2 °C 0,0 km/h (0 Bft)
26.03.2019 02:21 -0,1 °C 89 % 1024,3 hPa 0,0 mm 0,0 km/h (0 Bft) S-SW 194 ° 0 min 0,000 mm 0,0 UV-I 0 W/m² -1,7 °C -0,1 °C 0,0 km/h (0 Bft)
26.03.2019 02:22 -0,1 °C 89 % 1024,3 hPa 0,0 mm 0,0 km/h (0 Bft) S-SW 194 ° 0 min 0,000 mm 0,0 UV-I 0 W/m² -1,7 °C -0,1 °C 0,0 km/h (0 Bft)
26.03.2019 02:23 -0,1 °C 89 % 1024,3 hPa 0,0 mm 0,0 km/h (0 Bft) S-SW 194 ° 0 min 0,000 mm 0,0 UV-I 0 W/m² -1,7 °C -0,1 °C 0,0 km/h (0 Bft)
26.03.2019 02:24 -0,1 °C 89 % 1024,3 hPa 0,0 mm 0,0 km/h (0 Bft) S-SW 194 ° 0 min 0,000 mm 0,0 UV-I 0 W/m² -1,7 °C -0,1 °C 0,0 km/h (0 Bft)
26.03.2019 02:25 -0,1 °C 89 % 1024,3 hPa 0,0 mm 0,0 km/h (0 Bft) S-SW 194 ° 0 min 0,000 mm 0,0 UV-I 0 W/m² -1,7 °C -0,1 °C 0,0 km/h (0 Bft)
26.03.2019 02:26 -0,1 °C 89 % 1024,3 hPa 0,0 mm 0,0 km/h (0 Bft) S-SW 194 ° 0 min 0,000 mm 0,0 UV-I 0 W/m² -1,7 °C -0,1 °C 0,0 km/h (0 Bft)
26.03.2019 02:27 -0,1 °C 89 % 1024,3 hPa 0,0 mm 0,0 km/h (0 Bft) S-SW 194 ° 0 min 0,000 mm 0,0 UV-I 0 W/m² -1,7 °C -0,1 °C 0,0 km/h (0 Bft)
26.03.2019 02:28 -0,1 °C 89 % 1024,3 hPa 0,0 mm 0,0 km/h (0 Bft) S-SW 194 ° 0 min 0,000 mm 0,0 UV-I 0 W/m² -1,7 °C -0,1 °C 0,0 km/h (0 Bft)
26.03.2019 02:29 -0,1 °C 89 % 1024,3 hPa 0,0 mm 0,0 km/h (0 Bft) S-SW 194 ° 0 min 0,000 mm 0,0 UV-I 0 W/m² -1,7 °C -0,1 °C 0,0 km/h (0 Bft)
26.03.2019 02:30 -0,1 °C 89 % 1024,4 hPa 0,0 mm 0,0 km/h (0 Bft) S-SW 194 ° 0 min 0,000 mm 0,0 UV-I 0 W/m² -1,7 °C -0,1 °C 0,0 km/h (0 Bft)
26.03.2019 02:31 -0,1 °C 89 % 1024,4 hPa 0,0 mm 0,0 km/h (0 Bft) S-SW 194 ° 0 min 0,000 mm 0,0 UV-I 0 W/m² -1,7 °C -0,1 °C 0,0 km/h (0 Bft)
26.03.2019 02:32 -0,1 °C 89 % 1024,4 hPa 0,0 mm 0,0 km/h (0 Bft) S-SW 194 ° 0 min 0,000 mm 0,0 UV-I 0 W/m² -1,7 °C -0,1 °C 0,0 km/h (0 Bft)
26.03.2019 02:33 -0,2 °C 89 % 1024,4 hPa 0,0 mm 0,0 km/h (0 Bft) S-SW 194 ° 0 min 0,000 mm 0,0 UV-I 0 W/m² -1,8 °C -0,2 °C 0,0 km/h (0 Bft)
26.03.2019 02:34 -0,2 °C 89 % 1024,4 hPa 0,0 mm 0,0 km/h (0 Bft) S-SW 194 ° 0 min 0,000 mm 0,0 UV-I 0 W/m² -1,8 °C -0,2 °C 0,0 km/h (0 Bft)
26.03.2019 02:35 -0,2 °C 89 % 1024,4 hPa 0,0 mm 0,0 km/h (0 Bft) S-SW 194 ° 0 min 0,000 mm 0,0 UV-I 0 W/m² -1,8 °C -0,2 °C 0,0 km/h (0 Bft)
26.03.2019 02:36 -0,2 °C 89 % 1024,4 hPa 0,0 mm 0,0 km/h (0 Bft) S-SW 194 ° 0 min 0,000 mm 0,0 UV-I 0 W/m² -1,8 °C -0,2 °C 0,0 km/h (0 Bft)
26.03.2019 02:37 -0,2 °C 89 % 1024,4 hPa 0,0 mm 0,0 km/h (0 Bft) S-SW 194 ° 0 min 0,000 mm 0,0 UV-I 0 W/m² -1,8 °C -0,2 °C 0,0 km/h (0 Bft)
26.03.2019 02:38 -0,2 °C 89 % 1024,4 hPa 0,0 mm 0,0 km/h (0 Bft) S-SW 194 ° 0 min 0,000 mm 0,0 UV-I 0 W/m² -1,8 °C -0,2 °C 0,0 km/h (0 Bft)
26.03.2019 02:39 -0,1 °C 89 % 1024,4 hPa 0,0 mm 0,0 km/h (0 Bft) S-SW 194 ° 0 min 0,000 mm 0,0 UV-I 0 W/m² -1,7 °C -0,1 °C 0,0 km/h (0 Bft)
26.03.2019 02:40 -0,1 °C 89 % 1024,4 hPa 0,0 mm 0,0 km/h (0 Bft) S-SW 194 ° 0 min 0,000 mm 0,0 UV-I 0 W/m² -1,7 °C -0,1 °C 0,0 km/h (0 Bft)
26.03.2019 02:41 -0,1 °C 89 % 1024,4 hPa 0,0 mm 0,0 km/h (0 Bft) S-SW 194 ° 0 min 0,000 mm 0,0 UV-I 0 W/m² -1,7 °C -0,1 °C 0,0 km/h (0 Bft)
26.03.2019 02:42 -0,1 °C 89 % 1024,4 hPa 0,0 mm 0,0 km/h (0 Bft) S-SW 194 ° 0 min 0,000 mm 0,0 UV-I 0 W/m² -1,7 °C -0,1 °C 0,0 km/h (0 Bft)
26.03.2019 02:43 -0,1 °C 89 % 1024,4 hPa 0,0 mm 0,0 km/h (0 Bft) S-SW 194 ° 0 min 0,000 mm 0,0 UV-I 0 W/m² -1,7 °C -0,1 °C 0,0 km/h (0 Bft)
26.03.2019 02:44 -0,1 °C 89 % 1024,4 hPa 0,0 mm 0,0 km/h (0 Bft) S-SW 194 ° 0 min 0,000 mm 0,0 UV-I 0 W/m² -1,7 °C -0,1 °C 0,0 km/h (0 Bft)
26.03.2019 02:45 -0,1 °C 89 % 1024,4 hPa 0,0 mm 0,0 km/h (0 Bft) S-SW 194 ° 0 min 0,000 mm 0,0 UV-I 0 W/m² -1,7 °C -0,1 °C 0,0 km/h (0 Bft)
26.03.2019 02:46 -0,1 °C 89 % 1024,4 hPa 0,0 mm 0,7 km/h (0 Bft) S-SW 194 ° 0 min 0,000 mm 0,0 UV-I 0 W/m² -1,7 °C -0,1 °C 1,6 km/h (1 Bft)
26.03.2019 02:47 -0,1 °C 89 % 1024,4 hPa 0,0 mm 0,0 km/h (0 Bft) S-SW 194 ° 0 min 0,000 mm 0,0 UV-I 0 W/m² -1,7 °C -0,1 °C 0,0 km/h (0 Bft)
26.03.2019 02:48 -0,1 °C 89 % 1024,4 hPa 0,0 mm 0,0 km/h (0 Bft) S-SW 194 ° 0 min 0,000 mm 0,0 UV-I 0 W/m² -1,7 °C -0,1 °C 0,0 km/h (0 Bft)
26.03.2019 02:49 0,0 °C 89 % 1024,5 hPa 0,0 mm 0,0 km/h (0 Bft) S-SW 194 ° 0 min 0,000 mm 0,0 UV-I 0 W/m² -1,6 °C 0,0 °C 0,0 km/h (0 Bft)
26.03.2019 02:50 0,0 °C 89 % 1024,6 hPa 0,0 mm 0,0 km/h (0 Bft) S-SW 194 ° 0 min 0,000 mm 0,0 UV-I 0 W/m² -1,6 °C 0,0 °C 0,0 km/h (0 Bft)
26.03.2019 02:51 0,0 °C 90 % 1024,6 hPa 0,0 mm 0,0 km/h (0 Bft) S-SW 194 ° 0 min 0,000 mm 0,0 UV-I 0 W/m² -1,4 °C 0,0 °C 0,0 km/h (0 Bft)
26.03.2019 02:52 0,0 °C 89 % 1024,6 hPa 0,0 mm 0,0 km/h (0 Bft) S-SW 194 ° 0 min 0,000 mm 0,0 UV-I 0 W/m² -1,6 °C 0,0 °C 0,0 km/h (0 Bft)
26.03.2019 02:53 0,0 °C 89 % 1024,6 hPa 0,0 mm 0,0 km/h (0 Bft) S-SW 194 ° 0 min 0,000 mm 0,0 UV-I 0 W/m² -1,6 °C 0,0 °C 0,0 km/h (0 Bft)
26.03.2019 02:54 0,0 °C 89 % 1024,6 hPa 0,0 mm 0,0 km/h (0 Bft) S-SW 194 ° 0 min 0,000 mm 0,0 UV-I 0 W/m² -1,6 °C 0,0 °C 0,0 km/h (0 Bft)
26.03.2019 02:55 0,0 °C 89 % 1024,6 hPa 0,0 mm 0,0 km/h (0 Bft) S-SW 194 ° 0 min 0,000 mm 0,0 UV-I 0 W/m² -1,6 °C 0,0 °C 0,0 km/h (0 Bft)
26.03.2019 02:56 0,0 °C 89 % 1024,6 hPa 0,0 mm 2,6 km/h (1 Bft) S-SW 194 ° 0 min 0,000 mm 0,0 UV-I 0 W/m² -1,6 °C 0,0 °C 4,8 km/h (1 Bft)
26.03.2019 02:57 0,0 °C 89 % 1024,6 hPa 0,0 mm 1,1 km/h (1 Bft) S-SW 194 ° 0 min 0,000 mm 0,0 UV-I 0 W/m² -1,6 °C 0,0 °C 3,2 km/h (1 Bft)
26.03.2019 02:58 0,0 °C 89 % 1024,6 hPa 0,0 mm 1,1 km/h (1 Bft) S-SW 194 ° 0 min 0,000 mm 0,0 UV-I 0 W/m² -1,6 °C 0,0 °C 3,2 km/h (1 Bft)
26.03.2019 02:59 0,0 °C 89 % 1024,6 hPa 0,0 mm 1,7 km/h (1 Bft) S-SW 194 ° 0 min 0,000 mm 0,0 UV-I 0 W/m² -1,6 °C 0,0 °C 3,2 km/h (1 Bft)
26.03.2019 03:00 0,0 °C 89 % 1024,6 hPa 0,0 mm 2,4 km/h (1 Bft) N-NO 20 ° 0 min 0,000 mm 0,0 UV-I 0 W/m² -1,6 °C 0,0 °C 6,4 km/h (2 Bft)
26.03.2019 03:01 0,0 °C 89 % 1024,6 hPa 0,0 mm 2,8 km/h (1 Bft) N-NO 20 ° 0 min 0,000 mm 0,0 UV-I 0 W/m² -1,6 °C 0,0 °C 4,8 km/h (1 Bft)
26.03.2019 03:02 0,0 °C 89 % 1024,6 hPa 0,0 mm 0,0 km/h (0 Bft) N-NO 20 ° 0 min 0,000 mm 0,0 UV-I 0 W/m² -1,6 °C 0,0 °C 0,0 km/h (0 Bft)
26.03.2019 03:03 0,0 °C 89 % 1024,6 hPa 0,0 mm 0,6 km/h (0 Bft) N-NO 20 ° 0 min 0,000 mm 0,0 UV-I 0 W/m² -1,6 °C 0,0 °C 3,2 km/h (1 Bft)
26.03.2019 03:04 0,0 °C 89 % 1024,7 hPa 0,0 mm 4,6 km/h (1 Bft) N 355 ° 0 min 0,000 mm 0,0 UV-I 0 W/m² -1,6 °C -1,4 °C 6,4 km/h (2 Bft)
26.03.2019 03:05 0,1 °C 89 % 1024,7 hPa 0,0 mm 2,3 km/h (1 Bft) N 355 ° 0 min 0,000 mm 0,0 UV-I 0 W/m² -1,5 °C 0,1 °C 3,2 km/h (1 Bft)
26.03.2019 03:06 0,1 °C 90 % 1024,7 hPa 0,0 mm 0,0 km/h (0 Bft) N 355 ° 0 min 0,000 mm 0,0 UV-I 0 W/m² -1,3 °C 0,1 °C 0,0 km/h (0 Bft)
26.03.2019 03:07 0,1 °C 90 % 1024,7 hPa 0,0 mm 0,2 km/h (0 Bft) N 355 ° 0 min 0,000 mm 0,0 UV-I 0 W/m² -1,3 °C 0,1 °C 1,6 km/h (1 Bft)
26.03.2019 03:08 0,0 °C 90 % 1024,7 hPa 0,0 mm 4,0 km/h (1 Bft) N 355 ° 0 min 0,000 mm 0,0 UV-I 0 W/m² -1,4 °C 0,0 °C 4,8 km/h (1 Bft)
26.03.2019 03:09 0,1 °C 89 % 1024,7 hPa 0,0 mm 2,3 km/h (1 Bft) N 355 ° 0 min 0,000 mm 0,0 UV-I 0 W/m² -1,5 °C 0,1 °C 3,2 km/h (1 Bft)
26.03.2019 03:10 0,1 °C 90 % 1024,8 hPa 0,0 mm 1,9 km/h (1 Bft) N 355 ° 0 min 0,000 mm 0,0 UV-I 0 W/m² -1,3 °C 0,1 °C 3,2 km/h (1 Bft)
26.03.2019 03:11 0,1 °C 89 % 1024,7 hPa 0,0 mm 2,1 km/h (1 Bft) N 355 ° 0 min 0,000 mm 0,0 UV-I 0 W/m² -1,5 °C 0,1 °C 3,2 km/h (1 Bft)
26.03.2019 03:12 0,1 °C 89 % 1024,7 hPa 0,0 mm 2,7 km/h (1 Bft) N 355 ° 0 min 0,000 mm 0,0 UV-I 0 W/m² -1,5 °C 0,1 °C 4,8 km/h (1 Bft)
26.03.2019 03:13 0,1 °C 89 % 1024,8 hPa 0,0 mm 1,9 km/h (1 Bft) N 355 ° 0 min 0,000 mm 0,0 UV-I 0 W/m² -1,5 °C 0,1 °C 6,4 km/h (2 Bft)
26.03.2019 03:14 0,1 °C 90 % 1024,8 hPa 0,0 mm 4,0 km/h (1 Bft) N 355 ° 0 min 0,000 mm 0,0 UV-I 0 W/m² -1,3 °C 0,1 °C 4,8 km/h (1 Bft)
26.03.2019 03:15 0,0 °C 90 % 1024,8 hPa 0,0 mm 4,6 km/h (1 Bft) N-NO 18 ° 0 min 0,000 mm 0,0 UV-I 0 W/m² -1,4 °C -1,4 °C 6,4 km/h (2 Bft)
26.03.2019 03:16 0,1 °C 90 % 1024,8 hPa 0,0 mm 4,5 km/h (1 Bft) N-NO 18 ° 0 min 0,000 mm 0,0 UV-I 0 W/m² -1,3 °C 0,1 °C 6,4 km/h (2 Bft)
26.03.2019 03:17 0,1 °C 90 % 1024,8 hPa 0,0 mm 2,8 km/h (1 Bft) N-NO 18 ° 0 min 0,000 mm 0,0 UV-I 0 W/m² -1,3 °C 0,1 °C 4,8 km/h (1 Bft)
26.03.2019 03:18 0,0 °C 90 % 1024,8 hPa 0,0 mm 0,0 km/h (0 Bft) N-NO 18 ° 0 min 0,000 mm 0,0 UV-I 0 W/m² -1,4 °C 0,0 °C 0,0 km/h (0 Bft)
26.03.2019 03:19 0,0 °C 90 % 1024,8 hPa 0,0 mm 1,6 km/h (1 Bft) N-NW 332 ° 0 min 0,000 mm 0,0 UV-I 0 W/m² -1,4 °C 0,0 °C 4,8 km/h (1 Bft)
26.03.2019 03:20 0,0 °C 90 % 1024,9 hPa 0,0 mm 3,2 km/h (1 Bft) NW 320 ° 0 min 0,000 mm 0,0 UV-I 0 W/m² -1,4 °C 0,0 °C 6,4 km/h (2 Bft)
26.03.2019 03:21 0,0 °C 90 % 1024,9 hPa 0,0 mm 5,8 km/h (2 Bft) NW 325 ° 0 min 0,000 mm 0,0 UV-I 0 W/m² -1,4 °C -1,9 °C 11,3 km/h (2 Bft)
26.03.2019 03:22 0,0 °C 90 % 1024,9 hPa 0,0 mm 5,8 km/h (2 Bft) NW 319 ° 0 min 0,000 mm 0,0 UV-I 0 W/m² -1,4 °C -1,9 °C 8,0 km/h (2 Bft)
26.03.2019 03:23 0,0 °C 90 % 1024,9 hPa 0,0 mm 5,7 km/h (1 Bft) NW 322 ° 0 min 0,000 mm 0,0 UV-I 0 W/m² -1,4 °C -1,9 °C 6,4 km/h (2 Bft)
26.03.2019 03:24 0,0 °C 90 % 1024,9 hPa 0,0 mm 5,1 km/h (1 Bft) NW 323 ° 0 min 0,000 mm 0,0 UV-I 0 W/m² -1,4 °C -1,6 °C 6,4 km/h (2 Bft)
26.03.2019 03:25 0,0 °C 90 % 1024,9 hPa 0,0 mm 2,4 km/h (1 Bft) NW 323 ° 0 min 0,000 mm 0,0 UV-I 0 W/m² -1,4 °C 0,0 °C 3,2 km/h (1 Bft)
26.03.2019 03:26 0,0 °C 90 % 1024,9 hPa 0,0 mm 4,1 km/h (1 Bft) NW 323 ° 0 min 0,000 mm 0,0 UV-I 0 W/m² -1,4 °C 0,0 °C 6,4 km/h (2 Bft)
26.03.2019 03:27 -0,1 °C 90 % 1024,9 hPa 0,0 mm 3,8 km/h (1 Bft) NW 323 ° 0 min 0,000 mm 0,0 UV-I 0 W/m² -1,5 °C -0,1 °C 4,8 km/h (1 Bft)
26.03.2019 03:28 -0,1 °C 90 % 1024,9 hPa 0,0 mm 3,6 km/h (1 Bft) NW 323 ° 0 min 0,000 mm 0,0 UV-I 0 W/m² -1,5 °C -0,1 °C 4,8 km/h (1 Bft)
26.03.2019 03:29 -0,1 °C 90 % 1024,9 hPa 0,0 mm 2,1 km/h (1 Bft) NW 323 ° 0 min 0,000 mm 0,0 UV-I 0 W/m² -1,5 °C -0,1 °C 6,4 km/h (2 Bft)
26.03.2019 03:30 -0,1 °C 90 % 1024,9 hPa 0,0 mm 3,1 km/h (1 Bft) NW 321 ° 0 min 0,000 mm 0,0 UV-I 0 W/m² -1,5 °C -0,1 °C 8,0 km/h (2 Bft)
26.03.2019 03:31 -0,1 °C 90 % 1024,9 hPa 0,0 mm 4,3 km/h (1 Bft) NW 326 ° 0 min 0,000 mm 0,0 UV-I 0 W/m² -1,5 °C -0,1 °C 6,4 km/h (2 Bft)
26.03.2019 03:32 -0,1 °C 90 % 1024,9 hPa 0,0 mm 1,7 km/h (1 Bft) NW 326 ° 0 min 0,000 mm 0,0 UV-I 0 W/m² -1,5 °C -0,1 °C 3,2 km/h (1 Bft)
26.03.2019 03:33 -0,1 °C 90 % 1024,9 hPa 0,0 mm 4,2 km/h (1 Bft) NW 319 ° 0 min 0,000 mm 0,0 UV-I 0 W/m² -1,5 °C -0,1 °C 6,4 km/h (2 Bft)
26.03.2019 03:34 -0,1 °C 90 % 1024,9 hPa 0,0 mm 3,6 km/h (1 Bft) NW 322 ° 0 min 0,000 mm 0,0 UV-I 0 W/m² -1,5 °C -0,1 °C 6,4 km/h (2 Bft)
26.03.2019 03:35 -0,1 °C 90 % 1024,9 hPa 0,0 mm 1,5 km/h (1 Bft) NW 322 ° 0 min 0,000 mm 0,0 UV-I 0 W/m² -1,5 °C -0,1 °C 4,8 km/h (1 Bft)
26.03.2019 03:36 -0,1 °C 90 % 1024,9 hPa 0,0 mm 1,1 km/h (1 Bft) W-NW 288 ° 0 min 0,000 mm 0,0 UV-I 0 W/m² -1,5 °C -0,1 °C 4,8 km/h (1 Bft)
26.03.2019 03:37 -0,1 °C 90 % 1025,0 hPa 0,0 mm 3,5 km/h (1 Bft) N-NW 327 ° 0 min 0,000 mm 0,0 UV-I 0 W/m² -1,5 °C -0,1 °C 6,4 km/h (2 Bft)
26.03.2019 03:38 -0,1 °C 90 % 1025,0 hPa 0,0 mm 3,3 km/h (1 Bft) N-NW 327 ° 0 min 0,000 mm 0,0 UV-I 0 W/m² -1,5 °C -0,1 °C 4,8 km/h (1 Bft)
26.03.2019 03:39 -0,1 °C 90 % 1024,9 hPa 0,0 mm 1,4 km/h (1 Bft) N-NW 327 ° 0 min 0,000 mm 0,0 UV-I 0 W/m² -1,5 °C -0,1 °C 3,2 km/h (1 Bft)
26.03.2019 03:40 -0,1 °C 91 % 1025,0 hPa 0,0 mm 1,3 km/h (1 Bft) N-NW 327 ° 0 min 0,000 mm 0,0 UV-I 0 W/m² -1,4 °C -0,1 °C 3,2 km/h (1 Bft)
26.03.2019 03:41 -0,1 °C 90 % 1025,0 hPa 0,0 mm 3,6 km/h (1 Bft) N-NW 327 ° 0 min 0,000 mm 0,0 UV-I 0 W/m² -1,5 °C -0,1 °C 4,8 km/h (1 Bft)
26.03.2019 03:42 -0,1 °C 90 % 1025,0 hPa 0,0 mm 2,7 km/h (1 Bft) N 355 ° 0 min 0,000 mm 0,0 UV-I 0 W/m² -1,5 °C -0,1 °C 4,8 km/h (1 Bft)
26.03.2019 03:43 -0,1 °C 90 % 1025,0 hPa 0,0 mm 2,5 km/h (1 Bft) N 355 ° 0 min 0,000 mm 0,0 UV-I 0 W/m² -1,5 °C -0,1 °C 4,8 km/h (1 Bft)
26.03.2019 03:44 -0,1 °C 90 % 1025,0 hPa 0,0 mm 1,7 km/h (1 Bft) N 355 ° 0 min 0,000 mm 0,0 UV-I 0 W/m² -1,5 °C -0,1 °C 3,2 km/h (1 Bft)
26.03.2019 03:45 -0,1 °C 90 % 1025,0 hPa 0,0 mm 3,0 km/h (1 Bft) N 355 ° 0 min 0,000 mm 0,0 UV-I 0 W/m² -1,5 °C -0,1 °C 4,8 km/h (1 Bft)
26.03.2019 03:46 -0,1 °C 91 % 1025,0 hPa 0,0 mm 2,6 km/h (1 Bft) N 355 ° 0 min 0,000 mm 0,0 UV-I 0 W/m² -1,4 °C -0,1 °C 4,8 km/h (1 Bft)
26.03.2019 03:47 -0,1 °C 91 % 1025,0 hPa 0,0 mm 3,3 km/h (1 Bft) N 360 ° 0 min 0,000 mm 0,0 UV-I 0 W/m² -1,4 °C -0,1 °C 4,8 km/h (1 Bft)
26.03.2019 03:48 -0,1 °C 91 % 1025,0 hPa 0,0 mm 4,6 km/h (1 Bft) N 11 ° 0 min 0,000 mm 0,0 UV-I 0 W/m² -1,4 °C -1,5 °C 6,4 km/h (2 Bft)
26.03.2019 03:49 -0,1 °C 91 % 1025,0 hPa 0,0 mm 3,0 km/h (1 Bft) N 11 ° 0 min 0,000 mm 0,0 UV-I 0 W/m² -1,4 °C -0,1 °C 4,8 km/h (1 Bft)
26.03.2019 03:50 -0,1 °C 91 % 1025,0 hPa 0,0 mm 1,5 km/h (1 Bft) N 11 ° 0 min 0,000 mm 0,0 UV-I 0 W/m² -1,4 °C -0,1 °C 3,2 km/h (1 Bft)
26.03.2019 03:51 -0,1 °C 91 % 1025,0 hPa 0,0 mm 2,7 km/h (1 Bft) N 11 ° 0 min 0,000 mm 0,0 UV-I 0 W/m² -1,4 °C -0,1 °C 3,2 km/h (1 Bft)
26.03.2019 03:52 -0,1 °C 91 % 1025,1 hPa 0,0 mm 2,7 km/h (1 Bft) N 11 ° 0 min 0,000 mm 0,0 UV-I 0 W/m² -1,4 °C -0,1 °C 3,2 km/h (1 Bft)
26.03.2019 03:53 -0,1 °C 91 % 1025,2 hPa 0,0 mm 2,7 km/h (1 Bft) N 11 ° 0 min 0,000 mm 0,0 UV-I 0 W/m² -1,4 °C -0,1 °C 4,8 km/h (1 Bft)
26.03.2019 03:54 -0,1 °C 91 % 1025,2 hPa 0,0 mm 3,9 km/h (1 Bft) N 10 ° 0 min 0,000 mm 0,0 UV-I 0 W/m² -1,4 °C -0,1 °C 4,8 km/h (1 Bft)
26.03.2019 03:55 -0,1 °C 91 % 1025,2 hPa 0,0 mm 4,9 km/h (1 Bft) N 355 ° 0 min 0,000 mm 0,0 UV-I 0 W/m² -1,4 °C -1,7 °C 6,4 km/h (2 Bft)
26.03.2019 03:56 -0,1 °C 91 % 1025,2 hPa 0,0 mm 3,3 km/h (1 Bft) N 355 ° 0 min 0,000 mm 0,0 UV-I 0 W/m² -1,4 °C -0,1 °C 6,4 km/h (2 Bft)
26.03.2019 03:57 -0,1 °C 91 % 1025,2 hPa 0,0 mm 3,7 km/h (1 Bft) N 355 ° 0 min 0,000 mm 0,0 UV-I 0 W/m² -1,4 °C -0,1 °C 4,8 km/h (1 Bft)
26.03.2019 03:58 -0,1 °C 91 % 1025,2 hPa 0,0 mm 4,0 km/h (1 Bft) N 355 ° 0 min 0,000 mm 0,0 UV-I 0 W/m² -1,4 °C -0,1 °C 4,8 km/h (1 Bft)
26.03.2019 03:59 -0,1 °C 91 % 1025,2 hPa 0,0 mm 3,1 km/h (1 Bft) N 5 ° 0 min 0,000 mm 0,0 UV-I 0 W/m² -1,4 °C -0,1 °C 4,8 km/h (1 Bft)
26.03.2019 04:00 -0,1 °C 91 % 1025,2 hPa 0,0 mm 2,8 km/h (1 Bft) N 355 ° 0 min 0,000 mm 0,0 UV-I 0 W/m² -1,4 °C -0,1 °C 4,8 km/h (1 Bft)
26.03.2019 04:02 -0,2 °C 91 % 1025,2 hPa 0,0 mm 1,9 km/h (1 Bft) N 355 ° 0 min 0,000 mm 0,0 UV-I 0 W/m² -1,5 °C -0,2 °C 4,8 km/h (1 Bft)
26.03.2019 04:03 -0,2 °C 91 % 1025,2 hPa 0,0 mm 1,5 km/h (1 Bft) N 355 ° 0 min 0,000 mm 0,0 UV-I 0 W/m² -1,5 °C -0,2 °C 3,2 km/h (1 Bft)
26.03.2019 04:04 -0,1 °C 91 % 1025,2 hPa 0,0 mm 0,3 km/h (0 Bft) N 355 ° 0 min 0,000 mm 0,0 UV-I 0 W/m² -1,4 °C -0,1 °C 1,6 km/h (1 Bft)
26.03.2019 04:05 -0,2 °C 91 % 1025,2 hPa 0,0 mm 0,5 km/h (0 Bft) N 355 ° 0 min 0,000 mm 0,0 UV-I 0 W/m² -1,5 °C -0,2 °C 1,6 km/h (1 Bft)
26.03.2019 04:06 -0,2 °C 91 % 1025,3 hPa 0,0 mm 1,1 km/h (1 Bft) N 355 ° 0 min 0,000 mm 0,0 UV-I 0 W/m² -1,5 °C -0,2 °C 1,6 km/h (1 Bft)
26.03.2019 04:07 -0,1 °C 91 % 1025,3 hPa 0,0 mm 0,5 km/h (0 Bft) N 355 ° 0 min 0,000 mm 0,0 UV-I 0 W/m² -1,4 °C -0,1 °C 3,2 km/h (1 Bft)
26.03.2019 04:08 -0,1 °C 91 % 1025,2 hPa 0,0 mm 2,2 km/h (1 Bft) N 355 ° 0 min 0,000 mm 0,0 UV-I 0 W/m² -1,4 °C -0,1 °C 4,8 km/h (1 Bft)
26.03.2019 04:09 -0,1 °C 91 % 1025,2 hPa 0,0 mm 2,5 km/h (1 Bft) N 355 ° 0 min 0,000 mm 0,0 UV-I 0 W/m² -1,4 °C -0,1 °C 4,8 km/h (1 Bft)
26.03.2019 04:10 -0,2 °C 91 % 1025,3 hPa 0,0 mm 0,2 km/h (0 Bft) N 355 ° 0 min 0,000 mm 0,0 UV-I 0 W/m² -1,5 °C -0,2 °C 1,6 km/h (1 Bft)
26.03.2019 04:11 -0,1 °C 91 % 1025,3 hPa 0,0 mm 0,7 km/h (0 Bft) N 355 ° 0 min 0,000 mm 0,0 UV-I 0 W/m² -1,4 °C -0,1 °C 1,6 km/h (1 Bft)
26.03.2019 04:12 -0,1 °C 91 % 1025,3 hPa 0,0 mm 2,0 km/h (1 Bft) N 355 ° 0 min 0,000 mm 0,0 UV-I 0 W/m² -1,4 °C -0,1 °C 3,2 km/h (1 Bft)
26.03.2019 04:13 -0,1 °C 91 % 1025,3 hPa 0,0 mm 0,3 km/h (0 Bft) N 355 ° 0 min 0,000 mm 0,0 UV-I 0 W/m² -1,4 °C -0,1 °C 3,2 km/h (1 Bft)
26.03.2019 04:14 -0,1 °C 91 % 1025,4 hPa 0,0 mm 1,5 km/h (1 Bft) N 355 ° 0 min 0,000 mm 0,0 UV-I 0 W/m² -1,4 °C -0,1 °C 3,2 km/h (1 Bft)
26.03.2019 04:15 -0,1 °C 91 % 1025,3 hPa 0,0 mm 0,2 km/h (0 Bft) N 355 ° 0 min 0,000 mm 0,0 UV-I 0 W/m² -1,4 °C -0,1 °C 1,6 km/h (1 Bft)
26.03.2019 04:16 -0,1 °C 91 % 1025,3 hPa 0,0 mm 1,9 km/h (1 Bft) N 355 ° 0 min 0,000 mm 0,0 UV-I 0 W/m² -1,4 °C -0,1 °C 3,2 km/h (1 Bft)
26.03.2019 04:17 -0,1 °C 91 % 1025,4 hPa 0,0 mm 0,4 km/h (0 Bft) N 355 ° 0 min 0,000 mm 0,0 UV-I 0 W/m² -1,4 °C -0,1 °C 1,6 km/h (1 Bft)
26.03.2019 04:18 -0,2 °C 91 % 1025,3 hPa 0,0 mm 0,0 km/h (0 Bft) N 355 ° 0 min 0,000 mm 0,0 UV-I 0 W/m² -1,5 °C -0,2 °C 0,0 km/h (0 Bft)
26.03.2019 04:19 -0,2 °C 91 % 1025,3 hPa 0,0 mm 1,4 km/h (1 Bft) N 355 ° 0 min 0,000 mm 0,0 UV-I 0 W/m² -1,5 °C -0,2 °C 3,2 km/h (1 Bft)
26.03.2019 04:20 -0,2 °C 91 % 1025,3 hPa 0,0 mm 3,4 km/h (1 Bft) N 355 ° 0 min 0,000 mm 0,0 UV-I 0 W/m² -1,5 °C -0,2 °C 4,8 km/h (1 Bft)
26.03.2019 04:21 -0,2 °C 91 % 1025,3 hPa 0,0 mm 2,7 km/h (1 Bft) N-NW 348 ° 0 min 0,000 mm 0,0 UV-I 0 W/m² -1,5 °C -0,2 °C 4,8 km/h (1 Bft)
26.03.2019 04:22 -0,2 °C 91 % 1025,3 hPa 0,0 mm 3,2 km/h (1 Bft) N 349 ° 0 min 0,000 mm 0,0 UV-I 0 W/m² -1,5 °C -0,2 °C 4,8 km/h (1 Bft)
26.03.2019 04:23 -0,2 °C 91 % 1025,3 hPa 0,0 mm 3,4 km/h (1 Bft) N 349 ° 0 min 0,000 mm 0,0 UV-I 0 W/m² -1,5 °C -0,2 °C 4,8 km/h (1 Bft)
26.03.2019 04:24 -0,2 °C 91 % 1025,3 hPa 0,0 mm 2,3 km/h (1 Bft) N 349 ° 0 min 0,000 mm 0,0 UV-I 0 W/m² -1,5 °C -0,2 °C 4,8 km/h (1 Bft)
26.03.2019 04:25 -0,2 °C 91 % 1025,3 hPa 0,0 mm 2,4 km/h (1 Bft) N 349 ° 0 min 0,000 mm 0,0 UV-I 0 W/m² -1,5 °C -0,2 °C 3,2 km/h (1 Bft)
26.03.2019 04:26 -0,2 °C 91 % 1025,3 hPa 0,0 mm 2,8 km/h (1 Bft) N 349 ° 0 min 0,000 mm 0,0 UV-I 0 W/m² -1,5 °C -0,2 °C 4,8 km/h (1 Bft)
26.03.2019 04:27 -0,2 °C 91 % 1025,3 hPa 0,0 mm 1,7 km/h (1 Bft) N 349 ° 0 min 0,000 mm 0,0 UV-I 0 W/m² -1,5 °C -0,2 °C 3,2 km/h (1 Bft)
26.03.2019 04:28 -0,2 °C 91 % 1025,4 hPa 0,0 mm 1,5 km/h (1 Bft) N 349 ° 0 min 0,000 mm 0,0 UV-I 0 W/m² -1,5 °C -0,2 °C 3,2 km/h (1 Bft)
26.03.2019 04:29 -0,1 °C 91 % 1025,4 hPa 0,0 mm 2,7 km/h (1 Bft) N 349 ° 0 min 0,000 mm 0,0 UV-I 0 W/m² -1,4 °C -0,1 °C 3,2 km/h (1 Bft)
26.03.2019 04:30 -0,2 °C 91 % 1025,4 hPa 0,0 mm 1,0 km/h (0 Bft) N 349 ° 0 min 0,000 mm 0,0 UV-I 0 W/m² -1,5 °C -0,2 °C 1,6 km/h (1 Bft)
26.03.2019 04:31 -0,2 °C 91 % 1025,4 hPa 0,0 mm 4,2 km/h (1 Bft) N-NO 21 ° 0 min 0,000 mm 0,0 UV-I 0 W/m² -1,5 °C -0,2 °C 4,8 km/h (1 Bft)
26.03.2019 04:32 -0,1 °C 91 % 1025,4 hPa 0,0 mm 3,2 km/h (1 Bft) N-NO 21 ° 0 min 0,000 mm 0,0 UV-I 0 W/m² -1,4 °C -0,1 °C 6,4 km/h (2 Bft)
26.03.2019 04:33 -0,1 °C 91 % 1025,4 hPa 0,0 mm 1,3 km/h (1 Bft) N-NO 21 ° 0 min 0,000 mm 0,0 UV-I 0 W/m² -1,4 °C -0,1 °C 3,2 km/h (1 Bft)
26.03.2019 04:34 -0,1 °C 91 % 1025,4 hPa 0,0 mm 3,1 km/h (1 Bft) N-NO 21 ° 0 min 0,000 mm 0,0 UV-I 0 W/m² -1,4 °C -0,1 °C 4,8 km/h (1 Bft)
26.03.2019 04:35 -0,1 °C 91 % 1025,4 hPa 0,0 mm 2,3 km/h (1 Bft) N-NO 21 ° 0 min 0,000 mm 0,0 UV-I 0 W/m² -1,4 °C -0,1 °C 3,2 km/h (1 Bft)
26.03.2019 04:36 -0,2 °C 91 % 1025,5 hPa 0,0 mm 1,3 km/h (1 Bft) N-NO 21 ° 0 min 0,000 mm 0,0 UV-I 0 W/m² -1,5 °C -0,2 °C 3,2 km/h (1 Bft)
26.03.2019 04:37 -0,2 °C 91 % 1025,5 hPa 0,0 mm 0,0 km/h (0 Bft) N-NO 21 ° 0 min 0,000 mm 0,0 UV-I 0 W/m² -1,5 °C -0,2 °C 0,0 km/h (0 Bft)
26.03.2019 04:38 -0,2 °C 91 % 1025,5 hPa 0,0 mm 0,0 km/h (0 Bft) N-NO 21 ° 0 min 0,000 mm 0,0 UV-I 0 W/m² -1,5 °C -0,2 °C 0,0 km/h (0 Bft)
26.03.2019 04:39 -0,2 °C 91 % 1025,5 hPa 0,0 mm 0,0 km/h (0 Bft) N-NO 21 ° 0 min 0,000 mm 0,0 UV-I 0 W/m² -1,5 °C -0,2 °C 0,0 km/h (0 Bft)
26.03.2019 04:40 -0,1 °C 91 % 1025,5 hPa 0,0 mm 0,0 km/h (0 Bft) N-NO 21 ° 0 min 0,000 mm 0,0 UV-I 0 W/m² -1,4 °C -0,1 °C 0,0 km/h (0 Bft)
26.03.2019 04:41 -0,1 °C 91 % 1025,5 hPa 0,0 mm 0,0 km/h (0 Bft) N-NO 21 ° 0 min 0,000 mm 0,0 UV-I 0 W/m² -1,4 °C -0,1 °C 0,0 km/h (0 Bft)
26.03.2019 04:42 -0,2 °C 91 % 1025,5 hPa 0,0 mm 0,0 km/h (0 Bft) N-NO 21 ° 0 min 0,000 mm 0,0 UV-I 0 W/m² -1,5 °C -0,2 °C 0,0 km/h (0 Bft)
26.03.2019 04:43 -0,2 °C 91 % 1025,6 hPa 0,0 mm 0,0 km/h (0 Bft) N-NO 21 ° 0 min 0,000 mm 0,0 UV-I 0 W/m² -1,5 °C -0,2 °C 0,0 km/h (0 Bft)
26.03.2019 04:44 -0,1 °C 91 % 1025,5 hPa 0,0 mm 0,0 km/h (0 Bft) N-NO 21 ° 0 min 0,000 mm 0,0 UV-I 0 W/m² -1,4 °C -0,1 °C 0,0 km/h (0 Bft)
26.03.2019 04:45 -0,1 °C 91 % 1025,5 hPa 0,0 mm 0,0 km/h (0 Bft) N-NO 21 ° 0 min 0,000 mm 0,0 UV-I 0 W/m² -1,4 °C -0,1 °C 0,0 km/h (0 Bft)
26.03.2019 04:46 -0,1 °C 91 % 1025,5 hPa 0,0 mm 0,0 km/h (0 Bft) N-NO 21 ° 0 min 0,000 mm 0,0 UV-I 0 W/m² -1,4 °C -0,1 °C 0,0 km/h (0 Bft)
26.03.2019 04:47 -0,2 °C 91 % 1025,7 hPa 0,0 mm 0,0 km/h (0 Bft) N-NO 21 ° 0 min 0,000 mm 0,0 UV-I 0 W/m² -1,5 °C -0,2 °C 0,0 km/h (0 Bft)
26.03.2019 04:48 -0,2 °C 91 % 1025,6 hPa 0,0 mm 0,6 km/h (0 Bft) N-NO 21 ° 0 min 0,000 mm 0,0 UV-I 0 W/m² -1,5 °C -0,2 °C 3,2 km/h (1 Bft)
26.03.2019 04:49 -0,1 °C 91 % 1025,6 hPa 0,0 mm 0,6 km/h (0 Bft) N-NO 21 ° 0 min 0,000 mm 0,0 UV-I 0 W/m² -1,4 °C -0,1 °C 1,6 km/h (1 Bft)
26.03.2019 04:50 -0,1 °C 91 % 1025,6 hPa 0,0 mm 1,3 km/h (1 Bft) N-NO 21 ° 0 min 0,000 mm 0,0 UV-I 0 W/m² -1,4 °C -0,1 °C 3,2 km/h (1 Bft)
26.03.2019 04:51 -0,2 °C 91 % 1025,7 hPa 0,0 mm 1,5 km/h (1 Bft) N-NO 21 ° 0 min 0,000 mm 0,0 UV-I 0 W/m² -1,5 °C -0,2 °C 3,2 km/h (1 Bft)
26.03.2019 04:52 -0,2 °C 91 % 1025,7 hPa 0,0 mm 1,4 km/h (1 Bft) N-NO 21 ° 0 min 0,000 mm 0,0 UV-I 0 W/m² -1,5 °C -0,2 °C 3,2 km/h (1 Bft)
26.03.2019 04:53 -0,2 °C 91 % 1025,7 hPa 0,0 mm 0,8 km/h (0 Bft) N-NO 21 ° 0 min 0,000 mm 0,0 UV-I 0 W/m² -1,5 °C -0,2 °C 3,2 km/h (1 Bft)
26.03.2019 04:54 -0,2 °C 91 % 1025,7 hPa 0,0 mm 1,8 km/h (1 Bft) N-NO 21 ° 0 min 0,000 mm 0,0 UV-I 0 W/m² -1,5 °C -0,2 °C 3,2 km/h (1 Bft)
26.03.2019 04:55 -0,2 °C 91 % 1025,7 hPa 0,0 mm 2,2 km/h (1 Bft) N-NO 21 ° 0 min 0,000 mm 0,0 UV-I 0 W/m² -1,5 °C -0,2 °C 3,2 km/h (1 Bft)
26.03.2019 04:56 -0,1 °C 91 % 1025,7 hPa 0,0 mm 2,2 km/h (1 Bft) N-NO 21 ° 0 min 0,000 mm 0,0 UV-I 0 W/m² -1,4 °C -0,1 °C 3,2 km/h (1 Bft)
26.03.2019 04:57 -0,1 °C 91 % 1025,7 hPa 0,0 mm 1,6 km/h (1 Bft) N-NO 21 ° 0 min 0,000 mm 0,0 UV-I 0 W/m² -1,4 °C -0,1 °C 3,2 km/h (1 Bft)
26.03.2019 04:58 -0,1 °C 91 % 1025,8 hPa 0,0 mm 1,5 km/h (1 Bft) N-NO 21 ° 0 min 0,000 mm 0,0 UV-I 0 W/m² -1,4 °C -0,1 °C 3,2 km/h (1 Bft)
26.03.2019 04:59 -0,2 °C 91 % 1025,8 hPa 0,0 mm 0,2 km/h (0 Bft) N-NO 21 ° 0 min 0,000 mm 0,0 UV-I 0 W/m² -1,5 °C -0,2 °C 1,6 km/h (1 Bft)
26.03.2019 05:00 -0,2 °C 91 % 1025,8 hPa 0,0 mm 0,6 km/h (0 Bft) N-NO 21 ° 0 min 0,000 mm 0,0 UV-I 0 W/m² -1,5 °C -0,2 °C 1,6 km/h (1 Bft)
26.03.2019 05:01 -0,2 °C 91 % 1025,8 hPa 0,0 mm 0,6 km/h (0 Bft) N-NO 21 ° 0 min 0,000 mm 0,0 UV-I 0 W/m² -1,5 °C -0,2 °C 1,6 km/h (1 Bft)
26.03.2019 05:02 -0,2 °C 91 % 1025,8 hPa 0,0 mm 1,1 km/h (1 Bft) N-NO 21 ° 0 min 0,000 mm 0,0 UV-I 0 W/m² -1,5 °C -0,2 °C 3,2 km/h (1 Bft)
26.03.2019 05:03 -0,2 °C 91 % 1025,8 hPa 0,0 mm 4,1 km/h (1 Bft) N-NO 21 ° 0 min 0,000 mm 0,0 UV-I 0 W/m² -1,5 °C -0,2 °C 4,8 km/h (1 Bft)
26.03.2019 05:04 -0,2 °C 91 % 1025,8 hPa 0,0 mm 2,9 km/h (1 Bft) N-NO 21 ° 0 min 0,000 mm 0,0 UV-I 0 W/m² -1,5 °C -0,2 °C 4,8 km/h (1 Bft)
26.03.2019 05:05 -0,2 °C 91 % 1025,8 hPa 0,0 mm 0,0 km/h (0 Bft) N-NO 21 ° 0 min 0,000 mm 0,0 UV-I 0 W/m² -1,5 °C -0,2 °C 0,0 km/h (0 Bft)
26.03.2019 05:06 -0,2 °C 91 % 1025,8 hPa 0,0 mm 0,7 km/h (0 Bft) N-NO 21 ° 0 min 0,000 mm 0,0 UV-I 0 W/m² -1,5 °C -0,2 °C 3,2 km/h (1 Bft)
26.03.2019 05:07 -0,2 °C 91 % 1025,9 hPa 0,0 mm 1,3 km/h (1 Bft) N-NO 21 ° 0 min 0,000 mm 0,0 UV-I 0 W/m² -1,5 °C -0,2 °C 3,2 km/h (1 Bft)
26.03.2019 05:08 -0,2 °C 90 % 1025,9 hPa 0,0 mm 0,6 km/h (0 Bft) N-NO 21 ° 0 min 0,000 mm 0,0 UV-I 0 W/m² -1,6 °C -0,2 °C 1,6 km/h (1 Bft)
26.03.2019 05:09 -0,2 °C 90 % 1025,8 hPa 0,0 mm 0,0 km/h (0 Bft) N-NO 21 ° 0 min 0,000 mm 0,0 UV-I 0 W/m² -1,6 °C -0,2 °C 0,0 km/h (0 Bft)
26.03.2019 05:10 -0,2 °C 90 % 1025,8 hPa 0,0 mm 1,5 km/h (1 Bft) N-NO 21 ° 0 min 0,000 mm 0,0 UV-I 0 W/m² -1,6 °C -0,2 °C 3,2 km/h (1 Bft)
26.03.2019 05:11 -0,2 °C 90 % 1025,9 hPa 0,0 mm 1,5 km/h (1 Bft) N-NO 21 ° 0 min 0,000 mm 0,0 UV-I 0 W/m² -1,6 °C -0,2 °C 1,6 km/h (1 Bft)
26.03.2019 05:12 -0,2 °C 90 % 1025,9 hPa 0,0 mm 0,3 km/h (0 Bft) N-NO 21 ° 0 min 0,000 mm 0,0 UV-I 0 W/m² -1,6 °C -0,2 °C 1,6 km/h (1 Bft)
26.03.2019 05:13 -0,2 °C 91 % 1025,9 hPa 0,0 mm 0,0 km/h (0 Bft) N-NO 21 ° 0 min 0,000 mm 0,0 UV-I 0 W/m² -1,5 °C -0,2 °C 0,0 km/h (0 Bft)
26.03.2019 05:14 -0,2 °C 90 % 1025,9 hPa 0,0 mm 0,9 km/h (0 Bft) N-NO 21 ° 0 min 0,000 mm 0,0 UV-I 0 W/m² -1,6 °C -0,2 °C 3,2 km/h (1 Bft)
26.03.2019 05:15 -0,2 °C 90 % 1025,9 hPa 0,0 mm 1,0 km/h (0 Bft) N-NO 21 ° 0 min 0,000 mm 0,0 UV-I 0 W/m² -1,6 °C -0,2 °C 1,6 km/h (1 Bft)
26.03.2019 05:16 -0,1 °C 91 % 1025,9 hPa 0,0 mm 0,1 km/h (0 Bft) N-NO 21 ° 0 min 0,000 mm 0,0 UV-I 0 W/m² -1,4 °C -0,1 °C 1,6 km/h (1 Bft)
26.03.2019 05:17 -0,1 °C 91 % 1025,9 hPa 0,0 mm 0,0 km/h (0 Bft) N-NO 21 ° 0 min 0,000 mm 0,0 UV-I 0 W/m² -1,4 °C -0,1 °C 0,0 km/h (0 Bft)
26.03.2019 05:18 -0,1 °C 90 % 1026,0 hPa 0,0 mm 0,0 km/h (0 Bft) N-NO 21 ° 0 min 0,000 mm 0,0 UV-I 0 W/m² -1,5 °C -0,1 °C 0,0 km/h (0 Bft)
26.03.2019 05:19 -0,1 °C 90 % 1026,0 hPa 0,0 mm 0,5 km/h (0 Bft) N-NO 21 ° 0 min 0,000 mm 0,0 UV-I 0 W/m² -1,5 °C -0,1 °C 1,6 km/h (1 Bft)
26.03.2019 05:20 -0,1 °C 90 % 1026,1 hPa 0,0 mm 1,7 km/h (1 Bft) N-NO 21 ° 0 min 0,000 mm 0,0 UV-I 0 W/m² -1,5 °C -0,1 °C 3,2 km/h (1 Bft)
26.03.2019 05:21 -0,1 °C 90 % 1026,1 hPa 0,0 mm 2,6 km/h (1 Bft) N-NO 21 ° 0 min 0,000 mm 0,0 UV-I 0 W/m² -1,5 °C -0,1 °C 3,2 km/h (1 Bft)
26.03.2019 05:22 -0,1 °C 90 % 1026,1 hPa 0,0 mm 0,8 km/h (0 Bft) N-NO 21 ° 0 min 0,000 mm 0,0 UV-I 0 W/m² -1,5 °C -0,1 °C 3,2 km/h (1 Bft)
26.03.2019 05:23 -0,1 °C 90 % 1026,1 hPa 0,0 mm 0,0 km/h (0 Bft) N-NO 21 ° 0 min 0,000 mm 0,0 UV-I 0 W/m² -1,5 °C -0,1 °C 0,0 km/h (0 Bft)
26.03.2019 05:24 -0,1 °C 90 % 1026,1 hPa 0,0 mm 1,0 km/h (0 Bft) N-NO 21 ° 0 min 0,000 mm 0,0 UV-I 0 W/m² -1,5 °C -0,1 °C 3,2 km/h (1 Bft)
26.03.2019 05:25 -0,1 °C 90 % 1026,1 hPa 0,0 mm 1,3 km/h (1 Bft) N-NO 21 ° 0 min 0,000 mm 0,0 UV-I 0 W/m² -1,5 °C -0,1 °C 3,2 km/h (1 Bft)
26.03.2019 05:26 -0,1 °C 90 % 1026,1 hPa 0,0 mm 1,4 km/h (1 Bft) N-NO 21 ° 0 min 0,000 mm 0,0 UV-I 0 W/m² -1,5 °C -0,1 °C 3,2 km/h (1 Bft)
26.03.2019 05:27 -0,1 °C 90 % 1026,1 hPa 0,0 mm 0,0 km/h (0 Bft) N-NO 21 ° 0 min 0,000 mm 0,0 UV-I 0 W/m² -1,5 °C -0,1 °C 0,0 km/h (0 Bft)
26.03.2019 05:28 -0,1 °C 90 % 1026,1 hPa 0,0 mm 2,3 km/h (1 Bft) N-NO 21 ° 0 min 0,000 mm 0,0 UV-I 0 W/m² -1,5 °C -0,1 °C 3,2 km/h (1 Bft)
26.03.2019 05:29 -0,2 °C 90 % 1026,1 hPa 0,0 mm 2,6 km/h (1 Bft) N-NO 21 ° 0 min 0,000 mm 0,0 UV-I 0 W/m² -1,6 °C -0,2 °C 3,2 km/h (1 Bft)
26.03.2019 05:30 -0,2 °C 90 % 1026,1 hPa 0,0 mm 1,0 km/h (0 Bft) N-NO 21 ° 0 min 0,000 mm 0,0 UV-I 0 W/m² -1,6 °C -0,2 °C 3,2 km/h (1 Bft)
26.03.2019 05:31 -0,1 °C 90 % 1026,1 hPa 0,0 mm 1,8 km/h (1 Bft) N-NO 21 ° 0 min 0,000 mm 0,0 UV-I 0 W/m² -1,5 °C -0,1 °C 3,2 km/h (1 Bft)
26.03.2019 05:32 -0,2 °C 90 % 1026,1 hPa 0,0 mm 0,0 km/h (0 Bft) N-NO 21 ° 0 min 0,000 mm 0,0 UV-I 0 W/m² -1,6 °C -0,2 °C 0,0 km/h (0 Bft)
26.03.2019 05:33 -0,2 °C 90 % 1026,1 hPa 0,0 mm 2,0 km/h (1 Bft) N-NO 21 ° 0 min 0,000 mm 0,0 UV-I 0 W/m² -1,6 °C -0,2 °C 3,2 km/h (1 Bft)
26.03.2019 05:34 -0,2 °C 90 % 1026,2 hPa 0,0 mm 2,9 km/h (1 Bft) N-NO 21 ° 0 min 0,000 mm 0,0 UV-I 0 W/m² -1,6 °C -0,2 °C 4,8 km/h (1 Bft)
26.03.2019 05:35 -0,1 °C 90 % 1026,1 hPa 0,0 mm 2,3 km/h (1 Bft) N-NO 21 ° 0 min 0,000 mm 0,0 UV-I 0 W/m² -1,5 °C -0,1 °C 3,2 km/h (1 Bft)
26.03.2019 05:36 -0,2 °C 90 % 1026,2 hPa 0,0 mm 1,3 km/h (1 Bft) N-NO 21 ° 0 min 0,000 mm 0,0 UV-I 0 W/m² -1,6 °C -0,2 °C 3,2 km/h (1 Bft)
26.03.2019 05:37 -0,1 °C 90 % 1026,2 hPa 0,0 mm 0,1 km/h (0 Bft) N-NO 21 ° 0 min 0,000 mm 0,0 UV-I 0 W/m² -1,5 °C -0,1 °C 1,6 km/h (1 Bft)
26.03.2019 05:38 -0,1 °C 90 % 1026,2 hPa 0,0 mm 1,9 km/h (1 Bft) N-NO 21 ° 0 min 0,000 mm 0,0 UV-I 0 W/m² -1,5 °C -0,1 °C 3,2 km/h (1 Bft)
26.03.2019 05:39 -0,2 °C 90 % 1026,2 hPa 0,0 mm 2,8 km/h (1 Bft) N-NO 21 ° 0 min 0,000 mm 0,0 UV-I 0 W/m² -1,6 °C -0,2 °C 3,2 km/h (1 Bft)
26.03.2019 05:40 -0,2 °C 90 % 1026,2 hPa 0,0 mm 0,0 km/h (0 Bft) N-NO 21 ° 0 min 0,000 mm 0,0 UV-I 0 W/m² -1,6 °C -0,2 °C 0,0 km/h (0 Bft)
26.03.2019 05:41 -0,2 °C 90 % 1026,1 hPa 0,0 mm 0,0 km/h (0 Bft) N-NO 21 ° 0 min 0,000 mm 0,0 UV-I 0 W/m² -1,6 °C -0,2 °C 0,0 km/h (0 Bft)
26.03.2019 05:42 -0,2 °C 90 % 1026,1 hPa 0,0 mm 0,0 km/h (0 Bft) N-NO 21 ° 0 min 0,000 mm 0,0 UV-I 0 W/m² -1,6 °C -0,2 °C 0,0 km/h (0 Bft)
26.03.2019 05:43 -0,2 °C 90 % 1026,2 hPa 0,0 mm 0,1 km/h (0 Bft) N-NO 21 ° 0 min 0,000 mm 0,0 UV-I 0 W/m² -1,6 °C -0,2 °C 1,6 km/h (1 Bft)
26.03.2019 05:44 -0,1 °C 90 % 1026,2 hPa 0,0 mm 0,0 km/h (0 Bft) N-NO 21 ° 0 min 0,000 mm 0,0 UV-I 0 W/m² -1,5 °C -0,1 °C 0,0 km/h (0 Bft)
26.03.2019 05:45 -0,1 °C 90 % 1026,2 hPa 0,0 mm 0,5 km/h (0 Bft) N-NO 21 ° 0 min 0,000 mm 0,0 UV-I 0 W/m² -1,5 °C -0,1 °C 1,6 km/h (1 Bft)
26.03.2019 05:46 -0,2 °C 90 % 1026,2 hPa 0,0 mm 0,7 km/h (0 Bft) N-NO 21 ° 0 min 0,000 mm 0,0 UV-I 0 W/m² -1,6 °C -0,2 °C 1,6 km/h (1 Bft)
26.03.2019 05:47 -0,1 °C 90 % 1026,2 hPa 0,0 mm 1,7 km/h (1 Bft) N-NO 21 ° 0 min 0,000 mm 0,0 UV-I 0 W/m² -1,5 °C -0,1 °C 3,2 km/h (1 Bft)
26.03.2019 05:48 -0,1 °C 90 % 1026,3 hPa 0,0 mm 2,0 km/h (1 Bft) N-NO 21 ° 0 min 0,000 mm 0,0 UV-I 0 W/m² -1,5 °C -0,1 °C 3,2 km/h (1 Bft)
26.03.2019 05:49 -0,2 °C 90 % 1026,3 hPa 0,0 mm 0,9 km/h (0 Bft) N-NO 21 ° 0 min 0,000 mm 0,0 UV-I 0 W/m² -1,6 °C -0,2 °C 4,8 km/h (1 Bft)
26.03.2019 05:50 -0,1 °C 90 % 1026,3 hPa 0,0 mm 0,4 km/h (0 Bft) N-NO 21 ° 0 min 0,000 mm 0,0 UV-I 0 W/m² -1,5 °C -0,1 °C 1,6 km/h (1 Bft)
26.03.2019 05:51 -0,1 °C 90 % 1026,3 hPa 0,0 mm 0,0 km/h (0 Bft) N-NO 21 ° 0 min 0,000 mm 0,0 UV-I 0 W/m² -1,5 °C -0,1 °C 0,0 km/h (0 Bft)
26.03.2019 05:52 -0,1 °C 90 % 1026,4 hPa 0,0 mm 0,4 km/h (0 Bft) N-NO 21 ° 0 min 0,000 mm 0,0 UV-I 0 W/m² -1,5 °C -0,1 °C 1,6 km/h (1 Bft)
26.03.2019 05:53 -0,1 °C 90 % 1026,4 hPa 0,0 mm 0,3 km/h (0 Bft) N-NO 21 ° 0 min 0,000 mm 0,0 UV-I 0 W/m² -1,5 °C -0,1 °C 1,6 km/h (1 Bft)
26.03.2019 05:54 -0,1 °C 90 % 1026,4 hPa 0,0 mm 0,2 km/h (0 Bft) N-NO 21 ° 0 min 0,000 mm 0,0 UV-I 0 W/m² -1,5 °C -0,1 °C 1,6 km/h (1 Bft)
26.03.2019 05:55 -0,2 °C 90 % 1026,4 hPa 0,0 mm 0,0 km/h (0 Bft) N-NO 21 ° 0 min 0,000 mm 0,0 UV-I 0 W/m² -1,6 °C -0,2 °C 0,0 km/h (0 Bft)
26.03.2019 05:56 -0,2 °C 90 % 1026,4 hPa 0,0 mm 0,0 km/h (0 Bft) N-NO 21 ° 0 min 0,000 mm 0,0 UV-I 0 W/m² -1,6 °C -0,2 °C 0,0 km/h (0 Bft)
26.03.2019 05:57 -0,1 °C 90 % 1026,4 hPa 0,0 mm 0,0 km/h (0 Bft) N-NO 21 ° 0 min 0,000 mm 0,0 UV-I 0 W/m² -1,5 °C -0,1 °C 0,0 km/h (0 Bft)
26.03.2019 05:58 -0,1 °C 90 % 1026,4 hPa 0,0 mm 0,0 km/h (0 Bft) N-NO 21 ° 0 min 0,000 mm 0,0 UV-I 0 W/m² -1,5 °C -0,1 °C 0,0 km/h (0 Bft)
26.03.2019 05:59 -0,1 °C 90 % 1026,4 hPa 0,0 mm 0,0 km/h (0 Bft) N-NO 21 ° 0 min 0,000 mm 0,0 UV-I 0 W/m² -1,5 °C -0,1 °C 0,0 km/h (0 Bft)
26.03.2019 06:00 -0,2 °C 90 % 1026,4 hPa 0,0 mm 0,1 km/h (0 Bft) N-NO 21 ° 0 min 0,000 mm 0,0 UV-I 0 W/m² -1,6 °C -0,2 °C 1,6 km/h (1 Bft)
26.03.2019 06:01 -0,1 °C 90 % 1026,5 hPa 0,0 mm 0,7 km/h (0 Bft) N-NO 21 ° 0 min 0,000 mm 0,0 UV-I 0 W/m² -1,5 °C -0,1 °C 3,2 km/h (1 Bft)
26.03.2019 06:02 -0,2 °C 90 % 1026,5 hPa 0,0 mm 2,8 km/h (1 Bft) N-NO 21 ° 0 min 0,000 mm 0,0 UV-I 0 W/m² -1,6 °C -0,2 °C 4,8 km/h (1 Bft)
26.03.2019 06:03 -0,1 °C 90 % 1026,5 hPa 0,0 mm 3,6 km/h (1 Bft) N-NO 21 ° 0 min 0,000 mm 0,0 UV-I 0 W/m² -1,5 °C -0,1 °C 4,8 km/h (1 Bft)
26.03.2019 06:04 -0,1 °C 90 % 1026,5 hPa 0,0 mm 3,0 km/h (1 Bft) N-NO 21 ° 0 min 0,000 mm 0,0 UV-I 0 W/m² -1,5 °C -0,1 °C 4,8 km/h (1 Bft)
26.03.2019 06:05 -0,2 °C 90 % 1026,5 hPa 0,0 mm 3,1 km/h (1 Bft) N-NO 21 ° 0 min 0,000 mm 0,0 UV-I 0 W/m² -1,6 °C -0,2 °C 6,4 km/h (2 Bft)
26.03.2019 06:06 -0,1 °C 90 % 1026,6 hPa 0,0 mm 0,5 km/h (0 Bft) N-NO 21 ° 0 min 0,000 mm 0,0 UV-I 0 W/m² -1,5 °C -0,1 °C 1,6 km/h (1 Bft)
26.03.2019 06:07 -0,2 °C 90 % 1026,6 hPa 0,0 mm 0,3 km/h (0 Bft) N-NO 21 ° 0 min 0,000 mm 0,0 UV-I 0 W/m² -1,6 °C -0,2 °C 1,6 km/h (1 Bft)
26.03.2019 06:08 -0,2 °C 90 % 1026,6 hPa 0,0 mm 0,1 km/h (0 Bft) N-NO 21 ° 0 min 0,000 mm 0,0 UV-I 0 W/m² -1,6 °C -0,2 °C 1,6 km/h (1 Bft)
26.03.2019 06:09 -0,2 °C 90 % 1026,6 hPa 0,0 mm 1,4 km/h (1 Bft) N-NO 21 ° 0 min 0,000 mm 0,0 UV-I 0 W/m² -1,6 °C -0,2 °C 3,2 km/h (1 Bft)
26.03.2019 06:10 -0,2 °C 90 % 1026,5 hPa 0,0 mm 0,1 km/h (0 Bft) N-NO 21 ° 0 min 0,000 mm 0,0 UV-I 0 W/m² -1,6 °C -0,2 °C 1,6 km/h (1 Bft)
26.03.2019 06:11 -0,2 °C 90 % 1026,6 hPa 0,0 mm 1,1 km/h (1 Bft) N-NO 21 ° 0 min 0,000 mm 0,0 UV-I 0 W/m² -1,6 °C -0,2 °C 1,6 km/h (1 Bft)
26.03.2019 06:12 -0,2 °C 90 % 1026,7 hPa 0,0 mm 1,2 km/h (1 Bft) N-NO 21 ° 0 min 0,000 mm 0,0 UV-I 0 W/m² -1,6 °C -0,2 °C 3,2 km/h (1 Bft)
26.03.2019 06:13 -0,2 °C 90 % 1026,6 hPa 0,0 mm 0,0 km/h (0 Bft) N-NO 21 ° 0 min 0,000 mm 0,0 UV-I 0 W/m² -1,6 °C -0,2 °C 0,0 km/h (0 Bft)
26.03.2019 06:14 -0,2 °C 90 % 1026,6 hPa 0,0 mm 0,0 km/h (0 Bft) N-NO 21 ° 0 min 0,000 mm 0,0 UV-I 0 W/m² -1,6 °C -0,2 °C 0,0 km/h (0 Bft)
26.03.2019 06:15 -0,2 °C 90 % 1026,7 hPa 0,0 mm 0,0 km/h (0 Bft) N-NO 21 ° 0 min 0,000 mm 0,0 UV-I 0 W/m² -1,6 °C -0,2 °C 0,0 km/h (0 Bft)
26.03.2019 06:16 -0,2 °C 90 % 1026,6 hPa 0,0 mm 0,0 km/h (0 Bft) N-NO 21 ° 0 min 0,000 mm 0,0 UV-I 0 W/m² -1,6 °C -0,2 °C 0,0 km/h (0 Bft)
26.03.2019 06:17 -0,2 °C 90 % 1026,7 hPa 0,0 mm 0,0 km/h (0 Bft) N-NO 21 ° 0 min 0,000 mm 0,0 UV-I 0 W/m² -1,6 °C -0,2 °C 0,0 km/h (0 Bft)
26.03.2019 06:18 -0,2 °C 90 % 1026,7 hPa 0,0 mm 0,0 km/h (0 Bft) N-NO 21 ° 0 min 0,000 mm 0,0 UV-I 5 W/m² -1,6 °C -0,2 °C 0,0 km/h (0 Bft)
26.03.2019 06:19 -0,2 °C 90 % 1026,7 hPa 0,0 mm 0,0 km/h (0 Bft) N-NO 21 ° 0 min 0,000 mm 0,0 UV-I 5 W/m² -1,6 °C -0,2 °C 0,0 km/h (0 Bft)
26.03.2019 06:20 -0,2 °C 90 % 1026,7 hPa 0,0 mm 0,0 km/h (0 Bft) N-NO 21 ° 0 min 0,000 mm 0,0 UV-I 5 W/m² -1,6 °C -0,2 °C 0,0 km/h (0 Bft)
26.03.2019 06:21 -0,3 °C 90 % 1026,7 hPa 0,0 mm 0,0 km/h (0 Bft) N-NO 21 ° 0 min 0,000 mm 0,0 UV-I 7 W/m² -1,7 °C -0,3 °C 0,0 km/h (0 Bft)
26.03.2019 06:22 -0,2 °C 90 % 1026,7 hPa 0,0 mm 0,0 km/h (0 Bft) N-NO 21 ° 0 min 0,000 mm 0,0 UV-I 7 W/m² -1,6 °C -0,2 °C 0,0 km/h (0 Bft)
26.03.2019 06:23 -0,2 °C 90 % 1026,7 hPa 0,0 mm 0,0 km/h (0 Bft) N-NO 21 ° 0 min 0,000 mm 0,0 UV-I 7 W/m² -1,6 °C -0,2 °C 0,0 km/h (0 Bft)
26.03.2019 06:24 -0,2 °C 90 % 1026,8 hPa 0,0 mm 0,0 km/h (0 Bft) N-NO 21 ° 0 min 0,000 mm 0,0 UV-I 9 W/m² -1,6 °C -0,2 °C 0,0 km/h (0 Bft)
26.03.2019 06:25 -0,2 °C 90 % 1026,8 hPa 0,0 mm 0,0 km/h (0 Bft) N-NO 21 ° 0 min 0,000 mm 0,0 UV-I 9 W/m² -1,6 °C -0,2 °C 0,0 km/h (0 Bft)
26.03.2019 06:26 -0,2 °C 90 % 1026,7 hPa 0,0 mm 0,0 km/h (0 Bft) N-NO 21 ° 0 min 0,000 mm 0,0 UV-I 11 W/m² -1,6 °C -0,2 °C 0,0 km/h (0 Bft)
26.03.2019 06:27 -0,2 °C 90 % 1026,8 hPa 0,0 mm 0,0 km/h (0 Bft) N-NO 21 ° 0 min 0,000 mm 0,0 UV-I 11 W/m² -1,6 °C -0,2 °C 0,0 km/h (0 Bft)
26.03.2019 06:28 -0,2 °C 90 % 1026,8 hPa 0,0 mm 0,0 km/h (0 Bft) N-NO 21 ° 0 min 0,000 mm 0,0 UV-I 12 W/m² -1,6 °C -0,2 °C 0,0 km/h (0 Bft)
26.03.2019 06:29 -0,2 °C 90 % 1026,8 hPa 0,0 mm 0,0 km/h (0 Bft) N-NO 21 ° 0 min 0,000 mm 0,0 UV-I 11 W/m² -1,6 °C -0,2 °C 0,0 km/h (0 Bft)
26.03.2019 06:30 -0,2 °C 90 % 1026,8 hPa 0,0 mm 0,0 km/h (0 Bft) N-NO 21 ° 0 min 0,000 mm 0,0 UV-I 11 W/m² -1,6 °C -0,2 °C 0,0 km/h (0 Bft)
26.03.2019 06:31 -0,2 °C 90 % 1026,7 hPa 0,0 mm 0,0 km/h (0 Bft) N-NO 21 ° 0 min 0,000 mm 0,0 UV-I 11 W/m² -1,6 °C -0,2 °C 0,0 km/h (0 Bft)
26.03.2019 06:32 -0,2 °C 90 % 1026,7 hPa 0,0 mm 0,0 km/h (0 Bft) N-NO 21 ° 0 min 0,000 mm 0,0 UV-I 9 W/m² -1,6 °C -0,2 °C 0,0 km/h (0 Bft)
26.03.2019 06:33 -0,2 °C 90 % 1026,7 hPa 0,0 mm 0,0 km/h (0 Bft) N-NO 21 ° 0 min 0,000 mm 0,0 UV-I 9 W/m² -1,6 °C -0,2 °C 0,0 km/h (0 Bft)
26.03.2019 06:34 -0,2 °C 90 % 1026,7 hPa 0,0 mm 0,0 km/h (0 Bft) N-NO 21 ° 0 min 0,000 mm 0,0 UV-I 9 W/m² -1,6 °C -0,2 °C 0,0 km/h (0 Bft)
26.03.2019 06:35 -0,3 °C 90 % 1026,6 hPa 0,0 mm 0,0 km/h (0 Bft) N-NO 21 ° 0 min 0,000 mm 0,0 UV-I 11 W/m² -1,7 °C -0,3 °C 0,0 km/h (0 Bft)
26.03.2019 06:36 -0,2 °C 90 % 1026,7 hPa 0,0 mm 0,0 km/h (0 Bft) N-NO 21 ° 0 min 0,000 mm 0,0 UV-I 9 W/m² -1,6 °C -0,2 °C 0,0 km/h (0 Bft)
26.03.2019 06:37 -0,2 °C 90 % 1026,7 hPa 0,0 mm 0,0 km/h (0 Bft) N-NO 21 ° 0 min 0,000 mm 0,0 UV-I 9 W/m² -1,6 °C -0,2 °C 0,0 km/h (0 Bft)
26.03.2019 06:38 -0,2 °C 90 % 1026,8 hPa 0,0 mm 0,0 km/h (0 Bft) N-NO 21 ° 0 min 0,000 mm 0,0 UV-I 9 W/m² -1,6 °C -0,2 °C 0,0 km/h (0 Bft)
26.03.2019 06:39 -0,3 °C 90 % 1026,8 hPa 0,0 mm 0,0 km/h (0 Bft) N-NO 21 ° 0 min 0,000 mm 0,0 UV-I 9 W/m² -1,7 °C -0,3 °C 0,0 km/h (0 Bft)
26.03.2019 06:40 -0,3 °C 90 % 1026,8 hPa 0,0 mm 0,0 km/h (0 Bft) N-NO 21 ° 0 min 0,000 mm 0,0 UV-I 11 W/m² -1,7 °C -0,3 °C 0,0 km/h (0 Bft)
26.03.2019 06:41 -0,2 °C 90 % 1026,8 hPa 0,0 mm 0,0 km/h (0 Bft) N-NO 21 ° 0 min 0,000 mm 0,0 UV-I 11 W/m² -1,6 °C -0,2 °C 0,0 km/h (0 Bft)
26.03.2019 06:42 -0,2 °C 90 % 1026,8 hPa 0,0 mm 0,0 km/h (0 Bft) N-NO 21 ° 0 min 0,000 mm 0,0 UV-I 12 W/m² -1,6 °C -0,2 °C 0,0 km/h (0 Bft)
26.03.2019 06:43 -0,2 °C 90 % 1026,9 hPa 0,0 mm 0,0 km/h (0 Bft) N-NO 21 ° 0 min 0,000 mm 0,0 UV-I 14 W/m² -1,6 °C -0,2 °C 0,0 km/h (0 Bft)
26.03.2019 06:44 -0,2 °C 90 % 1026,8 hPa 0,0 mm 0,0 km/h (0 Bft) N-NO 21 ° 0 min 0,000 mm 0,0 UV-I 18 W/m² -1,6 °C -0,2 °C 0,0 km/h (0 Bft)
26.03.2019 06:45 -0,2 °C 90 % 1026,8 hPa 0,0 mm 2,3 km/h (1 Bft) N-NO 21 ° 0 min 0,000 mm 0,0 UV-I 21 W/m² -1,6 °C -0,2 °C 3,2 km/h (1 Bft)
26.03.2019 06:46 -0,2 °C 90 % 1026,9 hPa 0,0 mm 0,8 km/h (0 Bft) N-NO 21 ° 0 min 0,000 mm 0,0 UV-I 21 W/m² -1,6 °C -0,2 °C 1,6 km/h (1 Bft)
26.03.2019 06:47 -0,2 °C 90 % 1026,9 hPa 0,0 mm 2,3 km/h (1 Bft) N-NO 21 ° 0 min 0,000 mm 0,0 UV-I 23 W/m² -1,6 °C -0,2 °C 4,8 km/h (1 Bft)
26.03.2019 06:48 -0,2 °C 90 % 1026,8 hPa 0,0 mm 2,0 km/h (1 Bft) NO 37 ° 0 min 0,000 mm 0,0 UV-I 23 W/m² -1,6 °C -0,2 °C 3,2 km/h (1 Bft)
26.03.2019 06:49 -0,2 °C 90 % 1026,9 hPa 0,0 mm 2,3 km/h (1 Bft) O-NO 61 ° 0 min 0,000 mm 0,0 UV-I 23 W/m² -1,6 °C -0,2 °C 4,8 km/h (1 Bft)
26.03.2019 06:50 -0,2 °C 90 % 1026,9 hPa 0,0 mm 1,2 km/h (1 Bft) O-NO 61 ° 0 min 0,000 mm 0,0 UV-I 18 W/m² -1,6 °C -0,2 °C 3,2 km/h (1 Bft)
26.03.2019 06:51 -0,2 °C 90 % 1026,9 hPa 0,0 mm 2,0 km/h (1 Bft) O-NO 61 ° 0 min 0,000 mm 0,0 UV-I 16 W/m² -1,6 °C -0,2 °C 3,2 km/h (1 Bft)
26.03.2019 06:52 -0,2 °C 90 % 1026,9 hPa 0,0 mm 1,9 km/h (1 Bft) O-NO 61 ° 0 min 0,000 mm 0,0 UV-I 14 W/m² -1,6 °C -0,2 °C 4,8 km/h (1 Bft)
26.03.2019 06:53 -0,2 °C 90 % 1027,0 hPa 0,0 mm 3,6 km/h (1 Bft) O 80 ° 0 min 0,000 mm 0,0 UV-I 14 W/m² -1,6 °C -0,2 °C 6,4 km/h (2 Bft)
26.03.2019 06:54 -0,2 °C 90 % 1027,0 hPa 0,0 mm 1,6 km/h (1 Bft) O 80 ° 0 min 0,000 mm 0,0 UV-I 16 W/m² -1,6 °C -0,2 °C 4,8 km/h (1 Bft)
26.03.2019 06:55 -0,2 °C 90 % 1026,9 hPa 0,0 mm 0,5 km/h (0 Bft) O 80 ° 0 min 0,000 mm 0,0 UV-I 16 W/m² -1,6 °C -0,2 °C 3,2 km/h (1 Bft)
26.03.2019 06:56 -0,3 °C 90 % 1027,0 hPa 0,0 mm 0,4 km/h (0 Bft) O 80 ° 0 min 0,000 mm 0,0 UV-I 19 W/m² -1,7 °C -0,3 °C 3,2 km/h (1 Bft)
26.03.2019 06:57 -0,2 °C 90 % 1027,0 hPa 0,0 mm 1,8 km/h (1 Bft) O 80 ° 0 min 0,000 mm 0,0 UV-I 21 W/m² -1,6 °C -0,2 °C 4,8 km/h (1 Bft)
26.03.2019 06:58 -0,2 °C 90 % 1027,0 hPa 0,0 mm 3,3 km/h (1 Bft) O 80 ° 0 min 0,000 mm 0,0 UV-I 25 W/m² -1,6 °C -0,2 °C 4,8 km/h (1 Bft)
26.03.2019 06:59 -0,2 °C 90 % 1027,0 hPa 0,0 mm 1,6 km/h (1 Bft) O 80 ° 0 min 0,000 mm 0,0 UV-I 26 W/m² -1,6 °C -0,2 °C 3,2 km/h (1 Bft)
26.03.2019 07:00 -0,2 °C 90 % 1027,1 hPa 0,0 mm 0,7 km/h (0 Bft) O 80 ° 0 min 0,000 mm 0,0 UV-I 26 W/m² -1,6 °C -0,2 °C 3,2 km/h (1 Bft)
26.03.2019 07:01 -0,2 °C 90 % 1027,1 hPa 0,0 mm 0,0 km/h (0 Bft) O 80 ° 0 min 0,000 mm 0,0 UV-I 28 W/m² -1,6 °C -0,2 °C 0,0 km/h (0 Bft)
26.03.2019 07:02 -0,2 °C 90 % 1027,1 hPa 0,0 mm 0,2 km/h (0 Bft) O 80 ° 0 min 0,000 mm 0,0 UV-I 28 W/m² -1,6 °C -0,2 °C 1,6 km/h (1 Bft)
26.03.2019 07:03 -0,2 °C 90 % 1027,0 hPa 0,0 mm 0,0 km/h (0 Bft) O 80 ° 0 min 0,000 mm 0,0 UV-I 26 W/m² -1,6 °C -0,2 °C 0,0 km/h (0 Bft)
26.03.2019 07:04 -0,2 °C 90 % 1027,1 hPa 0,0 mm 0,0 km/h (0 Bft) O 80 ° 0 min 0,000 mm 0,0 UV-I 26 W/m² -1,6 °C -0,2 °C 0,0 km/h (0 Bft)
26.03.2019 07:05 -0,2 °C 90 % 1027,1 hPa 0,0 mm 2,1 km/h (1 Bft) O 80 ° 0 min 0,000 mm 0,0 UV-I 25 W/m² -1,6 °C -0,2 °C 3,2 km/h (1 Bft)
26.03.2019 07:06 -0,2 °C 90 % 1027,1 hPa 0,0 mm 2,7 km/h (1 Bft) O 80 ° 0 min 0,000 mm 0,0 UV-I 25 W/m² -1,6 °C -0,2 °C 4,8 km/h (1 Bft)
26.03.2019 07:07 -0,2 °C 90 % 1027,1 hPa 0,0 mm 2,1 km/h (1 Bft) O 80 ° 0 min 0,000 mm 0,0 UV-I 25 W/m² -1,6 °C -0,2 °C 4,8 km/h (1 Bft)
26.03.2019 07:08 -0,2 °C 90 % 1027,2 hPa 0,0 mm 3,5 km/h (1 Bft) O 80 ° 0 min 0,000 mm 0,0 UV-I 25 W/m² -1,6 °C -0,2 °C 4,8 km/h (1 Bft)
26.03.2019 07:09 -0,2 °C 90 % 1027,2 hPa 0,0 mm 3,1 km/h (1 Bft) O 80 ° 0 min 0,000 mm 0,0 UV-I 25 W/m² -1,6 °C -0,2 °C 4,8 km/h (1 Bft)
26.03.2019 07:10 -0,2 °C 89 % 1027,2 hPa 0,0 mm 1,3 km/h (1 Bft) NO 40 ° 0 min 0,000 mm 0,0 UV-I 25 W/m² -1,8 °C -0,2 °C 4,8 km/h (1 Bft)
26.03.2019 07:11 -0,2 °C 90 % 1027,2 hPa 0,0 mm 4,5 km/h (1 Bft) N-NO 28 ° 0 min 0,000 mm 0,0 UV-I 25 W/m² -1,6 °C -0,2 °C 6,4 km/h (2 Bft)
26.03.2019 07:12 -0,2 °C 90 % 1027,2 hPa 0,0 mm 2,5 km/h (1 Bft) N-NO 28 ° 0 min 0,000 mm 0,0 UV-I 26 W/m² -1,6 °C -0,2 °C 4,8 km/h (1 Bft)
26.03.2019 07:13 -0,2 °C 90 % 1027,2 hPa 0,0 mm 0,7 km/h (0 Bft) N-NO 28 ° 0 min 0,000 mm 0,0 UV-I 28 W/m² -1,6 °C -0,2 °C 1,6 km/h (1 Bft)
26.03.2019 07:14 -0,2 °C 90 % 1027,1 hPa 0,0 mm 2,6 km/h (1 Bft) N-NO 28 ° 0 min 0,000 mm 0,0 UV-I 26 W/m² -1,6 °C -0,2 °C 4,8 km/h (1 Bft)
26.03.2019 07:15 -0,2 °C 90 % 1027,1 hPa 0,0 mm 1,0 km/h (0 Bft) N-NO 28 ° 0 min 0,000 mm 0,0 UV-I 26 W/m² -1,6 °C -0,2 °C 3,2 km/h (1 Bft)
26.03.2019 07:16 -0,2 °C 90 % 1027,2 hPa 0,0 mm 2,7 km/h (1 Bft) N-NO 28 ° 0 min 0,000 mm 0,0 UV-I 26 W/m² -1,6 °C -0,2 °C 4,8 km/h (1 Bft)
26.03.2019 07:17 -0,2 °C 90 % 1027,2 hPa 0,0 mm 0,6 km/h (0 Bft) N-NO 28 ° 0 min 0,000 mm 0,0 UV-I 26 W/m² -1,6 °C -0,2 °C 3,2 km/h (1 Bft)
26.03.2019 07:18 -0,2 °C 89 % 1027,2 hPa 0,0 mm 1,3 km/h (1 Bft) N-NO 28 ° 0 min 0,000 mm 0,0 UV-I 25 W/m² -1,8 °C -0,2 °C 3,2 km/h (1 Bft)
26.03.2019 07:19 -0,2 °C 89 % 1027,3 hPa 0,0 mm 1,6 km/h (1 Bft) N-NO 28 ° 0 min 0,000 mm 0,0 UV-I 25 W/m² -1,8 °C -0,2 °C 3,2 km/h (1 Bft)
26.03.2019 07:20 -0,2 °C 89 % 1027,3 hPa 0,0 mm 1,9 km/h (1 Bft) N-NO 28 ° 0 min 0,000 mm 0,0 UV-I 25 W/m² -1,8 °C -0,2 °C 3,2 km/h (1 Bft)
26.03.2019 07:21 -0,2 °C 89 % 1027,3 hPa 0,0 mm 3,7 km/h (1 Bft) N-NO 30 ° 0 min 0,000 mm 0,0 UV-I 25 W/m² -1,8 °C -0,2 °C 6,4 km/h (2 Bft)
26.03.2019 07:22 -0,3 °C 89 % 1027,3 hPa 0,0 mm 5,7 km/h (1 Bft) NO 50 ° 0 min 0,000 mm 0,0 UV-I 26 W/m² -1,9 °C -2,2 °C 8,0 km/h (2 Bft)
26.03.2019 07:23 -0,3 °C 89 % 1027,3 hPa 0,0 mm 2,7 km/h (1 Bft) NO 50 ° 0 min 0,000 mm 0,0 UV-I 26 W/m² -1,9 °C -0,3 °C 4,8 km/h (1 Bft)
26.03.2019 07:24 -0,3 °C 89 % 1027,4 hPa 0,0 mm 1,5 km/h (1 Bft) NO 50 ° 0 min 0,000 mm 0,0 UV-I 28 W/m² -1,9 °C -0,3 °C 3,2 km/h (1 Bft)
26.03.2019 07:25 -0,3 °C 89 % 1027,4 hPa 0,0 mm 1,6 km/h (1 Bft) NO 50 ° 0 min 0,000 mm 0,0 UV-I 30 W/m² -1,9 °C -0,3 °C 3,2 km/h (1 Bft)
26.03.2019 07:26 -0,2 °C 89 % 1027,4 hPa 0,0 mm 0,9 km/h (0 Bft) NO 50 ° 0 min 0,000 mm 0,0 UV-I 30 W/m² -1,8 °C -0,2 °C 4,8 km/h (1 Bft)
26.03.2019 07:27 -0,2 °C 89 % 1027,4 hPa 0,0 mm 3,2 km/h (1 Bft) NO 50 ° 0 min 0,000 mm 0,0 UV-I 33 W/m² -1,8 °C -0,2 °C 4,8 km/h (1 Bft)
26.03.2019 07:28 -0,2 °C 89 % 1027,4 hPa 0,0 mm 1,3 km/h (1 Bft) NO 50 ° 0 min 0,000 mm 0,0 UV-I 35 W/m² -1,8 °C -0,2 °C 3,2 km/h (1 Bft)
26.03.2019 07:29 -0,2 °C 89 % 1027,4 hPa 0,0 mm 2,6 km/h (1 Bft) NO 50 ° 0 min 0,000 mm 0,0 UV-I 35 W/m² -1,8 °C -0,2 °C 3,2 km/h (1 Bft)
26.03.2019 07:30 -0,2 °C 89 % 1027,4 hPa 0,0 mm 2,8 km/h (1 Bft) N-NW 346 ° 0 min 0,000 mm 0,0 UV-I 37 W/m² -1,8 °C -0,2 °C 6,4 km/h (2 Bft)
26.03.2019 07:31 -0,2 °C 89 % 1027,4 hPa 0,0 mm 1,9 km/h (1 Bft) N-NW 346 ° 0 min 0,000 mm 0,0 UV-I 37 W/m² -1,8 °C -0,2 °C 3,2 km/h (1 Bft)
26.03.2019 07:32 -0,2 °C 89 % 1027,4 hPa 0,0 mm 3,6 km/h (1 Bft) N 11 ° 0 min 0,000 mm 0,0 UV-I 40 W/m² -1,8 °C -0,2 °C 6,4 km/h (2 Bft)
26.03.2019 07:33 -0,2 °C 89 % 1027,4 hPa 0,0 mm 4,0 km/h (1 Bft) N 11 ° 0 min 0,000 mm 0,0 UV-I 44 W/m² -1,8 °C -0,2 °C 6,4 km/h (2 Bft)
26.03.2019 07:34 -0,2 °C 89 % 1027,5 hPa 0,0 mm 2,6 km/h (1 Bft) N 11 ° 0 min 0,000 mm 0,0 UV-I 46 W/m² -1,8 °C -0,2 °C 3,2 km/h (1 Bft)
26.03.2019 07:35 -0,2 °C 89 % 1027,5 hPa 0,0 mm 0,8 km/h (0 Bft) N 11 ° 0 min 0,000 mm 0,0 UV-I 47 W/m² -1,8 °C -0,2 °C 3,2 km/h (1 Bft)
26.03.2019 07:36 -0,2 °C 89 % 1027,5 hPa 0,0 mm 1,0 km/h (0 Bft) N 11 ° 0 min 0,000 mm 0,0 UV-I 47 W/m² -1,8 °C -0,2 °C 3,2 km/h (1 Bft)
26.03.2019 07:37 -0,2 °C 89 % 1027,5 hPa 0,0 mm 2,3 km/h (1 Bft) N-NO 20 ° 0 min 0,000 mm 0,0 UV-I 46 W/m² -1,8 °C -0,2 °C 4,8 km/h (1 Bft)
26.03.2019 07:38 -0,2 °C 89 % 1027,5 hPa 0,0 mm 2,1 km/h (1 Bft) N-NO 20 ° 0 min 0,000 mm 0,0 UV-I 44 W/m² -1,8 °C -0,2 °C 4,8 km/h (1 Bft)
26.03.2019 07:39 -0,2 °C 89 % 1027,5 hPa 0,0 mm 2,6 km/h (1 Bft) N-NO 19 ° 0 min 0,000 mm 0,0 UV-I 42 W/m² -1,8 °C -0,2 °C 3,2 km/h (1 Bft)
26.03.2019 07:40 -0,2 °C 89 % 1027,5 hPa 0,0 mm 4,2 km/h (1 Bft) N-NO 19 ° 0 min 0,000 mm 0,0 UV-I 42 W/m² -1,8 °C -0,2 °C 4,8 km/h (1 Bft)
26.03.2019 07:41 -0,2 °C 89 % 1027,6 hPa 0,0 mm 4,4 km/h (1 Bft) N-NO 19 ° 0 min 0,000 mm 0,0 UV-I 42 W/m² -1,8 °C -0,2 °C 6,4 km/h (2 Bft)
26.03.2019 07:42 -0,2 °C 89 % 1027,6 hPa 0,0 mm 0,8 km/h (0 Bft) N-NO 19 ° 0 min 0,000 mm 0,0 UV-I 40 W/m² -1,8 °C -0,2 °C 3,2 km/h (1 Bft)
26.03.2019 07:43 -0,2 °C 89 % 1027,6 hPa 0,0 mm 3,6 km/h (1 Bft) NO 52 ° 0 min 0,000 mm 0,0 UV-I 40 W/m² -1,8 °C -0,2 °C 6,4 km/h (2 Bft)
26.03.2019 07:44 -0,2 °C 89 % 1027,6 hPa 0,0 mm 2,5 km/h (1 Bft) NO 52 ° 0 min 0,000 mm 0,0 UV-I 42 W/m² -1,8 °C -0,2 °C 4,8 km/h (1 Bft)
26.03.2019 07:45 -0,2 °C 89 % 1027,6 hPa 0,0 mm 2,2 km/h (1 Bft) NO 52 ° 0 min 0,000 mm 0,0 UV-I 44 W/m² -1,8 °C -0,2 °C 4,8 km/h (1 Bft)
26.03.2019 07:46 -0,2 °C 89 % 1027,6 hPa 0,0 mm 3,9 km/h (1 Bft) N-NO 29 ° 0 min 0,000 mm 0,0 UV-I 44 W/m² -1,8 °C -0,2 °C 6,4 km/h (2 Bft)
26.03.2019 07:47 -0,2 °C 89 % 1027,7 hPa 0,0 mm 2,9 km/h (1 Bft) N-NO 24 ° 0 min 0,000 mm 0,0 UV-I 44 W/m² -1,8 °C -0,2 °C 4,8 km/h (1 Bft)
26.03.2019 07:48 -0,2 °C 89 % 1027,6 hPa 0,0 mm 1,1 km/h (1 Bft) N-NO 24 ° 0 min 0,000 mm 0,0 UV-I 44 W/m² -1,8 °C -0,2 °C 4,8 km/h (1 Bft)
26.03.2019 07:49 -0,2 °C 89 % 1027,6 hPa 0,0 mm 2,8 km/h (1 Bft) N-NO 24 ° 0 min 0,000 mm 0,0 UV-I 44 W/m² -1,8 °C -0,2 °C 4,8 km/h (1 Bft)
26.03.2019 07:50 -0,2 °C 89 % 1027,7 hPa 0,0 mm 2,8 km/h (1 Bft) N-NO 24 ° 0 min 0,000 mm 0,0 UV-I 46 W/m² -1,8 °C -0,2 °C 4,8 km/h (1 Bft)
26.03.2019 07:51 -0,2 °C 89 % 1027,7 hPa 0,0 mm 1,9 km/h (1 Bft) N-NO 24 ° 0 min 0,000 mm 0,0 UV-I 46 W/m² -1,8 °C -0,2 °C 3,2 km/h (1 Bft)
26.03.2019 07:52 -0,2 °C 89 % 1027,7 hPa 0,0 mm 0,0 km/h (0 Bft) N-NO 24 ° 0 min 0,000 mm 0,0 UV-I 49 W/m² -1,8 °C -0,2 °C 0,0 km/h (0 Bft)
26.03.2019 07:53 -0,2 °C 88 % 1027,7 hPa 0,0 mm 0,0 km/h (0 Bft) N-NO 24 ° 0 min 0,000 mm 0,0 UV-I 51 W/m² -1,9 °C -0,2 °C 0,0 km/h (0 Bft)
26.03.2019 07:54 -0,2 °C 89 % 1027,7 hPa 0,0 mm 1,0 km/h (0 Bft) N-NO 24 ° 0 min 0,000 mm 0,0 UV-I 53 W/m² -1,8 °C -0,2 °C 3,2 km/h (1 Bft)
26.03.2019 07:55 -0,2 °C 89 % 1027,7 hPa 0,0 mm 2,2 km/h (1 Bft) N-NO 24 ° 0 min 0,000 mm 0,0 UV-I 54 W/m² -1,8 °C -0,2 °C 3,2 km/h (1 Bft)
26.03.2019 07:56 -0,2 °C 89 % 1027,7 hPa 0,0 mm 0,1 km/h (0 Bft) N-NO 24 ° 0 min 0,000 mm 0,0 UV-I 56 W/m² -1,8 °C -0,2 °C 1,6 km/h (1 Bft)
26.03.2019 07:57 -0,1 °C 89 % 1027,8 hPa 0,0 mm 1,0 km/h (0 Bft) N-NO 24 ° 0 min 0,000 mm 0,0 UV-I 60 W/m² -1,7 °C -0,1 °C 3,2 km/h (1 Bft)
26.03.2019 07:58 -0,1 °C 89 % 1027,8 hPa 0,0 mm 3,1 km/h (1 Bft) N-NO 24 ° 0 min 0,000 mm 0,0 UV-I 63 W/m² -1,7 °C -0,1 °C 4,8 km/h (1 Bft)
26.03.2019 07:59 -0,1 °C 89 % 1027,8 hPa 0,0 mm 3,1 km/h (1 Bft) N-NO 24 ° 0 min 0,000 mm 0,5 UV-I 69 W/m² -1,7 °C -0,1 °C 6,4 km/h (2 Bft)
26.03.2019 08:00 -0,1 °C 89 % 1027,8 hPa 0,0 mm 4,0 km/h (1 Bft) N-NO 24 ° 0 min 0,000 mm 0,5 UV-I 76 W/m² -1,7 °C -0,1 °C 4,8 km/h (1 Bft)
26.03.2019 08:01 -0,1 °C 89 % 1027,8 hPa 0,0 mm 5,0 km/h (1 Bft) N 5 ° 0 min 0,025 mm 0,5 UV-I 81 W/m² -1,7 °C -1,7 °C 6,4 km/h (2 Bft)
26.03.2019 08:02 -0,1 °C 88 % 1027,8 hPa 0,0 mm 4,8 km/h (1 Bft) N 5 ° 0 min 0,000 mm 0,6 UV-I 86 W/m² -1,8 °C -1,6 °C 8,0 km/h (2 Bft)
26.03.2019 08:03 -0,1 °C 89 % 1027,9 hPa 0,0 mm 4,8 km/h (1 Bft) N-NW 343 ° 0 min 0,000 mm 0,6 UV-I 90 W/m² -1,7 °C -1,6 °C 6,4 km/h (2 Bft)
26.03.2019 08:04 -0,1 °C 89 % 1027,8 hPa 0,0 mm 4,1 km/h (1 Bft) N-NW 343 ° 0 min 0,000 mm 0,6 UV-I 93 W/m² -1,7 °C -0,1 °C 6,4 km/h (2 Bft)
26.03.2019 08:05 -0,1 °C 88 % 1027,8 hPa 0,0 mm 4,5 km/h (1 Bft) N-NW 345 ° 0 min 0,000 mm 0,7 UV-I 98 W/m² -1,8 °C -0,1 °C 6,4 km/h (2 Bft)
26.03.2019 08:06 -0,1 °C 88 % 1027,9 hPa 0,0 mm 4,4 km/h (1 Bft) N-NW 345 ° 0 min 0,000 mm 0,7 UV-I 105 W/m² -1,8 °C -0,1 °C 6,4 km/h (2 Bft)
26.03.2019 08:07 -0,1 °C 88 % 1027,9 hPa 0,0 mm 3,7 km/h (1 Bft) NO 39 ° 0 min 0,000 mm 0,7 UV-I 107 W/m² -1,8 °C -0,1 °C 4,8 km/h (1 Bft)
26.03.2019 08:08 -0,1 °C 88 % 1027,9 hPa 0,0 mm 3,1 km/h (1 Bft) NO 38 ° 0 min 0,000 mm 0,7 UV-I 107 W/m² -1,8 °C -0,1 °C 4,8 km/h (1 Bft)
26.03.2019 08:09 -0,1 °C 88 % 1027,9 hPa 0,0 mm 1,9 km/h (1 Bft) NO 38 ° 0 min 0,000 mm 0,8 UV-I 105 W/m² -1,8 °C -0,1 °C 3,2 km/h (1 Bft)
26.03.2019 08:10 -0,1 °C 88 % 1027,9 hPa 0,0 mm 0,5 km/h (0 Bft) NO 38 ° 0 min 0,000 mm 0,8 UV-I 105 W/m² -1,8 °C -0,1 °C 3,2 km/h (1 Bft)
26.03.2019 08:11 -0,1 °C 88 % 1027,9 hPa 0,0 mm 3,4 km/h (1 Bft) NO 38 ° 0 min 0,000 mm 0,8 UV-I 105 W/m² -1,8 °C -0,1 °C 4,8 km/h (1 Bft)
26.03.2019 08:12 -0,1 °C 88 % 1027,9 hPa 0,0 mm 3,2 km/h (1 Bft) NO 38 ° 0 min 0,000 mm 0,8 UV-I 107 W/m² -1,8 °C -0,1 °C 4,8 km/h (1 Bft)
26.03.2019 08:13 0,0 °C 88 % 1027,9 hPa 0,0 mm 1,1 km/h (1 Bft) NO 38 ° 0 min 0,000 mm 0,8 UV-I 105 W/m² -1,7 °C 0,0 °C 1,6 km/h (1 Bft)
26.03.2019 08:14 0,0 °C 88 % 1027,9 hPa 0,0 mm 1,5 km/h (1 Bft) NO 38 ° 0 min 0,000 mm 0,8 UV-I 109 W/m² -1,7 °C 0,0 °C 3,2 km/h (1 Bft)
26.03.2019 08:15 -0,1 °C 88 % 1027,9 hPa 0,0 mm 0,2 km/h (0 Bft) NO 38 ° 0 min 0,000 mm 0,8 UV-I 109 W/m² -1,8 °C -0,1 °C 1,6 km/h (1 Bft)
26.03.2019 08:16 0,0 °C 88 % 1028,0 hPa 0,0 mm 0,0 km/h (0 Bft) NO 38 ° 0 min 0,000 mm 0,8 UV-I 109 W/m² -1,7 °C 0,0 °C 0,0 km/h (0 Bft)
26.03.2019 08:17 0,0 °C 88 % 1028,1 hPa 0,0 mm 0,5 km/h (0 Bft) NO 38 ° 0 min 0,000 mm 0,8 UV-I 111 W/m² -1,7 °C 0,0 °C 1,6 km/h (1 Bft)
26.03.2019 08:18 0,1 °C 88 % 1028,0 hPa 0,0 mm 2,5 km/h (1 Bft) NO 38 ° 0 min 0,000 mm 0,8 UV-I 114 W/m² -1,6 °C 0,1 °C 3,2 km/h (1 Bft)
26.03.2019 08:19 0,1 °C 88 % 1028,0 hPa 0,0 mm 1,9 km/h (1 Bft) NO 38 ° 0 min 0,000 mm 0,8 UV-I 118 W/m² -1,6 °C 0,1 °C 3,2 km/h (1 Bft)
26.03.2019 08:20 0,1 °C 88 % 1028,0 hPa 0,0 mm 2,6 km/h (1 Bft) NO 38 ° 0 min 0,000 mm 0,8 UV-I 120 W/m² -1,6 °C 0,1 °C 4,8 km/h (1 Bft)
26.03.2019 08:21 0,1 °C 88 % 1028,1 hPa 0,0 mm 2,1 km/h (1 Bft) NO 38 ° 0 min 0,000 mm 0,9 UV-I 121 W/m² -1,6 °C 0,1 °C 3,2 km/h (1 Bft)
26.03.2019 08:22 0,1 °C 88 % 1028,0 hPa 0,0 mm 0,1 km/h (0 Bft) NO 38 ° 0 min 0,000 mm 0,9 UV-I 123 W/m² -1,6 °C 0,1 °C 1,6 km/h (1 Bft)
26.03.2019 08:23 0,2 °C 88 % 1028,0 hPa 0,0 mm 0,7 km/h (0 Bft) NO 39 ° 0 min 0,000 mm 0,9 UV-I 123 W/m² -1,5 °C 0,2 °C 3,2 km/h (1 Bft)
26.03.2019 08:24 0,2 °C 88 % 1028,1 hPa 0,0 mm 4,8 km/h (1 Bft) N-NO 26 ° 0 min 0,000 mm 0,9 UV-I 125 W/m² -1,5 °C -1,3 °C 6,4 km/h (2 Bft)
26.03.2019 08:25 0,2 °C 87 % 1028,1 hPa 0,0 mm 4,2 km/h (1 Bft) N-NO 26 ° 0 min 0,000 mm 0,9 UV-I 125 W/m² -1,7 °C 0,2 °C 4,8 km/h (1 Bft)
26.03.2019 08:26 0,2 °C 87 % 1028,1 hPa 0,0 mm 4,2 km/h (1 Bft) N 5 ° 0 min 0,000 mm 0,9 UV-I 125 W/m² -1,7 °C 0,2 °C 4,8 km/h (1 Bft)
26.03.2019 08:27 0,2 °C 87 % 1028,1 hPa 0,0 mm 3,0 km/h (1 Bft) N 5 ° 0 min 0,000 mm 0,9 UV-I 127 W/m² -1,7 °C 0,2 °C 6,4 km/h (2 Bft)
26.03.2019 08:28 0,2 °C 87 % 1028,1 hPa 0,0 mm 4,2 km/h (1 Bft) N 5 ° 0 min 0,000 mm 1,0 UV-I 127 W/m² -1,7 °C 0,2 °C 4,8 km/h (1 Bft)
26.03.2019 08:29 0,2 °C 86 % 1028,1 hPa 0,0 mm 2,9 km/h (1 Bft) N 5 ° 0 min 0,000 mm 0,9 UV-I 120 W/m² -1,9 °C 0,2 °C 4,8 km/h (1 Bft)
26.03.2019 08:30 0,1 °C 86 % 1028,2 hPa 0,0 mm 1,1 km/h (1 Bft) N 5 ° 0 min 0,000 mm 0,9 UV-I 116 W/m² -2,0 °C 0,1 °C 1,6 km/h (1 Bft)
26.03.2019 08:31 0,1 °C 86 % 1028,1 hPa 0,0 mm 2,5 km/h (1 Bft) N 5 ° 0 min 0,000 mm 0,9 UV-I 114 W/m² -2,0 °C 0,1 °C 3,2 km/h (1 Bft)
26.03.2019 08:32 0,1 °C 86 % 1028,2 hPa 0,0 mm 2,0 km/h (1 Bft) N 5 ° 0 min 0,000 mm 0,9 UV-I 114 W/m² -2,0 °C 0,1 °C 3,2 km/h (1 Bft)
26.03.2019 08:33 0,1 °C 86 % 1028,1 hPa 0,0 mm 2,4 km/h (1 Bft) N 5 ° 0 min 0,000 mm 0,9 UV-I 113 W/m² -2,0 °C 0,1 °C 3,2 km/h (1 Bft)
26.03.2019 08:34 0,1 °C 86 % 1028,2 hPa 0,0 mm 2,7 km/h (1 Bft) N 5 ° 0 min 0,000 mm 0,9 UV-I 114 W/m² -2,0 °C 0,1 °C 4,8 km/h (1 Bft)
26.03.2019 08:35 0,2 °C 87 % 1028,2 hPa 0,0 mm 3,4 km/h (1 Bft) N 5 ° 0 min 0,000 mm 0,9 UV-I 118 W/m² -1,7 °C 0,2 °C 4,8 km/h (1 Bft)
26.03.2019 08:36 0,2 °C 87 % 1028,2 hPa 0,0 mm 0,3 km/h (0 Bft) N 5 ° 0 min 0,000 mm 0,9 UV-I 118 W/m² -1,7 °C 0,2 °C 1,6 km/h (1 Bft)
26.03.2019 08:37 0,2 °C 87 % 1028,2 hPa 0,0 mm 0,0 km/h (0 Bft) N 5 ° 0 min 0,000 mm 0,9 UV-I 118 W/m² -1,7 °C 0,2 °C 0,0 km/h (0 Bft)
26.03.2019 08:38 0,3 °C 87 % 1028,2 hPa 0,0 mm 0,0 km/h (0 Bft) N 5 ° 0 min 0,000 mm 0,9 UV-I 120 W/m² -1,6 °C 0,3 °C 0,0 km/h (0 Bft)
26.03.2019 08:39 0,3 °C 87 % 1028,2 hPa 0,0 mm 0,7 km/h (0 Bft) N 5 ° 0 min 0,000 mm 0,9 UV-I 118 W/m² -1,6 °C 0,3 °C 3,2 km/h (1 Bft)
26.03.2019 08:40 0,3 °C 87 % 1028,2 hPa 0,0 mm 3,1 km/h (1 Bft) N-NO 15 ° 0 min 0,000 mm 0,9 UV-I 118 W/m² -1,6 °C 0,3 °C 4,8 km/h (1 Bft)
26.03.2019 08:41 0,3 °C 87 % 1028,3 hPa 0,0 mm 1,7 km/h (1 Bft) N-NO 15 ° 0 min 0,000 mm 0,9 UV-I 114 W/m² -1,6 °C 0,3 °C 3,2 km/h (1 Bft)
26.03.2019 08:42 0,3 °C 86 % 1028,3 hPa 0,0 mm 0,0 km/h (0 Bft) N-NO 15 ° 0 min 0,000 mm 1,0 UV-I 116 W/m² -1,8 °C 0,3 °C 0,0 km/h (0 Bft)
26.03.2019 08:43 0,2 °C 86 % 1028,3 hPa 0,0 mm 2,0 km/h (1 Bft) N-NO 16 ° 0 min 0,000 mm 1,0 UV-I 120 W/m² -1,9 °C 0,2 °C 3,2 km/h (1 Bft)
26.03.2019 08:44 0,2 °C 86 % 1028,2 hPa 0,0 mm 1,5 km/h (1 Bft) N-NO 16 ° 0 min 0,000 mm 1,0 UV-I 125 W/m² -1,9 °C 0,2 °C 3,2 km/h (1 Bft)
26.03.2019 08:45 0,3 °C 86 % 1028,3 hPa 0,0 mm 0,0 km/h (0 Bft) N-NO 16 ° 0 min 0,000 mm 1,1 UV-I 134 W/m² -1,8 °C 0,3 °C 0,0 km/h (0 Bft)
26.03.2019 08:46 0,3 °C 86 % 1028,3 hPa 0,0 mm 0,0 km/h (0 Bft) N-NO 16 ° 0 min 0,000 mm 1,1 UV-I 142 W/m² -1,8 °C 0,3 °C 0,0 km/h (0 Bft)
26.03.2019 08:47 0,3 °C 85 % 1028,2 hPa 0,0 mm 0,0 km/h (0 Bft) N-NO 16 ° 0 min 0,000 mm 1,1 UV-I 167 W/m² -1,9 °C 0,3 °C 0,0 km/h (0 Bft)
26.03.2019 08:48 0,3 °C 85 % 1028,2 hPa 0,0 mm 0,0 km/h (0 Bft) N-NO 16 ° 0 min 0,000 mm 1,2 UV-I 179 W/m² -1,9 °C 0,3 °C 0,0 km/h (0 Bft)
26.03.2019 08:49 0,4 °C 86 % 1028,3 hPa 0,0 mm 0,0 km/h (0 Bft) N-NO 16 ° 0 min 0,000 mm 1,2 UV-I 192 W/m² -1,7 °C 0,4 °C 0,0 km/h (0 Bft)
26.03.2019 08:50 0,4 °C 86 % 1028,2 hPa 0,0 mm 2,4 km/h (1 Bft) O 101 ° 0 min 0,000 mm 1,2 UV-I 200 W/m² -1,7 °C 0,4 °C 6,4 km/h (2 Bft)
26.03.2019 08:51 0,4 °C 86 % 1028,3 hPa 0,0 mm 3,2 km/h (1 Bft) O 101 ° 0 min 0,000 mm 1,3 UV-I 206 W/m² -1,7 °C 0,4 °C 4,8 km/h (1 Bft)
26.03.2019 08:52 0,4 °C 86 % 1028,3 hPa 0,0 mm 2,7 km/h (1 Bft) O-NO 60 ° 0 min 0,000 mm 1,3 UV-I 206 W/m² -1,7 °C 0,4 °C 4,8 km/h (1 Bft)
26.03.2019 08:53 0,4 °C 86 % 1028,3 hPa 0,0 mm 0,7 km/h (0 Bft) O-NO 65 ° 0 min 0,000 mm 1,3 UV-I 200 W/m² -1,7 °C 0,4 °C 3,2 km/h (1 Bft)
26.03.2019 08:54 0,5 °C 86 % 1028,3 hPa 0,0 mm 1,1 km/h (1 Bft) O-NO 65 ° 0 min 0,000 mm 1,3 UV-I 195 W/m² -1,6 °C 0,5 °C 3,2 km/h (1 Bft)
26.03.2019 08:55 0,4 °C 86 % 1028,2 hPa 0,0 mm 0,1 km/h (0 Bft) O-NO 65 ° 0 min 0,000 mm 1,3 UV-I 192 W/m² -1,7 °C 0,4 °C 1,6 km/h (1 Bft)
26.03.2019 08:56 0,4 °C 85 % 1028,2 hPa 0,0 mm 0,0 km/h (0 Bft) O-NO 65 ° 0 min 0,000 mm 1,3 UV-I 190 W/m² -1,8 °C 0,4 °C 0,0 km/h (0 Bft)
26.03.2019 08:57 0,4 °C 85 % 1028,2 hPa 0,0 mm 1,2 km/h (1 Bft) O-NO 65 ° 0 min 0,000 mm 1,3 UV-I 193 W/m² -1,8 °C 0,4 °C 3,2 km/h (1 Bft)
26.03.2019 08:58 0,5 °C 85 % 1028,2 hPa 0,0 mm 2,8 km/h (1 Bft) O-NO 65 ° 0 min 0,000 mm 1,4 UV-I 207 W/m² -1,7 °C 0,5 °C 3,2 km/h (1 Bft)
26.03.2019 08:59 0,6 °C 85 % 1028,2 hPa 0,0 mm 1,9 km/h (1 Bft) O-NO 65 ° 0 min 0,000 mm 1,4 UV-I 213 W/m² -1,6 °C 0,6 °C 3,2 km/h (1 Bft)
26.03.2019 09:00 0,6 °C 85 % 1028,1 hPa 0,0 mm 0,0 km/h (0 Bft) O-NO 65 ° 0 min 0,000 mm 1,4 UV-I 214 W/m² -1,6 °C 0,6 °C 0,0 km/h (0 Bft)
26.03.2019 09:01 0,6 °C 85 % 1028,2 hPa 0,0 mm 0,0 km/h (0 Bft) O-NO 65 ° 0 min 0,051 mm 1,5 UV-I 218 W/m² -1,6 °C 0,6 °C 0,0 km/h (0 Bft)
26.03.2019 09:02 0,6 °C 84 % 1028,1 hPa 0,0 mm 0,0 km/h (0 Bft) O-NO 65 ° 0 min 0,000 mm 1,5 UV-I 223 W/m² -1,8 °C 0,6 °C 0,0 km/h (0 Bft)
26.03.2019 09:03 0,6 °C 84 % 1028,1 hPa 0,0 mm 0,1 km/h (0 Bft) O-NO 65 ° 0 min 0,000 mm 1,6 UV-I 236 W/m² -1,8 °C 0,6 °C 1,6 km/h (1 Bft)
26.03.2019 09:04 0,6 °C 84 % 1028,1 hPa 0,0 mm 0,0 km/h (0 Bft) O-NO 65 ° 0 min 0,000 mm 1,7 UV-I 292 W/m² -1,8 °C 0,6 °C 0,0 km/h (0 Bft)
26.03.2019 09:05 0,6 °C 85 % 1028,2 hPa 0,0 mm 0,7 km/h (0 Bft) O-NO 65 ° 0 min 0,000 mm 1,7 UV-I 292 W/m² -1,6 °C 0,6 °C 3,2 km/h (1 Bft)
26.03.2019 09:06 0,7 °C 85 % 1028,2 hPa 0,0 mm 2,8 km/h (1 Bft) O-NO 65 ° 0 min 0,000 mm 1,7 UV-I 244 W/m² -1,5 °C 0,7 °C 4,8 km/h (1 Bft)
26.03.2019 09:07 0,7 °C 85 % 1028,2 hPa 0,0 mm 0,0 km/h (0 Bft) O-NO 65 ° 0 min 0,000 mm 1,8 UV-I 278 W/m² -1,5 °C 0,7 °C 0,0 km/h (0 Bft)
26.03.2019 09:08 0,7 °C 84 % 1028,2 hPa 0,0 mm 0,0 km/h (0 Bft) O-NO 65 ° 0 min 0,000 mm 1,8 UV-I 267 W/m² -1,7 °C 0,7 °C 0,0 km/h (0 Bft)
26.03.2019 09:09 0,7 °C 83 % 1028,2 hPa 0,0 mm 0,2 km/h (0 Bft) O-NO 65 ° 0 min 0,000 mm 1,8 UV-I 251 W/m² -1,8 °C 0,7 °C 3,2 km/h (1 Bft)
26.03.2019 09:10 0,8 °C 84 % 1028,2 hPa 0,0 mm 2,7 km/h (1 Bft) O-NO 65 ° 0 min 0,000 mm 1,8 UV-I 276 W/m² -1,6 °C 0,8 °C 4,8 km/h (1 Bft)
26.03.2019 09:11 0,7 °C 83 % 1028,2 hPa 0,0 mm 2,9 km/h (1 Bft) O-NO 65 ° 0 min 0,000 mm 2,0 UV-I 341 W/m² -1,8 °C 0,7 °C 4,8 km/h (1 Bft)
26.03.2019 09:12 0,8 °C 84 % 1028,2 hPa 0,0 mm 0,7 km/h (0 Bft) O-NO 65 ° 0 min 0,000 mm 2,2 UV-I 341 W/m² -1,6 °C 0,8 °C 1,6 km/h (1 Bft)
26.03.2019 09:13 0,8 °C 84 % 1028,2 hPa 0,0 mm 2,4 km/h (1 Bft) O-NO 65 ° 0 min 0,000 mm 2,3 UV-I 552 W/m² -1,6 °C 0,8 °C 3,2 km/h (1 Bft)
26.03.2019 09:14 0,8 °C 83 % 1028,2 hPa 0,0 mm 2,7 km/h (1 Bft) O-NO 65 ° 0 min 0,000 mm 2,3 UV-I 566 W/m² -1,8 °C 0,8 °C 4,8 km/h (1 Bft)
26.03.2019 09:15 0,8 °C 83 % 1028,2 hPa 0,0 mm 0,8 km/h (0 Bft) O-NO 65 ° 0 min 0,000 mm 2,3 UV-I 570 W/m² -1,8 °C 0,8 °C 3,2 km/h (1 Bft)
26.03.2019 09:16 1,0 °C 84 % 1028,2 hPa 0,0 mm 1,5 km/h (1 Bft) O-NO 65 ° 0 min 0,000 mm 2,3 UV-I 582 W/m² -1,4 °C 1,0 °C 1,6 km/h (1 Bft)
26.03.2019 09:17 1,2 °C 84 % 1028,2 hPa 0,0 mm 0,0 km/h (0 Bft) O-NO 65 ° 0 min 0,000 mm 2,1 UV-I 584 W/m² -1,2 °C 1,2 °C 0,0 km/h (0 Bft)
26.03.2019 09:18 1,3 °C 85 % 1028,2 hPa 0,0 mm 0,0 km/h (0 Bft) O-NO 65 ° 0 min 0,000 mm 2,1 UV-I 584 W/m² -0,9 °C 1,3 °C 0,0 km/h (0 Bft)
26.03.2019 09:19 1,2 °C 82 % 1028,2 hPa 0,0 mm 0,0 km/h (0 Bft) O-NO 65 ° 0 min 0,000 mm 1,5 UV-I 584 W/m² -1,5 °C 1,2 °C 0,0 km/h (0 Bft)
26.03.2019 09:20 1,3 °C 81 % 1028,2 hPa 0,0 mm 0,0 km/h (0 Bft) O-NO 65 ° 0 min 0,000 mm 1,4 UV-I 162 W/m² -1,6 °C 1,3 °C 0,0 km/h (0 Bft)
26.03.2019 09:21 1,2 °C 81 % 1028,2 hPa 0,0 mm 0,0 km/h (0 Bft) O-NO 65 ° 0 min 0,000 mm 1,4 UV-I 171 W/m² -1,7 °C 1,2 °C 0,0 km/h (0 Bft)
26.03.2019 09:22 1,1 °C 80 % 1028,2 hPa 0,0 mm 0,2 km/h (0 Bft) O-NO 65 ° 0 min 0,000 mm 1,4 UV-I 202 W/m² -2,0 °C 1,1 °C 1,6 km/h (1 Bft)
26.03.2019 09:23 1,0 °C 80 % 1028,2 hPa 0,0 mm 0,2 km/h (0 Bft) O-NO 65 ° 0 min 0,000 mm 1,3 UV-I 202 W/m² -2,1 °C 1,0 °C 1,6 km/h (1 Bft)
26.03.2019 09:24 0,9 °C 80 % 1028,2 hPa 0,0 mm 0,7 km/h (0 Bft) O-NO 65 ° 0 min 0,000 mm 1,3 UV-I 195 W/m² -2,2 °C 0,9 °C 3,2 km/h (1 Bft)
26.03.2019 09:25 0,9 °C 81 % 1028,2 hPa 0,0 mm 0,1 km/h (0 Bft) O-NO 65 ° 0 min 0,000 mm 1,2 UV-I 185 W/m² -2,0 °C 0,9 °C 1,6 km/h (1 Bft)
26.03.2019 09:26 0,9 °C 81 % 1028,2 hPa 0,0 mm 0,0 km/h (0 Bft) O-NO 65 ° 0 min 0,000 mm 1,2 UV-I 174 W/m² -2,0 °C 0,9 °C 0,0 km/h (0 Bft)
26.03.2019 09:27 0,9 °C 81 % 1028,3 hPa 0,0 mm 2,4 km/h (1 Bft) O-NO 65 ° 0 min 0,000 mm 1,1 UV-I 169 W/m² -2,0 °C 0,9 °C 4,8 km/h (1 Bft)
26.03.2019 09:28 1,0 °C 80 % 1028,2 hPa 0,0 mm 3,2 km/h (1 Bft) O-NO 65 ° 0 min 0,000 mm 1,1 UV-I 155 W/m² -2,1 °C 1,0 °C 4,8 km/h (1 Bft)
26.03.2019 09:29 1,1 °C 81 % 1028,3 hPa 0,0 mm 4,0 km/h (1 Bft) N-NO 24 ° 0 min 0,000 mm 0,9 UV-I 141 W/m² -1,8 °C 1,1 °C 6,4 km/h (2 Bft)
26.03.2019 09:30 1,1 °C 81 % 1028,4 hPa 0,0 mm 5,8 km/h (2 Bft) N-NO 14 ° 0 min 0,000 mm 0,8 UV-I 128 W/m² -1,8 °C -0,7 °C 11,3 km/h (2 Bft)
26.03.2019 09:31 1,1 °C 81 % 1028,4 hPa 0,0 mm 3,8 km/h (1 Bft) N-NO 14 ° 0 min 0,000 mm 0,7 UV-I 118 W/m² -1,8 °C 1,1 °C 4,8 km/h (1 Bft)
26.03.2019 09:32 1,1 °C 81 % 1028,3 hPa 0,0 mm 3,2 km/h (1 Bft) N-NO 14 ° 0 min 0,000 mm 0,7 UV-I 109 W/m² -1,8 °C 1,1 °C 4,8 km/h (1 Bft)
26.03.2019 09:33 1,1 °C 81 % 1028,4 hPa 0,0 mm 4,0 km/h (1 Bft) N 355 ° 0 min 0,000 mm 0,6 UV-I 100 W/m² -1,8 °C 1,1 °C 8,0 km/h (2 Bft)
26.03.2019 09:34 1,1 °C 81 % 1028,3 hPa 0,0 mm 2,9 km/h (1 Bft) N 360 ° 0 min 0,000 mm 0,6 UV-I 91 W/m² -1,8 °C 1,1 °C 6,4 km/h (2 Bft)
26.03.2019 09:35 1,1 °C 82 % 1028,4 hPa 0,0 mm 6,5 km/h (2 Bft) NW 311 ° 0 min 0,000 mm 0,6 UV-I 93 W/m² -1,6 °C -0,9 °C 11,3 km/h (2 Bft)
26.03.2019 09:36 1,1 °C 82 % 1028,4 hPa 0,0 mm 3,5 km/h (1 Bft) W-NW 303 ° 0 min 0,000 mm 0,6 UV-I 97 W/m² -1,6 °C 1,1 °C 4,8 km/h (1 Bft)
26.03.2019 09:37 1,1 °C 82 % 1028,4 hPa 0,0 mm 4,2 km/h (1 Bft) N 350 ° 0 min 0,000 mm 0,7 UV-I 102 W/m² -1,6 °C 1,1 °C 6,4 km/h (2 Bft)
26.03.2019 09:38 1,1 °C 82 % 1028,4 hPa 0,0 mm 1,1 km/h (1 Bft) N 355 ° 0 min 0,000 mm 0,7 UV-I 105 W/m² -1,6 °C 1,1 °C 3,2 km/h (1 Bft)
26.03.2019 09:39 1,0 °C 83 % 1028,4 hPa 0,0 mm 3,2 km/h (1 Bft) N-NW 343 ° 0 min 0,000 mm 0,7 UV-I 107 W/m² -1,6 °C 1,0 °C 4,8 km/h (1 Bft)
26.03.2019 09:40 1,0 °C 83 % 1028,4 hPa 0,0 mm 2,9 km/h (1 Bft) N-NW 347 ° 0 min 0,000 mm 0,8 UV-I 111 W/m² -1,6 °C 1,0 °C 4,8 km/h (1 Bft)
26.03.2019 09:41 1,1 °C 83 % 1028,4 hPa 0,0 mm 3,0 km/h (1 Bft) N-NW 327 ° 0 min 0,000 mm 0,8 UV-I 111 W/m² -1,5 °C 1,1 °C 4,8 km/h (1 Bft)
26.03.2019 09:42 1,1 °C 83 % 1028,4 hPa 0,0 mm 5,0 km/h (1 Bft) NW 321 ° 0 min 0,000 mm 0,8 UV-I 113 W/m² -1,5 °C -0,3 °C 8,0 km/h (2 Bft)
26.03.2019 09:43 1,1 °C 83 % 1028,4 hPa 0,0 mm 1,2 km/h (1 Bft) NW 321 ° 0 min 0,000 mm 0,8 UV-I 114 W/m² -1,5 °C 1,1 °C 3,2 km/h (1 Bft)
26.03.2019 09:44 1,0 °C 82 % 1028,4 hPa 0,0 mm 1,7 km/h (1 Bft) NW 324 ° 0 min 0,000 mm 0,9 UV-I 120 W/m² -1,7 °C 1,0 °C 3,2 km/h (1 Bft)
26.03.2019 09:45 1,1 °C 83 % 1028,4 hPa 0,0 mm 1,9 km/h (1 Bft) NO 42 ° 0 min 0,000 mm 0,9 UV-I 130 W/m² -1,5 °C 1,1 °C 6,4 km/h (2 Bft)
26.03.2019 09:46 1,1 °C 83 % 1028,4 hPa 0,0 mm 3,4 km/h (1 Bft) NO 34 ° 0 min 0,000 mm 0,9 UV-I 135 W/m² -1,5 °C 1,1 °C 6,4 km/h (2 Bft)
26.03.2019 09:47 1,0 °C 83 % 1028,3 hPa 0,0 mm 4,2 km/h (1 Bft) NO 34 ° 0 min 0,000 mm 1,0 UV-I 139 W/m² -1,6 °C 1,0 °C 6,4 km/h (2 Bft)
26.03.2019 09:48 1,0 °C 82 % 1028,3 hPa 0,0 mm 5,0 km/h (1 Bft) N 360 ° 0 min 0,000 mm 1,0 UV-I 141 W/m² -1,7 °C -0,5 °C 6,4 km/h (2 Bft)
26.03.2019 09:49 0,9 °C 82 % 1028,4 hPa 0,0 mm 1,7 km/h (1 Bft) N 360 ° 0 min 0,000 mm 1,1 UV-I 142 W/m² -1,8 °C 0,9 °C 4,8 km/h (1 Bft)
26.03.2019 09:50 0,9 °C 82 % 1028,5 hPa 0,0 mm 3,3 km/h (1 Bft) NW 319 ° 0 min 0,000 mm 1,1 UV-I 142 W/m² -1,8 °C 0,9 °C 4,8 km/h (1 Bft)
26.03.2019 09:51 0,9 °C 82 % 1028,4 hPa 0,0 mm 3,2 km/h (1 Bft) NW 323 ° 0 min 0,000 mm 1,1 UV-I 149 W/m² -1,8 °C 0,9 °C 4,8 km/h (1 Bft)
26.03.2019 09:52 1,0 °C 82 % 1028,5 hPa 0,0 mm 3,0 km/h (1 Bft) N-NW 335 ° 0 min 0,000 mm 1,3 UV-I 151 W/m² -1,7 °C 1,0 °C 4,8 km/h (1 Bft)
26.03.2019 09:53 1,0 °C 82 % 1028,4 hPa 0,0 mm 1,1 km/h (1 Bft) N-NW 335 ° 0 min 0,000 mm 1,3 UV-I 153 W/m² -1,7 °C 1,0 °C 1,6 km/h (1 Bft)
26.03.2019 09:54 1,0 °C 81 % 1028,4 hPa 0,0 mm 0,0 km/h (0 Bft) N-NW 335 ° 0 min 0,000 mm 1,3 UV-I 153 W/m² -1,9 °C 1,0 °C 0,0 km/h (0 Bft)
26.03.2019 09:55 1,0 °C 81 % 1028,3 hPa 0,0 mm 0,5 km/h (0 Bft) N-NW 335 ° 0 min 0,000 mm 1,4 UV-I 156 W/m² -1,9 °C 1,0 °C 3,2 km/h (1 Bft)
26.03.2019 09:56 1,0 °C 81 % 1028,3 hPa 0,0 mm 0,4 km/h (0 Bft) N-NW 335 ° 0 min 0,000 mm 1,4 UV-I 162 W/m² -1,9 °C 1,0 °C 1,6 km/h (1 Bft)
26.03.2019 09:57 1,0 °C 81 % 1028,4 hPa 0,0 mm 2,1 km/h (1 Bft) N-NW 327 ° 0 min 0,000 mm 1,5 UV-I 178 W/m² -1,9 °C 1,0 °C 3,2 km/h (1 Bft)
26.03.2019 09:58 1,0 °C 81 % 1028,4 hPa 0,0 mm 0,1 km/h (0 Bft) N-NW 327 ° 0 min 0,000 mm 1,5 UV-I 181 W/m² -1,9 °C 1,0 °C 1,6 km/h (1 Bft)
26.03.2019 09:59 1,0 °C 81 % 1028,4 hPa 0,0 mm 1,2 km/h (1 Bft) N-NW 327 ° 0 min 0,000 mm 1,5 UV-I 183 W/m² -1,9 °C 1,0 °C 4,8 km/h (1 Bft)
26.03.2019 10:00 1,1 °C 81 % 1028,5 hPa 0,0 mm 3,0 km/h (1 Bft) N-NW 327 ° 0 min 0,000 mm 1,5 UV-I 178 W/m² -1,8 °C 1,1 °C 4,8 km/h (1 Bft)
26.03.2019 10:01 1,1 °C 82 % 1028,5 hPa 0,0 mm 1,8 km/h (1 Bft) N-NW 327 ° 0 min 0,076 mm 1,5 UV-I 169 W/m² -1,6 °C 1,1 °C 3,2 km/h (1 Bft)
26.03.2019 10:02 1,1 °C 81 % 1028,5 hPa 0,0 mm 0,1 km/h (0 Bft) N-NW 327 ° 0 min 0,000 mm 1,5 UV-I 163 W/m² -1,8 °C 1,1 °C 1,6 km/h (1 Bft)
26.03.2019 10:03 1,1 °C 82 % 1028,5 hPa 0,0 mm 0,8 km/h (0 Bft) N-NW 327 ° 0 min 0,000 mm 1,5 UV-I 169 W/m² -1,6 °C 1,1 °C 1,6 km/h (1 Bft)
26.03.2019 10:04 1,1 °C 82 % 1028,5 hPa 0,0 mm 0,8 km/h (0 Bft) N-NW 327 ° 0 min 0,000 mm 1,5 UV-I 178 W/m² -1,6 °C 1,1 °C 1,6 km/h (1 Bft)
26.03.2019 10:05 1,1 °C 81 % 1028,5 hPa 0,0 mm 0,0 km/h (0 Bft) N-NW 327 ° 0 min 0,000 mm 1,6 UV-I 185 W/m² -1,8 °C 1,1 °C 0,0 km/h (0 Bft)
26.03.2019 10:06 1,1 °C 82 % 1028,5 hPa 0,0 mm 0,0 km/h (0 Bft) N-NW 327 ° 0 min 0,000 mm 1,6 UV-I 190 W/m² -1,6 °C 1,1 °C 0,0 km/h (0 Bft)
26.03.2019 10:07 1,1 °C 81 % 1028,6 hPa 0,0 mm 0,0 km/h (0 Bft) N-NW 327 ° 0 min 0,000 mm 1,6 UV-I 192 W/m² -1,8 °C 1,1 °C 0,0 km/h (0 Bft)
26.03.2019 10:08 1,1 °C 81 % 1028,6 hPa 0,0 mm 0,0 km/h (0 Bft) N-NW 327 ° 0 min 0,000 mm 1,6 UV-I 192 W/m² -1,8 °C 1,1 °C 0,0 km/h (0 Bft)
26.03.2019 10:09 1,2 °C 81 % 1028,6 hPa 0,0 mm 0,0 km/h (0 Bft) N-NW 327 ° 0 min 0,000 mm 1,6 UV-I 192 W/m² -1,7 °C 1,2 °C 0,0 km/h (0 Bft)
26.03.2019 10:10 1,3 °C 82 % 1028,6 hPa 0,0 mm 0,0 km/h (0 Bft) N-NW 327 ° 0 min 0,000 mm 1,6 UV-I 190 W/m² -1,4 °C 1,3 °C 0,0 km/h (0 Bft)
26.03.2019 10:11 1,2 °C 81 % 1028,6 hPa 0,0 mm 0,0 km/h (0 Bft) N-NW 327 ° 0 min 0,000 mm 1,6 UV-I 186 W/m² -1,7 °C 1,2 °C 0,0 km/h (0 Bft)
26.03.2019 10:12 1,2 °C 80 % 1028,6 hPa 0,0 mm 0,0 km/h (0 Bft) N-NW 327 ° 0 min 0,000 mm 1,6 UV-I 185 W/m² -1,9 °C 1,2 °C 0,0 km/h (0 Bft)
26.03.2019 10:13 1,1 °C 79 % 1028,6 hPa 0,0 mm 0,0 km/h (0 Bft) N-NW 327 ° 0 min 0,000 mm 1,6 UV-I 185 W/m² -2,1 °C 1,1 °C 0,0 km/h (0 Bft)
26.03.2019 10:14 1,1 °C 80 % 1028,6 hPa 0,0 mm 0,0 km/h (0 Bft) N-NW 327 ° 0 min 0,000 mm 1,6 UV-I 185 W/m² -2,0 °C 1,1 °C 0,0 km/h (0 Bft)
26.03.2019 10:15 1,1 °C 80 % 1028,6 hPa 0,0 mm 0,0 km/h (0 Bft) N-NW 327 ° 0 min 0,000 mm 1,7 UV-I 186 W/m² -2,0 °C 1,1 °C 0,0 km/h (0 Bft)
26.03.2019 10:16 1,1 °C 80 % 1028,7 hPa 0,0 mm 0,0 km/h (0 Bft) N-NW 327 ° 0 min 0,000 mm 1,7 UV-I 185 W/m² -2,0 °C 1,1 °C 0,0 km/h (0 Bft)
26.03.2019 10:17 1,1 °C 79 % 1028,7 hPa 0,0 mm 0,0 km/h (0 Bft) N-NW 327 ° 0 min 0,000 mm 1,7 UV-I 183 W/m² -2,1 °C 1,1 °C 0,0 km/h (0 Bft)
26.03.2019 10:18 1,2 °C 80 % 1028,7 hPa 0,0 mm 0,0 km/h (0 Bft) N-NW 327 ° 0 min 0,000 mm 1,7 UV-I 179 W/m² -1,9 °C 1,2 °C 0,0 km/h (0 Bft)
26.03.2019 10:19 1,2 °C 80 % 1028,8 hPa 0,0 mm 0,0 km/h (0 Bft) N-NW 327 ° 0 min 0,000 mm 1,7 UV-I 178 W/m² -1,9 °C 1,2 °C 0,0 km/h (0 Bft)
26.03.2019 10:20 1,2 °C 79 % 1028,7 hPa 0,0 mm 0,0 km/h (0 Bft) N-NW 327 ° 0 min 0,000 mm 1,7 UV-I 178 W/m² -2,0 °C 1,2 °C 0,0 km/h (0 Bft)
26.03.2019 10:21 1,2 °C 79 % 1028,8 hPa 0,0 mm 0,0 km/h (0 Bft) N-NW 327 ° 0 min 0,000 mm 1,7 UV-I 185 W/m² -2,0 °C 1,2 °C 0,0 km/h (0 Bft)
26.03.2019 10:22 1,2 °C 80 % 1028,8 hPa 0,0 mm 1,5 km/h (1 Bft) N-NW 327 ° 0 min 0,000 mm 1,7 UV-I 193 W/m² -1,9 °C 1,2 °C 3,2 km/h (1 Bft)
26.03.2019 10:23 1,2 °C 80 % 1028,8 hPa 0,0 mm 1,2 km/h (1 Bft) N-NW 327 ° 0 min 0,000 mm 2,1 UV-I 257 W/m² -1,9 °C 1,2 °C 3,2 km/h (1 Bft)
26.03.2019 10:24 1,3 °C 80 % 1028,8 hPa 0,0 mm 0,5 km/h (0 Bft) N-NW 327 ° 0 min 0,000 mm 2,2 UV-I 257 W/m² -1,8 °C 1,3 °C 1,6 km/h (1 Bft)
26.03.2019 10:25 1,3 °C 79 % 1028,8 hPa 0,0 mm 0,0 km/h (0 Bft) N-NW 327 ° 0 min 0,000 mm 3,3 UV-I 257 W/m² -1,9 °C 1,3 °C 0,0 km/h (0 Bft)
26.03.2019 10:26 1,4 °C 80 % 1028,8 hPa 0,0 mm 1,5 km/h (1 Bft) NW 313 ° 0 min 0,000 mm 2,4 UV-I 257 W/m² -1,7 °C 1,4 °C 3,2 km/h (1 Bft)
26.03.2019 10:27 1,6 °C 80 % 1028,8 hPa 0,0 mm 2,1 km/h (1 Bft) W 265 ° 0 min 0,000 mm 2,0 UV-I 207 W/m² -1,5 °C 1,6 °C 4,8 km/h (1 Bft)
26.03.2019 10:28 1,6 °C 78 % 1028,8 hPa 0,0 mm 2,1 km/h (1 Bft) W 265 ° 0 min 0,000 mm 2,0 UV-I 244 W/m² -1,8 °C 1,6 °C 3,2 km/h (1 Bft)
26.03.2019 10:29 1,6 °C 76 % 1028,9 hPa 0,0 mm 0,0 km/h (0 Bft) W 265 ° 0 min 0,000 mm 3,2 UV-I 244 W/m² -2,2 °C 1,6 °C 0,0 km/h (0 Bft)
26.03.2019 10:30 1,6 °C 77 % 1028,9 hPa 0,0 mm 1,5 km/h (1 Bft) W-NW 298 ° 0 min 0,000 mm 3,2 UV-I 244 W/m² -2,0 °C 1,6 °C 6,4 km/h (2 Bft)
26.03.2019 10:31 1,7 °C 76 % 1028,9 hPa 0,0 mm 1,0 km/h (0 Bft) W-NW 298 ° 0 min 0,000 mm 1,9 UV-I 244 W/m² -2,1 °C 1,7 °C 4,8 km/h (1 Bft)
26.03.2019 10:32 1,7 °C 76 % 1028,8 hPa 0,0 mm 0,1 km/h (0 Bft) W-NW 298 ° 0 min 0,000 mm 1,9 UV-I 207 W/m² -2,1 °C 1,7 °C 1,6 km/h (1 Bft)
26.03.2019 10:33 1,7 °C 75 % 1028,8 hPa 0,0 mm 0,1 km/h (0 Bft) W-NW 298 ° 0 min 0,000 mm 1,9 UV-I 213 W/m² -2,2 °C 1,7 °C 1,6 km/h (1 Bft)
26.03.2019 10:34 1,6 °C 75 % 1028,9 hPa 0,0 mm 0,5 km/h (0 Bft) W-NW 298 ° 0 min 0,000 mm 2,0 UV-I 216 W/m² -2,3 °C 1,6 °C 3,2 km/h (1 Bft)
26.03.2019 10:35 1,6 °C 75 % 1028,8 hPa 0,0 mm 1,2 km/h (1 Bft) W-NW 298 ° 0 min 0,000 mm 2,0 UV-I 216 W/m² -2,3 °C 1,6 °C 3,2 km/h (1 Bft)
26.03.2019 10:36 1,6 °C 74 % 1028,9 hPa 0,0 mm 2,9 km/h (1 Bft) W-NW 298 ° 0 min 0,000 mm 2,0 UV-I 220 W/m² -2,5 °C 1,6 °C 3,2 km/h (1 Bft)
26.03.2019 10:37 1,6 °C 75 % 1028,8 hPa 0,0 mm 2,6 km/h (1 Bft) W-NW 298 ° 0 min 0,000 mm 2,0 UV-I 223 W/m² -2,3 °C 1,6 °C 3,2 km/h (1 Bft)
26.03.2019 10:38 1,7 °C 76 % 1028,9 hPa 0,0 mm 0,4 km/h (0 Bft) W-NW 298 ° 0 min 0,000 mm 2,1 UV-I 232 W/m² -2,1 °C 1,7 °C 1,6 km/h (1 Bft)
26.03.2019 10:39 1,7 °C 76 % 1028,9 hPa 0,0 mm 0,4 km/h (0 Bft) NW 316 ° 0 min 0,000 mm 2,1 UV-I 260 W/m² -2,1 °C 1,7 °C 3,2 km/h (1 Bft)
26.03.2019 10:40 1,7 °C 75 % 1029,0 hPa 0,0 mm 0,5 km/h (0 Bft) NW 316 ° 0 min 0,000 mm 2,2 UV-I 276 W/m² -2,2 °C 1,7 °C 1,6 km/h (1 Bft)
26.03.2019 10:41 1,7 °C 75 % 1029,0 hPa 0,0 mm 0,7 km/h (0 Bft) NW 316 ° 0 min 0,000 mm 2,2 UV-I 292 W/m² -2,2 °C 1,7 °C 3,2 km/h (1 Bft)
26.03.2019 10:42 1,8 °C 77 % 1028,9 hPa 0,0 mm 1,1 km/h (1 Bft) NW 316 ° 0 min 0,000 mm 2,3 UV-I 308 W/m² -1,8 °C 1,8 °C 3,2 km/h (1 Bft)
26.03.2019 10:43 1,8 °C 75 % 1029,0 hPa 0,0 mm 0,3 km/h (0 Bft) NW 316 ° 0 min 0,000 mm 2,3 UV-I 323 W/m² -2,1 °C 1,8 °C 1,6 km/h (1 Bft)
26.03.2019 10:44 1,8 °C 75 % 1029,0 hPa 0,0 mm 0,0 km/h (0 Bft) NW 316 ° 0 min 0,000 mm 2,3 UV-I 345 W/m² -2,1 °C 1,8 °C 0,0 km/h (0 Bft)
26.03.2019 10:45 1,9 °C 73 % 1029,0 hPa 0,0 mm 0,8 km/h (0 Bft) NW 315 ° 0 min 0,000 mm 2,3 UV-I 352 W/m² -2,4 °C 1,9 °C 1,6 km/h (1 Bft)
26.03.2019 10:46 1,9 °C 72 % 1028,9 hPa 0,0 mm 0,1 km/h (0 Bft) NW 315 ° 0 min 0,000 mm 2,3 UV-I 360 W/m² -2,6 °C 1,9 °C 1,6 km/h (1 Bft)
26.03.2019 10:47 1,9 °C 70 % 1028,9 hPa 0,0 mm 0,0 km/h (0 Bft) NW 315 ° 0 min 0,000 mm 2,3 UV-I 367 W/m² -3,0 °C 1,9 °C 0,0 km/h (0 Bft)
26.03.2019 10:48 2,0 °C 73 % 1028,9 hPa 0,0 mm 0,9 km/h (0 Bft) NW 326 ° 0 min 0,000 mm 2,3 UV-I 373 W/m² -2,3 °C 2,0 °C 1,6 km/h (1 Bft)
26.03.2019 10:49 2,1 °C 72 % 1028,9 hPa 0,0 mm 0,6 km/h (0 Bft) N-NW 331 ° 0 min 0,000 mm 2,4 UV-I 387 W/m² -2,4 °C 2,1 °C 1,6 km/h (1 Bft)
26.03.2019 10:50 2,1 °C 71 % 1028,9 hPa 0,0 mm 0,7 km/h (0 Bft) NW 319 ° 0 min 0,000 mm 2,5 UV-I 385 W/m² -2,6 °C 2,1 °C 4,8 km/h (1 Bft)
26.03.2019 10:51 2,2 °C 72 % 1028,9 hPa 0,0 mm 2,9 km/h (1 Bft) NW 319 ° 0 min 0,000 mm 2,2 UV-I 367 W/m² -2,3 °C 2,2 °C 4,8 km/h (1 Bft)
26.03.2019 10:52 2,3 °C 73 % 1028,9 hPa 0,0 mm 0,6 km/h (0 Bft) NW 319 ° 0 min 0,000 mm 2,2 UV-I 371 W/m² -2,0 °C 2,3 °C 3,2 km/h (1 Bft)
26.03.2019 10:53 2,3 °C 72 % 1028,9 hPa 0,0 mm 0,6 km/h (0 Bft) NW 319 ° 0 min 0,000 mm 2,2 UV-I 367 W/m² -2,2 °C 2,3 °C 4,8 km/h (1 Bft)
26.03.2019 10:54 2,4 °C 73 % 1029,0 hPa 0,0 mm 3,9 km/h (1 Bft) N-NW 344 ° 0 min 0,000 mm 2,0 UV-I 334 W/m² -1,9 °C 2,4 °C 4,8 km/h (1 Bft)
26.03.2019 10:55 2,6 °C 75 % 1029,0 hPa 0,0 mm 8,3 km/h (2 Bft) NW 310 ° 0 min 0,000 mm 2,0 UV-I 322 W/m² -1,4 °C 0,2 °C 16,1 km/h (3 Bft)
26.03.2019 10:56 2,7 °C 73 % 1029,0 hPa 0,0 mm 4,5 km/h (1 Bft) NW 325 ° 0 min 0,000 mm 2,0 UV-I 308 W/m² -1,6 °C 2,7 °C 8,0 km/h (2 Bft)
26.03.2019 10:57 2,6 °C 73 % 1029,0 hPa 0,0 mm 10,7 km/h (2 Bft) W-SW 256 ° 0 min 0,000 mm 1,9 UV-I 295 W/m² -1,7 °C -0,4 °C 14,5 km/h (3 Bft)
26.03.2019 10:58 2,7 °C 74 % 1029,0 hPa 0,0 mm 5,4 km/h (1 Bft) N 355 ° 0 min 0,000 mm 1,8 UV-I 297 W/m² -1,5 °C 1,3 °C 12,9 km/h (3 Bft)
26.03.2019 10:59 2,7 °C 75 % 1029,0 hPa 0,0 mm 5,9 km/h (2 Bft) W-NW 302 ° 0 min 0,000 mm 1,8 UV-I 288 W/m² -1,3 °C 1,1 °C 14,5 km/h (3 Bft)
26.03.2019 11:00 2,8 °C 76 % 1029,0 hPa 0,0 mm 6,3 km/h (2 Bft) N-NW 348 ° 0 min 0,000 mm 1,8 UV-I 292 W/m² -1,0 °C 1,1 °C 9,7 km/h (2 Bft)
26.03.2019 11:01 2,7 °C 74 % 1029,0 hPa 0,0 mm 7,1 km/h (2 Bft) NW 319 ° 0 min 0,102 mm 1,8 UV-I 283 W/m² -1,5 °C 0,7 °C 8,0 km/h (2 Bft)
26.03.2019 11:02 2,7 °C 75 % 1029,0 hPa 0,0 mm 8,7 km/h (2 Bft) NW 321 ° 0 min 0,000 mm 1,8 UV-I 299 W/m² -1,3 °C 0,2 °C 12,9 km/h (3 Bft)
26.03.2019 11:03 2,7 °C 75 % 1029,0 hPa 0,0 mm 8,7 km/h (2 Bft) NW 318 ° 0 min 0,000 mm 1,9 UV-I 299 W/m² -1,3 °C 0,2 °C 14,5 km/h (3 Bft)
26.03.2019 11:04 2,6 °C 75 % 1029,0 hPa 0,0 mm 10,9 km/h (2 Bft) N-NO 19 ° 0 min 0,000 mm 1,8 UV-I 285 W/m² -1,4 °C -0,4 °C 14,5 km/h (3 Bft)
26.03.2019 11:05 2,6 °C 75 % 1029,0 hPa 0,0 mm 8,3 km/h (2 Bft) NW 317 ° 0 min 0,000 mm 1,8 UV-I 278 W/m² -1,4 °C 0,2 °C 9,7 km/h (2 Bft)
26.03.2019 11:06 2,5 °C 75 % 1029,1 hPa 0,0 mm 6,0 km/h (2 Bft) NW 312 ° 0 min 0,000 mm 1,8 UV-I 279 W/m² -1,5 °C 0,8 °C 9,7 km/h (2 Bft)
26.03.2019 11:07 2,4 °C 76 % 1029,1 hPa 0,0 mm 6,9 km/h (2 Bft) N 351 ° 0 min 0,000 mm 1,8 UV-I 309 W/m² -1,4 °C 0,4 °C 14,5 km/h (3 Bft)
26.03.2019 11:08 2,4 °C 75 % 1029,1 hPa 0,0 mm 7,3 km/h (2 Bft) N-NW 329 ° 0 min 0,000 mm 1,9 UV-I 309 W/m² -1,6 °C 0,3 °C 9,7 km/h (2 Bft)
26.03.2019 11:09 2,5 °C 77 % 1029,1 hPa 0,0 mm 6,9 km/h (2 Bft) N-NW 331 ° 0 min 0,000 mm 1,8 UV-I 309 W/m² -1,1 °C 0,5 °C 9,7 km/h (2 Bft)
26.03.2019 11:10 2,6 °C 76 % 1029,1 hPa 0,0 mm 5,4 km/h (1 Bft) N-NW 341 ° 0 min 0,000 mm 1,9 UV-I 294 W/m² -1,2 °C 1,2 °C 9,7 km/h (2 Bft)
26.03.2019 11:11 2,6 °C 76 % 1029,1 hPa 0,0 mm 6,2 km/h (2 Bft) NW 315 ° 0 min 0,000 mm 1,8 UV-I 269 W/m² -1,2 °C 0,9 °C 8,0 km/h (2 Bft)
26.03.2019 11:12 2,6 °C 74 % 1029,1 hPa 0,0 mm 7,1 km/h (2 Bft) N-NW 336 ° 0 min 0,000 mm 1,8 UV-I 267 W/m² -1,6 °C 0,6 °C 9,7 km/h (2 Bft)
26.03.2019 11:13 2,5 °C 74 % 1029,1 hPa 0,0 mm 7,0 km/h (2 Bft) W-NW 302 ° 0 min 0,000 mm 1,8 UV-I 271 W/m² -1,7 °C 0,5 °C 9,7 km/h (2 Bft)
26.03.2019 11:14 2,6 °C 75 % 1029,2 hPa 0,0 mm 6,4 km/h (2 Bft) NW 313 ° 0 min 0,000 mm 1,9 UV-I 274 W/m² -1,4 °C 0,8 °C 12,9 km/h (3 Bft)
26.03.2019 11:15 2,6 °C 75 % 1029,1 hPa 0,0 mm 7,5 km/h (2 Bft) W-NW 298 ° 0 min 0,000 mm 1,9 UV-I 279 W/m² -1,4 °C 0,5 °C 14,5 km/h (3 Bft)
26.03.2019 11:16 2,5 °C 75 % 1029,1 hPa 0,0 mm 7,7 km/h (2 Bft) W 264 ° 0 min 0,000 mm 2,0 UV-I 283 W/m² -1,5 °C 0,3 °C 12,9 km/h (3 Bft)
26.03.2019 11:17 2,4 °C 75 % 1029,2 hPa 0,0 mm 6,0 km/h (2 Bft) N-NW 330 ° 0 min 0,000 mm 2,0 UV-I 287 W/m² -1,6 °C 0,7 °C 9,7 km/h (2 Bft)
26.03.2019 11:18 2,4 °C 76 % 1029,1 hPa 0,0 mm 5,3 km/h (1 Bft) NW 311 ° 0 min 0,000 mm 2,0 UV-I 288 W/m² -1,4 °C 1,0 °C 11,3 km/h (2 Bft)
26.03.2019 11:19 2,4 °C 76 % 1029,1 hPa 0,0 mm 4,6 km/h (1 Bft) NW 316 ° 0 min 0,000 mm 2,0 UV-I 288 W/m² -1,4 °C 1,3 °C 11,3 km/h (2 Bft)
26.03.2019 11:20 2,4 °C 76 % 1029,1 hPa 0,0 mm 6,0 km/h (2 Bft) N-NO 16 ° 0 min 0,000 mm 2,0 UV-I 287 W/m² -1,4 °C 0,7 °C 9,7 km/h (2 Bft)
26.03.2019 11:21 2,4 °C 76 % 1029,1 hPa 0,0 mm 5,9 km/h (2 Bft) W-NW 286 ° 0 min 0,000 mm 2,0 UV-I 287 W/m² -1,4 °C 0,8 °C 11,3 km/h (2 Bft)
26.03.2019 11:22 2,5 °C 76 % 1029,2 hPa 0,0 mm 9,6 km/h (2 Bft) W-NW 287 ° 0 min 0,000 mm 2,1 UV-I 294 W/m² -1,3 °C -0,2 °C 12,9 km/h (3 Bft)
26.03.2019 11:23 2,4 °C 75 % 1029,2 hPa 0,0 mm 10,6 km/h (2 Bft) W-NW 302 ° 0 min 0,000 mm 2,1 UV-I 297 W/m² -1,6 °C -0,6 °C 14,5 km/h (3 Bft)
26.03.2019 11:24 2,4 °C 75 % 1029,1 hPa 0,0 mm 5,9 km/h (2 Bft) W 281 ° 0 min 0,000 mm 2,1 UV-I 294 W/m² -1,6 °C 0,8 °C 8,0 km/h (2 Bft)
26.03.2019 11:25 2,4 °C 75 % 1029,2 hPa 0,0 mm 5,4 km/h (1 Bft) NW 325 ° 0 min 0,000 mm 2,0 UV-I 281 W/m² -1,6 °C 1,0 °C 8,0 km/h (2 Bft)
26.03.2019 11:26 2,3 °C 75 % 1029,1 hPa 0,0 mm 5,8 km/h (2 Bft) W-NW 284 ° 0 min 0,000 mm 2,1 UV-I 279 W/m² -1,7 °C 0,7 °C 9,7 km/h (2 Bft)
26.03.2019 11:27 2,4 °C 76 % 1029,1 hPa 0,0 mm 7,1 km/h (2 Bft) W-NW 289 ° 0 min 0,000 mm 2,1 UV-I 287 W/m² -1,4 °C 0,4 °C 11,3 km/h (2 Bft)
26.03.2019 11:28 2,3 °C 75 % 1029,2 hPa 0,0 mm 6,8 km/h (2 Bft) NW 314 ° 0 min 0,000 mm 2,1 UV-I 297 W/m² -1,7 °C 0,3 °C 11,3 km/h (2 Bft)
26.03.2019 11:29 2,4 °C 75 % 1029,1 hPa 0,0 mm 7,4 km/h (2 Bft) NW 323 ° 0 min 0,000 mm 2,1 UV-I 295 W/m² -1,6 °C 0,3 °C 12,9 km/h (3 Bft)
26.03.2019 11:30 2,4 °C 75 % 1029,2 hPa 0,0 mm 7,1 km/h (2 Bft) W 281 ° 0 min 0,000 mm 2,1 UV-I 290 W/m² -1,6 °C 0,4 °C 11,3 km/h (2 Bft)
26.03.2019 11:31 2,5 °C 75 % 1029,2 hPa 0,0 mm 6,5 km/h (2 Bft) W-NW 298 ° 0 min 0,000 mm 2,2 UV-I 292 W/m² -1,5 °C 0,7 °C 8,0 km/h (2 Bft)
26.03.2019 11:32 2,5 °C 74 % 1029,1 hPa 0,0 mm 5,1 km/h (1 Bft) NW 316 ° 0 min 0,000 mm 2,1 UV-I 287 W/m² -1,7 °C 1,2 °C 8,0 km/h (2 Bft)
26.03.2019 11:33 2,6 °C 75 % 1029,2 hPa 0,0 mm 8,7 km/h (2 Bft) W 280 ° 0 min 0,000 mm 2,1 UV-I 285 W/m² -1,4 °C 0,1 °C 12,9 km/h (3 Bft)
26.03.2019 11:34 2,7 °C 76 % 1029,2 hPa 0,0 mm 5,7 km/h (1 Bft) W-NW 296 ° 0 min 0,000 mm 2,2 UV-I 287 W/m² -1,1 °C 1,2 °C 11,3 km/h (2 Bft)
26.03.2019 11:35 2,6 °C 71 % 1029,1 hPa 0,0 mm 4,2 km/h (1 Bft) NW 311 ° 0 min 0,000 mm 2,2 UV-I 294 W/m² -2,1 °C 2,6 °C 6,4 km/h (2 Bft)
26.03.2019 11:36 2,6 °C 72 % 1029,2 hPa 0,0 mm 6,0 km/h (2 Bft) N-NW 328 ° 0 min 0,000 mm 2,2 UV-I 302 W/m² -1,9 °C 1,0 °C 11,3 km/h (2 Bft)
26.03.2019 11:37 2,6 °C 72 % 1029,2 hPa 0,0 mm 8,0 km/h (2 Bft) NW 312 ° 0 min 0,000 mm 2,3 UV-I 320 W/m² -1,9 °C 0,3 °C 12,9 km/h (3 Bft)
26.03.2019 11:38 2,7 °C 73 % 1029,1 hPa 0,0 mm 3,7 km/h (1 Bft) N-NW 330 ° 0 min 0,000 mm 2,4 UV-I 332 W/m² -1,6 °C 2,7 °C 8,0 km/h (2 Bft)
26.03.2019 11:39 2,7 °C 74 % 1029,1 hPa 0,0 mm 5,6 km/h (1 Bft) NW 325 ° 0 min 0,000 mm 2,4 UV-I 339 W/m² -1,5 °C 1,2 °C 8,0 km/h (2 Bft)
26.03.2019 11:40 2,7 °C 70 % 1029,1 hPa 0,0 mm 6,9 km/h (2 Bft) W-NW 288 ° 0 min 0,000 mm 2,4 UV-I 341 W/m² -2,2 °C 0,8 °C 12,9 km/h (3 Bft)
26.03.2019 11:41 2,6 °C 70 % 1029,1 hPa 0,0 mm 7,4 km/h (2 Bft) W 281 ° 0 min 0,000 mm 2,5 UV-I 345 W/m² -2,3 °C 0,5 °C 12,9 km/h (3 Bft)
26.03.2019 11:42 2,6 °C 70 % 1029,2 hPa 0,0 mm 5,5 km/h (1 Bft) NW 306 ° 0 min 0,000 mm 2,5 UV-I 346 W/m² -2,3 °C 1,2 °C 8,0 km/h (2 Bft)
26.03.2019 11:43 2,6 °C 69 % 1029,2 hPa 0,0 mm 5,0 km/h (1 Bft) W-NW 284 ° 0 min 0,000 mm 2,5 UV-I 362 W/m² -2,5 °C 1,4 °C 9,7 km/h (2 Bft)
26.03.2019 11:44 2,6 °C 69 % 1029,2 hPa 0,0 mm 5,7 km/h (1 Bft) W-NW 294 ° 0 min 0,000 mm 2,7 UV-I 378 W/m² -2,5 °C 1,1 °C 9,7 km/h (2 Bft)
26.03.2019 11:45 2,6 °C 69 % 1029,2 hPa 0,0 mm 4,3 km/h (1 Bft) NW 314 ° 0 min 0,000 mm 2,6 UV-I 364 W/m² -2,5 °C 2,6 °C 6,4 km/h (2 Bft)
26.03.2019 11:46 2,6 °C 70 % 1029,2 hPa 0,0 mm 1,2 km/h (1 Bft) W-NW 301 ° 0 min 0,000 mm 2,6 UV-I 350 W/m² -2,3 °C 2,6 °C 4,8 km/h (1 Bft)
26.03.2019 11:47 2,7 °C 71 % 1029,2 hPa 0,0 mm 1,5 km/h (1 Bft) N-NW 330 ° 0 min 0,000 mm 2,6 UV-I 345 W/m² -2,0 °C 2,7 °C 3,2 km/h (1 Bft)
26.03.2019 11:48 2,8 °C 71 % 1029,1 hPa 0,0 mm 0,8 km/h (0 Bft) N-NO 22 ° 0 min 0,000 mm 2,6 UV-I 341 W/m² -1,9 °C 2,8 °C 4,8 km/h (1 Bft)
26.03.2019 11:49 2,9 °C 70 % 1029,0 hPa 0,0 mm 5,5 km/h (1 Bft) W 275 ° 0 min 0,000 mm 2,6 UV-I 341 W/m² -2,0 °C 1,5 °C 11,3 km/h (2 Bft)
26.03.2019 11:50 2,9 °C 70 % 1029,0 hPa 0,0 mm 6,0 km/h (2 Bft) N-NW 327 ° 0 min 0,000 mm 2,6 UV-I 345 W/m² -2,0 °C 1,3 °C 9,7 km/h (2 Bft)
26.03.2019 11:51 3,1 °C 72 % 1029,1 hPa 0,0 mm 9,5 km/h (2 Bft) W 273 ° 0 min 0,000 mm 2,7 UV-I 345 W/m² -1,4 °C 0,5 °C 14,5 km/h (3 Bft)
26.03.2019 11:52 3,1 °C 69 % 1029,1 hPa 0,0 mm 7,3 km/h (2 Bft) W 277 ° 0 min 0,000 mm 2,7 UV-I 350 W/m² -2,0 °C 1,1 °C 11,3 km/h (2 Bft)
26.03.2019 11:53 3,0 °C 69 % 1029,1 hPa 0,0 mm 5,6 km/h (1 Bft) W-SW 257 ° 0 min 0,000 mm 2,7 UV-I 353 W/m² -2,1 °C 1,6 °C 9,7 km/h (2 Bft)
26.03.2019 11:54 2,9 °C 69 % 1029,0 hPa 0,0 mm 2,3 km/h (1 Bft) W-SW 256 ° 0 min 0,000 mm 2,7 UV-I 348 W/m² -2,2 °C 2,9 °C 4,8 km/h (1 Bft)
26.03.2019 11:55 2,9 °C 70 % 1028,9 hPa 0,0 mm 4,3 km/h (1 Bft) N-NW 331 ° 0 min 0,000 mm 2,9 UV-I 364 W/m² -2,0 °C 2,9 °C 6,4 km/h (2 Bft)
26.03.2019 11:56 2,9 °C 72 % 1028,9 hPa 0,0 mm 7,2 km/h (2 Bft) NW 315 ° 0 min 0,000 mm 2,7 UV-I 374 W/m² -1,6 °C 0,9 °C 12,9 km/h (3 Bft)
26.03.2019 11:57 2,9 °C 71 % 1028,9 hPa 0,0 mm 6,4 km/h (2 Bft) NW 307 ° 0 min 0,000 mm 2,6 UV-I 294 W/m² -1,8 °C 1,2 °C 8,0 km/h (2 Bft)
26.03.2019 11:58 3,0 °C 71 % 1028,9 hPa 0,0 mm 4,6 km/h (1 Bft) N-NW 343 ° 0 min 0,000 mm 2,6 UV-I 285 W/m² -1,7 °C 2,0 °C 6,4 km/h (2 Bft)
26.03.2019 11:59 2,9 °C 70 % 1028,9 hPa 0,0 mm 2,9 km/h (1 Bft) N-NW 346 ° 0 min 0,000 mm 2,6 UV-I 288 W/m² -2,0 °C 2,9 °C 4,8 km/h (1 Bft)
26.03.2019 12:00 3,0 °C 70 % 1028,9 hPa 0,0 mm 2,3 km/h (1 Bft) N-NW 328 ° 0 min 0,000 mm 2,7 UV-I 315 W/m² -1,9 °C 3,0 °C 4,8 km/h (1 Bft)
26.03.2019 12:01 3,0 °C 70 % 1028,9 hPa 0,0 mm 2,6 km/h (1 Bft) N-NW 336 ° 0 min 0,127 mm 3,2 UV-I 315 W/m² -1,9 °C 3,0 °C 4,8 km/h (1 Bft)
26.03.2019 12:02 2,9 °C 68 % 1028,8 hPa 0,0 mm 2,4 km/h (1 Bft) N-NW 334 ° 0 min 0,000 mm 2,6 UV-I 315 W/m² -2,4 °C 2,9 °C 4,8 km/h (1 Bft)
26.03.2019 12:03 2,9 °C 66 % 1028,9 hPa 0,0 mm 3,5 km/h (1 Bft) N 360 ° 0 min 0,000 mm 2,6 UV-I 269 W/m² -2,8 °C 2,9 °C 8,0 km/h (2 Bft)
26.03.2019 12:04 2,9 °C 66 % 1028,8 hPa 0,0 mm 5,1 km/h (1 Bft) N-NW 337 ° 0 min 0,000 mm 2,6 UV-I 264 W/m² -2,8 °C 1,7 °C 9,7 km/h (2 Bft)
26.03.2019 12:05 2,9 °C 67 % 1028,8 hPa 0,0 mm 9,9 km/h (2 Bft) NW 317 ° 0 min 0,000 mm 2,7 UV-I 292 W/m² -2,6 °C 0,2 °C 16,1 km/h (3 Bft)
26.03.2019 12:06 2,9 °C 66 % 1028,9 hPa 0,0 mm 5,4 km/h (1 Bft) N 5 ° 0 min 0,000 mm 2,7 UV-I 371 W/m² -2,8 °C 1,5 °C 9,7 km/h (2 Bft)
26.03.2019 12:07 2,9 °C 66 % 1028,9 hPa 0,0 mm 1,3 km/h (1 Bft) N 360 ° 0 min 0,000 mm 3,1 UV-I 397 W/m² -2,8 °C 2,9 °C 3,2 km/h (1 Bft)
26.03.2019 12:08 2,8 °C 64 % 1028,8 hPa 0,0 mm 1,3 km/h (1 Bft) W-SW 257 ° 0 min 0,000 mm 2,5 UV-I 397 W/m² -3,3 °C 2,8 °C 4,8 km/h (1 Bft)
26.03.2019 12:09 2,8 °C 64 % 1028,8 hPa 0,0 mm 4,1 km/h (1 Bft) W-NW 286 ° 0 min 0,000 mm 2,4 UV-I 221 W/m² -3,3 °C 2,8 °C 6,4 km/h (2 Bft)
26.03.2019 12:10 2,8 °C 68 % 1028,8 hPa 0,0 mm 4,6 km/h (1 Bft) W-NW 294 ° 0 min 0,000 mm 2,3 UV-I 199 W/m² -2,5 °C 1,8 °C 6,4 km/h (2 Bft)
26.03.2019 12:11 2,8 °C 69 % 1028,8 hPa 0,0 mm 2,1 km/h (1 Bft) W-NW 294 ° 0 min 0,000 mm 2,2 UV-I 176 W/m² -2,3 °C 2,8 °C 4,8 km/h (1 Bft)
26.03.2019 12:12 2,8 °C 69 % 1028,8 hPa 0,0 mm 1,5 km/h (1 Bft) W-NW 298 ° 0 min 0,000 mm 2,2 UV-I 155 W/m² -2,3 °C 2,8 °C 4,8 km/h (1 Bft)
26.03.2019 12:13 2,8 °C 68 % 1028,8 hPa 0,0 mm 2,3 km/h (1 Bft) W-NW 297 ° 0 min 0,000 mm 2,0 UV-I 146 W/m² -2,5 °C 2,8 °C 4,8 km/h (1 Bft)
26.03.2019 12:14 2,7 °C 67 % 1028,8 hPa 0,0 mm 2,2 km/h (1 Bft) W-NW 296 ° 0 min 0,000 mm 2,0 UV-I 142 W/m² -2,8 °C 2,7 °C 4,8 km/h (1 Bft)
26.03.2019 12:15 2,7 °C 68 % 1028,8 hPa 0,0 mm 4,1 km/h (1 Bft) W 276 ° 0 min 0,000 mm 2,0 UV-I 142 W/m² -2,6 °C 2,7 °C 4,8 km/h (1 Bft)
26.03.2019 12:16 2,7 °C 69 % 1028,9 hPa 0,0 mm 5,0 km/h (1 Bft) NW 304 ° 0 min 0,000 mm 2,0 UV-I 139 W/m² -2,4 °C 1,5 °C 9,7 km/h (2 Bft)
26.03.2019 12:17 2,7 °C 69 % 1028,8 hPa 0,0 mm 3,4 km/h (1 Bft) NW 320 ° 0 min 0,000 mm 2,0 UV-I 139 W/m² -2,4 °C 2,7 °C 4,8 km/h (1 Bft)
26.03.2019 12:18 2,7 °C 68 % 1028,8 hPa 0,0 mm 4,0 km/h (1 Bft) N-NW 331 ° 0 min 0,000 mm 2,0 UV-I 151 W/m² -2,6 °C 2,7 °C 6,4 km/h (2 Bft)
26.03.2019 12:19 2,6 °C 68 % 1028,7 hPa 0,0 mm 1,1 km/h (1 Bft) W 281 ° 0 min 0,000 mm 2,0 UV-I 158 W/m² -2,7 °C 2,6 °C 4,8 km/h (1 Bft)
26.03.2019 12:20 2,6 °C 65 % 1028,7 hPa 0,0 mm 0,0 km/h (0 Bft) W 281 ° 0 min 0,000 mm 2,0 UV-I 167 W/m² -3,3 °C 2,6 °C 0,0 km/h (0 Bft)
26.03.2019 12:21 2,5 °C 66 % 1028,7 hPa 0,0 mm 0,1 km/h (0 Bft) W-NW 288 ° 0 min 0,000 mm 2,1 UV-I 178 W/m² -3,2 °C 2,5 °C 1,6 km/h (1 Bft)
26.03.2019 12:22 2,6 °C 68 % 1028,7 hPa 0,0 mm 4,2 km/h (1 Bft) NW 317 ° 0 min 0,000 mm 2,1 UV-I 188 W/m² -2,7 °C 2,6 °C 6,4 km/h (2 Bft)
26.03.2019 12:23 2,7 °C 69 % 1028,7 hPa 0,0 mm 3,6 km/h (1 Bft) N-NW 345 ° 0 min 0,000 mm 2,2 UV-I 200 W/m² -2,4 °C 2,7 °C 6,4 km/h (2 Bft)
26.03.2019 12:24 2,7 °C 67 % 1028,7 hPa 0,0 mm 4,6 km/h (1 Bft) N-NW 329 ° 0 min 0,000 mm 2,2 UV-I 234 W/m² -2,8 °C 1,7 °C 9,7 km/h (2 Bft)
26.03.2019 12:25 2,8 °C 67 % 1028,7 hPa 0,0 mm 3,9 km/h (1 Bft) NW 309 ° 0 min 0,000 mm 2,3 UV-I 251 W/m² -2,7 °C 2,8 °C 8,0 km/h (2 Bft)
26.03.2019 12:26 2,8 °C 67 % 1028,7 hPa 0,0 mm 2,7 km/h (1 Bft) W-NW 284 ° 0 min 0,000 mm 2,4 UV-I 262 W/m² -2,7 °C 2,8 °C 6,4 km/h (2 Bft)
26.03.2019 12:27 2,8 °C 66 % 1028,7 hPa 0,0 mm 6,0 km/h (2 Bft) N 355 ° 0 min 0,000 mm 2,4 UV-I 265 W/m² -2,9 °C 1,2 °C 9,7 km/h (2 Bft)
26.03.2019 12:28 2,9 °C 67 % 1028,7 hPa 0,0 mm 5,4 km/h (1 Bft) NW 326 ° 0 min 0,000 mm 2,5 UV-I 276 W/m² -2,6 °C 1,5 °C 8,0 km/h (2 Bft)
26.03.2019 12:29 2,9 °C 66 % 1028,7 hPa 0,0 mm 6,2 km/h (2 Bft) W 273 ° 0 min 0,000 mm 2,5 UV-I 276 W/m² -2,8 °C 1,2 °C 12,9 km/h (3 Bft)
26.03.2019 12:30 3,0 °C 66 % 1028,7 hPa 0,0 mm 4,6 km/h (1 Bft) W-SW 246 ° 0 min 0,000 mm 2,5 UV-I 281 W/m² -2,7 °C 2,0 °C 6,4 km/h (2 Bft)
26.03.2019 12:31 3,1 °C 65 % 1028,7 hPa 0,0 mm 2,3 km/h (1 Bft) W 259 ° 0 min 0,000 mm 2,5 UV-I 287 W/m² -2,8 °C 3,1 °C 4,8 km/h (1 Bft)
26.03.2019 12:32 3,1 °C 66 % 1028,7 hPa 0,0 mm 4,3 km/h (1 Bft) W-NW 303 ° 0 min 0,000 mm 2,5 UV-I 288 W/m² -2,6 °C 3,1 °C 6,4 km/h (2 Bft)
26.03.2019 12:33 3,2 °C 66 % 1028,8 hPa 0,0 mm 3,4 km/h (1 Bft) W-SW 249 ° 0 min 0,000 mm 2,5 UV-I 297 W/m² -2,5 °C 3,2 °C 4,8 km/h (1 Bft)
26.03.2019 12:34 3,2 °C 64 % 1028,7 hPa 0,0 mm 5,0 km/h (1 Bft) W-SW 256 ° 0 min 0,000 mm 2,5 UV-I 306 W/m² -2,9 °C 2,0 °C 6,4 km/h (2 Bft)
26.03.2019 12:35 3,2 °C 63 % 1028,7 hPa 0,0 mm 2,7 km/h (1 Bft) N-NW 327 ° 0 min 0,000 mm 2,6 UV-I 411 W/m² -3,1 °C 3,2 °C 6,4 km/h (2 Bft)
26.03.2019 12:36 3,3 °C 65 % 1028,7 hPa 0,0 mm 6,6 km/h (2 Bft) N-NW 335 ° 0 min 0,000 mm 2,8 UV-I 469 W/m² -2,6 °C 1,6 °C 12,9 km/h (3 Bft)
26.03.2019 12:37 3,4 °C 66 % 1028,7 hPa 0,0 mm 6,7 km/h (2 Bft) W 277 ° 0 min 0,000 mm 2,5 UV-I 469 W/m² -2,3 °C 1,6 °C 12,9 km/h (3 Bft)
26.03.2019 12:38 3,4 °C 64 % 1028,7 hPa 0,0 mm 4,7 km/h (1 Bft) W 279 ° 0 min 0,000 mm 2,3 UV-I 311 W/m² -2,7 °C 2,4 °C 9,7 km/h (2 Bft)
26.03.2019 12:39 3,5 °C 64 % 1028,7 hPa 0,0 mm 6,4 km/h (2 Bft) W-NW 301 ° 0 min 0,000 mm 2,3 UV-I 301 W/m² -2,7 °C 1,9 °C 9,7 km/h (2 Bft)
26.03.2019 12:40 3,4 °C 63 % 1028,6 hPa 0,0 mm 5,5 km/h (1 Bft) NW 316 ° 0 min 0,000 mm 2,3 UV-I 299 W/m² -3,0 °C 2,1 °C 8,0 km/h (2 Bft)
26.03.2019 12:41 3,5 °C 65 % 1028,6 hPa 0,0 mm 5,7 km/h (1 Bft) NW 306 ° 0 min 0,000 mm 2,3 UV-I 309 W/m² -2,4 °C 2,1 °C 8,0 km/h (2 Bft)
26.03.2019 12:42 3,6 °C 65 % 1028,7 hPa 0,0 mm 4,2 km/h (1 Bft) N-NW 328 ° 0 min 0,000 mm 2,2 UV-I 301 W/m² -2,4 °C 3,6 °C 6,4 km/h (2 Bft)
26.03.2019 12:43 3,6 °C 64 % 1028,7 hPa 0,0 mm 7,2 km/h (2 Bft) N-NW 330 ° 0 min 0,000 mm 2,2 UV-I 288 W/m² -2,6 °C 1,7 °C 11,3 km/h (2 Bft)
26.03.2019 12:44 3,7 °C 65 % 1028,7 hPa 0,0 mm 3,4 km/h (1 Bft) N-NW 334 ° 0 min 0,000 mm 2,1 UV-I 283 W/m² -2,3 °C 3,7 °C 6,4 km/h (2 Bft)
26.03.2019 12:45 3,7 °C 64 % 1028,6 hPa 0,0 mm 3,4 km/h (1 Bft) N-NW 327 ° 0 min 0,000 mm 2,1 UV-I 283 W/m² -2,5 °C 3,7 °C 4,8 km/h (1 Bft)
26.03.2019 12:46 3,6 °C 61 % 1028,6 hPa 0,0 mm 2,5 km/h (1 Bft) N-NW 328 ° 0 min 0,000 mm 2,1 UV-I 269 W/m² -3,2 °C 3,6 °C 4,8 km/h (1 Bft)
26.03.2019 12:47 3,5 °C 62 % 1028,6 hPa 0,0 mm 7,1 km/h (2 Bft) W-NW 300 ° 0 min 0,000 mm 2,0 UV-I 257 W/m² -3,1 °C 1,6 °C 11,3 km/h (2 Bft)
26.03.2019 12:48 3,6 °C 64 % 1028,7 hPa 0,0 mm 5,0 km/h (1 Bft) W-NW 296 ° 0 min 0,000 mm 1,9 UV-I 246 W/m² -2,6 °C 2,5 °C 6,4 km/h (2 Bft)
26.03.2019 12:49 3,6 °C 66 % 1028,7 hPa 0,0 mm 4,2 km/h (1 Bft) W-SW 250 ° 0 min 0,000 mm 1,8 UV-I 234 W/m² -2,1 °C 3,6 °C 9,7 km/h (2 Bft)
26.03.2019 12:50 3,5 °C 64 % 1028,7 hPa 0,0 mm 3,4 km/h (1 Bft) W-NW 300 ° 0 min 0,000 mm 1,7 UV-I 223 W/m² -2,7 °C 3,5 °C 11,3 km/h (2 Bft)
26.03.2019 12:51 3,5 °C 64 % 1028,7 hPa 0,0 mm 3,0 km/h (1 Bft) N-NW 327 ° 0 min 0,000 mm 1,7 UV-I 220 W/m² -2,7 °C 3,5 °C 8,0 km/h (2 Bft)
26.03.2019 12:52 3,5 °C 65 % 1028,7 hPa 0,0 mm 6,4 km/h (2 Bft) N 355 ° 0 min 0,000 mm 1,7 UV-I 221 W/m² -2,4 °C 1,9 °C 9,7 km/h (2 Bft)
26.03.2019 12:53 3,5 °C 65 % 1028,7 hPa 0,0 mm 5,4 km/h (1 Bft) W-NW 297 ° 0 min 0,000 mm 1,7 UV-I 220 W/m² -2,4 °C 2,2 °C 8,0 km/h (2 Bft)
26.03.2019 12:54 3,5 °C 64 % 1028,7 hPa 0,0 mm 4,1 km/h (1 Bft) W-NW 284 ° 0 min 0,000 mm 1,7 UV-I 220 W/m² -2,7 °C 3,5 °C 4,8 km/h (1 Bft)
26.03.2019 12:55 3,6 °C 66 % 1028,8 hPa 0,0 mm 4,7 km/h (1 Bft) NW 318 ° 0 min 0,000 mm 1,7 UV-I 218 W/m² -2,1 °C 2,6 °C 9,7 km/h (2 Bft)
26.03.2019 12:56 3,7 °C 67 % 1028,7 hPa 0,0 mm 5,3 km/h (1 Bft) N-NW 342 ° 0 min 0,000 mm 1,7 UV-I 214 W/m² -1,8 °C 2,5 °C 8,0 km/h (2 Bft)
26.03.2019 12:57 3,8 °C 63 % 1028,7 hPa 0,0 mm 5,4 km/h (1 Bft) N-NW 329 ° 0 min 0,000 mm 1,6 UV-I 211 W/m² -2,6 °C 2,6 °C 8,0 km/h (2 Bft)
26.03.2019 12:58 3,7 °C 63 % 1028,8 hPa 0,0 mm 3,9 km/h (1 Bft) NW 321 ° 0 min 0,000 mm 1,6 UV-I 206 W/m² -2,7 °C 3,7 °C 6,4 km/h (2 Bft)
26.03.2019 12:59 3,7 °C 62 % 1028,8 hPa 0,0 mm 5,8 km/h (2 Bft) W-NW 298 ° 0 min 0,000 mm 1,5 UV-I 193 W/m² -2,9 °C 2,3 °C 8,0 km/h (2 Bft)
26.03.2019 13:00 3,7 °C 62 % 1028,8 hPa 0,0 mm 2,4 km/h (1 Bft) NW 306 ° 0 min 0,000 mm 1,4 UV-I 192 W/m² -2,9 °C 3,7 °C 4,8 km/h (1 Bft)
26.03.2019 13:01 3,7 °C 64 % 1028,7 hPa 0,0 mm 5,4 km/h (1 Bft) NW 323 ° 0 min 0,102 mm 1,4 UV-I 193 W/m² -2,5 °C 2,4 °C 9,7 km/h (2 Bft)
26.03.2019 13:02 3,8 °C 66 % 1028,7 hPa 0,0 mm 5,9 km/h (2 Bft) N 9 ° 0 min 0,000 mm 1,4 UV-I 195 W/m² -2,0 °C 2,4 °C 8,0 km/h (2 Bft)
26.03.2019 13:03 3,9 °C 67 % 1028,7 hPa 0,0 mm 5,8 km/h (2 Bft) N 5 ° 0 min 0,000 mm 1,4 UV-I 197 W/m² -1,7 °C 2,5 °C 9,7 km/h (2 Bft)
26.03.2019 13:04 3,8 °C 66 % 1028,6 hPa 0,0 mm 5,1 km/h (1 Bft) N-NO 19 ° 0 min 0,000 mm 1,4 UV-I 204 W/m² -2,0 °C 2,7 °C 8,0 km/h (2 Bft)
26.03.2019 13:05 3,8 °C 66 % 1028,7 hPa 0,0 mm 9,0 km/h (2 Bft) N 350 ° 0 min 0,000 mm 1,5 UV-I 214 W/m² -2,0 °C 1,5 °C 12,9 km/h (3 Bft)
26.03.2019 13:06 3,7 °C 66 % 1028,7 hPa 0,0 mm 5,7 km/h (1 Bft) NW 321 ° 0 min 0,000 mm 1,5 UV-I 220 W/m² -2,0 °C 2,3 °C 9,7 km/h (2 Bft)
26.03.2019 13:07 3,7 °C 66 % 1028,7 hPa 0,0 mm 8,7 km/h (2 Bft) NW 319 ° 0 min 0,000 mm 1,5 UV-I 223 W/m² -2,0 °C 1,4 °C 12,9 km/h (3 Bft)
26.03.2019 13:08 3,7 °C 67 % 1028,8 hPa 0,0 mm 8,6 km/h (2 Bft) N 355 ° 0 min 0,000 mm 1,6 UV-I 236 W/m² -1,8 °C 1,4 °C 14,5 km/h (3 Bft)
26.03.2019 13:09 3,7 °C 66 % 1028,7 hPa 0,0 mm 7,5 km/h (2 Bft) N 351 ° 0 min 0,000 mm 1,7 UV-I 246 W/m² -2,0 °C 1,7 °C 12,9 km/h (3 Bft)
26.03.2019 13:10 3,7 °C 66 % 1028,6 hPa 0,0 mm 7,5 km/h (2 Bft) N 355 ° 0 min 0,000 mm 1,8 UV-I 325 W/m² -2,0 °C 1,7 °C 12,9 km/h (3 Bft)
26.03.2019 13:11 3,6 °C 66 % 1028,6 hPa 0,0 mm 9,3 km/h (2 Bft) N-NO 29 ° 0 min 0,000 mm 2,4 UV-I 283 W/m² -2,1 °C 1,2 °C 12,9 km/h (3 Bft)
26.03.2019 13:12 3,7 °C 67 % 1028,6 hPa 0,0 mm 5,4 km/h (1 Bft) O 79 ° 0 min 0,000 mm 2,8 UV-I 283 W/m² -1,8 °C 2,4 °C 8,0 km/h (2 Bft)
26.03.2019 13:13 3,8 °C 69 % 1028,7 hPa 0,0 mm 8,0 km/h (2 Bft) O-NO 67 ° 0 min 0,000 mm 1,5 UV-I 283 W/m² -1,4 °C 1,7 °C 9,7 km/h (2 Bft)
26.03.2019 13:14 3,7 °C 65 % 1028,6 hPa 0,0 mm 8,5 km/h (2 Bft) N 349 ° 0 min 0,000 mm 1,4 UV-I 207 W/m² -2,3 °C 1,5 °C 14,5 km/h (3 Bft)
26.03.2019 13:15 3,7 °C 66 % 1028,7 hPa 0,0 mm 11,3 km/h (2 Bft) N 11 ° 0 min 0,000 mm 1,4 UV-I 197 W/m² -2,0 °C 0,8 °C 17,7 km/h (3 Bft)
26.03.2019 13:16 3,7 °C 66 % 1028,6 hPa 0,0 mm 9,6 km/h (2 Bft) N 355 ° 0 min 0,000 mm 1,4 UV-I 190 W/m² -2,0 °C 1,2 °C 17,7 km/h (3 Bft)
26.03.2019 13:17 3,6 °C 66 % 1028,7 hPa 0,0 mm 6,7 km/h (2 Bft) N-NW 339 ° 0 min 0,000 mm 1,4 UV-I 192 W/m² -2,1 °C 1,9 °C 9,7 km/h (2 Bft)
26.03.2019 13:18 3,6 °C 66 % 1028,6 hPa 0,0 mm 10,0 km/h (2 Bft) NW 323 ° 0 min 0,000 mm 1,5 UV-I 195 W/m² -2,1 °C 1,0 °C 16,1 km/h (3 Bft)
26.03.2019 13:19 3,6 °C 67 % 1028,7 hPa 0,0 mm 8,7 km/h (2 Bft) NW 322 ° 0 min 0,000 mm 1,6 UV-I 200 W/m² -1,9 °C 1,3 °C 12,9 km/h (3 Bft)
26.03.2019 13:20 3,6 °C 66 % 1028,6 hPa 0,0 mm 7,5 km/h (2 Bft) W-NW 290 ° 0 min 0,000 mm 1,6 UV-I 209 W/m² -2,1 °C 1,6 °C 12,9 km/h (3 Bft)
26.03.2019 13:21 3,5 °C 65 % 1028,6 hPa 0,0 mm 6,9 km/h (2 Bft) W 281 ° 0 min 0,000 mm 1,7 UV-I 214 W/m² -2,4 °C 1,7 °C 11,3 km/h (2 Bft)
26.03.2019 13:22 3,4 °C 65 % 1028,6 hPa 0,0 mm 5,4 km/h (1 Bft) NW 320 ° 0 min 0,000 mm 1,7 UV-I 220 W/m² -2,5 °C 2,1 °C 9,7 km/h (2 Bft)
26.03.2019 13:23 3,4 °C 66 % 1028,6 hPa 0,0 mm 6,8 km/h (2 Bft) NW 311 ° 0 min 0,000 mm 1,8 UV-I 230 W/m² -2,3 °C 1,6 °C 11,3 km/h (2 Bft)
26.03.2019 13:24 3,4 °C 66 % 1028,7 hPa 0,0 mm 10,4 km/h (2 Bft) NW 322 ° 0 min 0,000 mm 1,9 UV-I 246 W/m² -2,3 °C 0,7 °C 16,1 km/h (3 Bft)
26.03.2019 13:25 3,4 °C 66 % 1028,6 hPa 0,0 mm 8,7 km/h (2 Bft) W-NW 293 ° 0 min 0,000 mm 2,0 UV-I 258 W/m² -2,3 °C 1,1 °C 14,5 km/h (3 Bft)
26.03.2019 13:26 3,5 °C 66 % 1028,6 hPa 0,0 mm 6,3 km/h (2 Bft) NW 310 ° 0 min 0,000 mm 2,0 UV-I 258 W/m² -2,2 °C 1,9 °C 11,3 km/h (2 Bft)
26.03.2019 13:27 3,5 °C 66 % 1028,6 hPa 0,0 mm 5,5 km/h (1 Bft) NW 310 ° 0 min 0,000 mm 2,0 UV-I 279 W/m² -2,2 °C 2,2 °C 8,0 km/h (2 Bft)
26.03.2019 13:28 3,4 °C 65 % 1028,6 hPa 0,0 mm 5,5 km/h (1 Bft) W-NW 300 ° 0 min 0,000 mm 2,1 UV-I 330 W/m² -2,5 °C 2,1 °C 9,7 km/h (2 Bft)
26.03.2019 13:29 3,6 °C 67 % 1028,6 hPa 0,0 mm 7,6 km/h (2 Bft) NW 315 ° 0 min 0,000 mm 2,3 UV-I 357 W/m² -1,9 °C 1,6 °C 14,5 km/h (3 Bft)
26.03.2019 13:30 3,6 °C 66 % 1028,6 hPa 0,0 mm 10,1 km/h (2 Bft) NW 319 ° 0 min 0,000 mm 2,3 UV-I 364 W/m² -2,1 °C 1,0 °C 16,1 km/h (3 Bft)
26.03.2019 13:31 3,7 °C 66 % 1028,6 hPa 0,0 mm 10,0 km/h (2 Bft) W-NW 294 ° 0 min 0,000 mm 2,7 UV-I 454 W/m² -2,0 °C 1,1 °C 16,1 km/h (3 Bft)
26.03.2019 13:32 3,7 °C 65 % 1028,6 hPa 0,0 mm 7,2 km/h (2 Bft) NW 307 ° 0 min 0,000 mm 2,8 UV-I 503 W/m² -2,3 °C 1,8 °C 12,9 km/h (3 Bft)
26.03.2019 13:33 3,9 °C 66 % 1028,6 hPa 0,0 mm 8,5 km/h (2 Bft) W-NW 285 ° 0 min 0,000 mm 3,3 UV-I 503 W/m² -1,9 °C 1,7 °C 14,5 km/h (3 Bft)
26.03.2019 13:34 4,0 °C 65 % 1028,6 hPa 0,0 mm 3,7 km/h (1 Bft) W-NW 288 ° 0 min 0,000 mm 3,9 UV-I 503 W/m² -2,0 °C 4,0 °C 8,0 km/h (2 Bft)
26.03.2019 13:35 4,2 °C 66 % 1028,6 hPa 0,0 mm 8,4 km/h (2 Bft) NW 325 ° 1 min 0,000 mm 4,3 UV-I 944 W/m² -1,6 °C 2,1 °C 12,9 km/h (3 Bft)
26.03.2019 13:36 4,3 °C 65 % 1028,5 hPa 0,0 mm 6,9 km/h (2 Bft) NW 306 ° 1 min 0,000 mm 4,5 UV-I 1032 W/m² -1,7 °C 2,6 °C 11,3 km/h (2 Bft)
26.03.2019 13:37 4,4 °C 64 % 1028,5 hPa 0,0 mm 10,7 km/h (2 Bft) W-NW 294 ° 1 min 0,000 mm 3,8 UV-I 1032 W/m² -1,8 °C 1,8 °C 12,9 km/h (3 Bft)
26.03.2019 13:38 4,4 °C 62 % 1028,5 hPa 0,0 mm 7,8 km/h (2 Bft) NW 325 ° 1 min 0,000 mm 2,9 UV-I 1032 W/m² -2,2 °C 2,5 °C 12,9 km/h (3 Bft)
26.03.2019 13:39 4,3 °C 62 % 1028,5 hPa 0,0 mm 4,8 km/h (1 Bft) N-NW 328 ° 0 min 0,000 mm 2,9 UV-I 425 W/m² -2,3 °C 3,4 °C 9,7 km/h (2 Bft)
26.03.2019 13:40 4,3 °C 62 % 1028,5 hPa 0,0 mm 3,8 km/h (1 Bft) N 355 ° 0 min 0,000 mm 2,9 UV-I 487 W/m² -2,3 °C 4,3 °C 6,4 km/h (2 Bft)
26.03.2019 13:41 4,3 °C 63 % 1028,5 hPa 0,0 mm 5,4 km/h (1 Bft) NW 306 ° 0 min 0,000 mm 3,2 UV-I 497 W/m² -2,1 °C 3,1 °C 8,0 km/h (2 Bft)
26.03.2019 13:42 4,2 °C 63 % 1028,5 hPa 0,0 mm 4,0 km/h (1 Bft) W 276 ° 0 min 0,000 mm 3,3 UV-I 504 W/m² -2,2 °C 4,2 °C 8,0 km/h (2 Bft)
26.03.2019 13:43 4,3 °C 65 % 1028,5 hPa 0,0 mm 9,4 km/h (2 Bft) N-NW 344 ° 0 min 0,000 mm 3,1 UV-I 431 W/m² -1,7 °C 2,0 °C 16,1 km/h (3 Bft)
26.03.2019 13:44 4,6 °C 68 % 1028,5 hPa 0,0 mm 8,9 km/h (2 Bft) N 360 ° 0 min 0,000 mm 4,0 UV-I 431 W/m² -0,8 °C 2,4 °C 16,1 km/h (3 Bft)
26.03.2019 13:45 4,8 °C 66 % 1028,5 hPa 0,0 mm 7,2 km/h (2 Bft) N 355 ° 0 min 0,000 mm 4,2 UV-I 431 W/m² -1,0 °C 3,1 °C 14,5 km/h (3 Bft)
26.03.2019 13:46 4,8 °C 62 % 1028,6 hPa 0,2 mm 10,8 km/h (2 Bft) N-NW 327 ° 1 min 0,000 mm 4,0 UV-I 872 W/m² -1,9 °C 2,2 °C 16,1 km/h (3 Bft)
26.03.2019 13:47 4,8 °C 62 % 1028,6 hPa 0,0 mm 8,0 km/h (2 Bft) NW 325 ° 1 min 0,000 mm 3,4 UV-I 872 W/m² -1,9 °C 2,9 °C 14,5 km/h (3 Bft)
26.03.2019 13:48 4,8 °C 64 % 1028,6 hPa 0,0 mm 7,2 km/h (2 Bft) NW 313 ° 1 min 0,000 mm 3,3 UV-I 872 W/m² -1,4 °C 3,1 °C 12,9 km/h (3 Bft)
26.03.2019 13:49 4,8 °C 65 % 1028,6 hPa 0,0 mm 7,1 km/h (2 Bft) O-NO 62 ° 1 min 0,000 mm 2,9 UV-I 872 W/m² -1,2 °C 3,1 °C 12,9 km/h (3 Bft)
26.03.2019 13:50 4,9 °C 65 % 1028,7 hPa 0,0 mm 7,7 km/h (2 Bft) NW 306 ° 1 min 0,000 mm 2,3 UV-I 872 W/m² -1,1 °C 3,1 °C 14,5 km/h (3 Bft)
26.03.2019 13:51 4,9 °C 64 % 1028,6 hPa 0,0 mm 11,1 km/h (2 Bft) W 271 ° 0 min 0,000 mm 2,2 UV-I 306 W/m² -1,3 °C 2,3 °C 14,5 km/h (3 Bft)
26.03.2019 13:52 4,7 °C 62 % 1028,6 hPa 0,0 mm 9,4 km/h (2 Bft) W 265 ° 0 min 0,000 mm 2,2 UV-I 329 W/m² -1,9 °C 2,4 °C 14,5 km/h (3 Bft)
26.03.2019 13:53 4,6 °C 62 % 1028,6 hPa 0,0 mm 7,2 km/h (2 Bft) W-NW 302 ° 0 min 0,000 mm 2,3 UV-I 364 W/m² -2,0 °C 2,9 °C 14,5 km/h (3 Bft)
26.03.2019 13:54 4,3 °C 63 % 1028,7 hPa 0,0 mm 7,2 km/h (2 Bft) NW 309 ° 0 min 0,000 mm 2,1 UV-I 297 W/m² -2,1 °C 2,5 °C 12,9 km/h (3 Bft)
26.03.2019 13:55 4,2 °C 62 % 1028,6 hPa 0,0 mm 9,9 km/h (2 Bft) W-NW 302 ° 0 min 0,000 mm 2,0 UV-I 269 W/m² -2,4 °C 1,7 °C 12,9 km/h (3 Bft)
26.03.2019 13:56 4,2 °C 63 % 1028,7 hPa 0,0 mm 7,2 km/h (2 Bft) N-NW 329 ° 0 min 0,000 mm 1,9 UV-I 246 W/m² -2,2 °C 2,4 °C 12,9 km/h (3 Bft)
26.03.2019 13:57 4,1 °C 64 % 1028,6 hPa 0,0 mm 9,5 km/h (2 Bft) W-NW 298 ° 0 min 0,000 mm 1,9 UV-I 227 W/m² -2,1 °C 1,7 °C 12,9 km/h (3 Bft)
26.03.2019 13:58 4,1 °C 65 % 1028,6 hPa 0,0 mm 5,6 km/h (1 Bft) NW 311 ° 0 min 0,000 mm 1,8 UV-I 225 W/m² -1,9 °C 2,8 °C 8,0 km/h (2 Bft)
26.03.2019 13:59 4,1 °C 64 % 1028,6 hPa 0,0 mm 5,5 km/h (1 Bft) N-NW 329 ° 0 min 0,000 mm 1,8 UV-I 221 W/m² -2,1 °C 2,9 °C 8,0 km/h (2 Bft)
26.03.2019 14:00 4,0 °C 64 % 1028,6 hPa 0,0 mm 2,6 km/h (1 Bft) N-NW 327 ° 0 min 0,000 mm 1,8 UV-I 220 W/m² -2,2 °C 4,0 °C 6,4 km/h (2 Bft)
26.03.2019 14:01 4,1 °C 65 % 1028,5 hPa 0,0 mm 5,0 km/h (1 Bft) NW 312 ° 0 min 0,177 mm 1,7 UV-I 218 W/m² -1,9 °C 3,1 °C 11,3 km/h (2 Bft)
26.03.2019 14:02 4,0 °C 64 % 1028,6 hPa 0,0 mm 4,7 km/h (1 Bft) NW 309 ° 0 min 0,000 mm 1,7 UV-I 214 W/m² -2,2 °C 3,1 °C 8,0 km/h (2 Bft)
26.03.2019 14:03 3,9 °C 64 % 1028,6 hPa 0,0 mm 4,7 km/h (1 Bft) NW 306 ° 0 min 0,000 mm 1,7 UV-I 214 W/m² -2,3 °C 3,0 °C 8,0 km/h (2 Bft)
26.03.2019 14:04 3,8 °C 64 % 1028,6 hPa 0,0 mm 3,6 km/h (1 Bft) NW 324 ° 0 min 0,000 mm 1,7 UV-I 216 W/m² -2,4 °C 3,8 °C 4,8 km/h (1 Bft)
26.03.2019 14:05 3,8 °C 64 % 1028,6 hPa 0,0 mm 5,5 km/h (1 Bft) N 355 ° 0 min 0,000 mm 1,7 UV-I 218 W/m² -2,4 °C 2,5 °C 9,7 km/h (2 Bft)
26.03.2019 14:06 3,8 °C 64 % 1028,6 hPa 0,0 mm 7,8 km/h (2 Bft) N 350 ° 0 min 0,000 mm 1,7 UV-I 218 W/m² -2,4 °C 1,8 °C 14,5 km/h (3 Bft)
26.03.2019 14:07 3,8 °C 65 % 1028,6 hPa 0,0 mm 10,0 km/h (2 Bft) NW 317 ° 0 min 0,000 mm 1,6 UV-I 218 W/m² -2,2 °C 1,2 °C 16,1 km/h (3 Bft)
26.03.2019 14:08 3,9 °C 65 % 1028,7 hPa 0,0 mm 5,7 km/h (1 Bft) NW 306 ° 0 min 0,000 mm 1,6 UV-I 211 W/m² -2,1 °C 2,6 °C 8,0 km/h (2 Bft)
26.03.2019 14:09 3,9 °C 64 % 1028,6 hPa 0,0 mm 6,8 km/h (2 Bft) NW 309 ° 0 min 0,000 mm 1,6 UV-I 202 W/m² -2,3 °C 2,2 °C 8,0 km/h (2 Bft)
26.03.2019 14:10 3,9 °C 64 % 1028,6 hPa 0,0 mm 4,6 km/h (1 Bft) NW 319 ° 0 min 0,000 mm 1,5 UV-I 199 W/m² -2,3 °C 3,0 °C 8,0 km/h (2 Bft)
26.03.2019 14:11 3,8 °C 63 % 1028,6 hPa 0,0 mm 2,3 km/h (1 Bft) NW 313 ° 0 min 0,000 mm 1,5 UV-I 197 W/m² -2,6 °C 3,8 °C 8,0 km/h (2 Bft)
26.03.2019 14:12 3,9 °C 64 % 1028,6 hPa 0,0 mm 4,6 km/h (1 Bft) N 349 ° 0 min 0,000 mm 1,5 UV-I 195 W/m² -2,3 °C 3,0 °C 9,7 km/h (2 Bft)
26.03.2019 14:13 3,8 °C 63 % 1028,6 hPa 0,0 mm 3,9 km/h (1 Bft) N-NW 348 ° 0 min 0,000 mm 1,5 UV-I 193 W/m² -2,6 °C 3,8 °C 6,4 km/h (2 Bft)
26.03.2019 14:14 3,8 °C 62 % 1028,6 hPa 0,0 mm 1,7 km/h (1 Bft) N-NW 338 ° 0 min 0,000 mm 1,4 UV-I 190 W/m² -2,8 °C 3,8 °C 4,8 km/h (1 Bft)
26.03.2019 14:15 3,8 °C 63 % 1028,7 hPa 0,0 mm 4,3 km/h (1 Bft) W 273 ° 0 min 0,000 mm 1,4 UV-I 185 W/m² -2,6 °C 3,8 °C 6,4 km/h (2 Bft)
26.03.2019 14:16 3,8 °C 64 % 1028,7 hPa 0,0 mm 3,8 km/h (1 Bft) NW 320 ° 0 min 0,000 mm 1,4 UV-I 183 W/m² -2,4 °C 3,8 °C 4,8 km/h (1 Bft)
26.03.2019 14:17 3,9 °C 63 % 1028,7 hPa 0,0 mm 3,8 km/h (1 Bft) N 5 ° 0 min 0,000 mm 1,3 UV-I 183 W/m² -2,5 °C 3,9 °C 4,8 km/h (1 Bft)
26.03.2019 14:18 3,9 °C 63 % 1028,7 hPa 0,0 mm 5,0 km/h (1 Bft) N-NW 334 ° 0 min 0,000 mm 1,3 UV-I 183 W/m² -2,5 °C 2,8 °C 8,0 km/h (2 Bft)
26.03.2019 14:19 3,9 °C 61 % 1028,7 hPa 0,0 mm 4,8 km/h (1 Bft) W-NW 296 ° 0 min 0,000 mm 1,3 UV-I 183 W/m² -2,9 °C 2,9 °C 8,0 km/h (2 Bft)
26.03.2019 14:20 3,9 °C 61 % 1028,7 hPa 0,0 mm 3,1 km/h (1 Bft) N-NW 327 ° 0 min 0,000 mm 1,3 UV-I 185 W/m² -2,9 °C 3,9 °C 4,8 km/h (1 Bft)
26.03.2019 14:21 3,9 °C 61 % 1028,7 hPa 0,0 mm 5,6 km/h (1 Bft) NW 305 ° 0 min 0,000 mm 1,3 UV-I 183 W/m² -2,9 °C 2,6 °C 8,0 km/h (2 Bft)
26.03.2019 14:22 3,9 °C 61 % 1028,6 hPa 0,0 mm 7,0 km/h (2 Bft) NW 309 ° 0 min 0,000 mm 1,3 UV-I 179 W/m² -2,9 °C 2,1 °C 11,3 km/h (2 Bft)
26.03.2019 14:23 3,9 °C 62 % 1028,7 hPa 0,0 mm 6,0 km/h (2 Bft) NW 311 ° 0 min 0,000 mm 1,3 UV-I 178 W/m² -2,7 °C 2,5 °C 12,9 km/h (3 Bft)
26.03.2019 14:24 3,9 °C 62 % 1028,6 hPa 0,0 mm 6,8 km/h (2 Bft) NW 317 ° 0 min 0,000 mm 1,3 UV-I 178 W/m² -2,7 °C 2,2 °C 8,0 km/h (2 Bft)
26.03.2019 14:25 3,9 °C 59 % 1028,7 hPa 0,0 mm 3,9 km/h (1 Bft) NW 308 ° 0 min 0,000 mm 1,3 UV-I 179 W/m² -3,4 °C 3,9 °C 8,0 km/h (2 Bft)
26.03.2019 14:26 3,9 °C 59 % 1028,6 hPa 0,0 mm 3,3 km/h (1 Bft) N 350 ° 0 min 0,000 mm 1,3 UV-I 181 W/m² -3,4 °C 3,9 °C 6,4 km/h (2 Bft)
26.03.2019 14:27 3,9 °C 62 % 1028,6 hPa 0,0 mm 2,9 km/h (1 Bft) N-NW 338 ° 0 min 0,000 mm 1,3 UV-I 190 W/m² -2,7 °C 3,9 °C 4,8 km/h (1 Bft)
26.03.2019 14:28 3,9 °C 61 % 1028,6 hPa 0,0 mm 0,9 km/h (0 Bft) W-NW 286 ° 0 min 0,000 mm 1,3 UV-I 193 W/m² -2,9 °C 3,9 °C 3,2 km/h (1 Bft)
26.03.2019 14:29 4,1 °C 63 % 1028,6 hPa 0,0 mm 6,2 km/h (2 Bft) W 261 ° 0 min 0,000 mm 1,3 UV-I 195 W/m² -2,3 °C 2,6 °C 11,3 km/h (2 Bft)
26.03.2019 14:30 4,0 °C 61 % 1028,6 hPa 0,0 mm 5,9 km/h (2 Bft) NW 307 ° 0 min 0,000 mm 1,3 UV-I 195 W/m² -2,8 °C 2,6 °C 11,3 km/h (2 Bft)
26.03.2019 14:31 3,9 °C 61 % 1028,6 hPa 0,0 mm 4,6 km/h (1 Bft) NW 317 ° 0 min 0,000 mm 1,3 UV-I 197 W/m² -2,9 °C 3,0 °C 6,4 km/h (2 Bft)
26.03.2019 14:32 3,9 °C 60 % 1028,6 hPa 0,0 mm 9,1 km/h (2 Bft) NW 306 ° 0 min 0,000 mm 1,3 UV-I 199 W/m² -3,1 °C 1,6 °C 14,5 km/h (3 Bft)
26.03.2019 14:33 3,9 °C 62 % 1028,7 hPa 0,0 mm 8,5 km/h (2 Bft) W-NW 298 ° 0 min 0,000 mm 1,3 UV-I 204 W/m² -2,7 °C 1,7 °C 12,9 km/h (3 Bft)
26.03.2019 14:34 3,9 °C 62 % 1028,6 hPa 0,0 mm 6,6 km/h (2 Bft) W 271 ° 0 min 0,000 mm 1,4 UV-I 206 W/m² -2,7 °C 2,3 °C 12,9 km/h (3 Bft)
26.03.2019 14:35 3,9 °C 62 % 1028,7 hPa 0,0 mm 5,8 km/h (2 Bft) W 280 ° 0 min 0,000 mm 1,4 UV-I 207 W/m² -2,7 °C 2,5 °C 9,7 km/h (2 Bft)
26.03.2019 14:36 3,8 °C 62 % 1028,7 hPa 0,0 mm 5,1 km/h (1 Bft) W 277 ° 0 min 0,000 mm 1,4 UV-I 207 W/m² -2,8 °C 2,7 °C 12,9 km/h (3 Bft)
26.03.2019 14:37 3,8 °C 62 % 1028,7 hPa 0,0 mm 7,8 km/h (2 Bft) N-NW 329 ° 0 min 0,000 mm 1,4 UV-I 207 W/m² -2,8 °C 1,8 °C 12,9 km/h (3 Bft)
26.03.2019 14:38 3,8 °C 64 % 1028,7 hPa 0,0 mm 2,2 km/h (1 Bft) W-NW 294 ° 0 min 0,000 mm 1,4 UV-I 211 W/m² -2,4 °C 3,8 °C 8,0 km/h (2 Bft)
26.03.2019 14:39 3,9 °C 63 % 1028,7 hPa 0,0 mm 6,9 km/h (2 Bft) W-NW 298 ° 0 min 0,000 mm 1,4 UV-I 220 W/m² -2,5 °C 2,2 °C 11,3 km/h (2 Bft)
26.03.2019 14:40 3,9 °C 63 % 1028,7 hPa 0,0 mm 4,5 km/h (1 Bft) W-NW 296 ° 0 min 0,000 mm 1,5 UV-I 223 W/m² -2,5 °C 3,9 °C 9,7 km/h (2 Bft)
26.03.2019 14:41 4,0 °C 65 % 1028,7 hPa 0,0 mm 4,8 km/h (1 Bft) W-NW 288 ° 0 min 0,000 mm 1,5 UV-I 227 W/m² -2,0 °C 3,0 °C 9,7 km/h (2 Bft)
26.03.2019 14:42 4,0 °C 63 % 1028,7 hPa 0,0 mm 2,9 km/h (1 Bft) W-NW 294 ° 0 min 0,000 mm 1,6 UV-I 232 W/m² -2,4 °C 4,0 °C 4,8 km/h (1 Bft)
26.03.2019 14:43 4,0 °C 62 % 1028,6 hPa 0,0 mm 3,2 km/h (1 Bft) W-NW 289 ° 0 min 0,000 mm 1,6 UV-I 234 W/m² -2,6 °C 4,0 °C 4,8 km/h (1 Bft)
26.03.2019 14:44 3,9 °C 62 % 1028,7 hPa 0,0 mm 6,8 km/h (2 Bft) W 275 ° 0 min 0,000 mm 1,6 UV-I 236 W/m² -2,7 °C 2,2 °C 9,7 km/h (2 Bft)
26.03.2019 14:45 3,9 °C 62 % 1028,6 hPa 0,0 mm 4,2 km/h (1 Bft) NW 311 ° 0 min 0,000 mm 1,6 UV-I 236 W/m² -2,7 °C 3,9 °C 6,4 km/h (2 Bft)
26.03.2019 14:46 3,9 °C 61 % 1028,6 hPa 0,0 mm 8,7 km/h (2 Bft) W 276 ° 0 min 0,000 mm 1,6 UV-I 232 W/m² -2,9 °C 1,7 °C 12,9 km/h (3 Bft)
26.03.2019 14:47 3,9 °C 61 % 1028,6 hPa 0,0 mm 5,8 km/h (2 Bft) W 281 ° 0 min 0,000 mm 1,6 UV-I 229 W/m² -2,9 °C 2,5 °C 9,7 km/h (2 Bft)
26.03.2019 14:48 3,9 °C 60 % 1028,6 hPa 0,0 mm 9,2 km/h (2 Bft) W-NW 294 ° 0 min 0,000 mm 1,6 UV-I 227 W/m² -3,1 °C 1,5 °C 11,3 km/h (2 Bft)
26.03.2019 14:49 3,9 °C 59 % 1028,6 hPa 0,0 mm 5,1 km/h (1 Bft) N-NW 336 ° 0 min 0,000 mm 1,6 UV-I 225 W/m² -3,4 °C 2,8 °C 6,4 km/h (2 Bft)
26.03.2019 14:50 3,9 °C 61 % 1028,7 hPa 0,0 mm 6,0 km/h (2 Bft) NW 321 ° 0 min 0,000 mm 1,6 UV-I 221 W/m² -2,9 °C 2,5 °C 9,7 km/h (2 Bft)
26.03.2019 14:51 4,0 °C 62 % 1028,7 hPa 0,0 mm 4,4 km/h (1 Bft) N 350 ° 0 min 0,000 mm 1,5 UV-I 218 W/m² -2,6 °C 4,0 °C 8,0 km/h (2 Bft)
26.03.2019 14:52 3,9 °C 61 % 1028,7 hPa 0,0 mm 1,4 km/h (1 Bft) N 350 ° 0 min 0,000 mm 1,5 UV-I 216 W/m² -2,9 °C 3,9 °C 3,2 km/h (1 Bft)
26.03.2019 14:53 3,9 °C 62 % 1028,7 hPa 0,0 mm 2,1 km/h (1 Bft) NW 310 ° 0 min 0,000 mm 1,5 UV-I 216 W/m² -2,7 °C 3,9 °C 4,8 km/h (1 Bft)
26.03.2019 14:54 3,9 °C 61 % 1028,7 hPa 0,0 mm 2,1 km/h (1 Bft) NW 310 ° 0 min 0,000 mm 1,5 UV-I 214 W/m² -2,9 °C 3,9 °C 4,8 km/h (1 Bft)
26.03.2019 14:55 3,9 °C 62 % 1028,6 hPa 0,0 mm 2,1 km/h (1 Bft) NW 308 ° 0 min 0,000 mm 1,5 UV-I 216 W/m² -2,7 °C 3,9 °C 3,2 km/h (1 Bft)
26.03.2019 14:56 3,9 °C 62 % 1028,6 hPa 0,0 mm 2,8 km/h (1 Bft) W 277 ° 0 min 0,000 mm 1,5 UV-I 213 W/m² -2,7 °C 3,9 °C 6,4 km/h (2 Bft)
26.03.2019 14:57 3,9 °C 61 % 1028,7 hPa 0,0 mm 4,1 km/h (1 Bft) W-NW 285 ° 0 min 0,000 mm 1,5 UV-I 211 W/m² -2,9 °C 3,9 °C 8,0 km/h (2 Bft)
26.03.2019 14:58 4,0 °C 62 % 1028,6 hPa 0,0 mm 6,1 km/h (2 Bft) W-NW 294 ° 0 min 0,000 mm 1,5 UV-I 211 W/m² -2,6 °C 2,5 °C 11,3 km/h (2 Bft)
26.03.2019 14:59 4,0 °C 60 % 1028,6 hPa 0,0 mm 5,8 km/h (2 Bft) W-NW 286 ° 0 min 0,000 mm 1,5 UV-I 211 W/m² -3,0 °C 2,6 °C 6,4 km/h (2 Bft)
26.03.2019 15:00 3,9 °C 58 % 1028,6 hPa 0,0 mm 4,3 km/h (1 Bft) W 275 ° 0 min 0,000 mm 1,5 UV-I 213 W/m² -3,6 °C 3,9 °C 6,4 km/h (2 Bft)
26.03.2019 15:01 3,9 °C 58 % 1028,6 hPa 0,0 mm 3,1 km/h (1 Bft) W-NW 297 ° 0 min 0,102 mm 1,5 UV-I 216 W/m² -3,6 °C 3,9 °C 4,8 km/h (1 Bft)
26.03.2019 15:02 3,9 °C 60 % 1028,6 hPa 0,0 mm 6,3 km/h (2 Bft) W-NW 288 ° 0 min 0,000 mm 1,5 UV-I 230 W/m² -3,1 °C 2,4 °C 9,7 km/h (2 Bft)
26.03.2019 15:03 3,9 °C 61 % 1028,6 hPa 0,0 mm 5,6 km/h (1 Bft) W-NW 290 ° 0 min 0,000 mm 1,6 UV-I 234 W/m² -2,9 °C 2,6 °C 11,3 km/h (2 Bft)
26.03.2019 15:04 4,0 °C 61 % 1028,6 hPa 0,0 mm 9,0 km/h (2 Bft) NW 319 ° 0 min 0,000 mm 1,6 UV-I 239 W/m² -2,8 °C 1,7 °C 12,9 km/h (3 Bft)
26.03.2019 15:05 4,0 °C 60 % 1028,6 hPa 0,0 mm 4,6 km/h (1 Bft) NW 315 ° 0 min 0,000 mm 1,5 UV-I 243 W/m² -3,0 °C 3,1 °C 9,7 km/h (2 Bft)
26.03.2019 15:06 4,1 °C 61 % 1028,6 hPa 0,0 mm 5,3 km/h (1 Bft) NW 308 ° 0 min 0,000 mm 1,5 UV-I 239 W/m² -2,7 °C 2,9 °C 8,0 km/h (2 Bft)
26.03.2019 15:07 4,1 °C 60 % 1028,6 hPa 0,0 mm 5,0 km/h (1 Bft) W-NW 300 ° 0 min 0,000 mm 1,5 UV-I 237 W/m² -3,0 °C 3,1 °C 8,0 km/h (2 Bft)
26.03.2019 15:08 4,1 °C 60 % 1028,6 hPa 0,0 mm 3,4 km/h (1 Bft) NW 309 ° 0 min 0,000 mm 1,5 UV-I 248 W/m² -3,0 °C 4,1 °C 6,4 km/h (2 Bft)
26.03.2019 15:09 4,1 °C 60 % 1028,5 hPa 0,0 mm 5,5 km/h (1 Bft) NW 315 ° 0 min 0,000 mm 1,6 UV-I 257 W/m² -3,0 °C 2,9 °C 8,0 km/h (2 Bft)
26.03.2019 15:10 4,2 °C 60 % 1028,5 hPa 0,0 mm 4,1 km/h (1 Bft) NW 321 ° 0 min 0,000 mm 1,7 UV-I 299 W/m² -2,9 °C 4,2 °C 6,4 km/h (2 Bft)
26.03.2019 15:11 4,2 °C 60 % 1028,5 hPa 0,0 mm 0,7 km/h (0 Bft) NW 321 ° 0 min 0,000 mm 1,6 UV-I 267 W/m² -2,9 °C 4,2 °C 1,6 km/h (1 Bft)
26.03.2019 15:12 4,1 °C 59 % 1028,5 hPa 0,0 mm 0,8 km/h (0 Bft) NW 321 ° 0 min 0,000 mm 1,7 UV-I 271 W/m² -3,2 °C 4,1 °C 3,2 km/h (1 Bft)
26.03.2019 15:13 4,2 °C 59 % 1028,5 hPa 0,0 mm 9,4 km/h (2 Bft) W 265 ° 0 min 0,000 mm 1,7 UV-I 290 W/m² -3,1 °C 1,8 °C 14,5 km/h (3 Bft)
26.03.2019 15:14 4,1 °C 59 % 1028,6 hPa 0,0 mm 3,8 km/h (1 Bft) W-SW 257 ° 0 min 0,000 mm 1,8 UV-I 295 W/m² -3,2 °C 4,1 °C 9,7 km/h (2 Bft)
26.03.2019 15:15 4,2 °C 61 % 1028,5 hPa 0,0 mm 0,5 km/h (0 Bft) W-SW 257 ° 0 min 0,000 mm 1,8 UV-I 281 W/m² -2,6 °C 4,2 °C 3,2 km/h (1 Bft)
26.03.2019 15:16 4,3 °C 61 % 1028,5 hPa 0,0 mm 0,5 km/h (0 Bft) W-SW 257 ° 0 min 0,000 mm 1,8 UV-I 274 W/m² -2,5 °C 4,3 °C 3,2 km/h (1 Bft)
26.03.2019 15:17 4,4 °C 58 % 1028,5 hPa 0,0 mm 6,4 km/h (2 Bft) W-SW 254 ° 0 min 0,000 mm 1,8 UV-I 278 W/m² -3,1 °C 2,9 °C 11,3 km/h (2 Bft)
26.03.2019 15:18 4,4 °C 58 % 1028,5 hPa 0,0 mm 7,5 km/h (2 Bft) W-SW 245 ° 0 min 0,000 mm 2,4 UV-I 278 W/m² -3,1 °C 2,6 °C 11,3 km/h (2 Bft)
26.03.2019 15:19 4,4 °C 59 % 1028,4 hPa 0,0 mm 3,8 km/h (1 Bft) W-SW 246 ° 0 min 0,000 mm 2,5 UV-I 278 W/m² -2,9 °C 4,4 °C 4,8 km/h (1 Bft)
26.03.2019 15:20 4,6 °C 60 % 1028,4 hPa 0,0 mm 3,8 km/h (1 Bft) W-NW 294 ° 1 min 0,000 mm 2,4 UV-I 731 W/m² -2,5 °C 4,6 °C 6,4 km/h (2 Bft)
26.03.2019 15:21 4,8 °C 61 % 1028,4 hPa 0,0 mm 6,0 km/h (2 Bft) W 269 ° 1 min 0,000 mm 2,1 UV-I 731 W/m² -2,1 °C 3,5 °C 9,7 km/h (2 Bft)
26.03.2019 15:22 4,8 °C 58 % 1028,4 hPa 0,0 mm 4,8 km/h (1 Bft) W 259 ° 1 min 0,000 mm 1,9 UV-I 731 W/m² -2,7 °C 3,9 °C 6,4 km/h (2 Bft)
26.03.2019 15:23 4,8 °C 57 % 1028,4 hPa 0,0 mm 6,1 km/h (2 Bft) W 269 ° 1 min 0,000 mm 2,3 UV-I 731 W/m² -3,0 °C 3,5 °C 11,3 km/h (2 Bft)
26.03.2019 15:24 4,7 °C 56 % 1028,5 hPa 0,0 mm 5,0 km/h (1 Bft) W 275 ° 0 min 0,000 mm 2,2 UV-I 596 W/m² -3,3 °C 3,7 °C 9,7 km/h (2 Bft)
26.03.2019 15:25 4,7 °C 57 % 1028,4 hPa 0,0 mm 3,9 km/h (1 Bft) W 278 ° 1 min 0,000 mm 2,4 UV-I 671 W/m² -3,1 °C 4,7 °C 6,4 km/h (2 Bft)
26.03.2019 15:26 4,7 °C 57 % 1028,4 hPa 0,0 mm 3,0 km/h (1 Bft) NW 304 ° 1 min 0,000 mm 2,0 UV-I 647 W/m² -3,1 °C 4,7 °C 6,4 km/h (2 Bft)
26.03.2019 15:27 4,7 °C 58 % 1028,4 hPa 0,0 mm 2,7 km/h (1 Bft) W-SW 246 ° 0 min 0,000 mm 2,0 UV-I 550 W/m² -2,8 °C 4,7 °C 4,8 km/h (1 Bft)
26.03.2019 15:28 4,7 °C 58 % 1028,4 hPa 0,0 mm 5,7 km/h (1 Bft) W 261 ° 1 min 0,000 mm 2,3 UV-I 643 W/m² -2,8 °C 3,5 °C 11,3 km/h (2 Bft)
26.03.2019 15:29 4,8 °C 57 % 1028,4 hPa 0,0 mm 4,9 km/h (1 Bft) W-SW 258 ° 1 min 0,000 mm 2,3 UV-I 642 W/m² -3,0 °C 3,9 °C 6,4 km/h (2 Bft)
26.03.2019 15:30 4,7 °C 55 % 1028,4 hPa 0,0 mm 0,2 km/h (0 Bft) W-SW 258 ° 0 min 0,000 mm 2,2 UV-I 589 W/m² -3,6 °C 4,7 °C 3,2 km/h (1 Bft)
26.03.2019 15:31 4,7 °C 56 % 1028,3 hPa 0,0 mm 4,0 km/h (1 Bft) NW 320 ° 0 min 0,000 mm 2,1 UV-I 374 W/m² -3,3 °C 4,7 °C 8,0 km/h (2 Bft)
26.03.2019 15:32 4,7 °C 58 % 1028,4 hPa 0,0 mm 2,4 km/h (1 Bft) NW 317 ° 0 min 0,000 mm 2,1 UV-I 374 W/m² -2,8 °C 4,7 °C 8,0 km/h (2 Bft)
26.03.2019 15:33 4,6 °C 57 % 1028,3 hPa 0,0 mm 2,7 km/h (1 Bft) W 259 ° 0 min 0,000 mm 1,7 UV-I 374 W/m² -3,2 °C 4,6 °C 4,8 km/h (1 Bft)
26.03.2019 15:34 4,6 °C 56 % 1028,4 hPa 0,0 mm 10,6 km/h (2 Bft) W-SW 255 ° 0 min 0,000 mm 1,7 UV-I 237 W/m² -3,4 °C 2,1 °C 14,5 km/h (3 Bft)
26.03.2019 15:35 4,5 °C 56 % 1028,4 hPa 0,0 mm 13,1 km/h (3 Bft) W-SW 254 ° 0 min 0,000 mm 1,6 UV-I 232 W/m² -3,5 °C 1,4 °C 17,7 km/h (3 Bft)
26.03.2019 15:36 4,4 °C 57 % 1028,4 hPa 0,0 mm 7,4 km/h (2 Bft) NW 313 ° 0 min 0,000 mm 1,6 UV-I 218 W/m² -3,4 °C 2,6 °C 12,9 km/h (3 Bft)
26.03.2019 15:37 4,4 °C 57 % 1028,4 hPa 0,0 mm 6,0 km/h (2 Bft) NW 317 ° 0 min 0,000 mm 1,6 UV-I 211 W/m² -3,4 °C 3,0 °C 9,7 km/h (2 Bft)
26.03.2019 15:38 4,4 °C 59 % 1028,4 hPa 0,0 mm 4,4 km/h (1 Bft) NW 315 ° 0 min 0,000 mm 1,5 UV-I 211 W/m² -2,9 °C 4,4 °C 6,4 km/h (2 Bft)
26.03.2019 15:39 4,6 °C 59 % 1028,4 hPa 0,0 mm 5,2 km/h (1 Bft) W-SW 246 ° 0 min 0,000 mm 1,5 UV-I 207 W/m² -2,7 °C 3,6 °C 8,0 km/h (2 Bft)
26.03.2019 15:40 4,5 °C 57 % 1028,4 hPa 0,0 mm 7,7 km/h (2 Bft) W-NW 296 ° 0 min 0,000 mm 1,5 UV-I 204 W/m² -3,3 °C 2,6 °C 12,9 km/h (3 Bft)
26.03.2019 15:41 4,5 °C 59 % 1028,4 hPa 0,0 mm 5,7 km/h (1 Bft) W-NW 282 ° 0 min 0,000 mm 1,4 UV-I 197 W/m² -2,8 °C 3,3 °C 9,7 km/h (2 Bft)
26.03.2019 15:42 4,5 °C 58 % 1028,3 hPa 0,0 mm 9,0 km/h (2 Bft) W-NW 285 ° 0 min 0,000 mm 1,4 UV-I 188 W/m² -3,0 °C 2,3 °C 12,9 km/h (3 Bft)
26.03.2019 15:43 4,4 °C 57 % 1028,4 hPa 0,0 mm 6,7 km/h (2 Bft) NW 320 ° 0 min 0,000 mm 1,4 UV-I 186 W/m² -3,4 °C 2,8 °C 11,3 km/h (2 Bft)
26.03.2019 15:44 4,5 °C 59 % 1028,4 hPa 0,0 mm 5,6 km/h (1 Bft) W-NW 294 ° 0 min 0,000 mm 1,5 UV-I 239 W/m² -2,8 °C 3,3 °C 8,0 km/h (2 Bft)
26.03.2019 15:45 4,5 °C 57 % 1028,4 hPa 0,0 mm 4,9 km/h (1 Bft) N-NW 332 ° 0 min 0,000 mm 1,5 UV-I 185 W/m² -3,3 °C 3,6 °C 6,4 km/h (2 Bft)
26.03.2019 15:46 4,5 °C 57 % 1028,4 hPa 0,0 mm 4,2 km/h (1 Bft) NW 306 ° 0 min 0,000 mm 1,3 UV-I 176 W/m² -3,3 °C 4,5 °C 6,4 km/h (2 Bft)
26.03.2019 15:47 4,4 °C 55 % 1028,4 hPa 0,0 mm 4,1 km/h (1 Bft) S 191 ° 0 min 0,000 mm 1,3 UV-I 171 W/m² -3,8 °C 4,4 °C 6,4 km/h (2 Bft)
26.03.2019 15:48 4,3 °C 56 % 1028,3 hPa 0,0 mm 7,4 km/h (2 Bft) W-SW 247 ° 0 min 0,000 mm 1,3 UV-I 169 W/m² -3,7 °C 2,5 °C 12,9 km/h (3 Bft)
26.03.2019 15:49 4,3 °C 55 % 1028,3 hPa 0,0 mm 5,6 km/h (1 Bft) W-NW 299 ° 0 min 0,000 mm 1,3 UV-I 160 W/m² -3,9 °C 3,1 °C 6,4 km/h (2 Bft)
26.03.2019 15:50 4,2 °C 56 % 1028,3 hPa 0,0 mm 3,5 km/h (1 Bft) W 280 ° 0 min 0,000 mm 1,3 UV-I 146 W/m² -3,8 °C 4,2 °C 4,8 km/h (1 Bft)
26.03.2019 15:51 4,2 °C 57 % 1028,3 hPa 0,0 mm 4,1 km/h (1 Bft) W 270 ° 0 min 0,000 mm 1,4 UV-I 178 W/m² -3,5 °C 4,2 °C 6,4 km/h (2 Bft)
26.03.2019 15:52 4,2 °C 58 % 1028,3 hPa 0,0 mm 6,2 km/h (2 Bft) W-SW 257 ° 0 min 0,000 mm 1,3 UV-I 151 W/m² -3,3 °C 2,7 °C 9,7 km/h (2 Bft)
26.03.2019 15:53 4,3 °C 59 % 1028,3 hPa 0,0 mm 6,4 km/h (2 Bft) W 266 ° 0 min 0,000 mm 1,4 UV-I 197 W/m² -3,0 °C 2,8 °C 11,3 km/h (2 Bft)
26.03.2019 15:54 4,2 °C 57 % 1028,3 hPa 0,0 mm 3,4 km/h (1 Bft) W-SW 257 ° 0 min 0,000 mm 1,3 UV-I 125 W/m² -3,5 °C 4,2 °C 6,4 km/h (2 Bft)
26.03.2019 15:55 4,2 °C 56 % 1028,3 hPa 0,0 mm 4,7 km/h (1 Bft) W-SW 244 ° 0 min 0,000 mm 1,3 UV-I 104 W/m² -3,8 °C 3,3 °C 8,0 km/h (2 Bft)
26.03.2019 15:56 4,1 °C 57 % 1028,2 hPa 0,0 mm 4,8 km/h (1 Bft) W-SW 244 ° 0 min 0,000 mm 1,2 UV-I 97 W/m² -3,6 °C 3,1 °C 8,0 km/h (2 Bft)
26.03.2019 15:57 4,1 °C 56 % 1028,2 hPa 0,0 mm 2,2 km/h (1 Bft) W-SW 244 ° 0 min 0,000 mm 1,2 UV-I 95 W/m² -3,9 °C 4,1 °C 3,2 km/h (1 Bft)
26.03.2019 15:58 3,9 °C 55 % 1028,2 hPa 0,0 mm 2,8 km/h (1 Bft) SW 219 ° 0 min 0,000 mm 1,2 UV-I 100 W/m² -4,3 °C 3,9 °C 4,8 km/h (1 Bft)
26.03.2019 15:59 3,9 °C 55 % 1028,2 hPa 0,0 mm 3,0 km/h (1 Bft) W-SW 237 ° 0 min 0,000 mm 1,4 UV-I 100 W/m² -4,3 °C 3,9 °C 8,0 km/h (2 Bft)
26.03.2019 16:00 3,9 °C 58 % 1028,2 hPa 0,0 mm 3,2 km/h (1 Bft) W-SW 244 ° 0 min 0,000 mm 1,5 UV-I 100 W/m² -3,6 °C 3,9 °C 8,0 km/h (2 Bft)
26.03.2019 16:01 3,9 °C 57 % 1028,1 hPa 0,0 mm 3,5 km/h (1 Bft) W-NW 293 ° 0 min 0,127 mm 1,2 UV-I 100 W/m² -3,8 °C 3,9 °C 6,4 km/h (2 Bft)
26.03.2019 16:02 3,9 °C 57 % 1028,2 hPa 0,0 mm 3,0 km/h (1 Bft) W 277 ° 0 min 0,000 mm 1,2 UV-I 105 W/m² -3,8 °C 3,9 °C 4,8 km/h (1 Bft)
26.03.2019 16:03 3,9 °C 57 % 1028,1 hPa 0,0 mm 1,9 km/h (1 Bft) W 277 ° 0 min 0,000 mm 1,2 UV-I 204 W/m² -3,8 °C 3,9 °C 3,2 km/h (1 Bft)
26.03.2019 16:04 4,0 °C 57 % 1028,2 hPa 0,0 mm 0,0 km/h (0 Bft) W 270 ° 0 min 0,000 mm 1,3 UV-I 206 W/m² -3,7 °C 4,0 °C 3,2 km/h (1 Bft)
26.03.2019 16:05 4,1 °C 58 % 1028,2 hPa 0,0 mm 4,8 km/h (1 Bft) W 270 ° 0 min 0,000 mm 1,3 UV-I 236 W/m² -3,4 °C 3,1 °C 6,4 km/h (2 Bft)
26.03.2019 16:06 4,2 °C 57 % 1028,2 hPa 0,0 mm 3,2 km/h (1 Bft) W 270 ° 0 min 0,000 mm 1,3 UV-I 318 W/m² -3,5 °C 4,2 °C 11,3 km/h (2 Bft)
26.03.2019 16:07 4,2 °C 57 % 1028,2 hPa 0,0 mm 6,4 km/h (2 Bft) W 270 ° 0 min 0,000 mm 1,4 UV-I 241 W/m² -3,5 °C 2,7 °C 11,3 km/h (2 Bft)
26.03.2019 16:08 4,3 °C 56 % 1028,2 hPa 0,0 mm 4,8 km/h (1 Bft) W-NW 292 ° 0 min 0,000 mm 1,3 UV-I 144 W/m² -3,7 °C 3,4 °C 9,7 km/h (2 Bft)
26.03.2019 16:09 4,3 °C 56 % 1028,1 hPa 0,0 mm 6,4 km/h (2 Bft) W 270 ° 0 min 0,000 mm 1,3 UV-I 144 W/m² -3,7 °C 2,8 °C 11,3 km/h (2 Bft)
26.03.2019 16:10 4,4 °C 56 % 1028,1 hPa 0,0 mm 4,8 km/h (1 Bft) W 270 ° 0 min 0,000 mm 1,3 UV-I 237 W/m² -3,6 °C 3,5 °C 6,4 km/h (2 Bft)
26.03.2019 16:11 4,4 °C 56 % 1028,1 hPa 0,0 mm 3,2 km/h (1 Bft) NW 315 ° 0 min 0,000 mm 1,3 UV-I 230 W/m² -3,6 °C 4,4 °C 6,4 km/h (2 Bft)
26.03.2019 16:12 4,4 °C 56 % 1028,1 hPa 0,0 mm 6,4 km/h (2 Bft) W 270 ° 0 min 0,000 mm 1,3 UV-I 220 W/m² -3,6 °C 2,9 °C 14,5 km/h (3 Bft)
26.03.2019 16:13 4,5 °C 56 % 1028,2 hPa 0,0 mm 12,9 km/h (3 Bft) W-NW 292 ° 0 min 0,000 mm 1,3 UV-I 274 W/m² -3,5 °C 1,5 °C 16,1 km/h (3 Bft)
26.03.2019 16:14 4,6 °C 59 % 1028,2 hPa 0,0 mm 12,9 km/h (3 Bft) W-NW 292 ° 0 min 0,000 mm 1,2 UV-I 204 W/m² -2,7 °C 1,6 °C 17,7 km/h (3 Bft)
26.03.2019 16:15 4,6 °C 55 % 1028,2 hPa 0,0 mm 6,4 km/h (2 Bft) W-NW 292 ° 0 min 0,000 mm 1,2 UV-I 218 W/m² -3,6 °C 3,1 °C 12,9 km/h (3 Bft)
26.03.2019 16:16 4,6 °C 57 % 1028,2 hPa 0,0 mm 12,9 km/h (3 Bft) W-NW 292 ° 0 min 0,000 mm 1,1 UV-I 221 W/m² -3,2 °C 1,6 °C 17,7 km/h (3 Bft)
26.03.2019 16:17 4,6 °C 56 % 1028,2 hPa 0,0 mm 9,7 km/h (2 Bft) W-NW 292 ° 0 min 0,000 mm 1,2 UV-I 221 W/m² -3,4 °C 2,2 °C 12,9 km/h (3 Bft)
26.03.2019 16:18 4,6 °C 56 % 1028,2 hPa 0,0 mm 6,4 km/h (2 Bft) NW 315 ° 0 min 0,000 mm 1,3 UV-I 366 W/m² -3,4 °C 3,1 °C 11,3 km/h (2 Bft)
26.03.2019 16:19 4,6 °C 57 % 1028,2 hPa 0,0 mm 4,8 km/h (1 Bft) NW 315 ° 0 min 0,000 mm 1,3 UV-I 360 W/m² -3,2 °C 3,7 °C 8,0 km/h (2 Bft)
26.03.2019 16:20 4,6 °C 56 % 1028,2 hPa 0,0 mm 3,2 km/h (1 Bft) W-NW 292 ° 0 min 0,000 mm 1,3 UV-I 343 W/m² -3,4 °C 4,6 °C 6,4 km/h (2 Bft)
26.03.2019 16:21 4,6 °C 56 % 1028,2 hPa 0,0 mm 4,8 km/h (1 Bft) W-SW 247 ° 0 min 0,000 mm 1,3 UV-I 341 W/m² -3,4 °C 3,7 °C 8,0 km/h (2 Bft)
26.03.2019 16:22 4,6 °C 56 % 1028,3 hPa 0,0 mm 6,4 km/h (2 Bft) W 270 ° 0 min 0,000 mm 1,0 UV-I 341 W/m² -3,4 °C 3,1 °C 9,7 km/h (2 Bft)
26.03.2019 16:23 4,5 °C 55 % 1028,3 hPa 0,0 mm 3,2 km/h (1 Bft) W 270 ° 0 min 0,000 mm 1,0 UV-I 62 W/m² -3,7 °C 4,5 °C 6,4 km/h (2 Bft)
26.03.2019 16:24 4,4 °C 55 % 1028,3 hPa 0,0 mm 3,2 km/h (1 Bft) W-NW 292 ° 0 min 0,000 mm 1,0 UV-I 58 W/m² -3,8 °C 4,4 °C 6,4 km/h (2 Bft)
26.03.2019 16:25 4,3 °C 55 % 1028,3 hPa 0,0 mm 3,2 km/h (1 Bft) NW 315 ° 0 min 0,000 mm 0,0 UV-I 53 W/m² -3,9 °C 4,3 °C 8,0 km/h (2 Bft)
26.03.2019 16:26 4,2 °C 55 % 1028,3 hPa 0,0 mm 3,2 km/h (1 Bft) N-NW 337 ° 0 min 0,000 mm 0,0 UV-I 51 W/m² -4,0 °C 4,2 °C 6,4 km/h (2 Bft)
26.03.2019 16:27 4,2 °C 57 % 1028,2 hPa 0,0 mm 6,4 km/h (2 Bft) NW 315 ° 0 min 0,000 mm 0,0 UV-I 49 W/m² -3,5 °C 2,7 °C 9,7 km/h (2 Bft)
26.03.2019 16:28 4,1 °C 58 % 1028,2 hPa 0,0 mm 4,8 km/h (1 Bft) NW 315 ° 0 min 0,000 mm 0,0 UV-I 47 W/m² -3,4 °C 3,1 °C 6,4 km/h (2 Bft)
26.03.2019 16:29 4,0 °C 58 % 1028,2 hPa 0,0 mm 3,2 km/h (1 Bft) W-NW 292 ° 0 min 0,000 mm 0,0 UV-I 47 W/m² -3,5 °C 4,0 °C 4,8 km/h (1 Bft)
26.03.2019 16:31 3,9 °C 58 % 1028,2 hPa 0,0 mm 1,0 km/h (0 Bft) W-NW 298 ° 0 min 0,000 mm 0,0 UV-I 51 W/m² -3,6 °C 3,9 °C 3,2 km/h (1 Bft)
26.03.2019 16:32 3,8 °C 58 % 1028,3 hPa 0,0 mm 1,4 km/h (1 Bft) W-NW 298 ° 0 min 0,000 mm 0,0 UV-I 51 W/m² -3,7 °C 3,8 °C 3,2 km/h (1 Bft)
26.03.2019 16:33 3,8 °C 57 % 1028,3 hPa 0,0 mm 2,2 km/h (1 Bft) W-NW 298 ° 0 min 0,000 mm 0,0 UV-I 51 W/m² -3,9 °C 3,8 °C 4,8 km/h (1 Bft)
26.03.2019 16:34 3,8 °C 58 % 1028,3 hPa 0,0 mm 3,1 km/h (1 Bft) W-NW 298 ° 0 min 0,000 mm 0,0 UV-I 51 W/m² -3,7 °C 3,8 °C 4,8 km/h (1 Bft)
26.03.2019 16:35 3,8 °C 57 % 1028,3 hPa 0,0 mm 1,3 km/h (1 Bft) W-NW 298 ° 0 min 0,000 mm 0,9 UV-I 65 W/m² -3,9 °C 3,8 °C 3,2 km/h (1 Bft)
26.03.2019 16:36 3,8 °C 58 % 1028,3 hPa 0,0 mm 0,0 km/h (0 Bft) W-NW 298 ° 0 min 0,000 mm 1,0 UV-I 241 W/m² -3,7 °C 3,8 °C 0,0 km/h (0 Bft)
26.03.2019 16:37 3,8 °C 58 % 1028,2 hPa 0,0 mm 1,6 km/h (1 Bft) W-NW 298 ° 0 min 0,000 mm 1,0 UV-I 229 W/m² -3,7 °C 3,8 °C 3,2 km/h (1 Bft)
26.03.2019 16:38 3,9 °C 57 % 1028,2 hPa 0,0 mm 2,3 km/h (1 Bft) W-NW 298 ° 0 min 0,000 mm 1,0 UV-I 232 W/m² -3,8 °C 3,9 °C 3,2 km/h (1 Bft)
26.03.2019 16:39 3,9 °C 59 % 1028,2 hPa 0,0 mm 1,7 km/h (1 Bft) W-NW 286 ° 0 min 0,000 mm 1,0 UV-I 204 W/m² -3,4 °C 3,9 °C 4,8 km/h (1 Bft)
26.03.2019 16:40 4,1 °C 57 % 1028,2 hPa 0,0 mm 1,7 km/h (1 Bft) W 279 ° 0 min 0,000 mm 0,9 UV-I 130 W/m² -3,6 °C 4,1 °C 4,8 km/h (1 Bft)
26.03.2019 16:41 4,1 °C 57 % 1028,2 hPa 0,0 mm 5,7 km/h (1 Bft) W-SW 255 ° 0 min 0,000 mm 0,9 UV-I 151 W/m² -3,6 °C 2,8 °C 9,7 km/h (2 Bft)
26.03.2019 16:42 4,2 °C 56 % 1028,2 hPa 0,0 mm 5,7 km/h (1 Bft) W 272 ° 0 min 0,000 mm 0,9 UV-I 142 W/m² -3,8 °C 2,9 °C 8,0 km/h (2 Bft)
26.03.2019 16:43 4,2 °C 57 % 1028,2 hPa 0,0 mm 5,6 km/h (1 Bft) W 278 ° 0 min 0,000 mm 0,9 UV-I 113 W/m² -3,5 °C 2,9 °C 8,0 km/h (2 Bft)
26.03.2019 16:44 4,2 °C 56 % 1028,2 hPa 0,0 mm 3,5 km/h (1 Bft) W 276 ° 0 min 0,000 mm 0,9 UV-I 116 W/m² -3,8 °C 4,2 °C 4,8 km/h (1 Bft)
26.03.2019 16:45 4,2 °C 57 % 1028,2 hPa 0,0 mm 3,5 km/h (1 Bft) W-NW 289 ° 0 min 0,000 mm 0,9 UV-I 116 W/m² -3,5 °C 4,2 °C 6,4 km/h (2 Bft)
26.03.2019 16:46 4,2 °C 56 % 1028,2 hPa 0,0 mm 2,6 km/h (1 Bft) W-NW 287 ° 0 min 0,000 mm 0,9 UV-I 134 W/m² -3,8 °C 4,2 °C 4,8 km/h (1 Bft)
26.03.2019 16:47 4,2 °C 56 % 1028,2 hPa 0,0 mm 6,7 km/h (2 Bft) W 281 ° 0 min 0,000 mm 0,9 UV-I 149 W/m² -3,8 °C 2,6 °C 9,7 km/h (2 Bft)
26.03.2019 16:48 4,2 °C 56 % 1028,2 hPa 0,0 mm 5,5 km/h (1 Bft) W-NW 288 ° 0 min 0,000 mm 0,8 UV-I 149 W/m² -3,8 °C 3,0 °C 8,0 km/h (2 Bft)
26.03.2019 16:49 4,2 °C 56 % 1028,2 hPa 0,0 mm 3,8 km/h (1 Bft) W-NW 303 ° 0 min 0,000 mm 0,8 UV-I 125 W/m² -3,8 °C 4,2 °C 6,4 km/h (2 Bft)
26.03.2019 16:50 4,2 °C 56 % 1028,2 hPa 0,0 mm 3,2 km/h (1 Bft) W-NW 301 ° 0 min 0,000 mm 0,8 UV-I 100 W/m² -3,8 °C 4,2 °C 4,8 km/h (1 Bft)
26.03.2019 16:51 4,2 °C 55 % 1028,2 hPa 0,0 mm 3,2 km/h (1 Bft) W-SW 253 ° 0 min 0,000 mm 0,8 UV-I 77 W/m² -4,0 °C 4,2 °C 8,0 km/h (2 Bft)
26.03.2019 16:52 4,2 °C 55 % 1028,2 hPa 0,0 mm 4,7 km/h (1 Bft) W-NW 284 ° 0 min 0,000 mm 0,8 UV-I 63 W/m² -4,0 °C 3,3 °C 8,0 km/h (2 Bft)
26.03.2019 16:53 4,2 °C 55 % 1028,1 hPa 0,0 mm 2,5 km/h (1 Bft) W 274 ° 0 min 0,000 mm 0,7 UV-I 70 W/m² -4,0 °C 4,2 °C 4,8 km/h (1 Bft)
26.03.2019 16:54 4,2 °C 56 % 1028,2 hPa 0,0 mm 2,1 km/h (1 Bft) W-NW 296 ° 0 min 0,000 mm 0,7 UV-I 77 W/m² -3,8 °C 4,2 °C 3,2 km/h (1 Bft)
26.03.2019 16:55 4,2 °C 57 % 1028,2 hPa 0,0 mm 4,4 km/h (1 Bft) W 277 ° 0 min 0,000 mm 0,7 UV-I 81 W/m² -3,5 °C 4,2 °C 6,4 km/h (2 Bft)
26.03.2019 16:56 4,3 °C 57 % 1028,2 hPa 0,0 mm 5,7 km/h (1 Bft) W-SW 252 ° 0 min 0,000 mm 0,7 UV-I 79 W/m² -3,5 °C 3,0 °C 9,7 km/h (2 Bft)
26.03.2019 16:57 4,3 °C 56 % 1028,2 hPa 0,0 mm 6,7 km/h (2 Bft) W 263 ° 0 min 0,000 mm 0,6 UV-I 76 W/m² -3,7 °C 2,7 °C 9,7 km/h (2 Bft)
26.03.2019 16:58 4,2 °C 56 % 1028,2 hPa 0,0 mm 5,6 km/h (1 Bft) NW 317 ° 0 min 0,000 mm 0,6 UV-I 67 W/m² -3,8 °C 2,9 °C 8,0 km/h (2 Bft)
26.03.2019 16:59 4,3 °C 56 % 1028,3 hPa 0,0 mm 6,3 km/h (2 Bft) W-NW 284 ° 0 min 0,000 mm 0,6 UV-I 65 W/m² -3,7 °C 2,8 °C 9,7 km/h (2 Bft)
26.03.2019 17:00 4,3 °C 57 % 1028,3 hPa 0,0 mm 7,0 km/h (2 Bft) W-NW 294 ° 0 min 0,076 mm 0,6 UV-I 67 W/m² -3,5 °C 2,6 °C 11,3 km/h (2 Bft)
26.03.2019 17:01 4,3 °C 57 % 1028,2 hPa 0,0 mm 7,1 km/h (2 Bft) NW 319 ° 0 min 0,000 mm 0,6 UV-I 69 W/m² -3,5 °C 2,6 °C 11,3 km/h (2 Bft)
26.03.2019 17:02 4,4 °C 57 % 1028,2 hPa 0,0 mm 8,5 km/h (2 Bft) W 263 ° 0 min 0,000 mm 0,5 UV-I 70 W/m² -3,4 °C 2,3 °C 11,3 km/h (2 Bft)
26.03.2019 17:03 4,4 °C 57 % 1028,2 hPa 0,0 mm 5,1 km/h (1 Bft) W-NW 290 ° 0 min 0,000 mm 0,5 UV-I 72 W/m² -3,4 °C 3,4 °C 6,4 km/h (2 Bft)
26.03.2019 17:04 4,3 °C 56 % 1028,2 hPa 0,0 mm 2,0 km/h (1 Bft) W-NW 289 ° 0 min 0,000 mm 0,5 UV-I 74 W/m² -3,7 °C 4,3 °C 4,8 km/h (1 Bft)
26.03.2019 17:05 4,4 °C 57 % 1028,2 hPa 0,0 mm 4,9 km/h (1 Bft) W-NW 286 ° 0 min 0,000 mm 0,5 UV-I 77 W/m² -3,4 °C 3,4 °C 8,0 km/h (2 Bft)
26.03.2019 17:06 4,4 °C 58 % 1028,2 hPa 0,0 mm 5,5 km/h (1 Bft) NW 312 ° 0 min 0,000 mm 0,5 UV-I 77 W/m² -3,1 °C 3,2 °C 8,0 km/h (2 Bft)
26.03.2019 17:07 4,4 °C 56 % 1028,2 hPa 0,0 mm 4,0 km/h (1 Bft) W-NW 292 ° 0 min 0,000 mm 0,5 UV-I 77 W/m² -3,6 °C 4,4 °C 6,4 km/h (2 Bft)
26.03.2019 17:08 4,4 °C 57 % 1028,2 hPa 0,0 mm 4,8 km/h (1 Bft) NW 325 ° 0 min 0,000 mm 0,5 UV-I 79 W/m² -3,4 °C 3,5 °C 8,0 km/h (2 Bft)
26.03.2019 17:09 4,4 °C 57 % 1028,2 hPa 0,0 mm 5,4 km/h (1 Bft) W-NW 292 ° 0 min 0,000 mm 0,5 UV-I 79 W/m² -3,4 °C 3,2 °C 8,0 km/h (2 Bft)
26.03.2019 17:10 4,4 °C 57 % 1028,2 hPa 0,0 mm 2,9 km/h (1 Bft) W-NW 296 ° 0 min 0,000 mm 0,5 UV-I 77 W/m² -3,4 °C 4,4 °C 4,8 km/h (1 Bft)
26.03.2019 17:11 4,3 °C 57 % 1028,2 hPa 0,0 mm 4,6 km/h (1 Bft) NW 315 ° 0 min 0,000 mm 0,5 UV-I 70 W/m² -3,5 °C 3,5 °C 8,0 km/h (2 Bft)
26.03.2019 17:12 4,3 °C 59 % 1028,2 hPa 0,0 mm 8,3 km/h (2 Bft) NW 325 ° 0 min 0,000 mm 0,5 UV-I 67 W/m² -3,0 °C 2,2 °C 14,5 km/h (3 Bft)
26.03.2019 17:13 4,3 °C 58 % 1028,2 hPa 0,0 mm 7,6 km/h (2 Bft) NW 314 ° 0 min 0,000 mm 0,5 UV-I 63 W/m² -3,2 °C 2,4 °C 14,5 km/h (3 Bft)
26.03.2019 17:14 4,3 °C 58 % 1028,2 hPa 0,0 mm 3,2 km/h (1 Bft) W-NW 302 ° 0 min 0,000 mm 0,5 UV-I 62 W/m² -3,2 °C 4,3 °C 4,8 km/h (1 Bft)
26.03.2019 17:15 4,2 °C 58 % 1028,3 hPa 0,0 mm 4,7 km/h (1 Bft) W 264 ° 0 min 0,000 mm 0,0 UV-I 62 W/m² -3,3 °C 3,3 °C 6,4 km/h (2 Bft)
26.03.2019 17:16 4,2 °C 58 % 1028,3 hPa 0,0 mm 6,6 km/h (2 Bft) W 280 ° 0 min 0,000 mm 0,0 UV-I 62 W/m² -3,3 °C 2,6 °C 12,9 km/h (3 Bft)
26.03.2019 17:17 4,2 °C 58 % 1028,2 hPa 0,0 mm 6,1 km/h (2 Bft) W-NW 291 ° 0 min 0,000 mm 0,0 UV-I 62 W/m² -3,3 °C 2,8 °C 11,3 km/h (2 Bft)
26.03.2019 17:18 4,2 °C 57 % 1028,2 hPa 0,0 mm 4,0 km/h (1 Bft) W 266 ° 0 min 0,000 mm 0,0 UV-I 58 W/m² -3,5 °C 4,2 °C 6,4 km/h (2 Bft)
26.03.2019 17:19 4,2 °C 57 % 1028,2 hPa 0,0 mm 6,4 km/h (2 Bft) W-NW 296 ° 0 min 0,000 mm 0,0 UV-I 56 W/m² -3,5 °C 2,7 °C 9,7 km/h (2 Bft)
26.03.2019 17:20 4,1 °C 57 % 1028,3 hPa 0,0 mm 5,9 km/h (2 Bft) NW 307 ° 0 min 0,000 mm 0,0 UV-I 54 W/m² -3,6 °C 2,7 °C 8,0 km/h (2 Bft)
26.03.2019 17:21 4,1 °C 57 % 1028,3 hPa 0,0 mm 4,6 km/h (1 Bft) W-NW 292 ° 0 min 0,000 mm 0,0 UV-I 54 W/m² -3,6 °C 3,2 °C 6,4 km/h (2 Bft)
26.03.2019 17:22 4,1 °C 58 % 1028,3 hPa 0,0 mm 2,7 km/h (1 Bft) W-NW 292 ° 0 min 0,000 mm 0,0 UV-I 54 W/m² -3,4 °C 4,1 °C 4,8 km/h (1 Bft)
26.03.2019 17:23 4,0 °C 57 % 1028,3 hPa 0,0 mm 0,7 km/h (0 Bft) W-NW 292 ° 0 min 0,000 mm 0,0 UV-I 54 W/m² -3,7 °C 4,0 °C 3,2 km/h (1 Bft)
26.03.2019 17:24 4,0 °C 57 % 1028,2 hPa 0,0 mm 1,1 km/h (1 Bft) W-NW 292 ° 0 min 0,000 mm 0,0 UV-I 56 W/m² -3,7 °C 4,0 °C 3,2 km/h (1 Bft)
26.03.2019 17:25 4,0 °C 58 % 1028,2 hPa 0,0 mm 2,7 km/h (1 Bft) W-NW 292 ° 0 min 0,000 mm 0,0 UV-I 56 W/m² -3,5 °C 4,0 °C 4,8 km/h (1 Bft)
26.03.2019 17:26 4,0 °C 58 % 1028,3 hPa 0,0 mm 1,5 km/h (1 Bft) W-NW 292 ° 0 min 0,000 mm 0,0 UV-I 58 W/m² -3,5 °C 4,0 °C 3,2 km/h (1 Bft)
26.03.2019 17:27 4,0 °C 59 % 1028,3 hPa 0,0 mm 0,0 km/h (0 Bft) W-NW 292 ° 0 min 0,000 mm 0,0 UV-I 58 W/m² -3,3 °C 4,0 °C 0,0 km/h (0 Bft)
26.03.2019 17:28 4,0 °C 59 % 1028,3 hPa 0,0 mm 0,0 km/h (0 Bft) W-NW 292 ° 0 min 0,000 mm 0,0 UV-I 58 W/m² -3,3 °C 4,0 °C 0,0 km/h (0 Bft)
26.03.2019 17:29 4,1 °C 58 % 1028,3 hPa 0,0 mm 1,5 km/h (1 Bft) W-NW 292 ° 0 min 0,000 mm 0,0 UV-I 56 W/m² -3,4 °C 4,1 °C 3,2 km/h (1 Bft)
26.03.2019 17:30 4,0 °C 58 % 1028,4 hPa 0,0 mm 1,5 km/h (1 Bft) W-NW 292 ° 0 min 0,000 mm 0,0 UV-I 54 W/m² -3,5 °C 4,0 °C 3,2 km/h (1 Bft)
26.03.2019 17:31 4,1 °C 58 % 1028,4 hPa 0,0 mm 1,1 km/h (1 Bft) W-NW 292 ° 0 min 0,000 mm 0,0 UV-I 53 W/m² -3,4 °C 4,1 °C 3,2 km/h (1 Bft)
26.03.2019 17:32 4,1 °C 59 % 1028,4 hPa 0,0 mm 3,0 km/h (1 Bft) W-NW 292 ° 0 min 0,000 mm 0,0 UV-I 51 W/m² -3,2 °C 4,1 °C 4,8 km/h (1 Bft)
26.03.2019 17:33 4,1 °C 58 % 1028,4 hPa 0,0 mm 3,4 km/h (1 Bft) W-NW 292 ° 0 min 0,000 mm 0,0 UV-I 51 W/m² -3,4 °C 4,1 °C 4,8 km/h (1 Bft)
26.03.2019 17:34 4,1 °C 58 % 1028,4 hPa 0,0 mm 1,5 km/h (1 Bft) W-NW 292 ° 0 min 0,000 mm 0,0 UV-I 49 W/m² -3,4 °C 4,1 °C 3,2 km/h (1 Bft)
26.03.2019 17:35 4,1 °C 58 % 1028,4 hPa 0,0 mm 3,7 km/h (1 Bft) W-NW 292 ° 0 min 0,000 mm 0,0 UV-I 49 W/m² -3,4 °C 4,1 °C 4,8 km/h (1 Bft)
26.03.2019 17:36 4,1 °C 58 % 1028,4 hPa 0,0 mm 2,5 km/h (1 Bft) W-NW 292 ° 0 min 0,000 mm 0,0 UV-I 51 W/m² -3,4 °C 4,1 °C 3,2 km/h (1 Bft)
26.03.2019 17:37 4,1 °C 58 % 1028,4 hPa 0,0 mm 1,1 km/h (1 Bft) W-NW 292 ° 0 min 0,000 mm 0,0 UV-I 53 W/m² -3,4 °C 4,1 °C 3,2 km/h (1 Bft)
26.03.2019 17:38 4,1 °C 59 % 1028,4 hPa 0,0 mm 2,1 km/h (1 Bft) W-NW 292 ° 0 min 0,000 mm 0,0 UV-I 53 W/m² -3,2 °C 4,1 °C 3,2 km/h (1 Bft)
26.03.2019 17:39 4,1 °C 60 % 1028,3 hPa 0,0 mm 0,0 km/h (0 Bft) W-NW 292 ° 0 min 0,000 mm 0,0 UV-I 54 W/m² -3,0 °C 4,1 °C 0,0 km/h (0 Bft)
26.03.2019 17:40 4,1 °C 59 % 1028,4 hPa 0,0 mm 0,9 km/h (0 Bft) W-NW 292 ° 0 min 0,000 mm 0,0 UV-I 62 W/m² -3,2 °C 4,1 °C 3,2 km/h (1 Bft)
26.03.2019 17:41 4,1 °C 59 % 1028,4 hPa 0,0 mm 2,9 km/h (1 Bft) W-NW 292 ° 0 min 0,000 mm 0,0 UV-I 72 W/m² -3,2 °C 4,1 °C 4,8 km/h (1 Bft)
26.03.2019 17:42 4,1 °C 60 % 1028,4 hPa 0,0 mm 4,4 km/h (1 Bft) N-NW 327 ° 0 min 0,000 mm 0,0 UV-I 86 W/m² -3,0 °C 4,1 °C 8,0 km/h (2 Bft)
26.03.2019 17:43 4,1 °C 60 % 1028,4 hPa 0,0 mm 1,4 km/h (1 Bft) N-NW 328 ° 0 min 0,000 mm 0,0 UV-I 88 W/m² -3,0 °C 4,1 °C 4,8 km/h (1 Bft)
26.03.2019 17:44 4,1 °C 57 % 1028,4 hPa 0,0 mm 2,3 km/h (1 Bft) N-NW 338 ° 0 min 0,000 mm 0,0 UV-I 93 W/m² -3,6 °C 4,1 °C 3,2 km/h (1 Bft)
26.03.2019 17:45 4,1 °C 58 % 1028,4 hPa 0,0 mm 6,2 km/h (2 Bft) NW 317 ° 0 min 0,000 mm 0,0 UV-I 91 W/m² -3,4 °C 2,6 °C 8,0 km/h (2 Bft)
26.03.2019 17:46 4,2 °C 59 % 1028,5 hPa 0,0 mm 5,9 km/h (2 Bft) NW 317 ° 0 min 0,000 mm 0,0 UV-I 93 W/m² -3,1 °C 2,8 °C 8,0 km/h (2 Bft)
26.03.2019 17:47 4,2 °C 58 % 1028,4 hPa 0,0 mm 5,2 km/h (1 Bft) N 355 ° 0 min 0,000 mm 0,0 UV-I 91 W/m² -3,3 °C 3,1 °C 8,0 km/h (2 Bft)
26.03.2019 17:48 4,1 °C 58 % 1028,4 hPa 0,0 mm 4,5 km/h (1 Bft) N 5 ° 0 min 0,000 mm 0,0 UV-I 90 W/m² -3,4 °C 4,1 °C 6,4 km/h (2 Bft)
26.03.2019 17:49 4,1 °C 58 % 1028,4 hPa 0,0 mm 5,3 km/h (1 Bft) N 11 ° 0 min 0,000 mm 0,0 UV-I 72 W/m² -3,4 °C 2,9 °C 8,0 km/h (2 Bft)
26.03.2019 17:50 4,1 °C 57 % 1028,4 hPa 0,0 mm 5,0 km/h (1 Bft) N 5 ° 0 min 0,000 mm 0,0 UV-I 69 W/m² -3,6 °C 3,1 °C 6,4 km/h (2 Bft)
26.03.2019 17:51 4,1 °C 58 % 1028,4 hPa 0,0 mm 3,8 km/h (1 Bft) NW 317 ° 0 min 0,000 mm 0,0 UV-I 69 W/m² -3,4 °C 4,1 °C 4,8 km/h (1 Bft)
26.03.2019 17:52 4,1 °C 59 % 1028,4 hPa 0,0 mm 4,6 km/h (1 Bft) NW 305 ° 0 min 0,000 mm 0,0 UV-I 67 W/m² -3,2 °C 3,2 °C 6,4 km/h (2 Bft)
26.03.2019 17:53 4,1 °C 59 % 1028,5 hPa 0,0 mm 4,4 km/h (1 Bft) W 273 ° 0 min 0,000 mm 0,0 UV-I 63 W/m² -3,2 °C 4,1 °C 6,4 km/h (2 Bft)
26.03.2019 17:54 4,0 °C 59 % 1028,5 hPa 0,0 mm 5,0 km/h (1 Bft) NW 313 ° 0 min 0,000 mm 0,0 UV-I 67 W/m² -3,3 °C 2,9 °C 8,0 km/h (2 Bft)
26.03.2019 17:55 3,9 °C 58 % 1028,5 hPa 0,0 mm 2,5 km/h (1 Bft) NW 313 ° 0 min 0,000 mm 0,0 UV-I 74 W/m² -3,6 °C 3,9 °C 4,8 km/h (1 Bft)
26.03.2019 17:56 3,9 °C 59 % 1028,5 hPa 0,0 mm 3,0 km/h (1 Bft) N-NW 340 ° 0 min 0,000 mm 0,0 UV-I 67 W/m² -3,4 °C 3,9 °C 4,8 km/h (1 Bft)
26.03.2019 17:57 3,9 °C 59 % 1028,5 hPa 0,0 mm 3,2 km/h (1 Bft) NW 310 ° 0 min 0,000 mm 0,0 UV-I 63 W/m² -3,4 °C 3,9 °C 6,4 km/h (2 Bft)
26.03.2019 17:58 3,8 °C 60 % 1028,5 hPa 0,0 mm 4,5 km/h (1 Bft) W-NW 303 ° 0 min 0,000 mm 0,0 UV-I 49 W/m² -3,2 °C 3,8 °C 6,4 km/h (2 Bft)
26.03.2019 17:59 3,8 °C 59 % 1028,6 hPa 0,0 mm 2,2 km/h (1 Bft) NW 320 ° 0 min 0,000 mm 0,0 UV-I 39 W/m² -3,5 °C 3,8 °C 4,8 km/h (1 Bft)
26.03.2019 18:00 3,8 °C 59 % 1028,6 hPa 0,0 mm 1,4 km/h (1 Bft) NW 309 ° 0 min 0,000 mm 0,0 UV-I 37 W/m² -3,5 °C 3,8 °C 3,2 km/h (1 Bft)
26.03.2019 18:01 3,7 °C 60 % 1028,6 hPa 0,0 mm 5,0 km/h (1 Bft) NW 304 ° 0 min 0,051 mm 0,0 UV-I 35 W/m² -3,3 °C 2,6 °C 8,0 km/h (2 Bft)
26.03.2019 18:02 3,7 °C 60 % 1028,6 hPa 0,0 mm 5,2 km/h (1 Bft) NW 308 ° 0 min 0,000 mm 0,0 UV-I 35 W/m² -3,3 °C 2,5 °C 8,0 km/h (2 Bft)
26.03.2019 18:03 3,7 °C 59 % 1028,6 hPa 0,0 mm 3,4 km/h (1 Bft) NW 319 ° 0 min 0,000 mm 0,0 UV-I 33 W/m² -3,6 °C 3,7 °C 4,8 km/h (1 Bft)
26.03.2019 18:04 3,6 °C 59 % 1028,6 hPa 0,0 mm 1,8 km/h (1 Bft) NW 319 ° 0 min 0,000 mm 0,0 UV-I 32 W/m² -3,6 °C 3,6 °C 3,2 km/h (1 Bft)
26.03.2019 18:05 3,6 °C 60 % 1028,6 hPa 0,0 mm 3,3 km/h (1 Bft) NW 318 ° 0 min 0,000 mm 0,0 UV-I 32 W/m² -3,4 °C 3,6 °C 4,8 km/h (1 Bft)
26.03.2019 18:06 3,4 °C 60 % 1028,7 hPa 0,0 mm 2,3 km/h (1 Bft) NW 311 ° 0 min 0,000 mm 0,0 UV-I 33 W/m² -3,6 °C 3,4 °C 4,8 km/h (1 Bft)
26.03.2019 18:07 3,4 °C 60 % 1028,7 hPa 0,0 mm 1,3 km/h (1 Bft) NW 311 ° 0 min 0,000 mm 0,0 UV-I 37 W/m² -3,6 °C 3,4 °C 1,6 km/h (1 Bft)
26.03.2019 18:08 3,4 °C 60 % 1028,7 hPa 0,0 mm 2,4 km/h (1 Bft) W 270 ° 0 min 0,000 mm 0,0 UV-I 39 W/m² -3,6 °C 3,4 °C 4,8 km/h (1 Bft)
26.03.2019 18:09 3,4 °C 60 % 1028,7 hPa 0,0 mm 2,9 km/h (1 Bft) W-NW 289 ° 0 min 0,000 mm 0,0 UV-I 37 W/m² -3,6 °C 3,4 °C 6,4 km/h (2 Bft)
26.03.2019 18:10 3,3 °C 60 % 1028,6 hPa 0,0 mm 2,9 km/h (1 Bft) W-NW 287 ° 0 min 0,000 mm 0,0 UV-I 35 W/m² -3,7 °C 3,3 °C 4,8 km/h (1 Bft)
26.03.2019 18:11 3,3 °C 60 % 1028,6 hPa 0,0 mm 4,9 km/h (1 Bft) W-NW 297 ° 0 min 0,000 mm 0,0 UV-I 33 W/m² -3,7 °C 2,2 °C 11,3 km/h (2 Bft)
26.03.2019 18:12 3,3 °C 60 % 1028,7 hPa 0,0 mm 3,5 km/h (1 Bft) W-NW 297 ° 0 min 0,000 mm 0,0 UV-I 32 W/m² -3,7 °C 3,3 °C 4,8 km/h (1 Bft)
26.03.2019 18:13 3,3 °C 61 % 1028,8 hPa 0,0 mm 2,3 km/h (1 Bft) W-NW 297 ° 0 min 0,000 mm 0,0 UV-I 30 W/m² -3,5 °C 3,3 °C 4,8 km/h (1 Bft)
26.03.2019 18:14 3,3 °C 61 % 1028,7 hPa 0,0 mm 1,5 km/h (1 Bft) W-NW 297 ° 0 min 0,000 mm 0,0 UV-I 30 W/m² -3,5 °C 3,3 °C 3,2 km/h (1 Bft)
26.03.2019 18:15 3,3 °C 61 % 1028,7 hPa 0,0 mm 0,1 km/h (0 Bft) W-NW 297 ° 0 min 0,000 mm 0,0 UV-I 26 W/m² -3,5 °C 3,3 °C 1,6 km/h (1 Bft)
26.03.2019 18:16 3,2 °C 61 % 1028,8 hPa 0,0 mm 1,8 km/h (1 Bft) W-NW 297 ° 0 min 0,000 mm 0,0 UV-I 25 W/m² -3,6 °C 3,2 °C 4,8 km/h (1 Bft)
26.03.2019 18:17 3,3 °C 61 % 1028,8 hPa 0,0 mm 0,5 km/h (0 Bft) W-NW 297 ° 0 min 0,000 mm 0,0 UV-I 21 W/m² -3,5 °C 3,3 °C 3,2 km/h (1 Bft)
26.03.2019 18:18 3,2 °C 61 % 1028,8 hPa 0,0 mm 0,1 km/h (0 Bft) W-NW 297 ° 0 min 0,000 mm 0,0 UV-I 19 W/m² -3,6 °C 3,2 °C 1,6 km/h (1 Bft)
26.03.2019 18:19 3,2 °C 62 % 1028,8 hPa 0,0 mm 0,9 km/h (0 Bft) W-NW 297 ° 0 min 0,000 mm 0,0 UV-I 18 W/m² -3,4 °C 3,2 °C 3,2 km/h (1 Bft)
26.03.2019 18:20 3,2 °C 62 % 1028,8 hPa 0,0 mm 1,2 km/h (1 Bft) W-NW 297 ° 0 min 0,000 mm 0,0 UV-I 18 W/m² -3,4 °C 3,2 °C 3,2 km/h (1 Bft)
26.03.2019 18:21 3,1 °C 62 % 1028,8 hPa 0,0 mm 0,4 km/h (0 Bft) W-NW 297 ° 0 min 0,000 mm 0,0 UV-I 16 W/m² -3,5 °C 3,1 °C 3,2 km/h (1 Bft)
26.03.2019 18:22 3,1 °C 61 % 1028,7 hPa 0,0 mm 2,0 km/h (1 Bft) W-NW 297 ° 0 min 0,000 mm 0,0 UV-I 14 W/m² -3,7 °C 3,1 °C 4,8 km/h (1 Bft)
26.03.2019 18:23 3,0 °C 61 % 1028,7 hPa 0,0 mm 0,5 km/h (0 Bft) W-NW 297 ° 0 min 0,000 mm 0,0 UV-I 14 W/m² -3,8 °C 3,0 °C 1,6 km/h (1 Bft)
26.03.2019 18:24 2,9 °C 62 % 1028,8 hPa 0,0 mm 1,3 km/h (1 Bft) W-NW 297 ° 0 min 0,000 mm 0,0 UV-I 14 W/m² -3,6 °C 2,9 °C 3,2 km/h (1 Bft)
26.03.2019 18:25 2,9 °C 62 % 1028,8 hPa 0,0 mm 1,3 km/h (1 Bft) W-NW 297 ° 0 min 0,000 mm 0,0 UV-I 12 W/m² -3,6 °C 2,9 °C 3,2 km/h (1 Bft)
26.03.2019 18:26 2,9 °C 63 % 1028,8 hPa 0,0 mm 2,8 km/h (1 Bft) W-NW 297 ° 0 min 0,000 mm 0,0 UV-I 12 W/m² -3,4 °C 2,9 °C 3,2 km/h (1 Bft)
26.03.2019 18:27 2,8 °C 62 % 1028,8 hPa 0,0 mm 2,6 km/h (1 Bft) W-NW 297 ° 0 min 0,000 mm 0,0 UV-I 11 W/m² -3,7 °C 2,8 °C 4,8 km/h (1 Bft)
26.03.2019 18:28 2,8 °C 63 % 1028,8 hPa 0,0 mm 0,3 km/h (0 Bft) W-NW 297 ° 0 min 0,000 mm 0,0 UV-I 11 W/m² -3,5 °C 2,8 °C 1,6 km/h (1 Bft)
26.03.2019 18:29 2,8 °C 63 % 1028,8 hPa 0,0 mm 0,7 km/h (0 Bft) W-NW 297 ° 0 min 0,000 mm 0,0 UV-I 9 W/m² -3,5 °C 2,8 °C 3,2 km/h (1 Bft)
26.03.2019 18:30 2,8 °C 63 % 1028,8 hPa 0,0 mm 0,9 km/h (0 Bft) W-NW 297 ° 0 min 0,000 mm 0,0 UV-I 9 W/m² -3,5 °C 2,8 °C 3,2 km/h (1 Bft)
26.03.2019 18:31 2,7 °C 63 % 1028,8 hPa 0,0 mm 0,0 km/h (0 Bft) W-NW 297 ° 0 min 0,000 mm 0,0 UV-I 7 W/m² -3,6 °C 2,7 °C 0,0 km/h (0 Bft)
26.03.2019 18:32 2,7 °C 63 % 1028,8 hPa 0,0 mm 0,0 km/h (0 Bft) W-NW 297 ° 0 min 0,000 mm 0,0 UV-I 7 W/m² -3,6 °C 2,7 °C 0,0 km/h (0 Bft)
26.03.2019 18:33 2,7 °C 63 % 1028,9 hPa 0,0 mm 0,0 km/h (0 Bft) W-NW 297 ° 0 min 0,000 mm 0,0 UV-I 5 W/m² -3,6 °C 2,7 °C 0,0 km/h (0 Bft)
26.03.2019 18:34 2,7 °C 63 % 1028,9 hPa 0,0 mm 0,0 km/h (0 Bft) W-NW 297 ° 0 min 0,000 mm 0,0 UV-I 5 W/m² -3,6 °C 2,7 °C 0,0 km/h (0 Bft)
26.03.2019 18:35 2,7 °C 63 % 1028,9 hPa 0,0 mm 0,4 km/h (0 Bft) W-NW 297 ° 0 min 0,000 mm 0,0 UV-I 5 W/m² -3,6 °C 2,7 °C 1,6 km/h (1 Bft)
26.03.2019 18:36 2,6 °C 64 % 1028,9 hPa 0,0 mm 0,4 km/h (0 Bft) W-NW 297 ° 0 min 0,000 mm 0,0 UV-I 5 W/m² -3,5 °C 2,6 °C 1,6 km/h (1 Bft)
26.03.2019 18:37 2,6 °C 64 % 1028,9 hPa 0,0 mm 1,4 km/h (1 Bft) W-NW 297 ° 0 min 0,000 mm 0,0 UV-I 0 W/m² -3,5 °C 2,6 °C 3,2 km/h (1 Bft)
26.03.2019 18:38 2,6 °C 64 % 1028,9 hPa 0,0 mm 0,0 km/h (0 Bft) W-NW 297 ° 0 min 0,000 mm 0,0 UV-I 0 W/m² -3,5 °C 2,6 °C 0,0 km/h (0 Bft)
26.03.2019 18:39 2,5 °C 64 % 1028,9 hPa 0,0 mm 1,5 km/h (1 Bft) W-NW 297 ° 0 min 0,000 mm 0,0 UV-I 0 W/m² -3,6 °C 2,5 °C 4,8 km/h (1 Bft)
26.03.2019 18:40 2,5 °C 64 % 1028,9 hPa 0,0 mm 1,4 km/h (1 Bft) W-NW 297 ° 0 min 0,000 mm 0,0 UV-I 0 W/m² -3,6 °C 2,5 °C 3,2 km/h (1 Bft)
26.03.2019 18:41 2,6 °C 64 % 1028,9 hPa 0,0 mm 1,2 km/h (1 Bft) W-NW 297 ° 0 min 0,000 mm 0,0 UV-I 0 W/m² -3,5 °C 2,6 °C 3,2 km/h (1 Bft)
26.03.2019 18:42 2,6 °C 65 % 1029,0 hPa 0,0 mm 2,4 km/h (1 Bft) W-NW 297 ° 0 min 0,000 mm 0,0 UV-I 0 W/m² -3,3 °C 2,6 °C 3,2 km/h (1 Bft)
26.03.2019 18:43 2,5 °C 65 % 1028,9 hPa 0,0 mm 1,6 km/h (1 Bft) W-NW 297 ° 0 min 0,000 mm 0,0 UV-I 0 W/m² -3,4 °C 2,5 °C 3,2 km/h (1 Bft)
26.03.2019 18:44 2,4 °C 65 % 1029,0 hPa 0,0 mm 0,9 km/h (0 Bft) W-NW 297 ° 0 min 0,000 mm 0,0 UV-I 0 W/m² -3,5 °C 2,4 °C 1,6 km/h (1 Bft)
26.03.2019 18:45 2,4 °C 65 % 1029,0 hPa 0,0 mm 0,0 km/h (0 Bft) W-NW 297 ° 0 min 0,000 mm 0,0 UV-I 0 W/m² -3,5 °C 2,4 °C 0,0 km/h (0 Bft)
26.03.2019 18:46 2,4 °C 65 % 1028,9 hPa 0,0 mm 0,0 km/h (0 Bft) W-NW 297 ° 0 min 0,000 mm 0,0 UV-I 0 W/m² -3,5 °C 2,4 °C 0,0 km/h (0 Bft)
26.03.2019 18:47 2,4 °C 65 % 1028,9 hPa 0,0 mm 0,0 km/h (0 Bft) W-NW 297 ° 0 min 0,000 mm 0,0 UV-I 0 W/m² -3,5 °C 2,4 °C 0,0 km/h (0 Bft)
26.03.2019 18:48 2,3 °C 65 % 1028,9 hPa 0,0 mm 0,0 km/h (0 Bft) W-NW 297 ° 0 min 0,000 mm 0,0 UV-I 0 W/m² -3,6 °C 2,3 °C 0,0 km/h (0 Bft)
26.03.2019 18:49 2,3 °C 65 % 1029,0 hPa 0,0 mm 0,0 km/h (0 Bft) W-NW 297 ° 0 min 0,000 mm 0,0 UV-I 0 W/m² -3,6 °C 2,3 °C 0,0 km/h (0 Bft)
26.03.2019 18:50 2,3 °C 65 % 1029,0 hPa 0,0 mm 0,0 km/h (0 Bft) W-NW 297 ° 0 min 0,000 mm 0,0 UV-I 0 W/m² -3,6 °C 2,3 °C 0,0 km/h (0 Bft)
26.03.2019 18:51 2,3 °C 65 % 1029,0 hPa 0,0 mm 0,0 km/h (0 Bft) W-NW 297 ° 0 min 0,000 mm 0,0 UV-I 0 W/m² -3,6 °C 2,3 °C 0,0 km/h (0 Bft)
26.03.2019 18:52 2,3 °C 66 % 1029,0 hPa 0,0 mm 0,0 km/h (0 Bft) W-NW 297 ° 0 min 0,000 mm 0,0 UV-I 0 W/m² -3,4 °C 2,3 °C 0,0 km/h (0 Bft)
26.03.2019 18:53 2,3 °C 66 % 1028,9 hPa 0,0 mm 0,0 km/h (0 Bft) W-NW 297 ° 0 min 0,000 mm 0,0 UV-I 0 W/m² -3,4 °C 2,3 °C 0,0 km/h (0 Bft)
26.03.2019 18:54 2,3 °C 65 % 1028,9 hPa 0,0 mm 0,0 km/h (0 Bft) W-NW 297 ° 0 min 0,000 mm 0,0 UV-I 0 W/m² -3,6 °C 2,3 °C 0,0 km/h (0 Bft)
26.03.2019 18:55 2,3 °C 66 % 1028,9 hPa 0,0 mm 0,0 km/h (0 Bft) W-NW 297 ° 0 min 0,000 mm 0,0 UV-I 0 W/m² -3,4 °C 2,3 °C 0,0 km/h (0 Bft)
26.03.2019 18:56 2,3 °C 66 % 1028,8 hPa 0,0 mm 0,0 km/h (0 Bft) W-NW 297 ° 0 min 0,000 mm 0,0 UV-I 0 W/m² -3,4 °C 2,3 °C 0,0 km/h (0 Bft)
26.03.2019 18:57 2,3 °C 66 % 1028,8 hPa 0,0 mm 1,5 km/h (1 Bft) W-NW 297 ° 0 min 0,000 mm 0,0 UV-I 0 W/m² -3,4 °C 2,3 °C 3,2 km/h (1 Bft)
26.03.2019 18:58 2,3 °C 65 % 1028,9 hPa 0,0 mm 0,0 km/h (0 Bft) W-NW 297 ° 0 min 0,000 mm 0,0 UV-I 0 W/m² -3,6 °C 2,3 °C 0,0 km/h (0 Bft)
26.03.2019 18:59 2,3 °C 65 % 1028,9 hPa 0,0 mm 0,8 km/h (0 Bft) W-NW 297 ° 0 min 0,000 mm 0,0 UV-I 0 W/m² -3,6 °C 2,3 °C 3,2 km/h (1 Bft)
26.03.2019 19:00 2,3 °C 66 % 1028,9 hPa 0,0 mm 0,5 km/h (0 Bft) W-NW 297 ° 0 min 0,000 mm 0,0 UV-I 0 W/m² -3,4 °C 2,3 °C 1,6 km/h (1 Bft)
26.03.2019 19:01 2,3 °C 66 % 1028,9 hPa 0,0 mm 0,7 km/h (0 Bft) W-NW 297 ° 0 min 0,025 mm 0,0 UV-I 0 W/m² -3,4 °C 2,3 °C 1,6 km/h (1 Bft)
26.03.2019 19:02 2,2 °C 66 % 1029,0 hPa 0,0 mm 0,2 km/h (0 Bft) W-NW 297 ° 0 min 0,000 mm 0,0 UV-I 0 W/m² -3,5 °C 2,2 °C 1,6 km/h (1 Bft)
26.03.2019 19:03 2,2 °C 66 % 1029,0 hPa 0,0 mm 0,9 km/h (0 Bft) W-NW 297 ° 0 min 0,000 mm 0,0 UV-I 0 W/m² -3,5 °C 2,2 °C 3,2 km/h (1 Bft)
26.03.2019 19:04 2,2 °C 66 % 1029,0 hPa 0,0 mm 1,5 km/h (1 Bft) W-NW 297 ° 0 min 0,000 mm 0,0 UV-I 0 W/m² -3,5 °C 2,2 °C 3,2 km/h (1 Bft)
26.03.2019 19:05 2,2 °C 67 % 1029,0 hPa 0,0 mm 1,6 km/h (1 Bft) W-NW 288 ° 0 min 0,000 mm 0,0 UV-I 0 W/m² -3,3 °C 2,2 °C 3,2 km/h (1 Bft)
26.03.2019 19:06 2,1 °C 67 % 1029,0 hPa 0,0 mm 1,3 km/h (1 Bft) W-NW 288 ° 0 min 0,000 mm 0,0 UV-I 0 W/m² -3,4 °C 2,1 °C 3,2 km/h (1 Bft)
26.03.2019 19:07 2,1 °C 67 % 1029,1 hPa 0,0 mm 1,9 km/h (1 Bft) W-NW 287 ° 0 min 0,000 mm 0,0 UV-I 0 W/m² -3,4 °C 2,1 °C 3,2 km/h (1 Bft)
26.03.2019 19:08 2,0 °C 67 % 1029,0 hPa 0,0 mm 0,8 km/h (0 Bft) W-NW 287 ° 0 min 0,000 mm 0,0 UV-I 0 W/m² -3,5 °C 2,0 °C 1,6 km/h (1 Bft)
26.03.2019 19:09 2,0 °C 67 % 1029,1 hPa 0,0 mm 0,4 km/h (0 Bft) W-NW 287 ° 0 min 0,000 mm 0,0 UV-I 0 W/m² -3,5 °C 2,0 °C 1,6 km/h (1 Bft)
26.03.2019 19:10 2,0 °C 67 % 1029,1 hPa 0,0 mm 0,9 km/h (0 Bft) W-NW 287 ° 0 min 0,000 mm 0,0 UV-I 0 W/m² -3,5 °C 2,0 °C 4,8 km/h (1 Bft)
26.03.2019 19:11 2,0 °C 67 % 1029,1 hPa 0,0 mm 2,1 km/h (1 Bft) W-NW 287 ° 0 min 0,000 mm 0,0 UV-I 0 W/m² -3,5 °C 2,0 °C 3,2 km/h (1 Bft)
26.03.2019 19:12 2,0 °C 67 % 1029,1 hPa 0,0 mm 2,4 km/h (1 Bft) W-NW 287 ° 0 min 0,000 mm 0,0 UV-I 0 W/m² -3,5 °C 2,0 °C 3,2 km/h (1 Bft)
26.03.2019 19:13 1,9 °C 67 % 1029,1 hPa 0,0 mm 1,3 km/h (1 Bft) W-NW 287 ° 0 min 0,000 mm 0,0 UV-I 0 W/m² -3,6 °C 1,9 °C 1,6 km/h (1 Bft)
26.03.2019 19:14 1,9 °C 67 % 1029,1 hPa 0,0 mm 2,4 km/h (1 Bft) W-NW 287 ° 0 min 0,000 mm 0,0 UV-I 0 W/m² -3,6 °C 1,9 °C 4,8 km/h (1 Bft)
26.03.2019 19:15 1,9 °C 67 % 1029,2 hPa 0,0 mm 2,5 km/h (1 Bft) W 277 ° 0 min 0,000 mm 0,0 UV-I 0 W/m² -3,6 °C 1,9 °C 3,2 km/h (1 Bft)
26.03.2019 19:16 1,9 °C 68 % 1029,2 hPa 0,0 mm 2,7 km/h (1 Bft) W 277 ° 0 min 0,000 mm 0,0 UV-I 0 W/m² -3,4 °C 1,9 °C 4,8 km/h (1 Bft)
26.03.2019 19:17 1,8 °C 68 % 1029,2 hPa 0,0 mm 2,6 km/h (1 Bft) W 262 ° 0 min 0,000 mm 0,0 UV-I 0 W/m² -3,5 °C 1,8 °C 4,8 km/h (1 Bft)
26.03.2019 19:18 1,8 °C 68 % 1029,2 hPa 0,0 mm 3,2 km/h (1 Bft) W 262 ° 0 min 0,000 mm 0,0 UV-I 0 W/m² -3,5 °C 1,8 °C 4,8 km/h (1 Bft)
26.03.2019 19:19 1,8 °C 68 % 1029,2 hPa 0,0 mm 4,6 km/h (1 Bft) S 184 ° 0 min 0,000 mm 0,0 UV-I 0 W/m² -3,5 °C 0,6 °C 6,4 km/h (2 Bft)
26.03.2019 19:20 1,8 °C 68 % 1029,2 hPa 0,0 mm 4,4 km/h (1 Bft) SW 214 ° 0 min 0,000 mm 0,0 UV-I 0 W/m² -3,5 °C 1,8 °C 8,0 km/h (2 Bft)
26.03.2019 19:21 1,8 °C 68 % 1029,3 hPa 0,0 mm 2,7 km/h (1 Bft) SW 215 ° 0 min 0,000 mm 0,0 UV-I 0 W/m² -3,5 °C 1,8 °C 3,2 km/h (1 Bft)
26.03.2019 19:22 1,8 °C 68 % 1029,2 hPa 0,0 mm 2,7 km/h (1 Bft) SW 215 ° 0 min 0,000 mm 0,0 UV-I 0 W/m² -3,5 °C 1,8 °C 4,8 km/h (1 Bft)
26.03.2019 19:23 1,8 °C 67 % 1029,2 hPa 0,0 mm 3,1 km/h (1 Bft) SW 214 ° 0 min 0,000 mm 0,0 UV-I 0 W/m² -3,7 °C 1,8 °C 4,8 km/h (1 Bft)
26.03.2019 19:24 1,9 °C 67 % 1029,3 hPa 0,0 mm 4,2 km/h (1 Bft) S-SW 198 ° 0 min 0,000 mm 0,0 UV-I 0 W/m² -3,6 °C 1,9 °C 4,8 km/h (1 Bft)
26.03.2019 19:25 1,9 °C 67 % 1029,3 hPa 0,0 mm 2,6 km/h (1 Bft) W-SW 250 ° 0 min 0,000 mm 0,0 UV-I 0 W/m² -3,6 °C 1,9 °C 4,8 km/h (1 Bft)
26.03.2019 19:26 1,9 °C 67 % 1029,3 hPa 0,0 mm 3,1 km/h (1 Bft) W-SW 250 ° 0 min 0,000 mm 0,0 UV-I 0 W/m² -3,6 °C 1,9 °C 4,8 km/h (1 Bft)
26.03.2019 19:27 1,9 °C 67 % 1029,3 hPa 0,0 mm 3,8 km/h (1 Bft) SW 236 ° 0 min 0,000 mm 0,0 UV-I 0 W/m² -3,6 °C 1,9 °C 4,8 km/h (1 Bft)
26.03.2019 19:28 1,9 °C 68 % 1029,3 hPa 0,0 mm 3,1 km/h (1 Bft) S-SW 203 ° 0 min 0,000 mm 0,0 UV-I 0 W/m² -3,4 °C 1,9 °C 6,4 km/h (2 Bft)
26.03.2019 19:29 1,9 °C 67 % 1029,3 hPa 0,0 mm 2,4 km/h (1 Bft) S-SW 203 ° 0 min 0,000 mm 0,0 UV-I 0 W/m² -3,6 °C 1,9 °C 3,2 km/h (1 Bft)
26.03.2019 19:30 1,9 °C 67 % 1029,3 hPa 0,0 mm 3,3 km/h (1 Bft) SW 235 ° 0 min 0,000 mm 0,0 UV-I 0 W/m² -3,6 °C 1,9 °C 4,8 km/h (1 Bft)
26.03.2019 19:31 1,9 °C 67 % 1029,3 hPa 0,0 mm 3,1 km/h (1 Bft) S-SW 192 ° 0 min 0,000 mm 0,0 UV-I 0 W/m² -3,6 °C 1,9 °C 4,8 km/h (1 Bft)
26.03.2019 19:32 1,9 °C 67 % 1029,3 hPa 0,0 mm 4,4 km/h (1 Bft) S 190 ° 0 min 0,000 mm 0,0 UV-I 0 W/m² -3,6 °C 1,9 °C 6,4 km/h (2 Bft)
26.03.2019 19:33 1,9 °C 67 % 1029,3 hPa 0,0 mm 3,0 km/h (1 Bft) S 190 ° 0 min 0,000 mm 0,0 UV-I 0 W/m² -3,6 °C 1,9 °C 6,4 km/h (2 Bft)
26.03.2019 19:34 2,0 °C 66 % 1029,3 hPa 0,0 mm 1,6 km/h (1 Bft) S 190 ° 0 min 0,000 mm 0,0 UV-I 0 W/m² -3,7 °C 2,0 °C 3,2 km/h (1 Bft)
26.03.2019 19:35 2,0 °C 66 % 1029,3 hPa 0,0 mm 3,9 km/h (1 Bft) W-SW 248 ° 0 min 0,000 mm 0,0 UV-I 0 W/m² -3,7 °C 2,0 °C 4,8 km/h (1 Bft)
26.03.2019 19:36 2,1 °C 66 % 1029,4 hPa 0,0 mm 3,0 km/h (1 Bft) W-SW 246 ° 0 min 0,000 mm 0,0 UV-I 0 W/m² -3,6 °C 2,1 °C 4,8 km/h (1 Bft)
26.03.2019 19:37 2,1 °C 66 % 1029,4 hPa 0,0 mm 2,7 km/h (1 Bft) SW 230 ° 0 min 0,000 mm 0,0 UV-I 0 W/m² -3,6 °C 2,1 °C 4,8 km/h (1 Bft)
26.03.2019 19:38 2,1 °C 66 % 1029,4 hPa 0,0 mm 4,4 km/h (1 Bft) S-SW 213 ° 0 min 0,000 mm 0,0 UV-I 0 W/m² -3,6 °C 2,1 °C 6,4 km/h (2 Bft)
26.03.2019 19:39 2,1 °C 66 % 1029,4 hPa 0,0 mm 2,8 km/h (1 Bft) S-SW 213 ° 0 min 0,000 mm 0,0 UV-I 0 W/m² -3,6 °C 2,1 °C 4,8 km/h (1 Bft)
26.03.2019 19:40 2,1 °C 66 % 1029,4 hPa 0,0 mm 5,1 km/h (1 Bft) SW 236 ° 0 min 0,000 mm 0,0 UV-I 0 W/m² -3,6 °C 0,7 °C 6,4 km/h (2 Bft)
26.03.2019 19:41 2,1 °C 66 % 1029,4 hPa 0,0 mm 3,2 km/h (1 Bft) SW 232 ° 0 min 0,000 mm 0,0 UV-I 0 W/m² -3,6 °C 2,1 °C 6,4 km/h (2 Bft)
26.03.2019 19:42 2,1 °C 66 % 1029,4 hPa 0,0 mm 2,8 km/h (1 Bft) SW 216 ° 0 min 0,000 mm 0,0 UV-I 0 W/m² -3,6 °C 2,1 °C 4,8 km/h (1 Bft)
26.03.2019 19:43 2,1 °C 66 % 1029,4 hPa 0,0 mm 2,4 km/h (1 Bft) SW 217 ° 0 min 0,000 mm 0,0 UV-I 0 W/m² -3,6 °C 2,1 °C 3,2 km/h (1 Bft)
26.03.2019 19:44 2,1 °C 66 % 1029,5 hPa 0,0 mm 2,9 km/h (1 Bft) SW 214 ° 0 min 0,000 mm 0,0 UV-I 0 W/m² -3,6 °C 2,1 °C 4,8 km/h (1 Bft)
26.03.2019 19:45 2,1 °C 66 % 1029,5 hPa 0,0 mm 3,4 km/h (1 Bft) SW 214 ° 0 min 0,000 mm 0,0 UV-I 0 W/m² -3,6 °C 2,1 °C 4,8 km/h (1 Bft)
26.03.2019 19:46 2,1 °C 66 % 1029,5 hPa 0,0 mm 2,7 km/h (1 Bft) S-SW 211 ° 0 min 0,000 mm 0,0 UV-I 0 W/m² -3,6 °C 2,1 °C 4,8 km/h (1 Bft)
26.03.2019 19:47 2,1 °C 66 % 1029,5 hPa 0,0 mm 5,4 km/h (1 Bft) S-SW 195 ° 0 min 0,000 mm 0,0 UV-I 0 W/m² -3,6 °C 0,6 °C 6,4 km/h (2 Bft)
26.03.2019 19:48 2,1 °C 66 % 1029,5 hPa 0,0 mm 4,5 km/h (1 Bft) S-SW 193 ° 0 min 0,000 mm 0,0 UV-I 0 W/m² -3,6 °C 2,1 °C 6,4 km/h (2 Bft)
26.03.2019 19:49 2,1 °C 67 % 1029,5 hPa 0,0 mm 4,0 km/h (1 Bft) S-SW 193 ° 0 min 0,000 mm 0,0 UV-I 0 W/m² -3,4 °C 2,1 °C 6,4 km/h (2 Bft)
26.03.2019 19:50 1,9 °C 67 % 1029,5 hPa 0,0 mm 4,8 km/h (1 Bft) S-SW 193 ° 0 min 0,000 mm 0,0 UV-I 0 W/m² -3,6 °C 0,7 °C 6,4 km/h (2 Bft)
26.03.2019 19:51 1,9 °C 68 % 1029,5 hPa 0,0 mm 4,7 km/h (1 Bft) S-SW 195 ° 0 min 0,000 mm 0,0 UV-I 0 W/m² -3,4 °C 0,7 °C 8,0 km/h (2 Bft)
26.03.2019 19:52 1,8 °C 68 % 1029,5 hPa 0,0 mm 5,7 km/h (1 Bft) S 189 ° 0 min 0,000 mm 0,0 UV-I 0 W/m² -3,5 °C 0,2 °C 8,0 km/h (2 Bft)
26.03.2019 19:53 1,8 °C 68 % 1029,5 hPa 0,0 mm 4,1 km/h (1 Bft) S 177 ° 0 min 0,000 mm 0,0 UV-I 0 W/m² -3,5 °C 1,8 °C 6,4 km/h (2 Bft)
26.03.2019 19:54 1,8 °C 68 % 1029,5 hPa 0,0 mm 4,5 km/h (1 Bft) S-SW 198 ° 0 min 0,000 mm 0,0 UV-I 0 W/m² -3,5 °C 1,8 °C 6,4 km/h (2 Bft)
26.03.2019 19:55 1,7 °C 68 % 1029,5 hPa 0,0 mm 6,4 km/h (2 Bft) S 190 ° 0 min 0,000 mm 0,0 UV-I 0 W/m² -3,6 °C -0,2 °C 8,0 km/h (2 Bft)
26.03.2019 19:56 1,7 °C 68 % 1029,5 hPa 0,0 mm 7,0 km/h (2 Bft) S-SW 202 ° 0 min 0,000 mm 0,0 UV-I 0 W/m² -3,6 °C -0,4 °C 9,7 km/h (2 Bft)
26.03.2019 19:57 1,7 °C 68 % 1029,5 hPa 0,0 mm 4,3 km/h (1 Bft) S-SW 194 ° 0 min 0,000 mm 0,0 UV-I 0 W/m² -3,6 °C 1,7 °C 6,4 km/h (2 Bft)
26.03.2019 19:58 1,7 °C 69 % 1029,6 hPa 0,0 mm 5,2 km/h (1 Bft) S-SW 194 ° 0 min 0,000 mm 0,0 UV-I 0 W/m² -3,4 °C 0,3 °C 8,0 km/h (2 Bft)
26.03.2019 19:59 1,7 °C 69 % 1029,6 hPa 0,0 mm 5,7 km/h (1 Bft) S-SW 196 ° 0 min 0,000 mm 0,0 UV-I 0 W/m² -3,4 °C 0,0 °C 8,0 km/h (2 Bft)
26.03.2019 20:00 1,6 °C 69 % 1029,6 hPa 0,0 mm 6,5 km/h (2 Bft) S 188 ° 0 min 0,026 mm 0,0 UV-I 0 W/m² -3,5 °C -0,4 °C 8,0 km/h (2 Bft)
26.03.2019 20:01 1,6 °C 69 % 1029,6 hPa 0,0 mm 4,2 km/h (1 Bft) S 190 ° 0 min 0,000 mm 0,0 UV-I 0 W/m² -3,5 °C 1,6 °C 6,4 km/h (2 Bft)
26.03.2019 20:02 1,7 °C 69 % 1029,6 hPa 0,0 mm 4,6 km/h (1 Bft) S-SW 194 ° 0 min 0,000 mm 0,0 UV-I 0 W/m² -3,4 °C 0,5 °C 6,4 km/h (2 Bft)
26.03.2019 20:03 1,6 °C 69 % 1029,6 hPa 0,0 mm 3,6 km/h (1 Bft) S 183 ° 0 min 0,000 mm 0,0 UV-I 0 W/m² -3,5 °C 1,6 °C 6,4 km/h (2 Bft)
26.03.2019 20:04 1,6 °C 69 % 1029,7 hPa 0,0 mm 4,8 km/h (1 Bft) S 183 ° 0 min 0,000 mm 0,0 UV-I 0 W/m² -3,5 °C 0,3 °C 8,0 km/h (2 Bft)
26.03.2019 20:05 1,7 °C 69 % 1029,6 hPa 0,0 mm 4,5 km/h (1 Bft) S-SW 195 ° 0 min 0,000 mm 0,0 UV-I 0 W/m² -3,4 °C 1,7 °C 6,4 km/h (2 Bft)
26.03.2019 20:06 1,7 °C 69 % 1029,7 hPa 0,0 mm 4,7 km/h (1 Bft) S-SW 197 ° 0 min 0,000 mm 0,0 UV-I 0 W/m² -3,4 °C 0,5 °C 6,4 km/h (2 Bft)
26.03.2019 20:07 1,7 °C 68 % 1029,7 hPa 0,0 mm 5,8 km/h (2 Bft) S 190 ° 0 min 0,000 mm 0,0 UV-I 0 W/m² -3,6 °C 0,0 °C 8,0 km/h (2 Bft)
26.03.2019 20:08 1,7 °C 68 % 1029,7 hPa 0,0 mm 5,5 km/h (1 Bft) S-SW 192 ° 0 min 0,000 mm 0,0 UV-I 0 W/m² -3,6 °C 0,1 °C 9,7 km/h (2 Bft)
26.03.2019 20:09 1,7 °C 68 % 1029,7 hPa 0,0 mm 4,2 km/h (1 Bft) S 189 ° 0 min 0,000 mm 0,0 UV-I 0 W/m² -3,6 °C 1,7 °C 6,4 km/h (2 Bft)
26.03.2019 20:10 1,7 °C 69 % 1029,7 hPa 0,0 mm 5,1 km/h (1 Bft) S 188 ° 0 min 0,000 mm 0,0 UV-I 0 W/m² -3,4 °C 0,3 °C 6,4 km/h (2 Bft)
26.03.2019 20:11 1,7 °C 69 % 1029,7 hPa 0,0 mm 4,3 km/h (1 Bft) S 188 ° 0 min 0,000 mm 0,0 UV-I 0 W/m² -3,4 °C 1,7 °C 4,8 km/h (1 Bft)
26.03.2019 20:12 1,7 °C 69 % 1029,7 hPa 0,0 mm 3,3 km/h (1 Bft) S 188 ° 0 min 0,000 mm 0,0 UV-I 0 W/m² -3,4 °C 1,7 °C 4,8 km/h (1 Bft)
26.03.2019 20:13 1,7 °C 69 % 1029,7 hPa 0,0 mm 4,1 km/h (1 Bft) S-SW 198 ° 0 min 0,000 mm 0,0 UV-I 0 W/m² -3,4 °C 1,7 °C 6,4 km/h (2 Bft)
26.03.2019 20:14 1,7 °C 69 % 1029,7 hPa 0,0 mm 1,9 km/h (1 Bft) S-SW 198 ° 0 min 0,000 mm 0,0 UV-I 0 W/m² -3,4 °C 1,7 °C 4,8 km/h (1 Bft)
26.03.2019 20:15 1,7 °C 70 % 1029,7 hPa 0,0 mm 2,2 km/h (1 Bft) S-SW 194 ° 0 min 0,000 mm 0,0 UV-I 0 W/m² -3,2 °C 1,7 °C 4,8 km/h (1 Bft)
26.03.2019 20:16 1,7 °C 69 % 1029,7 hPa 0,0 mm 3,5 km/h (1 Bft) S 188 ° 0 min 0,000 mm 0,0 UV-I 0 W/m² -3,4 °C 1,7 °C 6,4 km/h (2 Bft)
26.03.2019 20:17 1,7 °C 70 % 1029,7 hPa 0,0 mm 2,8 km/h (1 Bft) S 180 ° 0 min 0,000 mm 0,0 UV-I 0 W/m² -3,2 °C 1,7 °C 4,8 km/h (1 Bft)
26.03.2019 20:18 1,7 °C 69 % 1029,7 hPa 0,0 mm 1,8 km/h (1 Bft) S 180 ° 0 min 0,000 mm 0,0 UV-I 0 W/m² -3,4 °C 1,7 °C 4,8 km/h (1 Bft)
26.03.2019 20:19 1,7 °C 69 % 1029,7 hPa 0,0 mm 4,0 km/h (1 Bft) S 183 ° 0 min 0,000 mm 0,0 UV-I 0 W/m² -3,4 °C 1,7 °C 6,4 km/h (2 Bft)
26.03.2019 20:20 1,7 °C 69 % 1029,7 hPa 0,0 mm 2,6 km/h (1 Bft) S 186 ° 0 min 0,000 mm 0,0 UV-I 0 W/m² -3,4 °C 1,7 °C 4,8 km/h (1 Bft)
26.03.2019 20:21 1,7 °C 69 % 1029,7 hPa 0,0 mm 2,2 km/h (1 Bft) S 186 ° 0 min 0,000 mm 0,0 UV-I 0 W/m² -3,4 °C 1,7 °C 4,8 km/h (1 Bft)
26.03.2019 20:22 1,6 °C 69 % 1029,7 hPa 0,0 mm 0,5 km/h (0 Bft) S 186 ° 0 min 0,000 mm 0,0 UV-I 0 W/m² -3,5 °C 1,6 °C 1,6 km/h (1 Bft)
26.03.2019 20:23 1,7 °C 69 % 1029,7 hPa 0,0 mm 0,0 km/h (0 Bft) S 186 ° 0 min 0,000 mm 0,0 UV-I 0 W/m² -3,4 °C 1,7 °C 0,0 km/h (0 Bft)
26.03.2019 20:24 1,7 °C 69 % 1029,7 hPa 0,0 mm 0,3 km/h (0 Bft) S 186 ° 0 min 0,000 mm 0,0 UV-I 0 W/m² -3,4 °C 1,7 °C 1,6 km/h (1 Bft)
26.03.2019 20:25 1,7 °C 70 % 1029,7 hPa 0,0 mm 0,0 km/h (0 Bft) S 186 ° 0 min 0,000 mm 0,0 UV-I 0 W/m² -3,2 °C 1,7 °C 0,0 km/h (0 Bft)
26.03.2019 20:26 1,6 °C 70 % 1029,7 hPa 0,0 mm 0,6 km/h (0 Bft) S 186 ° 0 min 0,000 mm 0,0 UV-I 0 W/m² -3,3 °C 1,6 °C 3,2 km/h (1 Bft)
26.03.2019 20:27 1,7 °C 69 % 1029,7 hPa 0,0 mm 1,9 km/h (1 Bft) S 186 ° 0 min 0,000 mm 0,0 UV-I 0 W/m² -3,4 °C 1,7 °C 3,2 km/h (1 Bft)
26.03.2019 20:28 1,6 °C 70 % 1029,8 hPa 0,0 mm 2,1 km/h (1 Bft) S 186 ° 0 min 0,000 mm 0,0 UV-I 0 W/m² -3,3 °C 1,6 °C 3,2 km/h (1 Bft)
26.03.2019 20:29 1,6 °C 70 % 1029,8 hPa 0,0 mm 0,7 km/h (0 Bft) S 186 ° 0 min 0,000 mm 0,0 UV-I 0 W/m² -3,3 °C 1,6 °C 3,2 km/h (1 Bft)
26.03.2019 20:30 1,6 °C 70 % 1029,7 hPa 0,0 mm 1,6 km/h (1 Bft) S 186 ° 0 min 0,000 mm 0,0 UV-I 0 W/m² -3,3 °C 1,6 °C 3,2 km/h (1 Bft)
26.03.2019 20:31 1,6 °C 70 % 1029,7 hPa 0,0 mm 1,7 km/h (1 Bft) S 186 ° 0 min 0,000 mm 0,0 UV-I 0 W/m² -3,3 °C 1,6 °C 4,8 km/h (1 Bft)
26.03.2019 20:32 1,6 °C 70 % 1029,7 hPa 0,0 mm 4,1 km/h (1 Bft) S 186 ° 0 min 0,000 mm 0,0 UV-I 0 W/m² -3,3 °C 1,6 °C 6,4 km/h (2 Bft)
26.03.2019 20:33 1,6 °C 70 % 1029,7 hPa 0,0 mm 1,7 km/h (1 Bft) S 186 ° 0 min 0,000 mm 0,0 UV-I 0 W/m² -3,3 °C 1,6 °C 3,2 km/h (1 Bft)
26.03.2019 20:34 1,6 °C 70 % 1029,7 hPa 0,0 mm 0,9 km/h (0 Bft) S 186 ° 0 min 0,000 mm 0,0 UV-I 0 W/m² -3,3 °C 1,6 °C 3,2 km/h (1 Bft)
26.03.2019 20:35 1,6 °C 70 % 1029,7 hPa 0,0 mm 0,0 km/h (0 Bft) S 186 ° 0 min 0,000 mm 0,0 UV-I 0 W/m² -3,3 °C 1,6 °C 0,0 km/h (0 Bft)
26.03.2019 20:36 1,6 °C 71 % 1029,7 hPa 0,0 mm 0,0 km/h (0 Bft) S 186 ° 0 min 0,000 mm 0,0 UV-I 0 W/m² -3,1 °C 1,6 °C 0,0 km/h (0 Bft)
26.03.2019 20:37 1,5 °C 71 % 1029,7 hPa 0,0 mm 0,0 km/h (0 Bft) S 186 ° 0 min 0,000 mm 0,0 UV-I 0 W/m² -3,2 °C 1,5 °C 0,0 km/h (0 Bft)
26.03.2019 20:38 1,4 °C 71 % 1029,7 hPa 0,0 mm 0,0 km/h (0 Bft) S 186 ° 0 min 0,000 mm 0,0 UV-I 0 W/m² -3,3 °C 1,4 °C 0,0 km/h (0 Bft)
26.03.2019 20:39 1,3 °C 72 % 1029,7 hPa 0,0 mm 0,0 km/h (0 Bft) S 186 ° 0 min 0,000 mm 0,0 UV-I 0 W/m² -3,2 °C 1,3 °C 0,0 km/h (0 Bft)
26.03.2019 20:40 1,2 °C 72 % 1029,7 hPa 0,0 mm 0,0 km/h (0 Bft) S 186 ° 0 min 0,000 mm 0,0 UV-I 0 W/m² -3,3 °C 1,2 °C 0,0 km/h (0 Bft)
26.03.2019 20:41 1,1 °C 73 % 1029,7 hPa 0,0 mm 0,0 km/h (0 Bft) S 186 ° 0 min 0,000 mm 0,0 UV-I 0 W/m² -3,2 °C 1,1 °C 0,0 km/h (0 Bft)
26.03.2019 20:42 1,1 °C 73 % 1029,7 hPa 0,0 mm 0,0 km/h (0 Bft) S 186 ° 0 min 0,000 mm 0,0 UV-I 0 W/m² -3,2 °C 1,1 °C 0,0 km/h (0 Bft)
26.03.2019 20:43 1,1 °C 73 % 1029,7 hPa 0,0 mm 0,0 km/h (0 Bft) S 186 ° 0 min 0,000 mm 0,0 UV-I 0 W/m² -3,2 °C 1,1 °C 0,0 km/h (0 Bft)
26.03.2019 20:44 1,0 °C 74 % 1029,7 hPa 0,0 mm 0,0 km/h (0 Bft) S 186 ° 0 min 0,000 mm 0,0 UV-I 0 W/m² -3,1 °C 1,0 °C 0,0 km/h (0 Bft)
26.03.2019 20:45 1,0 °C 74 % 1029,7 hPa 0,0 mm 0,0 km/h (0 Bft) S 186 ° 0 min 0,000 mm 0,0 UV-I 0 W/m² -3,1 °C 1,0 °C 0,0 km/h (0 Bft)
26.03.2019 20:46 0,9 °C 74 % 1029,7 hPa 0,0 mm 0,0 km/h (0 Bft) S 186 ° 0 min 0,000 mm 0,0 UV-I 0 W/m² -3,2 °C 0,9 °C 0,0 km/h (0 Bft)
26.03.2019 20:47 0,8 °C 75 % 1029,7 hPa 0,0 mm 0,0 km/h (0 Bft) S 186 ° 0 min 0,000 mm 0,0 UV-I 0 W/m² -3,1 °C 0,8 °C 0,0 km/h (0 Bft)
26.03.2019 20:48 0,8 °C 75 % 1029,7 hPa 0,0 mm 0,0 km/h (0 Bft) S 186 ° 0 min 0,000 mm 0,0 UV-I 0 W/m² -3,1 °C 0,8 °C 0,0 km/h (0 Bft)
26.03.2019 20:49 0,7 °C 76 % 1029,7 hPa 0,0 mm 0,0 km/h (0 Bft) S 186 ° 0 min 0,000 mm 0,0 UV-I 0 W/m² -3,0 °C 0,7 °C 0,0 km/h (0 Bft)
26.03.2019 20:50 0,7 °C 76 % 1029,7 hPa 0,0 mm 0,0 km/h (0 Bft) S 186 ° 0 min 0,000 mm 0,0 UV-I 0 W/m² -3,0 °C 0,7 °C 0,0 km/h (0 Bft)
26.03.2019 20:51 0,7 °C 76 % 1029,7 hPa 0,0 mm 0,0 km/h (0 Bft) S 186 ° 0 min 0,000 mm 0,0 UV-I 0 W/m² -3,0 °C 0,7 °C 0,0 km/h (0 Bft)
26.03.2019 20:52 0,7 °C 76 % 1029,7 hPa 0,0 mm 0,0 km/h (0 Bft) S 186 ° 0 min 0,000 mm 0,0 UV-I 0 W/m² -3,0 °C 0,7 °C 0,0 km/h (0 Bft)
26.03.2019 20:53 0,7 °C 75 % 1029,7 hPa 0,0 mm 0,6 km/h (0 Bft) S 186 ° 0 min 0,000 mm 0,0 UV-I 0 W/m² -3,2 °C 0,7 °C 1,6 km/h (1 Bft)
26.03.2019 20:54 0,8 °C 75 % 1029,7 hPa 0,0 mm 0,0 km/h (0 Bft) S 186 ° 0 min 0,000 mm 0,0 UV-I 0 W/m² -3,1 °C 0,8 °C 0,0 km/h (0 Bft)
26.03.2019 20:55 0,8 °C 75 % 1029,8 hPa 0,0 mm 0,2 km/h (0 Bft) S 186 ° 0 min 0,000 mm 0,0 UV-I 0 W/m² -3,1 °C 0,8 °C 1,6 km/h (1 Bft)
26.03.2019 20:56 1,0 °C 74 % 1029,7 hPa 0,0 mm 0,1 km/h (0 Bft) S 186 ° 0 min 0,000 mm 0,0 UV-I 0 W/m² -3,1 °C 1,0 °C 1,6 km/h (1 Bft)
26.03.2019 20:57 1,0 °C 74 % 1029,7 hPa 0,0 mm 0,0 km/h (0 Bft) S 186 ° 0 min 0,000 mm 0,0 UV-I 0 W/m² -3,1 °C 1,0 °C 0,0 km/h (0 Bft)
26.03.2019 20:58 1,0 °C 74 % 1029,7 hPa 0,0 mm 0,0 km/h (0 Bft) S 186 ° 0 min 0,000 mm 0,0 UV-I 0 W/m² -3,1 °C 1,0 °C 0,0 km/h (0 Bft)
26.03.2019 20:59 1,0 °C 75 % 1029,7 hPa 0,0 mm 0,0 km/h (0 Bft) S 186 ° 0 min 0,000 mm 0,0 UV-I 0 W/m² -2,9 °C 1,0 °C 0,0 km/h (0 Bft)
26.03.2019 21:00 1,0 °C 74 % 1029,7 hPa 0,0 mm 0,0 km/h (0 Bft) S 186 ° 0 min 0,000 mm 0,0 UV-I 0 W/m² -3,1 °C 1,0 °C 0,0 km/h (0 Bft)
26.03.2019 21:01 1,1 °C 74 % 1029,7 hPa 0,0 mm 0,0 km/h (0 Bft) S 186 ° 0 min 0,025 mm 0,0 UV-I 0 W/m² -3,0 °C 1,1 °C 0,0 km/h (0 Bft)
26.03.2019 21:02 1,1 °C 73 % 1029,7 hPa 0,0 mm 0,0 km/h (0 Bft) S 186 ° 0 min 0,000 mm 0,0 UV-I 0 W/m² -3,2 °C 1,1 °C 0,0 km/h (0 Bft)
26.03.2019 21:03 1,2 °C 73 % 1029,7 hPa 0,0 mm 0,0 km/h (0 Bft) S 186 ° 0 min 0,000 mm 0,0 UV-I 0 W/m² -3,1 °C 1,2 °C 0,0 km/h (0 Bft)
26.03.2019 21:04 1,2 °C 73 % 1029,7 hPa 0,0 mm 0,0 km/h (0 Bft) S 186 ° 0 min 0,000 mm 0,0 UV-I 0 W/m² -3,1 °C 1,2 °C 0,0 km/h (0 Bft)
26.03.2019 21:05 1,2 °C 73 % 1029,7 hPa 0,0 mm 0,0 km/h (0 Bft) S 186 ° 0 min 0,000 mm 0,0 UV-I 0 W/m² -3,1 °C 1,2 °C 0,0 km/h (0 Bft)
26.03.2019 21:06 1,2 °C 73 % 1029,7 hPa 0,0 mm 0,0 km/h (0 Bft) S 186 ° 0 min 0,000 mm 0,0 UV-I 0 W/m² -3,1 °C 1,2 °C 0,0 km/h (0 Bft)
26.03.2019 21:07 1,2 °C 72 % 1029,7 hPa 0,0 mm 0,0 km/h (0 Bft) S 186 ° 0 min 0,000 mm 0,0 UV-I 0 W/m² -3,3 °C 1,2 °C 0,0 km/h (0 Bft)
26.03.2019 21:08 1,3 °C 72 % 1029,7 hPa 0,0 mm 0,7 km/h (0 Bft) S 186 ° 0 min 0,000 mm 0,0 UV-I 0 W/m² -3,2 °C 1,3 °C 3,2 km/h (1 Bft)
26.03.2019 21:09 1,3 °C 72 % 1029,7 hPa 0,0 mm 0,0 km/h (0 Bft) S 186 ° 0 min 0,000 mm 0,0 UV-I 0 W/m² -3,2 °C 1,3 °C 0,0 km/h (0 Bft)
26.03.2019 21:10 1,3 °C 72 % 1029,7 hPa 0,0 mm 0,0 km/h (0 Bft) S 186 ° 0 min 0,000 mm 0,0 UV-I 0 W/m² -3,2 °C 1,3 °C 0,0 km/h (0 Bft)
26.03.2019 21:11 1,2 °C 72 % 1029,7 hPa 0,0 mm 0,0 km/h (0 Bft) S 186 ° 0 min 0,000 mm 0,0 UV-I 0 W/m² -3,3 °C 1,2 °C 0,0 km/h (0 Bft)
26.03.2019 21:12 1,2 °C 73 % 1029,7 hPa 0,0 mm 0,0 km/h (0 Bft) S 186 ° 0 min 0,000 mm 0,0 UV-I 0 W/m² -3,1 °C 1,2 °C 0,0 km/h (0 Bft)
26.03.2019 21:13 1,2 °C 73 % 1029,7 hPa 0,0 mm 0,0 km/h (0 Bft) S 186 ° 0 min 0,000 mm 0,0 UV-I 0 W/m² -3,1 °C 1,2 °C 0,0 km/h (0 Bft)
26.03.2019 21:14 1,2 °C 72 % 1029,7 hPa 0,0 mm 0,0 km/h (0 Bft) S 186 ° 0 min 0,000 mm 0,0 UV-I 0 W/m² -3,3 °C 1,2 °C 0,0 km/h (0 Bft)
26.03.2019 21:15 1,2 °C 72 % 1029,7 hPa 0,0 mm 0,0 km/h (0 Bft) S 186 ° 0 min 0,000 mm 0,0 UV-I 0 W/m² -3,3 °C 1,2 °C 0,0 km/h (0 Bft)
26.03.2019 21:16 1,2 °C 72 % 1029,7 hPa 0,0 mm 0,0 km/h (0 Bft) S 186 ° 0 min 0,000 mm 0,0 UV-I 0 W/m² -3,3 °C 1,2 °C 0,0 km/h (0 Bft)
26.03.2019 21:17 1,2 °C 72 % 1029,7 hPa 0,0 mm 0,0 km/h (0 Bft) S 186 ° 0 min 0,000 mm 0,0 UV-I 0 W/m² -3,3 °C 1,2 °C 0,0 km/h (0 Bft)
26.03.2019 21:18 1,1 °C 72 % 1029,7 hPa 0,0 mm 3,0 km/h (1 Bft) S-SW 197 ° 0 min 0,000 mm 0,0 UV-I 0 W/m² -3,4 °C 1,1 °C 4,8 km/h (1 Bft)
26.03.2019 21:19 1,1 °C 73 % 1029,7 hPa 0,0 mm 3,2 km/h (1 Bft) S-SW 200 ° 0 min 0,000 mm 0,0 UV-I 0 W/m² -3,2 °C 1,1 °C 4,8 km/h (1 Bft)
26.03.2019 21:20 1,1 °C 73 % 1029,7 hPa 0,0 mm 1,8 km/h (1 Bft) S-SW 200 ° 0 min 0,000 mm 0,0 UV-I 0 W/m² -3,2 °C 1,1 °C 3,2 km/h (1 Bft)
26.03.2019 21:21 1,1 °C 74 % 1029,7 hPa 0,0 mm 0,5 km/h (0 Bft) S-SW 200 ° 0 min 0,000 mm 0,0 UV-I 0 W/m² -3,0 °C 1,1 °C 1,6 km/h (1 Bft)
26.03.2019 21:22 1,0 °C 74 % 1029,7 hPa 0,0 mm 0,0 km/h (0 Bft) S-SW 200 ° 0 min 0,000 mm 0,0 UV-I 0 W/m² -3,1 °C 1,0 °C 0,0 km/h (0 Bft)
26.03.2019 21:23 0,9 °C 75 % 1029,8 hPa 0,0 mm 0,0 km/h (0 Bft) S-SW 200 ° 0 min 0,000 mm 0,0 UV-I 0 W/m² -3,0 °C 0,9 °C 0,0 km/h (0 Bft)
26.03.2019 21:24 0,9 °C 75 % 1029,8 hPa 0,0 mm 0,0 km/h (0 Bft) S-SW 200 ° 0 min 0,000 mm 0,0 UV-I 0 W/m² -3,0 °C 0,9 °C 0,0 km/h (0 Bft)
26.03.2019 21:25 0,9 °C 75 % 1029,8 hPa 0,0 mm 0,0 km/h (0 Bft) S-SW 200 ° 0 min 0,000 mm 0,0 UV-I 0 W/m² -3,0 °C 0,9 °C 0,0 km/h (0 Bft)
26.03.2019 21:26 0,9 °C 74 % 1029,7 hPa 0,0 mm 0,0 km/h (0 Bft) S-SW 200 ° 0 min 0,000 mm 0,0 UV-I 0 W/m² -3,2 °C 0,9 °C 0,0 km/h (0 Bft)
26.03.2019 21:27 0,9 °C 75 % 1029,8 hPa 0,0 mm 0,9 km/h (0 Bft) S-SW 202 ° 0 min 0,000 mm 0,0 UV-I 0 W/m² -3,0 °C 0,9 °C 3,2 km/h (1 Bft)
26.03.2019 21:28 0,9 °C 75 % 1029,8 hPa 0,0 mm 0,0 km/h (0 Bft) S-SW 202 ° 0 min 0,000 mm 0,0 UV-I 0 W/m² -3,0 °C 0,9 °C 0,0 km/h (0 Bft)
26.03.2019 21:29 0,9 °C 74 % 1029,8 hPa 0,0 mm 0,0 km/h (0 Bft) S-SW 202 ° 0 min 0,000 mm 0,0 UV-I 0 W/m² -3,2 °C 0,9 °C 0,0 km/h (0 Bft)
26.03.2019 21:30 0,9 °C 75 % 1029,8 hPa 0,0 mm 0,0 km/h (0 Bft) S-SW 202 ° 0 min 0,000 mm 0,0 UV-I 0 W/m² -3,0 °C 0,9 °C 0,0 km/h (0 Bft)
26.03.2019 21:31 0,8 °C 75 % 1029,9 hPa 0,0 mm 0,0 km/h (0 Bft) S-SW 202 ° 0 min 0,000 mm 0,0 UV-I 0 W/m² -3,1 °C 0,8 °C 0,0 km/h (0 Bft)
26.03.2019 21:32 0,8 °C 76 % 1029,8 hPa 0,0 mm 0,0 km/h (0 Bft) S-SW 202 ° 0 min 0,000 mm 0,0 UV-I 0 W/m² -2,9 °C 0,8 °C 0,0 km/h (0 Bft)
26.03.2019 21:33 0,8 °C 77 % 1029,8 hPa 0,0 mm 0,0 km/h (0 Bft) S-SW 202 ° 0 min 0,000 mm 0,0 UV-I 0 W/m² -2,8 °C 0,8 °C 0,0 km/h (0 Bft)
26.03.2019 21:34 0,7 °C 77 % 1029,8 hPa 0,0 mm 0,0 km/h (0 Bft) S-SW 202 ° 0 min 0,000 mm 0,0 UV-I 0 W/m² -2,9 °C 0,7 °C 0,0 km/h (0 Bft)
26.03.2019 21:35 0,7 °C 77 % 1029,8 hPa 0,0 mm 0,0 km/h (0 Bft) S-SW 202 ° 0 min 0,000 mm 0,0 UV-I 0 W/m² -2,9 °C 0,7 °C 0,0 km/h (0 Bft)
26.03.2019 21:36 0,7 °C 77 % 1029,8 hPa 0,0 mm 0,0 km/h (0 Bft) S-SW 202 ° 0 min 0,000 mm 0,0 UV-I 0 W/m² -2,9 °C 0,7 °C 0,0 km/h (0 Bft)
26.03.2019 21:37 0,7 °C 77 % 1029,8 hPa 0,0 mm 0,0 km/h (0 Bft) S-SW 202 ° 0 min 0,000 mm 0,0 UV-I 0 W/m² -2,9 °C 0,7 °C 0,0 km/h (0 Bft)
26.03.2019 21:38 0,7 °C 77 % 1029,8 hPa 0,0 mm 0,0 km/h (0 Bft) S-SW 202 ° 0 min 0,000 mm 0,0 UV-I 0 W/m² -2,9 °C 0,7 °C 0,0 km/h (0 Bft)
26.03.2019 21:39 0,7 °C 76 % 1029,8 hPa 0,0 mm 1,7 km/h (1 Bft) S-SW 202 ° 0 min 0,000 mm 0,0 UV-I 0 W/m² -3,0 °C 0,7 °C 4,8 km/h (1 Bft)
26.03.2019 21:40 0,7 °C 76 % 1029,8 hPa 0,0 mm 0,9 km/h (0 Bft) S-SW 202 ° 0 min 0,000 mm 0,0 UV-I 0 W/m² -3,0 °C 0,7 °C 3,2 km/h (1 Bft)
26.03.2019 21:41 0,8 °C 76 % 1029,8 hPa 0,0 mm 0,0 km/h (0 Bft) S-SW 202 ° 0 min 0,000 mm 0,0 UV-I 0 W/m² -2,9 °C 0,8 °C 0,0 km/h (0 Bft)
26.03.2019 21:42 0,8 °C 76 % 1029,8 hPa 0,0 mm 0,0 km/h (0 Bft) S-SW 202 ° 0 min 0,000 mm 0,0 UV-I 0 W/m² -2,9 °C 0,8 °C 0,0 km/h (0 Bft)
26.03.2019 21:43 0,8 °C 75 % 1029,8 hPa 0,0 mm 0,0 km/h (0 Bft) S-SW 202 ° 0 min 0,000 mm 0,0 UV-I 0 W/m² -3,1 °C 0,8 °C 0,0 km/h (0 Bft)
26.03.2019 21:44 0,8 °C 76 % 1029,8 hPa 0,0 mm 0,0 km/h (0 Bft) S-SW 202 ° 0 min 0,000 mm 0,0 UV-I 0 W/m² -2,9 °C 0,8 °C 0,0 km/h (0 Bft)
26.03.2019 21:45 0,8 °C 76 % 1029,7 hPa 0,0 mm 0,0 km/h (0 Bft) S-SW 202 ° 0 min 0,000 mm 0,0 UV-I 0 W/m² -2,9 °C 0,8 °C 0,0 km/h (0 Bft)
26.03.2019 21:46 0,8 °C 75 % 1029,8 hPa 0,0 mm 1,1 km/h (1 Bft) S-SW 202 ° 0 min 0,000 mm 0,0 UV-I 0 W/m² -3,1 °C 0,8 °C 3,2 km/h (1 Bft)
26.03.2019 21:47 0,9 °C 75 % 1029,8 hPa 0,0 mm 1,2 km/h (1 Bft) S-SW 202 ° 0 min 0,000 mm 0,0 UV-I 0 W/m² -3,0 °C 0,9 °C 3,2 km/h (1 Bft)
26.03.2019 21:48 0,9 °C 75 % 1029,7 hPa 0,0 mm 0,0 km/h (0 Bft) S-SW 202 ° 0 min 0,000 mm 0,0 UV-I 0 W/m² -3,0 °C 0,9 °C 0,0 km/h (0 Bft)
26.03.2019 21:49 0,9 °C 75 % 1029,7 hPa 0,0 mm 0,0 km/h (0 Bft) S-SW 202 ° 0 min 0,000 mm 0,0 UV-I 0 W/m² -3,0 °C 0,9 °C 0,0 km/h (0 Bft)
26.03.2019 21:50 0,9 °C 75 % 1029,7 hPa 0,0 mm 0,0 km/h (0 Bft) S-SW 202 ° 0 min 0,000 mm 0,0 UV-I 0 W/m² -3,0 °C 0,9 °C 0,0 km/h (0 Bft)
26.03.2019 21:51 0,9 °C 75 % 1029,7 hPa 0,0 mm 0,0 km/h (0 Bft) S-SW 202 ° 0 min 0,000 mm 0,0 UV-I 0 W/m² -3,0 °C 0,9 °C 0,0 km/h (0 Bft)
26.03.2019 21:52 0,9 °C 75 % 1029,7 hPa 0,0 mm 0,0 km/h (0 Bft) S-SW 202 ° 0 min 0,000 mm 0,0 UV-I 0 W/m² -3,0 °C 0,9 °C 0,0 km/h (0 Bft)
26.03.2019 21:53 0,9 °C 75 % 1029,7 hPa 0,0 mm 0,0 km/h (0 Bft) S-SW 202 ° 0 min 0,000 mm 0,0 UV-I 0 W/m² -3,0 °C 0,9 °C 0,0 km/h (0 Bft)
26.03.2019 21:54 0,8 °C 75 % 1029,7 hPa 0,0 mm 0,0 km/h (0 Bft) S-SW 202 ° 0 min 0,000 mm 0,0 UV-I 0 W/m² -3,1 °C 0,8 °C 0,0 km/h (0 Bft)
26.03.2019 21:55 0,8 °C 75 % 1029,7 hPa 0,0 mm 0,0 km/h (0 Bft) S-SW 202 ° 0 min 0,000 mm 0,0 UV-I 0 W/m² -3,1 °C 0,8 °C 0,0 km/h (0 Bft)
26.03.2019 21:56 0,8 °C 75 % 1029,7 hPa 0,0 mm 0,0 km/h (0 Bft) S-SW 202 ° 0 min 0,000 mm 0,0 UV-I 0 W/m² -3,1 °C 0,8 °C 0,0 km/h (0 Bft)
26.03.2019 21:57 0,8 °C 76 % 1029,7 hPa 0,0 mm 0,0 km/h (0 Bft) S-SW 202 ° 0 min 0,000 mm 0,0 UV-I 0 W/m² -2,9 °C 0,8 °C 0,0 km/h (0 Bft)
26.03.2019 21:58 0,7 °C 76 % 1029,7 hPa 0,0 mm 0,0 km/h (0 Bft) S-SW 202 ° 0 min 0,000 mm 0,0 UV-I 0 W/m² -3,0 °C 0,7 °C 0,0 km/h (0 Bft)
26.03.2019 21:59 0,7 °C 76 % 1029,7 hPa 0,0 mm 0,0 km/h (0 Bft) S-SW 202 ° 0 min 0,000 mm 0,0 UV-I 0 W/m² -3,0 °C 0,7 °C 0,0 km/h (0 Bft)
26.03.2019 22:00 0,6 °C 76 % 1029,7 hPa 0,0 mm 0,0 km/h (0 Bft) S-SW 202 ° 0 min 0,000 mm 0,0 UV-I 0 W/m² -3,1 °C 0,6 °C 0,0 km/h (0 Bft)
26.03.2019 22:01 0,6 °C 76 % 1029,7 hPa 0,0 mm 0,0 km/h (0 Bft) S-SW 202 ° 0 min 0,000 mm 0,0 UV-I 0 W/m² -3,1 °C 0,6 °C 0,0 km/h (0 Bft)
26.03.2019 22:02 0,6 °C 77 % 1029,7 hPa 0,0 mm 0,6 km/h (0 Bft) S-SW 202 ° 0 min 0,000 mm 0,0 UV-I 0 W/m² -3,0 °C 0,6 °C 1,6 km/h (1 Bft)
26.03.2019 22:03 0,6 °C 77 % 1029,7 hPa 0,0 mm 0,0 km/h (0 Bft) S-SW 202 ° 0 min 0,000 mm 0,0 UV-I 0 W/m² -3,0 °C 0,6 °C 0,0 km/h (0 Bft)
26.03.2019 22:04 0,6 °C 77 % 1029,7 hPa 0,0 mm 0,0 km/h (0 Bft) S-SW 202 ° 0 min 0,000 mm 0,0 UV-I 0 W/m² -3,0 °C 0,6 °C 0,0 km/h (0 Bft)
26.03.2019 22:05 0,6 °C 77 % 1029,7 hPa 0,0 mm 0,0 km/h (0 Bft) S-SW 202 ° 0 min 0,000 mm 0,0 UV-I 0 W/m² -3,0 °C 0,6 °C 0,0 km/h (0 Bft)
26.03.2019 22:06 0,7 °C 77 % 1029,7 hPa 0,0 mm 0,0 km/h (0 Bft) S-SW 202 ° 0 min 0,000 mm 0,0 UV-I 0 W/m² -2,9 °C 0,7 °C 0,0 km/h (0 Bft)
26.03.2019 22:07 0,7 °C 77 % 1029,7 hPa 0,0 mm 0,0 km/h (0 Bft) S-SW 202 ° 0 min 0,000 mm 0,0 UV-I 0 W/m² -2,9 °C 0,7 °C 0,0 km/h (0 Bft)
26.03.2019 22:08 0,7 °C 77 % 1029,7 hPa 0,0 mm 0,4 km/h (0 Bft) S-SW 202 ° 0 min 0,000 mm 0,0 UV-I 0 W/m² -2,9 °C 0,7 °C 1,6 km/h (1 Bft)
26.03.2019 22:09 0,7 °C 77 % 1029,7 hPa 0,0 mm 0,2 km/h (0 Bft) S-SW 202 ° 0 min 0,000 mm 0,0 UV-I 0 W/m² -2,9 °C 0,7 °C 1,6 km/h (1 Bft)
26.03.2019 22:10 0,7 °C 77 % 1029,7 hPa 0,0 mm 0,0 km/h (0 Bft) S-SW 202 ° 0 min 0,000 mm 0,0 UV-I 0 W/m² -2,9 °C 0,7 °C 0,0 km/h (0 Bft)
26.03.2019 22:11 0,6 °C 77 % 1029,7 hPa 0,0 mm 0,0 km/h (0 Bft) S-SW 202 ° 0 min 0,000 mm 0,0 UV-I 0 W/m² -3,0 °C 0,6 °C 0,0 km/h (0 Bft)
26.03.2019 22:12 0,6 °C 77 % 1029,7 hPa 0,0 mm 0,0 km/h (0 Bft) S-SW 202 ° 0 min 0,000 mm 0,0 UV-I 0 W/m² -3,0 °C 0,6 °C 0,0 km/h (0 Bft)
26.03.2019 22:13 0,6 °C 77 % 1029,7 hPa 0,0 mm 0,0 km/h (0 Bft) S-SW 202 ° 0 min 0,000 mm 0,0 UV-I 0 W/m² -3,0 °C 0,6 °C 0,0 km/h (0 Bft)
26.03.2019 22:14 0,6 °C 77 % 1029,7 hPa 0,0 mm 0,2 km/h (0 Bft) S-SW 202 ° 0 min 0,000 mm 0,0 UV-I 0 W/m² -3,0 °C 0,6 °C 1,6 km/h (1 Bft)
26.03.2019 22:15 0,6 °C 77 % 1029,7 hPa 0,0 mm 0,4 km/h (0 Bft) S-SW 202 ° 0 min 0,000 mm 0,0 UV-I 0 W/m² -3,0 °C 0,6 °C 1,6 km/h (1 Bft)
26.03.2019 22:16 0,7 °C 77 % 1029,7 hPa 0,0 mm 0,0 km/h (0 Bft) S-SW 202 ° 0 min 0,000 mm 0,0 UV-I 0 W/m² -2,9 °C 0,7 °C 0,0 km/h (0 Bft)
26.03.2019 22:17 0,7 °C 77 % 1029,6 hPa 0,0 mm 0,0 km/h (0 Bft) S-SW 202 ° 0 min 0,000 mm 0,0 UV-I 0 W/m² -2,9 °C 0,7 °C 0,0 km/h (0 Bft)
26.03.2019 22:18 0,7 °C 76 % 1029,7 hPa 0,0 mm 0,9 km/h (0 Bft) S-SW 209 ° 0 min 0,000 mm 0,0 UV-I 0 W/m² -3,0 °C 0,7 °C 3,2 km/h (1 Bft)
26.03.2019 22:19 0,7 °C 76 % 1029,7 hPa 0,0 mm 1,8 km/h (1 Bft) S-SW 209 ° 0 min 0,000 mm 0,0 UV-I 0 W/m² -3,0 °C 0,7 °C 3,2 km/h (1 Bft)
26.03.2019 22:20 0,7 °C 76 % 1029,7 hPa 0,0 mm 0,7 km/h (0 Bft) S-SW 209 ° 0 min 0,000 mm 0,0 UV-I 0 W/m² -3,0 °C 0,7 °C 3,2 km/h (1 Bft)
26.03.2019 22:21 0,7 °C 76 % 1029,7 hPa 0,0 mm 0,0 km/h (0 Bft) S-SW 209 ° 0 min 0,000 mm 0,0 UV-I 0 W/m² -3,0 °C 0,7 °C 0,0 km/h (0 Bft)
26.03.2019 22:22 0,7 °C 76 % 1029,7 hPa 0,0 mm 1,7 km/h (1 Bft) W-SW 248 ° 0 min 0,000 mm 0,0 UV-I 0 W/m² -3,0 °C 0,7 °C 6,4 km/h (2 Bft)
26.03.2019 22:23 0,8 °C 76 % 1029,7 hPa 0,0 mm 0,7 km/h (0 Bft) W-SW 248 ° 0 min 0,000 mm 0,0 UV-I 0 W/m² -2,9 °C 0,8 °C 1,6 km/h (1 Bft)
26.03.2019 22:24 0,8 °C 75 % 1029,6 hPa 0,0 mm 2,1 km/h (1 Bft) W-SW 248 ° 0 min 0,000 mm 0,0 UV-I 0 W/m² -3,1 °C 0,8 °C 3,2 km/h (1 Bft)
26.03.2019 22:25 0,8 °C 76 % 1029,7 hPa 0,0 mm 0,3 km/h (0 Bft) W-SW 248 ° 0 min 0,000 mm 0,0 UV-I 0 W/m² -2,9 °C 0,8 °C 3,2 km/h (1 Bft)
26.03.2019 22:26 0,8 °C 76 % 1029,7 hPa 0,0 mm 0,0 km/h (0 Bft) W-SW 248 ° 0 min 0,000 mm 0,0 UV-I 0 W/m² -2,9 °C 0,8 °C 0,0 km/h (0 Bft)
26.03.2019 22:27 0,8 °C 76 % 1029,6 hPa 0,0 mm 0,5 km/h (0 Bft) W-SW 248 ° 0 min 0,000 mm 0,0 UV-I 0 W/m² -2,9 °C 0,8 °C 3,2 km/h (1 Bft)
26.03.2019 22:28 0,8 °C 76 % 1029,6 hPa 0,0 mm 0,6 km/h (0 Bft) W-SW 247 ° 0 min 0,000 mm 0,0 UV-I 0 W/m² -2,9 °C 0,8 °C 3,2 km/h (1 Bft)
26.03.2019 22:29 0,8 °C 76 % 1029,6 hPa 0,0 mm 0,8 km/h (0 Bft) W-SW 247 ° 0 min 0,000 mm 0,0 UV-I 0 W/m² -2,9 °C 0,8 °C 1,6 km/h (1 Bft)
26.03.2019 22:30 0,8 °C 76 % 1029,6 hPa 0,0 mm 1,8 km/h (1 Bft) SW 215 ° 0 min 0,000 mm 0,0 UV-I 0 W/m² -2,9 °C 0,8 °C 4,8 km/h (1 Bft)
26.03.2019 22:31 0,8 °C 76 % 1029,5 hPa 0,0 mm 2,2 km/h (1 Bft) S-SW 211 ° 0 min 0,000 mm 0,0 UV-I 0 W/m² -2,9 °C 0,8 °C 6,4 km/h (2 Bft)
26.03.2019 22:32 0,8 °C 76 % 1029,5 hPa 0,0 mm 1,0 km/h (0 Bft) S-SW 211 ° 0 min 0,000 mm 0,0 UV-I 0 W/m² -2,9 °C 0,8 °C 4,8 km/h (1 Bft)
26.03.2019 22:33 0,8 °C 76 % 1029,6 hPa 0,0 mm 0,0 km/h (0 Bft) S-SW 211 ° 0 min 0,000 mm 0,0 UV-I 0 W/m² -2,9 °C 0,8 °C 0,0 km/h (0 Bft)
26.03.2019 22:34 0,8 °C 76 % 1029,6 hPa 0,0 mm 0,0 km/h (0 Bft) S-SW 211 ° 0 min 0,000 mm 0,0 UV-I 0 W/m² -2,9 °C 0,8 °C 0,0 km/h (0 Bft)
26.03.2019 22:35 0,8 °C 75 % 1029,5 hPa 0,0 mm 0,0 km/h (0 Bft) S-SW 211 ° 0 min 0,000 mm 0,0 UV-I 0 W/m² -3,1 °C 0,8 °C 0,0 km/h (0 Bft)
26.03.2019 22:36 0,9 °C 76 % 1029,6 hPa 0,0 mm 0,0 km/h (0 Bft) S-SW 211 ° 0 min 0,000 mm 0,0 UV-I 0 W/m² -2,8 °C 0,9 °C 0,0 km/h (0 Bft)
26.03.2019 22:37 0,9 °C 76 % 1029,6 hPa 0,0 mm 0,0 km/h (0 Bft) S-SW 211 ° 0 min 0,000 mm 0,0 UV-I 0 W/m² -2,8 °C 0,9 °C 0,0 km/h (0 Bft)
26.03.2019 22:38 0,8 °C 76 % 1029,6 hPa 0,0 mm 0,0 km/h (0 Bft) S-SW 211 ° 0 min 0,000 mm 0,0 UV-I 0 W/m² -2,9 °C 0,8 °C 0,0 km/h (0 Bft)
26.03.2019 22:39 0,8 °C 77 % 1029,5 hPa 0,0 mm 0,0 km/h (0 Bft) S-SW 211 ° 0 min 0,000 mm 0,0 UV-I 0 W/m² -2,8 °C 0,8 °C 0,0 km/h (0 Bft)
26.03.2019 22:40 0,7 °C 77 % 1029,5 hPa 0,0 mm 0,0 km/h (0 Bft) S-SW 211 ° 0 min 0,000 mm 0,0 UV-I 0 W/m² -2,9 °C 0,7 °C 0,0 km/h (0 Bft)
26.03.2019 22:41 0,7 °C 77 % 1029,6 hPa 0,0 mm 0,0 km/h (0 Bft) S-SW 211 ° 0 min 0,000 mm 0,0 UV-I 0 W/m² -2,9 °C 0,7 °C 0,0 km/h (0 Bft)
26.03.2019 22:42 0,7 °C 77 % 1029,6 hPa 0,0 mm 0,0 km/h (0 Bft) S-SW 211 ° 0 min 0,000 mm 0,0 UV-I 0 W/m² -2,9 °C 0,7 °C 0,0 km/h (0 Bft)
26.03.2019 22:43 0,8 °C 77 % 1029,6 hPa 0,0 mm 0,0 km/h (0 Bft) S-SW 211 ° 0 min 0,000 mm 0,0 UV-I 0 W/m² -2,8 °C 0,8 °C 0,0 km/h (0 Bft)
26.03.2019 22:44 0,8 °C 76 % 1029,6 hPa 0,0 mm 0,0 km/h (0 Bft) S-SW 211 ° 0 min 0,000 mm 0,0 UV-I 0 W/m² -2,9 °C 0,8 °C 0,0 km/h (0 Bft)
26.03.2019 22:45 0,8 °C 76 % 1029,6 hPa 0,0 mm 0,0 km/h (0 Bft) S-SW 211 ° 0 min 0,000 mm 0,0 UV-I 0 W/m² -2,9 °C 0,8 °C 0,0 km/h (0 Bft)
26.03.2019 22:46 0,8 °C 76 % 1029,6 hPa 0,0 mm 0,0 km/h (0 Bft) S-SW 211 ° 0 min 0,000 mm 0,0 UV-I 0 W/m² -2,9 °C 0,8 °C 0,0 km/h (0 Bft)
26.03.2019 22:47 0,8 °C 76 % 1029,6 hPa 0,0 mm 0,0 km/h (0 Bft) S-SW 211 ° 0 min 0,000 mm 0,0 UV-I 0 W/m² -2,9 °C 0,8 °C 0,0 km/h (0 Bft)
26.03.2019 22:48 0,8 °C 76 % 1029,6 hPa 0,0 mm 0,0 km/h (0 Bft) S-SW 211 ° 0 min 0,000 mm 0,0 UV-I 0 W/m² -2,9 °C 0,8 °C 0,0 km/h (0 Bft)
26.03.2019 22:49 0,9 °C 76 % 1029,7 hPa 0,0 mm 0,0 km/h (0 Bft) S-SW 211 ° 0 min 0,000 mm 0,0 UV-I 0 W/m² -2,8 °C 0,9 °C 0,0 km/h (0 Bft)
26.03.2019 22:50 0,9 °C 76 % 1029,7 hPa 0,0 mm 0,0 km/h (0 Bft) S-SW 211 ° 0 min 0,000 mm 0,0 UV-I 0 W/m² -2,8 °C 0,9 °C 0,0 km/h (0 Bft)
26.03.2019 22:51 0,9 °C 76 % 1029,6 hPa 0,0 mm 0,0 km/h (0 Bft) S-SW 211 ° 0 min 0,000 mm 0,0 UV-I 0 W/m² -2,8 °C 0,9 °C 0,0 km/h (0 Bft)
26.03.2019 22:52 0,9 °C 76 % 1029,7 hPa 0,0 mm 0,0 km/h (0 Bft) S-SW 211 ° 0 min 0,000 mm 0,0 UV-I 0 W/m² -2,8 °C 0,9 °C 0,0 km/h (0 Bft)
26.03.2019 22:53 0,9 °C 76 % 1029,7 hPa 0,0 mm 0,0 km/h (0 Bft) S-SW 211 ° 0 min 0,000 mm 0,0 UV-I 0 W/m² -2,8 °C 0,9 °C 0,0 km/h (0 Bft)
26.03.2019 22:54 0,9 °C 76 % 1029,7 hPa 0,0 mm 0,0 km/h (0 Bft) S-SW 211 ° 0 min 0,000 mm 0,0 UV-I 0 W/m² -2,8 °C 0,9 °C 0,0 km/h (0 Bft)
26.03.2019 22:55 0,9 °C 76 % 1029,7 hPa 0,0 mm 0,0 km/h (0 Bft) S-SW 211 ° 0 min 0,000 mm 0,0 UV-I 0 W/m² -2,8 °C 0,9 °C 0,0 km/h (0 Bft)
26.03.2019 22:56 0,9 °C 76 % 1029,7 hPa 0,0 mm 0,0 km/h (0 Bft) S-SW 211 ° 0 min 0,000 mm 0,0 UV-I 0 W/m² -2,8 °C 0,9 °C 0,0 km/h (0 Bft)
26.03.2019 22:57 0,9 °C 76 % 1029,7 hPa 0,0 mm 0,0 km/h (0 Bft) S-SW 211 ° 0 min 0,000 mm 0,0 UV-I 0 W/m² -2,8 °C 0,9 °C 0,0 km/h (0 Bft)
26.03.2019 22:58 0,9 °C 76 % 1029,7 hPa 0,0 mm 0,0 km/h (0 Bft) S-SW 211 ° 0 min 0,000 mm 0,0 UV-I 0 W/m² -2,8 °C 0,9 °C 0,0 km/h (0 Bft)
26.03.2019 22:59 0,9 °C 76 % 1029,6 hPa 0,0 mm 0,0 km/h (0 Bft) S-SW 211 ° 0 min 0,000 mm 0,0 UV-I 0 W/m² -2,8 °C 0,9 °C 0,0 km/h (0 Bft)
26.03.2019 23:00 0,9 °C 76 % 1029,7 hPa 0,0 mm 0,0 km/h (0 Bft) S-SW 211 ° 0 min 0,000 mm 0,0 UV-I 0 W/m² -2,8 °C 0,9 °C 0,0 km/h (0 Bft)
26.03.2019 23:01 1,0 °C 76 % 1029,7 hPa 0,0 mm 0,0 km/h (0 Bft) S-SW 211 ° 0 min 0,000 mm 0,0 UV-I 0 W/m² -2,7 °C 1,0 °C 0,0 km/h (0 Bft)
26.03.2019 23:02 1,0 °C 76 % 1029,6 hPa 0,0 mm 0,0 km/h (0 Bft) S-SW 211 ° 0 min 0,000 mm 0,0 UV-I 0 W/m² -2,7 °C 1,0 °C 0,0 km/h (0 Bft)
26.03.2019 23:03 1,0 °C 76 % 1029,6 hPa 0,0 mm 0,0 km/h (0 Bft) S-SW 211 ° 0 min 0,000 mm 0,0 UV-I 0 W/m² -2,7 °C 1,0 °C 0,0 km/h (0 Bft)
26.03.2019 23:04 1,0 °C 76 % 1029,6 hPa 0,0 mm 0,0 km/h (0 Bft) S-SW 211 ° 0 min 0,000 mm 0,0 UV-I 0 W/m² -2,7 °C 1,0 °C 0,0 km/h (0 Bft)
26.03.2019 23:05 1,0 °C 76 % 1029,6 hPa 0,0 mm 0,0 km/h (0 Bft) S-SW 211 ° 0 min 0,000 mm 0,0 UV-I 0 W/m² -2,7 °C 1,0 °C 0,0 km/h (0 Bft)
26.03.2019 23:06 1,0 °C 76 % 1029,6 hPa 0,0 mm 0,0 km/h (0 Bft) S-SW 211 ° 0 min 0,000 mm 0,0 UV-I 0 W/m² -2,7 °C 1,0 °C 0,0 km/h (0 Bft)
26.03.2019 23:07 1,0 °C 76 % 1029,7 hPa 0,0 mm 0,0 km/h (0 Bft) S-SW 211 ° 0 min 0,000 mm 0,0 UV-I 0 W/m² -2,7 °C 1,0 °C 0,0 km/h (0 Bft)
26.03.2019 23:08 1,0 °C 76 % 1029,6 hPa 0,0 mm 0,0 km/h (0 Bft) S-SW 211 ° 0 min 0,000 mm 0,0 UV-I 0 W/m² -2,7 °C 1,0 °C 0,0 km/h (0 Bft)
26.03.2019 23:09 1,0 °C 76 % 1029,6 hPa 0,0 mm 0,0 km/h (0 Bft) S-SW 211 ° 0 min 0,000 mm 0,0 UV-I 0 W/m² -2,7 °C 1,0 °C 0,0 km/h (0 Bft)
26.03.2019 23:10 1,1 °C 76 % 1029,7 hPa 0,0 mm 0,0 km/h (0 Bft) S-SW 211 ° 0 min 0,000 mm 0,0 UV-I 0 W/m² -2,6 °C 1,1 °C 0,0 km/h (0 Bft)
26.03.2019 23:11 1,1 °C 76 % 1029,7 hPa 0,0 mm 0,0 km/h (0 Bft) S-SW 211 ° 0 min 0,000 mm 0,0 UV-I 0 W/m² -2,6 °C 1,1 °C 0,0 km/h (0 Bft)
26.03.2019 23:12 1,1 °C 76 % 1029,7 hPa 0,0 mm 0,0 km/h (0 Bft) S-SW 211 ° 0 min 0,000 mm 0,0 UV-I 0 W/m² -2,6 °C 1,1 °C 0,0 km/h (0 Bft)
26.03.2019 23:13 1,1 °C 76 % 1029,7 hPa 0,0 mm 0,0 km/h (0 Bft) S-SW 211 ° 0 min 0,000 mm 0,0 UV-I 0 W/m² -2,6 °C 1,1 °C 0,0 km/h (0 Bft)
26.03.2019 23:14 1,1 °C 75 % 1029,7 hPa 0,0 mm 0,0 km/h (0 Bft) S-SW 211 ° 0 min 0,000 mm 0,0 UV-I 0 W/m² -2,8 °C 1,1 °C 0,0 km/h (0 Bft)
26.03.2019 23:15 1,1 °C 75 % 1029,7 hPa 0,0 mm 0,0 km/h (0 Bft) S-SW 211 ° 0 min 0,000 mm 0,0 UV-I 0 W/m² -2,8 °C 1,1 °C 0,0 km/h (0 Bft)
26.03.2019 23:16 1,1 °C 75 % 1029,6 hPa 0,0 mm 0,0 km/h (0 Bft) S-SW 211 ° 0 min 0,000 mm 0,0 UV-I 0 W/m² -2,8 °C 1,1 °C 0,0 km/h (0 Bft)
26.03.2019 23:17 1,1 °C 75 % 1029,6 hPa 0,0 mm 0,0 km/h (0 Bft) S-SW 211 ° 0 min 0,000 mm 0,0 UV-I 0 W/m² -2,8 °C 1,1 °C 0,0 km/h (0 Bft)
26.03.2019 23:18 1,1 °C 75 % 1029,6 hPa 0,0 mm 0,0 km/h (0 Bft) S-SW 211 ° 0 min 0,000 mm 0,0 UV-I 0 W/m² -2,8 °C 1,1 °C 0,0 km/h (0 Bft)
26.03.2019 23:19 1,1 °C 75 % 1029,6 hPa 0,0 mm 0,0 km/h (0 Bft) S-SW 211 ° 0 min 0,000 mm 0,0 UV-I 0 W/m² -2,8 °C 1,1 °C 0,0 km/h (0 Bft)
26.03.2019 23:20 1,1 °C 75 % 1029,6 hPa 0,0 mm 0,0 km/h (0 Bft) S-SW 211 ° 0 min 0,000 mm 0,0 UV-I 0 W/m² -2,8 °C 1,1 °C 0,0 km/h (0 Bft)
26.03.2019 23:21 1,1 °C 75 % 1029,6 hPa 0,0 mm 0,0 km/h (0 Bft) S-SW 211 ° 0 min 0,000 mm 0,0 UV-I 0 W/m² -2,8 °C 1,1 °C 0,0 km/h (0 Bft)
26.03.2019 23:22 1,1 °C 75 % 1029,6 hPa 0,0 mm 0,0 km/h (0 Bft) S-SW 211 ° 0 min 0,000 mm 0,0 UV-I 0 W/m² -2,8 °C 1,1 °C 0,0 km/h (0 Bft)
26.03.2019 23:23 1,1 °C 76 % 1029,7 hPa 0,0 mm 0,0 km/h (0 Bft) S-SW 211 ° 0 min 0,000 mm 0,0 UV-I 0 W/m² -2,6 °C 1,1 °C 0,0 km/h (0 Bft)
26.03.2019 23:24 1,0 °C 76 % 1029,7 hPa 0,0 mm 0,0 km/h (0 Bft) S-SW 211 ° 0 min 0,000 mm 0,0 UV-I 0 W/m² -2,7 °C 1,0 °C 0,0 km/h (0 Bft)
26.03.2019 23:25 1,0 °C 76 % 1029,6 hPa 0,0 mm 0,0 km/h (0 Bft) S-SW 211 ° 0 min 0,000 mm 0,0 UV-I 0 W/m² -2,7 °C 1,0 °C 0,0 km/h (0 Bft)
26.03.2019 23:26 0,9 °C 77 % 1029,7 hPa 0,0 mm 0,0 km/h (0 Bft) S-SW 211 ° 0 min 0,000 mm 0,0 UV-I 0 W/m² -2,7 °C 0,9 °C 0,0 km/h (0 Bft)
26.03.2019 23:27 0,8 °C 77 % 1029,7 hPa 0,0 mm 0,0 km/h (0 Bft) S-SW 211 ° 0 min 0,000 mm 0,0 UV-I 0 W/m² -2,8 °C 0,8 °C 0,0 km/h (0 Bft)
26.03.2019 23:28 0,8 °C 78 % 1029,7 hPa 0,0 mm 0,0 km/h (0 Bft) S-SW 211 ° 0 min 0,000 mm 0,0 UV-I 0 W/m² -2,6 °C 0,8 °C 0,0 km/h (0 Bft)
26.03.2019 23:29 0,7 °C 78 % 1029,7 hPa 0,0 mm 0,0 km/h (0 Bft) S-SW 211 ° 0 min 0,000 mm 0,0 UV-I 0 W/m² -2,7 °C 0,7 °C 0,0 km/h (0 Bft)
26.03.2019 23:30 0,7 °C 78 % 1029,7 hPa 0,0 mm 0,0 km/h (0 Bft) S-SW 211 ° 0 min 0,000 mm 0,0 UV-I 0 W/m² -2,7 °C 0,7 °C 0,0 km/h (0 Bft)
26.03.2019 23:31 0,6 °C 78 % 1029,7 hPa 0,0 mm 0,0 km/h (0 Bft) S-SW 211 ° 0 min 0,000 mm 0,0 UV-I 0 W/m² -2,8 °C 0,6 °C 0,0 km/h (0 Bft)
26.03.2019 23:32 0,6 °C 79 % 1029,7 hPa 0,0 mm 0,0 km/h (0 Bft) S-SW 211 ° 0 min 0,000 mm 0,0 UV-I 0 W/m² -2,6 °C 0,6 °C 0,0 km/h (0 Bft)
26.03.2019 23:33 0,6 °C 79 % 1029,7 hPa 0,0 mm 0,0 km/h (0 Bft) S-SW 211 ° 0 min 0,000 mm 0,0 UV-I 0 W/m² -2,6 °C 0,6 °C 0,0 km/h (0 Bft)
26.03.2019 23:34 0,6 °C 79 % 1029,7 hPa 0,0 mm 0,0 km/h (0 Bft) S-SW 211 ° 0 min 0,000 mm 0,0 UV-I 0 W/m² -2,6 °C 0,6 °C 0,0 km/h (0 Bft)
26.03.2019 23:35 0,6 °C 79 % 1029,7 hPa 0,0 mm 0,0 km/h (0 Bft) S-SW 211 ° 0 min 0,000 mm 0,0 UV-I 0 W/m² -2,6 °C 0,6 °C 0,0 km/h (0 Bft)
26.03.2019 23:36 0,6 °C 79 % 1029,7 hPa 0,0 mm 0,0 km/h (0 Bft) S-SW 211 ° 0 min 0,000 mm 0,0 UV-I 0 W/m² -2,6 °C 0,6 °C 0,0 km/h (0 Bft)
26.03.2019 23:37 0,6 °C 79 % 1029,7 hPa 0,0 mm 0,0 km/h (0 Bft) S-SW 211 ° 0 min 0,000 mm 0,0 UV-I 0 W/m² -2,6 °C 0,6 °C 0,0 km/h (0 Bft)
26.03.2019 23:38 0,6 °C 79 % 1029,8 hPa 0,0 mm 0,0 km/h (0 Bft) S-SW 211 ° 0 min 0,000 mm 0,0 UV-I 0 W/m² -2,6 °C 0,6 °C 0,0 km/h (0 Bft)
26.03.2019 23:39 0,6 °C 79 % 1029,8 hPa 0,0 mm 0,0 km/h (0 Bft) S-SW 211 ° 0 min 0,000 mm 0,0 UV-I 0 W/m² -2,6 °C 0,6 °C 0,0 km/h (0 Bft)
26.03.2019 23:40 0,6 °C 79 % 1029,7 hPa 0,0 mm 0,0 km/h (0 Bft) S-SW 211 ° 0 min 0,000 mm 0,0 UV-I 0 W/m² -2,6 °C 0,6 °C 0,0 km/h (0 Bft)
26.03.2019 23:41 0,6 °C 79 % 1029,7 hPa 0,0 mm 0,0 km/h (0 Bft) S-SW 211 ° 0 min 0,000 mm 0,0 UV-I 0 W/m² -2,6 °C 0,6 °C 0,0 km/h (0 Bft)
26.03.2019 23:42 0,6 °C 79 % 1029,7 hPa 0,0 mm 0,0 km/h (0 Bft) S-SW 211 ° 0 min 0,000 mm 0,0 UV-I 0 W/m² -2,6 °C 0,6 °C 0,0 km/h (0 Bft)
26.03.2019 23:43 0,6 °C 79 % 1029,8 hPa 0,0 mm 0,0 km/h (0 Bft) S-SW 211 ° 0 min 0,000 mm 0,0 UV-I 0 W/m² -2,6 °C 0,6 °C 0,0 km/h (0 Bft)
26.03.2019 23:44 0,6 °C 79 % 1029,7 hPa 0,0 mm 0,0 km/h (0 Bft) S-SW 211 ° 0 min 0,000 mm 0,0 UV-I 0 W/m² -2,6 °C 0,6 °C 0,0 km/h (0 Bft)
26.03.2019 23:45 0,6 °C 79 % 1029,7 hPa 0,0 mm 0,0 km/h (0 Bft) S-SW 211 ° 0 min 0,000 mm 0,0 UV-I 0 W/m² -2,6 °C 0,6 °C 0,0 km/h (0 Bft)
26.03.2019 23:46 0,6 °C 79 % 1029,7 hPa 0,0 mm 0,0 km/h (0 Bft) S-SW 211 ° 0 min 0,000 mm 0,0 UV-I 0 W/m² -2,6 °C 0,6 °C 0,0 km/h (0 Bft)
26.03.2019 23:47 0,6 °C 79 % 1029,6 hPa 0,0 mm 0,0 km/h (0 Bft) S-SW 211 ° 0 min 0,000 mm 0,0 UV-I 0 W/m² -2,6 °C 0,6 °C 0,0 km/h (0 Bft)
26.03.2019 23:48 0,6 °C 79 % 1029,7 hPa 0,0 mm 0,0 km/h (0 Bft) S-SW 211 ° 0 min 0,000 mm 0,0 UV-I 0 W/m² -2,6 °C 0,6 °C 0,0 km/h (0 Bft)
26.03.2019 23:49 0,6 °C 79 % 1029,7 hPa 0,0 mm 0,0 km/h (0 Bft) S-SW 211 ° 0 min 0,000 mm 0,0 UV-I 0 W/m² -2,6 °C 0,6 °C 0,0 km/h (0 Bft)
26.03.2019 23:50 0,6 °C 79 % 1029,7 hPa 0,0 mm 0,0 km/h (0 Bft) S-SW 211 ° 0 min 0,000 mm 0,0 UV-I 0 W/m² -2,6 °C 0,6 °C 0,0 km/h (0 Bft)
26.03.2019 23:51 0,6 °C 79 % 1029,7 hPa 0,0 mm 0,0 km/h (0 Bft) S-SW 211 ° 0 min 0,000 mm 0,0 UV-I 0 W/m² -2,6 °C 0,6 °C 0,0 km/h (0 Bft)
26.03.2019 23:52 0,6 °C 79 % 1029,7 hPa 0,0 mm 0,0 km/h (0 Bft) S-SW 211 ° 0 min 0,000 mm 0,0 UV-I 0 W/m² -2,6 °C 0,6 °C 0,0 km/h (0 Bft)
26.03.2019 23:53 0,5 °C 79 % 1029,7 hPa 0,0 mm 0,0 km/h (0 Bft) S-SW 211 ° 0 min 0,000 mm 0,0 UV-I 0 W/m² -2,7 °C 0,5 °C 0,0 km/h (0 Bft)
26.03.2019 23:54 0,6 °C 79 % 1029,8 hPa 0,0 mm 0,0 km/h (0 Bft) S-SW 211 ° 0 min 0,000 mm 0,0 UV-I 0 W/m² -2,6 °C 0,6 °C 0,0 km/h (0 Bft)
26.03.2019 23:55 0,6 °C 79 % 1029,8 hPa 0,0 mm 0,0 km/h (0 Bft) S-SW 211 ° 0 min 0,000 mm 0,0 UV-I 0 W/m² -2,6 °C 0,6 °C 0,0 km/h (0 Bft)
26.03.2019 23:56 0,6 °C 79 % 1029,8 hPa 0,0 mm 0,0 km/h (0 Bft) S-SW 211 ° 0 min 0,000 mm 0,0 UV-I 0 W/m² -2,6 °C 0,6 °C 0,0 km/h (0 Bft)
26.03.2019 23:57 0,5 °C 79 % 1029,9 hPa 0,0 mm 0,0 km/h (0 Bft) S-SW 211 ° 0 min 0,000 mm 0,0 UV-I 0 W/m² -2,7 °C 0,5 °C 0,0 km/h (0 Bft)
26.03.2019 23:58 0,6 °C 80 % 1029,9 hPa 0,0 mm 0,0 km/h (0 Bft) S-SW 211 ° 0 min 0,000 mm 0,0 UV-I 0 W/m² -2,4 °C 0,6 °C 0,0 km/h (0 Bft)
26.03.2019 23:59 0,6 °C 80 % 1029,9 hPa 0,0 mm 0,0 km/h (0 Bft) S-SW 211 ° 0 min 0,000 mm 0,0 UV-I 0 W/m² -2,4 °C 0,6 °C 0,0 km/h (0 Bft)
_ Min-Zeit 01:55 16:53 00:01 - 23:59 - - - - - - 15:59 07:22 23:59
Minimum _ -0,4 °C 55 % 1023,4 hPa - 0,0 km/h (0 Bft) - - - - - - -4,3 °C -2,2 °C 0,0 km/h (0 Bft)
_ Max-Zeit 13:51 05:17 23:59 13:46 15:35 - - 15:29 14:01 13:36 13:38 13:44 15:32 16:16
Maximum _ 4,9 °C 91 % 1029,9 hPa 0,2 mm 13,1 km/h
W-SW (3 Bft)
- - 1 min 0,177 mm 4,5 UV-I 1032 W/m² -0,8 °C 4,7 °C 17,7 km/h
W-NW (3 Bft)
Durchschnitt _ 1,6 °C 76 % 1027,7 hPa #0,2 mm 2,4 km/h (1 Bft) W-NW - #17 min. #1,092 mm 1,7 UV-I 97 W/m² -2,4 °C 1,2 °C 4,2 km/h (1 Bft)